# Wetter Temperatur Luftdruck Luftfeuchtigkeit Sichtweite Windgeschwindigkeit Windrichtung Zeit
1 Clear 14 1028 33 10000 7.2 40 11:18 08.04.2020
2 Clear 14 1029 30 10000 6.7 40 10:54 08.04.2020
3 Clear 14 1029 30 10000 6.7 40 10:36 08.04.2020
4 Clear 13 1029 33 10000 5.7 50 10:18 08.04.2020
5 Clear 13 1029 35 10000 5.1 50 09:42 08.04.2020
6 Clear 9 1029 43 10000 4.6 30 09:19 08.04.2020
7 Clear 9 1029 43 10000 4.6 30 09:19 08.04.2020
8 Clear 9 1029 43 10000 4.6 30 08:58 08.04.2020
9 Clear 9 1029 43 10000 4.6 10 08:40 08.04.2020
10 Clear 8 1029 45 10000 5.7 10 08:21 08.04.2020
11 Clear 8 1029 45 10000 5.7 360 07:43 08.04.2020
12 Clear 7 1029 48 10000 5.1 10 07:22 08.04.2020
13 Clear 5 1029 48 10000 4.6 10 06:32 08.04.2020
14 Clear 4 1029 52 10000 1.5 200 04:59 08.04.2020
15 Clear 5 1030 39 10000 4.6 40 02:51 08.04.2020
16 Clear 6 1030 39 10000 5.7 30 02:22 08.04.2020
17 Clear 6 1030 39 10000 5.7 30 01:56 08.04.2020
18 Clear 6 1030 39 10000 5.1 30 01:28 08.04.2020
19 Clear 6 1031 36 10000 5.1 30 00:47 08.04.2020
20 Clear 6 1031 36 10000 5.1 30 00:26 08.04.2020
21 Clear 6 1031 36 10000 5.1 30 23:57 07.04.2020
22 Clear 6 1031 33 10000 5.1 30 23:37 07.04.2020
23 Clear 6 1031 33 10000 4.6 30 23:18 07.04.2020
24 Clear 6 1031 33 10000 4.6 30 22:55 07.04.2020
25 Clear 6 1031 31 10000 4.6 30 22:37 07.04.2020
26 Clear 7 1031 29 10000 4.6 40 22:18 07.04.2020
27 Clear 7 1031 31 10000 4.6 30 21:42 07.04.2020
28 Clear 7 1031 29 10000 4.6 40 21:21 07.04.2020
29 Clear 8 1031 27 10000 5.1 40 20:59 07.04.2020
30 Clear 9 1031 27 10000 5.1 40 20:40 07.04.2020
31 Clear 8 1031 27 10000 5.7 40 20:21 07.04.2020
32 Clear 9 1031 27 10000 5.7 40 19:57 07.04.2020
33 Clear 9 1031 27 10000 5.7 40 19:38 07.04.2020
34 Clear 10 1031 22 10000 5.7 60 19:19 07.04.2020
35 Clear 11 1031 22 10000 5.7 60 18:58 07.04.2020
36 Clear 11 1031 22 10000 5.7 60 18:58 07.04.2020
37 Clear 11 1031 22 10000 5.7 60 18:39 07.04.2020
38 Clear 12 1031 20 10000 6.7 80 18:20 07.04.2020
39 Clear 13 1031 17 10000 7.2 70 17:46 07.04.2020
40 Clear 14 1031 18 10000 7.2 70 17:24 07.04.2020
41 Clear 14 1031 18 10000 7.2 70 16:54 07.04.2020
42 Clear 14 1031 19 10000 8.7 80 16:36 07.04.2020
43 Clear 14 1031 19 10000 8.7 80 16:18 07.04.2020
44 Clear 14 1032 18 10000 9.8 60 15:42 07.04.2020
45 Clear 14 1032 18 10000 9.3 80 15:23 07.04.2020
46 Clear 14 1032 18 10000 9.8 80 14:42 07.04.2020
47 Clear 15 1032 17 10000 9.8 70 14:23 07.04.2020
48 Clear 15 1032 17 10000 9.8 70 13:57 07.04.2020
49 Clear 15 1032 17 10000 10.3 80 13:39 07.04.2020
50 Clear 15 1032 17 10000 8.7 70 13:18 07.04.2020
51 Clear 14 1032 19 10000 10.3 60 12:56 07.04.2020
52 Clear 14 1032 19 10000 10.3 60 12:37 07.04.2020
53 Clear 14 1033 19 10000 8.7 70 12:18 07.04.2020
54 Clear 14 1033 19 10000 9.3 60 11:44 07.04.2020
55 Clear 14 1033 19 10000 9.3 60 11:26 07.04.2020
56 Clear 14 1033 19 10000 9.3 60 11:26 07.04.2020
57 Clear 13 1033 19 10000 10.3 70 10:59 07.04.2020
58 Clear 13 1033 19 10000 9.3 70 10:38 07.04.2020
59 Clear 13 1033 20 10000 9.3 70 10:19 07.04.2020
60 Clear 12 1033 26 10000 6.7 60 09:45 07.04.2020
61 Clear 10 1033 32 10000 5.7 40 09:19 07.04.2020
62 Clear 10 1033 32 10000 5.7 40 08:56 07.04.2020
63 Clear 9 1033 39 10000 6.7 40 08:38 07.04.2020
64 Clear 8 1032 42 10000 6.2 40 08:18 07.04.2020
65 Clear 7 1032 49 10000 5.7 30 07:40 07.04.2020
66 Clear 7 1032 48 10000 5.7 30 07:21 07.04.2020
67 Clear 6 1032 52 10000 6.2 30 06:51 07.04.2020
68 Clear 5 1032 52 10000 6.2 30 06:23 07.04.2020
69 Clear 4 1032 56 10000 7.2 30 05:40 07.04.2020
70 Clear 4 1032 56 10000 7.2 40 04:56 07.04.2020
71 Clear 4 1031 60 10000 7.2 30 03:31 07.04.2020
72 Clear 4 1032 60 10000 6.7 30 02:59 07.04.2020
73 Clear 5 1032 52 10000 6.7 50 01:50 07.04.2020
74 Clear 5 1032 52 10000 6.7 50 01:26 07.04.2020
75 Clear 5 1031 52 10000 8.2 50 00:29 07.04.2020
76 Clear 5 1031 48 10000 9.3 50 23:56 06.04.2020
77 Clear 5 1031 48 10000 9.3 50 23:36 06.04.2020
78 Clear 6 1031 45 10000 9.3 40 23:18 06.04.2020
79 Clear 6 1032 48 10000 7.7 50 22:40 06.04.2020
80 Clear 6 1032 48 10000 7.7 50 22:40 06.04.2020
81 Clear 6 1032 48 10000 7.2 60 22:21 06.04.2020
82 Clear 6 1032 48 10000 7.2 60 21:57 06.04.2020
83 Clear 6 1032 48 10000 7.7 50 21:39 06.04.2020
84 Clear 6 1031 48 10000 7.7 40 21:19 06.04.2020
85 Clear 6 1031 48 10000 7.7 40 20:55 06.04.2020
86 Clear 6 1032 48 10000 6.2 60 20:37 06.04.2020
87 Clear 6 1032 42 10000 5.1 0 20:18 06.04.2020
88 Clear 7 1031 42 10000 3.1 70 19:41 06.04.2020
89 Clear 8 1031 36 10000 3.6 90 19:23 06.04.2020
90 Clear 8 1031 36 10000 3.6 90 18:59 06.04.2020
91 Clear 8 1032 39 10000 4.6 80 18:39 06.04.2020
92 Clear 9 1032 39 10000 6.2 70 18:21 06.04.2020
93 Clear 10 1032 40 10000 7.7 80 17:42 06.04.2020
94 Clear 10 1031 40 10000 8.2 80 17:20 06.04.2020
95 Clear 10 1031 40 10000 8.2 80 16:50 06.04.2020
96 Clear 10 1031 40 10000 8.2 80 16:31 06.04.2020
97 Clear 10 1031 37 10000 9.8 90 15:59 06.04.2020
98 Clouds 11 1031 32 10000 8.7 70 14:00 06.04.2020
99 Clouds 11 1031 32 10000 8.7 70 14:00 06.04.2020
100 Clouds 12 1031 24 10000 10.8 70 13:40 06.04.2020
101 Clouds 12 1031 24 10000 10.8 70 13:40 06.04.2020
102 Clouds 12 1031 24 10000 10.8 70 13:20 06.04.2020
103 Clouds 12 1031 24 10000 10.8 70 13:20 06.04.2020
104 Clouds 12 1031 24 10000 10.8 70 13:20 06.04.2020
105 Clouds 11 1031 24 10000 11.8 70 12:23 06.04.2020
106 Clouds 11 1031 24 10000 11.8 70 12:23 06.04.2020
107 Clouds 12 1031 30 10000 10.3 60 11:55 06.04.2020
108 Clouds 12 1031 32 10000 11.3 70 11:33 06.04.2020
109 Clouds 12 1031 32 10000 11.3 70 11:33 06.04.2020
110 Clouds 12 1031 32 10000 11.3 70 11:33 06.04.2020
111 Clouds 12 1031 32 10000 11.3 70 11:33 06.04.2020
112 Clouds 12 1031 32 10000 11.3 70 11:33 06.04.2020
113 Clouds 11 1031 35 10000 11.3 80 10:52 06.04.2020
114 Clouds 11 1031 35 10000 11.3 80 10:52 06.04.2020
115 Clouds 11 1031 35 10000 11.3 80 10:52 06.04.2020
116 Clouds 11 1031 35 10000 11.3 80 10:52 06.04.2020
117 Clouds 11 1031 35 10000 11.3 80 10:52 06.04.2020
118 Clouds 11 1031 34 10000 11.3 60 10:22 06.04.2020
119 Clouds 10 1031 34 10000 13.4 70 09:47 06.04.2020
120 Clouds 10 1031 34 10000 13.4 70 09:47 06.04.2020
121 Clouds 10 1031 34 10000 13.4 70 09:47 06.04.2020
122 Clouds 10 1030 40 10000 10.8 60 09:21 06.04.2020
123 Clouds 9 1030 40 10000 9.8 60 08:55 06.04.2020
124 Clouds 9 1029 59 10000 10.3 50 08:30 06.04.2020
125 Clouds 7 1029 59 10000 8.7 50 07:39 06.04.2020
126 Clouds 7 1028 52 10000 7.7 50 06:47 06.04.2020
127 Clouds 7 1028 49 10000 8.7 50 06:24 06.04.2020
128 Clouds 7 1027 49 10000 8.2 50 04:20 06.04.2020
129 Clouds 8 1026 43 10000 7.2 50 02:58 06.04.2020
130 Clouds 8 1026 43 10000 8.2 50 02:36 06.04.2020
131 Clouds 8 1026 37 10000 6.7 50 01:26 06.04.2020
132 Clouds 9 1026 37 10000 6.7 50 00:41 06.04.2020
133 Clouds 9 1026 37 10000 6.7 50 00:23 06.04.2020
134 Clouds 9 1025 32 10000 8.7 50 23:44 05.04.2020
135 Clouds 10 1025 32 10000 8.7 50 23:25 05.04.2020
136 Clouds 10 1025 32 10000 8.7 50 23:25 05.04.2020
137 Clouds 10 1025 32 10000 8.7 50 23:25 05.04.2020
138 Clouds 10 1025 32 10000 8.7 50 23:25 05.04.2020
139 Clouds 10 1025 29 10000 8.2 50 22:55 05.04.2020
140 Clouds 10 1025 29 10000 8.2 50 22:55 05.04.2020
141 Clouds 10 1025 29 10000 8.7 50 22:37 05.04.2020
142 Clouds 10 1025 29 10000 8.7 50 22:18 05.04.2020
143 Clouds 10 1025 29 10000 9.3 40 21:45 05.04.2020
144 Clouds 10 1025 29 10000 9.8 40 21:24 05.04.2020
145 Clouds 10 1025 29 10000 9.8 40 21:24 05.04.2020
146 Clouds 10 1025 29 10000 9.8 40 21:24 05.04.2020
147 Clouds 10 1024 27 10000 10.3 40 20:26 05.04.2020
148 Clouds 10 1024 27 10000 9.3 40 20:00 05.04.2020
149 Clouds 10 1024 27 10000 9.3 40 20:00 05.04.2020
150 Clouds 10 1023 23 10000 9.3 50 19:37 05.04.2020
151 Clouds 11 1023 23 10000 9.3 50 19:19 05.04.2020
152 Clouds 11 1023 23 10000 11.8 40 18:44 05.04.2020
153 Clouds 11 1023 23 10000 11.8 40 18:44 05.04.2020
154 Clouds 11 1023 23 10000 11.8 40 18:44 05.04.2020
155 Clouds 11 1023 23 10000 11.8 40 18:44 05.04.2020
156 Clouds 11 1023 23 10000 11.8 40 18:44 05.04.2020
157 Clouds 12 1022 26 10000 10.3 50 17:52 05.04.2020
158 Clouds 12 1022 26 10000 10.3 50 17:52 05.04.2020
159 Clouds 12 1022 26 10000 10.3 50 17:52 05.04.2020
160 Clouds 12 1022 26 10000 10.3 50 17:52 05.04.2020
161 Clouds 12 1022 26 10000 10.3 50 17:52 05.04.2020
162 Clouds 12 1022 28 10000 12.9 50 17:24 05.04.2020
163 Clouds 13 1022 30 10000 11.8 50 16:47 05.04.2020
164 Clouds 13 1022 33 10000 11.8 60 16:20 05.04.2020
165 Clouds 13 1022 33 10000 11.8 60 16:20 05.04.2020
166 Clouds 14 1021 52 10000 11.8 60 15:49 05.04.2020
167 Clouds 15 1021 36 10000 12.3 70 15:30 05.04.2020
168 Clouds 14 1021 38 10000 11.8 60 14:48 05.04.2020
169 Clouds 14 1021 41 10000 12.3 70 14:24 05.04.2020
170 Clouds 14 1022 44 10000 11.3 60 13:41 05.04.2020
171 Clouds 14 1022 38 10000 10.3 70 12:48 05.04.2020
172 Clouds 14 1022 38 10000 12.3 70 12:48 05.04.2020
173 Clouds 14 1022 38 10000 12.3 70 12:48 05.04.2020
174 Clouds 14 1022 54 10000 10.3 70 11:41 05.04.2020
175 Clouds 14 1022 54 10000 10.3 70 11:20 05.04.2020
176 Clouds 13 1022 54 10000 10.3 70 10:48 05.04.2020
177 Clouds 12 1022 54 10000 10.3 60 10:24 05.04.2020
178 Clouds 12 1022 54 10000 10.3 60 10:24 05.04.2020
179 Clouds 12 1022 54 10000 10.3 60 10:24 05.04.2020
180 Clouds 12 1022 54 10000 10.3 60 10:24 05.04.2020
181 Clouds 12 1022 54 10000 10.3 60 10:24 05.04.2020
182 Clouds 12 1022 43 10000 9.3 60 09:56 05.04.2020
183 Clouds 12 1022 43 10000 9.3 60 09:56 05.04.2020
184 Clouds 11 1022 46 10000 8.7 50 09:31 05.04.2020
185 Clouds 11 1022 46 10000 8.7 50 09:31 05.04.2020
186 Clouds 10 1021 43 10000 8.7 50 08:38 05.04.2020
187 Clouds 9 1021 46 10000 8.2 40 07:24 05.04.2020
188 Clouds 9 1021 46 10000 8.2 40 07:23 05.04.2020
189 Clouds 8 1020 61 10000 7.2 40 04:33 05.04.2020
190 Clouds 8 1021 61 10000 6.2 50 03:29 05.04.2020
191 Clouds 8 1021 61 10000 6.2 50 03:29 05.04.2020
192 Clouds 8 1021 57 10000 5.1 60 02:49 05.04.2020
193 Clouds 7 1021 65 10000 2.6 80 01:46 05.04.2020
194 Clouds 8 1021 68 10000 2.6 110 01:23 05.04.2020
195 Clouds 8 1021 68 10000 3.1 80 00:42 05.04.2020
196 Clouds 8 1021 72 10000 3.1 80 00:21 05.04.2020
197 Clouds 7 1021 65 10000 3.1 60 23:42 04.04.2020
198 Clouds 7 1021 65 10000 3.1 60 23:42 04.04.2020
199 Clouds 7 1021 65 10000 3.1 60 23:22 04.04.2020
200 Clouds 7 1021 65 10000 3.6 60 22:57 04.04.2020
201 Clouds 7 1021 65 10000 4.6 60 22:39 04.04.2020
202 Clouds 7 1021 65 10000 4.6 60 22:20 04.04.2020
203 Clouds 7 1021 65 10000 4.6 80 21:57 04.04.2020
204 Clouds 7 1021 65 10000 4.6 80 21:57 04.04.2020
205 Clouds 7 1021 70 10000 3.6 80 21:39 04.04.2020
206 Clouds 7 1021 70 10000 3.6 80 21:19 04.04.2020
207 Clouds 7 1021 81 10000 4.6 80 20:55 04.04.2020
208 Clouds 7 1021 81 10000 4.1 100 20:37 04.04.2020
209 Clouds 7 1021 81 10000 4.1 100 20:19 04.04.2020
210 Clouds 7 1020 81 10000 3.6 90 19:54 04.04.2020
211 Clouds 8 1020 81 10000 3.1 90 19:36 04.04.2020
212 Clouds 8 1020 81 10000 3.1 90 19:18 04.04.2020
213 Clouds 8 1020 70 10000 4.6 90 18:54 04.04.2020
214 Clouds 8 1020 66 10000 5.1 80 18:36 04.04.2020
215 Clouds 8 1020 66 10000 5.1 80 18:18 04.04.2020
216 Clouds 9 1020 57 10000 5.1 100 17:39 04.04.2020
217 Clouds 9 1020 57 10000 5.1 100 17:19 04.04.2020
218 Clouds 10 1020 61 10000 5.1 110 16:46 04.04.2020
219 Clouds 10 1020 62 10000 4.6 110 16:27 04.04.2020
220 Clouds 11 1019 57 10000 5.1 110 15:59 04.04.2020
221 Clouds 11 1019 66 10000 4.6 120 15:39 04.04.2020
222 Clouds 10 1019 66 10000 4.6 120 15:20 04.04.2020
223 Clouds 10 1019 71 10000 4.6 130 14:56 04.04.2020
224 Clouds 11 1019 66 10000 5.7 110 14:37 04.04.2020
225 Clouds 11 1019 66 10000 5.7 110 14:18 04.04.2020
226 Clouds 11 1020 76 10000 4.6 130 13:42 04.04.2020
227 Clouds 11 1020 76 10000 4.6 130 13:22 04.04.2020
228 Clouds 11 1020 76 10000 5.1 110 12:58 04.04.2020
229 Clouds 11 1020 76 10000 4.6 120 12:40 04.04.2020
230 Clouds 11 1020 76 10000 4.6 120 12:21 04.04.2020
231 Clouds 11 1019 81 10000 4.1 110 11:42 04.04.2020
232 Clouds 11 1019 81 10000 4.1 110 11:23 04.04.2020
233 Clouds 11 1019 81 10000 4.6 120 10:59 04.04.2020
234 Clouds 10 1019 81 10000 4.1 130 10:41 04.04.2020
235 Clouds 10 1019 81 10000 4.1 130 10:23 04.04.2020
236 Clouds 10 1019 81 10000 4.1 100 09:57 04.04.2020
237 Clouds 10 1018 81 10000 3.6 120 09:39 04.04.2020
238 Clouds 9 1018 81 10000 3.6 120 09:21 04.04.2020
239 Clouds 8 1018 87 10000 2.6 120 08:45 04.04.2020
240 Clouds 7 1018 100 7000 2.6 110 08:25 04.04.2020
241 Clouds 7 1018 100 6000 2.6 100 07:59 04.04.2020
242 Mist 6 1018 100 5000 2.9 148 07:40 04.04.2020
243 Mist 5 1018 100 5000 2.9 148 07:21 04.04.2020
244 Clouds 3 1017 100 7000 2.1 60 06:40 04.04.2020
245 Clouds 2 1017 100 8000 1.5 260 05:52 04.04.2020
246 Clouds 2 1017 100 8000 1.5 260 05:52 04.04.2020
247 Clouds 2 1017 100 10000 2.41 170 05:33 04.04.2020
248 Clouds 3 1016 100 10000 2.41 170 04:34 04.04.2020
249 Clouds 2 1016 100 10000 1 0 03:57 04.04.2020
250 Clouds 3 1016 100 10000 1 110 03:37 04.04.2020
251 Clouds 3 1016 100 10000 2.1 30 02:48 04.04.2020
252 Clouds 3 1016 100 10000 1.5 10 02:29 04.04.2020
253 Clouds 3 1016 93 10000 1.5 40 01:46 04.04.2020
254 Clouds 3 1016 93 10000 1.5 40 01:20 04.04.2020
255 Clouds 4 1016 93 10000 1 0 00:43 04.04.2020
256 Clouds 4 1016 93 10000 1 0 00:23 04.04.2020
257 Clear 4 1016 86 10000 2.6 70 23:38 03.04.2020
258 Clear 4 1016 86 10000 2.6 70 23:19 03.04.2020
259 Clear 5 1017 80 10000 2.6 90 22:41 03.04.2020
260 Clear 5 1017 80 10000 2.6 90 22:20 03.04.2020
261 Clear 5 1017 81 10000 3.1 110 21:59 03.04.2020
262 Clear 5 1017 81 10000 3.1 120 21:40 03.04.2020
263 Clear 5 1017 81 10000 3.1 120 21:21 03.04.2020
264 Clear 5 1016 75 10000 3.1 100 20:56 03.04.2020
265 Clear 6 1016 87 10000 4.1 90 20:36 03.04.2020
266 Clear 6 1016 87 10000 4.1 90 20:36 03.04.2020
267 Clear 6 1016 87 10000 4.1 90 20:18 03.04.2020
268 Clear 6 1016 81 10000 5.1 100 19:56 03.04.2020
269 Clear 6 1015 75 10000 5.1 100 19:37 03.04.2020
270 Clear 6 1015 75 10000 5.1 100 19:19 03.04.2020
271 Clear 7 1015 70 10000 5.7 110 18:57 03.04.2020
272 Clear 7 1015 70 10000 6.7 110 18:39 03.04.2020
273 Clear 8 1015 70 10000 6.7 110 18:21 03.04.2020
274 Clear 10 1015 66 10000 7.2 110 17:41 03.04.2020
275 Clear 10 1015 66 10000 7.2 110 17:20 03.04.2020
276 Clear 11 1015 61 10000 6.7 110 16:56 03.04.2020
277 Clear 11 1015 50 10000 6.7 120 16:37 03.04.2020
278 Clear 11 1015 50 10000 6.7 120 16:19 03.04.2020
279 Clear 11 1015 40 10000 6.7 120 15:55 03.04.2020
280 Clear 11 1015 43 10000 7.2 100 15:36 03.04.2020
281 Clear 11 1015 43 10000 7.2 100 15:18 03.04.2020
282 Clear 14 1013 45 0 2.24 112 14:40 03.04.2020
283 Clear 12 1015 43 10000 7.2 110 14:22 03.04.2020
284 Clear 12 1015 43 10000 7.2 110 13:46 03.04.2020
285 Clear 12 1015 43 10000 7.2 110 13:27 03.04.2020
286 Clear 12 1015 46 10000 6.7 100 12:58 03.04.2020
287 Clear 12 1015 46 10000 5.7 110 12:40 03.04.2020
288 Clear 10 1015 37 10000 4.6 120 12:18 03.04.2020
289 Clear 10 1015 37 10000 4.6 120 11:55 03.04.2020
290 Clear 10 1016 32 10000 2.1 180 11:37 03.04.2020
291 Clear 10 1016 32 10000 2.1 180 11:18 03.04.2020
292 Clear 10 1016 31 10000 1.5 0 10:57 03.04.2020
293 Clear 9 1016 49 10000 2.1 0 10:37 03.04.2020
294 Clear 9 1016 49 10000 2.1 0 10:19 03.04.2020
295 Clear 8 1016 49 10000 1.5 0 09:55 03.04.2020
296 Clear 7 1016 49 10000 1.5 0 09:37 03.04.2020
297 Clear 7 1016 61 10000 1.5 0 09:19 03.04.2020
298 Clear 5 1016 61 10000 2.1 270 08:44 03.04.2020
299 Clear 3 1016 74 10000 2.1 260 08:24 03.04.2020
300 Clear 3 1016 80 10000 0.5 0 07:51 03.04.2020
301 Clear 2 1016 61 10000 0.5 0 07:33 03.04.2020
302 Clouds 1 1015 86 10000 1.05 287 06:58 03.04.2020
303 Clouds 0 1015 86 10000 1.5 360 06:28 03.04.2020
304 Clouds -2 1015 86 10000 1.5 260 05:42 03.04.2020
305 Clouds -1 1015 76 10000 1.5 280 04:18 03.04.2020
306 Clouds -1 1015 76 10000 1 0 03:32 03.04.2020
307 Clear 0 1015 74 10000 1.5 320 02:31 03.04.2020
308 Clear 0 1015 69 10000 1.5 270 01:25 03.04.2020
309 Clear 1 1015 69 10000 1 0 00:46 03.04.2020
310 Clear 1 1015 69 10000 1 0 00:27 03.04.2020
311 Clouds 2 1015 64 10000 0.5 0 23:43 02.04.2020
312 Clouds 2 1015 64 10000 0.5 0 23:24 02.04.2020
313 Clouds 3 1015 64 10000 1.5 350 23:00 02.04.2020
314 Clouds 3 1015 60 10000 2.1 50 22:41 02.04.2020
315 Clouds 4 1015 60 10000 2.1 50 22:22 02.04.2020
316 Clouds 4 1015 60 10000 2.6 40 21:57 02.04.2020
317 Clouds 4 1015 60 10000 3.6 60 21:36 02.04.2020
318 Clouds 4 1015 60 10000 3.6 60 21:18 02.04.2020
319 Clear 5 1015 60 10000 3.1 70 20:44 02.04.2020
320 Clear 5 1015 60 10000 3.1 70 20:44 02.04.2020
321 Clear 5 1015 60 10000 4.6 70 20:24 02.04.2020
322 Clear 5 1015 56 10000 3.6 70 19:56 02.04.2020
323 Clear 6 1014 52 10000 4.1 60 19:37 02.04.2020
324 Clear 6 1014 52 10000 4.1 60 19:19 02.04.2020
325 Clear 7 1014 52 10000 5.1 70 18:42 02.04.2020
326 Clear 7 1014 52 10000 5.1 70 18:21 02.04.2020
327 Clear 7 1014 52 10000 5.7 80 17:57 02.04.2020
328 Clear 7 1014 57 10000 5.7 90 17:39 02.04.2020
329 Clear 8 1014 57 10000 5.7 90 17:20 02.04.2020
330 Clouds 8 1014 57 10000 7.2 110 16:57 02.04.2020
331 Clouds 8 1014 49 10000 6.2 120 16:39 02.04.2020
332 Clouds 8 1014 49 10000 6.2 120 16:21 02.04.2020
333 Clouds 8 1014 45 10000 7.7 100 15:55 02.04.2020
334 Clouds 9 1014 43 10000 6.7 90 15:37 02.04.2020
335 Clouds 9 1014 43 10000 6.7 90 15:18 02.04.2020
336 Clouds 10 1014 54 10000 5.7 80 14:40 02.04.2020
337 Clouds 9 1014 54 10000 5.7 80 14:21 02.04.2020
338 Clouds 9 1015 54 10000 5.1 90 13:59 02.04.2020
339 Clouds 8 1015 61 10000 7.2 70 13:39 02.04.2020
340 Clouds 8 1015 61 10000 7.2 70 13:21 02.04.2020
341 Clouds 8 1015 57 10000 7.7 80 12:57 02.04.2020
342 Clouds 8 1015 57 10000 7.7 80 12:57 02.04.2020
343 Clouds 8 1015 54 10000 6.7 70 12:38 02.04.2020
344 Clouds 8 1015 65 10000 6.7 70 12:19 02.04.2020
345 Clouds 8 1015 65 10000 8.2 110 11:57 02.04.2020
346 Clouds 8 1015 65 10000 8.2 110 11:57 02.04.2020
347 Clouds 8 1015 57 10000 6.7 90 11:38 02.04.2020
348 Clouds 8 1015 57 10000 6.7 90 11:19 02.04.2020
349 Clouds 7 1015 65 10000 8.7 80 10:55 02.04.2020
350 Clouds 8 1015 49 10000 8.2 80 10:37 02.04.2020
351 Clouds 8 1015 49 10000 8.2 80 10:37 02.04.2020
352 Clouds 7 1015 52 10000 6.7 60 10:19 02.04.2020
353 Clouds 8 1016 49 10000 7.2 70 09:43 02.04.2020
354 Clouds 8 1016 49 10000 7.2 70 09:25 02.04.2020
355 Clouds 7 1016 64 10000 6.2 60 08:59 02.04.2020
356 Clouds 7 1016 64 10000 7.2 60 08:41 02.04.2020
357 Clouds 6 1016 64 10000 7.2 60 08:22 02.04.2020
358 Clouds 5 1016 65 10000 4.1 50 07:45 02.04.2020
359 Clouds 5 1016 65 10000 4.1 50 07:20 02.04.2020
360 Clouds 4 1015 60 10000 5.7 70 06:58 02.04.2020
361 Clouds 4 1015 60 10000 3.6 50 06:21 02.04.2020
362 Clouds 4 1016 60 10000 2.6 90 05:45 02.04.2020
363 Clouds 4 1016 60 10000 3.6 70 04:33 02.04.2020
364 Clouds 3 1017 60 10000 3.1 40 01:35 02.04.2020
365 Clouds 3 1018 64 10000 3.1 20 00:48 02.04.2020
366 Clouds 3 1018 60 10000 3.6 50 00:26 02.04.2020
367 Clouds 2 1018 64 10000 3.6 40 23:54 01.04.2020
368 Clouds 3 1018 60 10000 3.6 50 23:36 01.04.2020
369 Clouds 3 1018 60 10000 3.6 50 23:18 01.04.2020
370 Clouds 2 1018 64 10000 3.6 50 22:40 01.04.2020
371 Clouds 2 1018 64 10000 3.6 50 22:21 01.04.2020
372 Clouds 2 1018 64 10000 4.1 40 21:55 01.04.2020
373 Clouds 2 1019 59 10000 3.6 40 21:36 01.04.2020
374 Clouds 2 1019 59 10000 3.6 40 21:18 01.04.2020
375 Clouds 2 1019 59 10000 4.6 40 20:54 01.04.2020
376 Clouds 2 1019 59 10000 3.6 40 20:36 01.04.2020
377 Clouds 2 1019 59 10000 3.6 40 20:18 01.04.2020
378 Clouds 3 1018 55 10000 3.6 60 19:41 01.04.2020
379 Clouds 3 1018 55 10000 3.6 60 19:21 01.04.2020
380 Clouds 3 1019 55 10000 5.1 70 18:46 01.04.2020
381 Clouds 3 1019 55 10000 5.1 70 18:46 01.04.2020
382 Clouds 4 1019 52 10000 6.2 70 18:26 01.04.2020
383 Clouds 4 1019 52 10000 6.2 80 17:59 01.04.2020
384 Clouds 4 1019 52 10000 6.2 80 17:59 01.04.2020
385 Clouds 5 1019 52 10000 7.2 80 17:39 01.04.2020
386 -273 0 0 0 0 0 17:20 01.04.2020
387 Clouds 5 1019 52 10000 7.2 70 16:59 01.04.2020
388 Clouds 5 1019 52 10000 8.2 80 16:40 01.04.2020
389 Clouds 5 1019 52 10000 8.2 80 16:22 01.04.2020
390 Clouds 5 1019 56 10000 6.7 70 15:58 01.04.2020
391 Clouds 5 1019 56 10000 6.7 60 15:38 01.04.2020
392 Clouds 5 1019 56 10000 6.7 60 15:20 01.04.2020
393 Clouds 5 1020 56 10000 6.2 60 14:56 01.04.2020
394 Clouds 5 1020 56 10000 7.2 60 14:38 01.04.2020
395 Clouds 5 1020 56 10000 7.2 60 14:19 01.04.2020
396 Clouds 4 1020 70 10000 6.7 40 13:57 01.04.2020
397 Clouds 4 1020 70 10000 6.2 30 13:37 01.04.2020
398 Clouds 4 1020 70 10000 6.2 30 13:18 01.04.2020
399 Rain 4 1020 70 10000 6.7 30 12:54 01.04.2020
400 Clouds 4 1020 69 10000 6.7 30 12:36 01.04.2020
401 Clouds 4 1020 60 10000 6.2 30 12:18 01.04.2020
402 Clouds 4 1020 56 10000 6.2 30 11:40 01.04.2020
403 Clouds 4 1020 56 10000 6.2 30 11:21 01.04.2020
404 Clouds 4 1021 52 10000 5.7 30 10:57 01.04.2020
405 Clouds 4 1021 52 10000 5.7 40 10:37 01.04.2020
406 Clouds 4 1021 52 10000 5.7 40 10:18 01.04.2020
407 Clouds 4 1021 51 10000 7.2 20 09:40 01.04.2020
408 Clouds 4 1021 51 10000 7.2 20 09:22 01.04.2020
409 Clouds 4 1021 48 10000 6.2 20 08:59 01.04.2020
410 Clouds 4 1020 44 10000 6.7 20 08:40 01.04.2020
411 Clouds 4 1020 44 10000 6.7 20 08:40 01.04.2020
412 Clouds 3 1020 44 10000 6.7 20 08:18 01.04.2020
413 Clouds 2 1020 47 10000 5.7 10 07:42 01.04.2020
414 Clouds 2 1020 47 10000 5.7 10 07:20 01.04.2020
415 Clouds 2 1020 47 10000 5.1 10 06:47 01.04.2020
416 Clouds 2 1020 47 10000 4.6 20 06:22 01.04.2020
417 Clouds 3 1020 44 10000 5.1 20 05:53 01.04.2020
418 Clouds 3 1019 44 10000 5.7 10 04:30 01.04.2020
419 Clouds 3 1019 44 10000 3.6 20 03:28 01.04.2020
420 Clouds 3 1020 44 10000 3.1 20 02:49 01.04.2020
421 Clouds 3 1020 44 10000 2.6 20 01:54 01.04.2020
422 Clouds 3 1020 44 10000 2.6 350 01:29 01.04.2020
423 Clouds 3 1020 44 10000 3.1 350 00:58 01.04.2020
424 Clouds 3 1021 44 10000 3.1 350 00:40 01.04.2020
425 Clouds 3 1021 44 10000 3.1 350 00:18 01.04.2020
426 Clouds 3 1021 44 10000 2.6 340 23:41 31.03.2020
427 Clouds 3 1021 44 10000 2.6 340 23:41 31.03.2020
428 Clouds 3 1021 44 10000 2.6 340 23:23 31.03.2020
429 Clouds 3 1021 44 10000 2.6 340 23:23 31.03.2020
430 Clouds 3 1021 44 10000 1.5 10 22:43 31.03.2020
431 Clouds 3 1021 44 10000 1.5 10 22:23 31.03.2020
432 Clouds 3 1021 44 10000 1.5 10 22:23 31.03.2020
433 Clouds 3 1021 44 10000 2.1 50 21:59 31.03.2020
434 Clouds 3 1021 44 10000 2.1 50 21:59 31.03.2020
435 Clouds 3 1021 44 10000 2.6 30 21:41 31.03.2020
436 Clouds 3 1021 44 10000 2.6 30 21:22 31.03.2020
437 Clouds 3 1021 44 10000 2.6 30 20:58 31.03.2020
438 Clouds 3 1021 48 10000 3.1 30 20:38 31.03.2020
439 Clouds 3 1020 51 10000 4.1 360 20:20 31.03.2020
440 Clouds 3 1020 51 10000 4.1 360 19:59 31.03.2020
441 Clouds 3 1019 55 10000 3.1 10 19:40 31.03.2020
442 Clouds 3 1019 55 10000 3.1 10 19:21 31.03.2020
443 Clouds 4 1019 52 10000 4.1 50 18:54 31.03.2020
444 Clouds 4 1019 56 10000 3.6 10 18:36 31.03.2020
445 Clouds 4 1019 56 10000 3.6 10 18:18 31.03.2020
446 Clouds 4 1019 56 10000 4.1 20 17:54 31.03.2020
447 Clouds 4 1019 60 10000 5.1 360 17:36 31.03.2020
448 Clouds 4 1019 60 10000 5.1 360 17:36 31.03.2020
449 Clouds 4 1019 56 10000 5.1 40 17:18 31.03.2020
450 Clouds 5 1019 56 10000 4.1 20 16:37 31.03.2020
451 Clouds 4 1019 56 10000 4.1 20 16:18 31.03.2020
452 Clouds 4 1019 56 10000 6.7 40 15:56 31.03.2020
453 Clouds 4 1019 52 10000 5.7 40 15:37 31.03.2020
454 Clouds 5 1019 52 10000 5.7 40 15:19 31.03.2020
455 Clouds 5 1019 52 10000 6.2 40 14:56 31.03.2020
456 Clouds 5 1019 56 10000 4.6 40 14:38 31.03.2020
457 Clouds 5 1019 56 10000 5.1 50 14:18 31.03.2020
458 Clouds 5 1019 60 10000 5.1 50 13:41 31.03.2020
459 Clouds 4 1019 60 10000 5.1 50 13:19 31.03.2020
460 Clouds 4 1019 60 10000 6.2 30 12:54 31.03.2020
461 Clouds 4 1020 56 10000 4.6 30 12:36 31.03.2020
462 Clouds 4 1020 56 10000 4.6 30 12:18 31.03.2020
463 Clouds 4 1020 56 10000 4.6 30 11:38 31.03.2020
464 Clouds 4 1020 56 10000 4.6 30 11:19 31.03.2020
465 Clouds 4 1020 60 10000 5.1 360 10:56 31.03.2020
466 Clouds 4 1020 60 10000 4.6 20 10:38 31.03.2020
467 Clouds 4 1020 60 10000 4.6 20 10:20 31.03.2020
468 Clouds 3 1020 60 10000 4.6 20 09:45 31.03.2020
469 Clouds 3 1019 64 10000 3.1 0 09:27 31.03.2020
470 Clouds 3 1019 64 10000 2.1 0 08:59 31.03.2020
471 Clouds 3 1018 64 10000 5.1 10 08:41 31.03.2020
472 Clouds 3 1018 64 10000 5.1 10 08:21 31.03.2020
473 Clouds 3 1018 64 10000 7.7 10 07:59 31.03.2020
474 Clouds 3 1018 69 10000 7.7 10 07:41 31.03.2020
475 Clouds 2 1018 69 10000 7.7 10 07:22 31.03.2020
476 Clouds 3 1017 64 10000 7.2 360 06:53 31.03.2020
477 Clouds 3 1017 64 10000 7.2 340 06:35 31.03.2020
478 Clouds 3 1016 69 10000 4.6 350 05:41 31.03.2020
479 Clouds 4 1016 77 10000 2.1 0 04:33 31.03.2020
480 Rain 7 1014 66 10000 3.6 10 02:30 31.03.2020
481 Rain 9 1013 57 10000 5.1 80 01:46 31.03.2020
482 Rain 9 1012 75 10000 2.1 340 00:53 31.03.2020
483 Rain 9 1012 70 10000 1 0 00:25 31.03.2020
484 Clouds 8 1012 81 10000 1.66 192 23:59 30.03.2020
485 Clouds 9 1012 70 10000 1.66 192 23:38 30.03.2020
486 Clouds 9 1012 70 10000 1.66 192 23:19 30.03.2020
487 Clouds 9 1012 70 10000 1 360 22:57 30.03.2020
488 Clouds 10 1012 71 10000 1 0 22:37 30.03.2020
489 Clouds 10 1012 71 10000 1 0 22:37 30.03.2020
490 Clouds 10 1012 71 10000 1 0 22:18 30.03.2020
491 Clouds 9 1011 76 10000 2.1 110 21:55 30.03.2020
492 Clouds 10 1011 76 10000 1.66 192 21:37 30.03.2020
493 Clouds 10 1011 76 10000 2.12 146 21:18 30.03.2020
494 Clouds 10 1011 71 10000 3.1 120 20:42 30.03.2020
495 Clouds 11 1011 71 10000 3.1 120 20:24 30.03.2020
496 Clouds 11 1011 62 10000 3.1 140 19:59 30.03.2020
497 Clouds 12 1010 47 10000 2.6 70 19:40 30.03.2020
498 Clouds 12 1010 47 10000 2.6 70 19:21 30.03.2020
499 Clouds 12 1010 47 10000 3.1 90 18:57 30.03.2020
500 Clouds 13 1010 41 10000 4.6 110 18:38 30.03.2020
501 Clouds 14 1010 41 10000 4.6 110 18:20 30.03.2020
502 Clouds 15 1010 38 10000 4.6 100 17:57 30.03.2020
503 Clouds 15 1009 36 10000 4.6 110 17:38 30.03.2020
504 Clouds 15 1009 36 10000 4.6 110 17:38 30.03.2020
505 Clouds 16 1009 36 10000 4.6 110 17:18 30.03.2020
506 Clouds 16 1009 36 10000 5.1 120 16:55 30.03.2020
507 Clouds 17 1009 36 10000 6.7 120 16:36 30.03.2020
508 Clouds 17 1009 36 10000 6.7 120 16:18 30.03.2020
509 Clouds 18 1009 53 10000 6.2 120 15:42 30.03.2020
510 Clouds 19 1009 53 10000 6.2 120 15:22 30.03.2020
511 Clouds 18 1009 31 10000 5.7 120 14:59 30.03.2020
512 Clouds 19 1009 29 10000 3.6 180 14:39 30.03.2020
513 Clouds 19 1009 29 10000 3.6 180 14:19 30.03.2020
514 Clouds 19 1009 29 10000 3.6 180 14:19 30.03.2020
515 Clouds 20 1009 28 10000 3.6 220 13:59 30.03.2020
516 Clouds 19 1009 32 10000 2.1 0 13:40 30.03.2020
517 Clouds 19 1009 32 10000 2.1 0 13:20 30.03.2020
518 Clouds 18 1009 29 10000 4.1 290 12:54 30.03.2020
519 Clouds 18 1009 29 10000 4.1 290 12:54 30.03.2020
520 Clouds 18 1009 32 10000 3.1 310 12:36 30.03.2020
521 Clouds 18 1009 32 10000 3.1 310 12:18 30.03.2020
522 Clouds 17 1010 36 10000 3.1 280 11:42 30.03.2020
523 Clouds 17 1010 36 10000 3.1 280 11:22 30.03.2020
524 Clouds 16 1010 42 10000 4.6 270 10:57 30.03.2020
525 Clouds 15 1010 44 10000 4.6 290 10:38 30.03.2020
526 Clouds 15 1010 44 10000 4.6 290 10:20 30.03.2020
527 Clouds 15 1009 44 10000 4.6 280 09:41 30.03.2020
528 Clouds 13 1009 44 10000 4.6 280 09:20 30.03.2020
529 Clouds 12 1009 47 10000 4.6 270 08:58 30.03.2020
530 Clouds 12 1009 54 10000 4.6 290 08:38 30.03.2020
531 Clouds 12 1009 54 10000 4.6 290 08:20 30.03.2020
532 Clouds 10 1009 54 10000 2.1 0 07:44 30.03.2020
533 Clouds 10 1008 53 10000 1 0 07:23 30.03.2020
534 Clouds 9 1008 53 10000 3.1 290 06:47 30.03.2020
535 Clouds 8 1008 53 10000 3.1 280 06:25 30.03.2020
536 Clouds 9 1008 50 10000 4.1 280 05:44 30.03.2020
537 Clouds 8 1008 71 10000 3.1 260 04:31 30.03.2020
538 Clouds 8 1008 65 10000 2.6 250 03:57 30.03.2020
539 Clouds 9 1008 57 10000 1.5 280 02:45 30.03.2020
540 Clouds 9 1007 57 10000 2.6 300 01:57 30.03.2020
541 Clouds 9 1007 57 10000 1.5 290 00:59 30.03.2020
542 Clouds 10 1007 53 10000 1.5 260 00:28 30.03.2020
543 Clouds 10 1007 46 10000 1.5 260 23:56 29.03.2020
544 Clouds 10 1007 65 10000 4.6 320 23:37 29.03.2020
545 Clouds 10 1007 65 10000 4.6 320 23:19 29.03.2020
546 Clouds 11 1007 65 10000 4.1 290 22:40 29.03.2020
547 Clouds 11 1007 65 10000 4.1 290 22:20 29.03.2020
548 Clouds 11 1007 65 10000 3.6 290 21:59 29.03.2020
549 Clouds 11 1007 65 10000 4.1 320 21:38 29.03.2020
550 Clouds 11 1007 57 10000 4.1 320 21:20 29.03.2020
551 Clouds 12 1007 46 10000 3.1 290 20:55 29.03.2020
552 Clouds 12 1007 43 10000 3.6 330 20:37 29.03.2020
553 Clouds 12 1007 43 10000 3.6 330 20:19 29.03.2020
554 Clouds 13 1006 41 10000 3.6 340 19:56 29.03.2020
555 Clouds 14 1006 38 10000 2.6 330 19:38 29.03.2020
556 Clouds 14 1006 38 10000 2.6 330 19:38 29.03.2020
557 Clouds 14 1006 38 10000 2.6 330 19:19 29.03.2020
558 Clouds 14 1006 38 10000 3.6 310 18:57 29.03.2020
559 Clouds 15 1005 33 10000 6.2 300 18:38 29.03.2020
560 Clouds 16 1005 33 10000 6.2 300 18:18 29.03.2020
561 Clouds 17 1005 31 10000 6.7 300 17:55 29.03.2020
562 Clouds 18 1005 53 10000 5.7 310 17:36 29.03.2020
563 Clouds 18 1005 53 10000 5.7 310 17:18 29.03.2020
564 Clouds 18 1005 53 10000 4.1 340 16:55 29.03.2020
565 Clouds 18 1005 53 10000 6.2 310 16:36 29.03.2020
566 Clouds 18 1005 53 10000 6.2 310 16:18 29.03.2020
567 Clouds 18 1005 53 10000 5.1 340 15:41 29.03.2020
568 Clouds 18 1005 53 10000 5.1 340 15:22 29.03.2020
569 Clouds 18 1005 25 10000 6.2 320 14:57 29.03.2020
570 Clouds 17 1005 25 10000 6.7 320 14:39 29.03.2020
571 Clouds 17 1005 25 10000 6.7 320 14:19 29.03.2020
572 Clouds 18 1005 27 10000 5.7 320 13:56 29.03.2020
573 Clouds 18 1006 27 10000 7.7 320 13:37 29.03.2020
574 Clouds 18 1006 27 10000 7.7 320 13:19 29.03.2020
575 Clouds 18 1006 31 10000 7.2 310 12:55 29.03.2020
576 Clouds 17 1006 36 10000 7.2 300 12:37 29.03.2020
577 Clouds 15 1006 44 10000 6.7 300 12:18 29.03.2020
578 Clouds 15 1006 44 10000 6.7 300 12:18 29.03.2020
579 Clouds 15 1007 50 10000 5.7 300 11:39 29.03.2020
580 Clouds 15 1007 50 10000 5.7 300 11:21 29.03.2020
581 Clouds 14 1007 47 10000 6.2 300 10:55 29.03.2020
582 Clouds 13 1007 43 10000 6.2 290 10:37 29.03.2020
583 Clouds 13 1007 43 10000 6.2 290 10:18 29.03.2020
584 Clouds 12 1007 43 10000 4.1 300 09:39 29.03.2020
585 Clouds 12 1007 43 10000 4.1 300 09:19 29.03.2020
586 Clouds 11 1007 50 10000 5.1 270 08:52 29.03.2020
587 Clouds 10 1007 66 10000 4.6 270 08:28 29.03.2020
588 Clouds 9 1007 66 10000 3.6 260 07:58 29.03.2020
589 Clouds 9 1007 49 10000 3.6 310 07:39 29.03.2020
590 Clouds 9 1007 49 10000 3.6 310 07:20 29.03.2020
591 Clouds 8 1007 70 10000 3.1 270 04:59 29.03.2020
592 Clouds 8 1007 70 10000 1 0 03:48 29.03.2020
593 Clouds 8 1007 57 10000 2.6 340 03:26 29.03.2020
594 Clouds 8 1007 57 10000 3.6 360 01:50 29.03.2020
595 Clouds 8 1007 57 10000 4.6 360 01:23 29.03.2020
596 Clouds 8 1007 57 10000 5.7 350 00:53 29.03.2020
597 Clouds 8 1008 57 10000 5.1 350 00:30 29.03.2020
598 Clouds 8 1008 65 10000 1.5 260 23:42 28.03.2020
599 Clouds 8 1008 65 10000 1.5 260 23:23 28.03.2020
600 Clouds 8 1008 65 10000 0.5 0 22:57 28.03.2020
601 Clouds 8 1009 65 10000 1.07 304 22:37 28.03.2020
602 Clouds 8 1009 65 10000 1.07 304 22:19 28.03.2020
603 Clouds 8 1009 61 10000 1.07 304 21:42 28.03.2020
604 Clouds 8 1009 61 10000 1.07 304 21:24 28.03.2020
605 Clouds 8 1009 65 10000 1.5 320 20:58 28.03.2020
606 Clouds 8 1009 61 10000 1.07 304 20:39 28.03.2020
607 Clouds 8 1009 61 10000 0.37 70 20:21 28.03.2020
608 Clouds 8 1009 57 10000 0.37 70 19:56 28.03.2020
609 Clouds 8 1009 57 10000 0.37 70 19:56 28.03.2020
610 Clouds 8 1009 61 10000 1.5 10 19:37 28.03.2020
611 Clouds 9 1009 61 10000 1.5 10 19:18 28.03.2020
612 Clouds 10 1009 53 10000 1 60 18:47 28.03.2020
613 Clouds 9 1009 57 10000 3.1 90 18:23 28.03.2020
614 Clouds 11 1009 57 10000 4.1 100 17:58 28.03.2020
615 Clouds 12 1009 50 10000 5.7 110 17:38 28.03.2020
616 Clouds 12 1009 50 10000 5.7 110 17:19 28.03.2020
617 Clouds 14 1009 47 10000 5.7 120 16:42 28.03.2020
618 Clouds 15 1009 47 10000 5.7 120 16:20 28.03.2020
619 Clouds 16 1009 44 10000 4.1 130 15:56 28.03.2020
620 Clouds 16 1009 47 10000 3.6 150 15:37 28.03.2020
621 Clouds 16 1009 47 10000 3.6 150 15:18 28.03.2020
622 Clouds 17 1010 33 10000 3.6 310 14:42 28.03.2020
623 Clouds 17 1010 33 10000 3.6 310 14:22 28.03.2020
624 Clouds 17 1010 54 10000 5.1 320 13:56 28.03.2020
625 Clouds 17 1010 33 10000 4.6 340 13:37 28.03.2020
626 Clouds 17 1010 33 10000 4.6 340 13:18 28.03.2020
627 Clouds 16 1011 56 10000 5.7 320 12:37 28.03.2020
628 Clouds 16 1011 56 10000 5.7 320 12:19 28.03.2020
629 Clouds 16 1011 31 10000 5.7 320 11:42 28.03.2020
630 Clouds 16 1011 31 10000 5.7 320 11:42 28.03.2020
631 Clouds 16 1011 31 10000 5.7 320 11:21 28.03.2020
632 Clouds 16 1011 31 10000 5.7 320 11:21 28.03.2020
633 Clouds 14 1012 59 10000 5.1 310 10:43 28.03.2020
634 Clouds 14 1012 59 10000 5.1 310 10:24 28.03.2020
635 Clouds 14 1012 59 10000 5.7 320 09:59 28.03.2020
636 Clouds 14 1012 37 10000 5.1 300 09:39 28.03.2020
637 Clouds 14 1012 37 10000 5.1 300 09:21 28.03.2020
638 Clouds 11 1012 53 10000 4.1 260 08:42 28.03.2020
639 Clouds 11 1012 53 10000 4.1 260 08:42 28.03.2020
640 Clouds 11 1012 53 10000 4.1 260 08:24 28.03.2020
641 Clouds 8 1012 57 10000 3.6 240 07:52 28.03.2020
642 Clouds 8 1012 61 10000 3.1 260 07:34 28.03.2020
643 Clouds 6 1013 70 10000 4.1 270 06:45 28.03.2020
644 Clouds 5 1012 75 10000 3.6 260 06:20 28.03.2020
645 Clouds 3 1013 66 10000 3.6 250 05:24 28.03.2020
646 Clouds 4 1013 71 10000 3.1 250 04:48 28.03.2020
647 Clouds 4 1012 71 10000 1 0 04:28 28.03.2020
648 Clouds 5 1013 71 10000 1.5 0 02:46 28.03.2020
649 Clouds 5 1013 70 10000 2.1 350 01:46 28.03.2020
650 Clouds 5 1014 75 10000 4.1 340 01:20 28.03.2020
651 Clouds 5 1014 81 10000 2.1 350 00:47 28.03.2020
652 Clouds 5 1014 81 10000 2.1 350 00:20 28.03.2020
653 Clouds 6 1015 81 10000 3.6 70 23:43 27.03.2020
654 Clouds 6 1015 81 10000 3.6 70 23:23 27.03.2020
655 Clouds 7 1015 75 10000 2.1 50 22:56 27.03.2020
656 Clouds 7 1015 75 10000 2.6 50 22:38 27.03.2020
657 Clouds 7 1015 75 10000 2.6 50 22:20 27.03.2020
658 Clouds 7 1015 81 10000 4.1 90 21:55 27.03.2020
659 Clouds 7 1015 75 10000 2.1 150 21:37 27.03.2020
660 Clouds 7 1015 75 10000 2.1 150 21:19 27.03.2020
661 Clouds 7 1015 70 10000 3.6 40 20:42 27.03.2020
662 Clouds 7 1015 70 10000 3.6 40 20:21 27.03.2020
663 Clouds 8 1015 61 10000 2.6 0 19:59 27.03.2020
664 Clouds 8 1014 57 10000 2.1 0 19:40 27.03.2020
665 Clouds 8 1014 57 10000 1 0 19:22 27.03.2020
666 Clouds 9 1014 57 10000 1 0 18:56 27.03.2020
667 Clouds 9 1015 57 10000 2.6 0 18:38 27.03.2020
668 Clouds 9 1015 57 10000 2.6 0 18:19 27.03.2020
669 Clouds 11 1015 50 10000 3.1 70 17:40 27.03.2020
670 Clouds 11 1015 50 10000 3.1 70 17:20 27.03.2020
671 Clouds 12 1015 47 10000 6.7 30 16:45 27.03.2020
672 Clouds 12 1015 47 10000 6.7 30 16:27 27.03.2020
673 Clouds 13 1015 47 10000 5.7 50 15:57 27.03.2020
674 Clouds 14 1015 44 10000 5.1 50 15:39 27.03.2020
675 Clouds 14 1015 44 10000 5.1 50 15:21 27.03.2020
676 Clouds 15 1015 41 10000 5.7 70 14:45 27.03.2020
677 Clouds 15 1015 41 10000 5.7 70 14:24 27.03.2020
678 Clouds 16 1016 38 10000 7.2 70 13:56 27.03.2020
679 Clouds 15 1016 44 10000 5.7 40 13:37 27.03.2020
680 Clouds 15 1016 44 10000 5.7 40 13:18 27.03.2020
681 Clear 15 1016 44 10000 7.7 30 12:43 27.03.2020
682 Clear 15 1016 47 10000 7.2 30 12:19 27.03.2020
683 Clear 15 1016 47 10000 7.2 30 11:57 27.03.2020
684 Clear 15 1017 47 10000 5.1 30 11:39 27.03.2020
685 Clear 14 1017 47 10000 5.1 30 11:21 27.03.2020
686 Clouds 13 1017 54 10000 5.1 40 10:42 27.03.2020
687 Clouds 13 1017 54 10000 5.1 40 10:23 27.03.2020
688 Clouds 13 1017 58 10000 4.6 20 09:59 27.03.2020
689 Clouds 12 1017 62 10000 3.6 40 09:41 27.03.2020
690 Clouds 12 1017 62 10000 3.6 40 09:23 27.03.2020
691 Clouds 11 1018 66 8000 4.1 30 08:59 27.03.2020
692 Clouds 11 1018 66 8000 4.1 30 08:59 27.03.2020
693 Clouds 11 1018 61 7000 5.7 40 08:40 27.03.2020
694 Clouds 10 1018 61 7000 5.7 40 08:22 27.03.2020
695 Clouds 8 1018 70 6000 5.7 40 07:59 27.03.2020
696 Mist 8 1018 75 5000 5.7 20 07:41 27.03.2020
697 Mist 7 1018 75 5000 5.7 20 07:21 27.03.2020
698 Mist 6 1018 75 4300 5.1 20 06:40 27.03.2020
699 Mist 5 1018 75 3600 2.1 360 05:51 27.03.2020
700 Clouds 5 1019 81 5000 2.6 30 03:34 27.03.2020
701 Clouds 6 1019 81 6000 8.2 30 01:55 27.03.2020
702 Clouds 5 1019 87 6000 1.5 0 01:18 27.03.2020
703 Clouds 5 1020 81 6000 1 0 00:41 27.03.2020
704 Clouds 5 1020 81 6000 1 0 00:19 27.03.2020
705 Clouds 6 1020 75 6000 2.1 100 23:37 26.03.2020
706 Clouds 6 1020 70 6000 0.5 0 23:18 26.03.2020
707 Clouds 6 1020 70 6000 0.5 0 22:56 26.03.2020
708 Clouds 5 1021 75 6000 2.1 330 22:36 26.03.2020
709 Clouds 5 1021 75 6000 2.1 330 22:18 26.03.2020
710 Clouds 6 1021 75 6000 1 0 21:40 26.03.2020
711 Clouds 6 1021 75 6000 1 0 21:21 26.03.2020
712 Clouds 6 1021 75 7000 2.6 0 20:58 26.03.2020
713 Clouds 6 1021 75 7000 2.6 20 20:39 26.03.2020
714 Clouds 6 1021 75 7000 2.6 20 20:20 26.03.2020
715 Clouds 6 1021 75 8000 5.7 30 19:57 26.03.2020
716 Clouds 6 1021 75 8000 5.7 30 19:57 26.03.2020
717 Clouds 6 1021 75 8000 6.7 30 19:39 26.03.2020
718 Clouds 6 1021 75 8000 6.7 30 19:20 26.03.2020
719 Clouds 6 1021 75 8000 6.7 30 19:20 26.03.2020
720 Clouds 6 1022 75 8000 7.2 30 18:58 26.03.2020
721 Clouds 6 1022 75 8000 7.2 30 18:58 26.03.2020
722 Clouds 6 1022 81 7000 6.2 30 18:39 26.03.2020
723 Clouds 6 1022 81 7000 6.2 30 18:21 26.03.2020
724 Clouds 7 1021 75 8000 6.7 50 17:43 26.03.2020
725 Clouds 7 1021 75 9000 8.7 50 17:19 26.03.2020
726 Clouds 9 1021 70 9000 8.7 40 16:47 26.03.2020
727 Clouds 8 1021 70 9000 8.7 40 16:28 26.03.2020
728 Clouds 8 1021 70 9000 8.2 60 15:59 26.03.2020
729 Clouds 10 1021 66 10000 7.2 60 15:41 26.03.2020
730 Clouds 10 1021 66 10000 7.2 60 15:22 26.03.2020
731 Clouds 9 1022 70 10000 7.7 70 14:58 26.03.2020
732 Clouds 8 1022 70 10000 5.1 70 14:39 26.03.2020
733 Clouds 9 1022 66 10000 8.2 60 14:19 26.03.2020
734 Clouds 9 1022 66 10000 8.2 60 13:44 26.03.2020
735 Clouds 10 1022 66 10000 7.7 50 13:24 26.03.2020
736 Clouds 11 1022 62 9000 9.3 70 12:57 26.03.2020
737 Clouds 11 1022 62 9000 8.7 70 12:38 26.03.2020
738 Clouds 11 1022 62 9000 8.7 70 12:19 26.03.2020
739 Clouds 12 1022 58 10000 9.3 50 11:45 26.03.2020
740 Clouds 12 1022 58 10000 9.3 50 11:22 26.03.2020
741 Clouds 12 1022 58 10000 9.3 50 10:56 26.03.2020
742 Clouds 11 1023 62 10000 8.2 70 10:37 26.03.2020
743 Clouds 11 1023 62 10000 8.2 70 10:37 26.03.2020
744 Clouds 11 1023 62 10000 8.2 70 10:19 26.03.2020
745 Clouds 11 1023 62 10000 7.7 60 09:43 26.03.2020
746 Clouds 10 1023 62 10000 7.7 60 09:20 26.03.2020
747 Clouds 8 1024 70 10000 7.2 60 08:55 26.03.2020
748 Clouds 8 1024 70 10000 6.2 70 08:37 26.03.2020
749 Clouds 7 1024 70 10000 6.2 70 08:18 26.03.2020
750 Clouds 6 1024 87 9000 4.1 70 07:41 26.03.2020
751 Clouds 6 1024 87 9000 4.1 70 07:20 26.03.2020
752 Rain 6 1023 87 8000 4.1 70 06:48 26.03.2020
753 Clouds 6 1023 81 10000 5.7 80 05:54 26.03.2020
754 Clouds 5 1023 87 10000 4.1 70 03:59 26.03.2020
755 Clouds 5 1023 81 10000 4.6 50 03:36 26.03.2020
756 Clouds 4 1023 86 10000 4.6 50 02:54 26.03.2020
757 Clouds 4 1024 80 10000 5.1 30 01:50 26.03.2020
758 Clouds 4 1025 80 10000 4.6 20 00:45 26.03.2020
759 Clouds 4 1026 80 10000 4.1 20 23:47 25.03.2020
760 Clouds 4 1026 80 10000 4.1 20 23:28 25.03.2020
761 Clouds 4 1027 80 10000 4.1 40 22:58 25.03.2020
762 Clouds 4 1027 80 10000 4.1 40 22:38 25.03.2020
763 Clouds 4 1027 80 10000 4.1 40 22:19 25.03.2020
764 Clouds 3 1027 86 10000 5.1 40 21:55 25.03.2020
765 Clouds 3 1027 86 10000 4.6 40 21:37 25.03.2020
766 Clouds 3 1027 86 10000 4.6 40 21:18 25.03.2020
767 Clouds 3 1027 86 10000 4.6 40 21:18 25.03.2020
768 Clouds 3 1027 86 10000 5.1 50 20:40 25.03.2020
769 Clouds 4 1027 86 10000 5.1 50 20:20 25.03.2020
770 Clouds 4 1028 80 10000 5.7 50 19:58 25.03.2020
771 Clouds 4 1028 80 10000 5.1 60 19:39 25.03.2020
772 Clouds 4 1028 80 10000 5.1 60 19:21 25.03.2020
773 Clouds 4 1028 80 10000 5.7 60 18:54 25.03.2020
774 Clouds 4 1028 75 10000 5.1 50 18:36 25.03.2020
775 Clouds 4 1027 75 10000 5.7 50 18:18 25.03.2020
776 Clouds 4 1027 75 10000 6.2 50 17:41 25.03.2020
777 Clouds 4 1027 75 10000 6.2 50 17:22 25.03.2020
778 Clouds 4 1027 75 10000 7.7 50 16:59 25.03.2020
779 Clouds 4 1026 75 10000 8.2 40 16:39 25.03.2020
780 Clouds 4 1026 75 10000 8.2 40 16:21 25.03.2020
781 Clouds 4 1026 75 10000 8.2 40 16:21 25.03.2020
782 Clouds 4 1026 82 10000 9.8 40 15:43 25.03.2020
783 -273 0 0 0 0 0 15:21 25.03.2020
784 Clouds 4 1027 82 10000 8.2 40 14:59 25.03.2020
785 Clouds 4 1027 80 10000 7.2 40 14:40 25.03.2020
786 Clouds 5 1027 83 10000 7.2 40 14:20 25.03.2020
787 Clouds 5 1027 81 10000 7.7 50 13:45 25.03.2020
788 Clouds 5 1027 81 10000 7.2 30 13:25 25.03.2020
789 Clouds 5 1027 81 10000 7.7 30 12:40 25.03.2020
790 Clouds 5 1027 83 10000 8.7 30 12:21 25.03.2020
791 Clouds 4 1027 83 10000 8.7 30 11:59 25.03.2020
792 Clouds 4 1027 83 10000 7.2 30 11:41 25.03.2020
793 Clouds 4 1027 83 10000 7.2 30 11:21 25.03.2020
794 Clouds 4 1027 83 10000 7.2 30 11:21 25.03.2020
795 Clouds 4 1028 65 10000 7.7 30 10:58 25.03.2020
796 Clouds 4 1028 65 10000 6.7 30 10:40 25.03.2020
797 Clouds 4 1028 65 10000 6.7 30 10:18 25.03.2020
798 Clouds 4 1027 64 10000 7.2 30 09:56 25.03.2020
799 Clouds 4 1027 64 10000 8.2 30 09:38 25.03.2020
800 Clouds 3 1027 64 10000 8.2 30 09:19 25.03.2020
801 Clouds 2 1027 69 10000 4.1 40 08:41 25.03.2020
802 Clouds 2 1027 69 10000 4.1 40 08:23 25.03.2020
803 Clouds 2 1027 69 10000 4.6 30 07:56 25.03.2020
804 Clouds 2 1026 64 10000 4.6 20 07:37 25.03.2020
805 Clouds 2 1026 64 10000 4.6 20 07:18 25.03.2020
806 Clouds 2 1026 64 10000 7.2 20 06:41 25.03.2020
807 Clouds 2 1026 64 10000 7.2 20 06:23 25.03.2020
808 Rain 2 1025 64 10000 6.7 20 05:47 25.03.2020
809 Clouds 2 1025 69 10000 6.2 10 04:42 25.03.2020
810 Rain 3 1025 69 10000 4.1 10 03:57 25.03.2020
811 Clouds 4 1025 65 10000 6.2 40 03:32 25.03.2020
812 Rain 4 1025 65 10000 7.2 40 01:40 25.03.2020
813 -273 0 0 0 0 0 00:50 25.03.2020
814 Clouds 4 1025 60 10000 7.2 40 00:27 25.03.2020
815 Clouds 4 1025 60 10000 6.7 40 23:55 24.03.2020
816 Clouds 4 1025 60 10000 7.7 40 23:28 24.03.2020
817 Clouds 4 1025 60 10000 5.7 40 22:58 24.03.2020
818 Clouds 4 1025 60 10000 5.1 50 22:38 24.03.2020
819 Clouds 4 1025 60 10000 5.1 50 22:38 24.03.2020
820 Clouds 4 1025 60 10000 5.1 50 22:20 24.03.2020
821 Clouds 4 1025 65 10000 5.7 50 21:58 24.03.2020
822 Clouds 4 1025 65 10000 5.1 50 21:40 24.03.2020
823 Clouds 4 1025 65 10000 5.1 50 21:19 24.03.2020
824 Clouds 4 1025 65 10000 4.6 60 20:58 24.03.2020
825 Clouds 4 1025 65 10000 5.1 60 20:39 24.03.2020
826 Clouds 4 1025 65 10000 5.1 60 20:21 24.03.2020
827 Clouds 3 1025 69 10000 6.7 60 19:47 24.03.2020
828 Clouds 3 1025 69 10000 5.1 60 19:22 24.03.2020
829 Clouds 3 1025 69 10000 5.7 70 18:58 24.03.2020
830 Clouds 3 1025 69 10000 6.7 70 18:38 24.03.2020
831 Clouds 3 1025 69 10000 6.7 70 18:20 24.03.2020
832 Clouds 3 1024 69 10000 6.2 60 17:56 24.03.2020
833 Clouds 3 1024 69 10000 4.6 70 17:38 24.03.2020
834 Clouds 3 1024 69 10000 7.2 70 17:19 24.03.2020
835 Clouds 3 1024 69 10000 7.2 70 16:56 24.03.2020
836 Clouds 3 1024 69 10000 6.2 60 16:37 24.03.2020
837 Clouds 3 1024 69 10000 6.2 60 16:19 24.03.2020
838 Clouds 3 1024 69 10000 5.7 70 15:42 24.03.2020
839 Clouds 3 1024 69 10000 5.7 70 15:23 24.03.2020
840 Clouds 3 1024 64 10000 7.7 70 14:44 24.03.2020
841 Clouds 3 1024 64 10000 7.7 70 14:22 24.03.2020
842 Clouds 3 1024 69 10000 8.2 60 13:58 24.03.2020
843 Clouds 3 1023 69 10000 8.7 50 13:40 24.03.2020
844 Clouds 3 1023 69 10000 8.7 50 13:21 24.03.2020
845 Clouds 4 1023 69 10000 8.2 60 12:42 24.03.2020
846 Clouds 4 1023 69 10000 8.2 60 12:24 24.03.2020
847 Clouds 3 1023 69 10000 9.3 50 11:41 24.03.2020
848 Clouds 3 1023 69 10000 9.3 50 11:21 24.03.2020
849 Clouds 3 1023 65 10000 8.7 50 10:59 24.03.2020
850 Rain 3 1023 69 10000 9.3 60 10:40 24.03.2020
851 Rain 3 1023 69 10000 9.3 60 10:18 24.03.2020
852 Rain 3 1023 69 10000 9.3 60 10:18 24.03.2020
853 Clouds 3 1023 69 10000 9.8 60 09:46 24.03.2020
854 Clouds 2 1023 90 10000 8.7 60 09:26 24.03.2020
855 Rain 2 1022 90 10000 7.7 60 08:57 24.03.2020
856 Rain 2 1022 80 10000 7.2 70 08:37 24.03.2020
857 Rain 2 1022 80 10000 7.2 70 08:18 24.03.2020
858 Rain 2 1022 86 10000 8.7 60 07:44 24.03.2020
859 Rain 2 1022 86 10000 8.7 60 07:22 24.03.2020
860 Rain 2 1021 86 10000 7.7 50 06:38 24.03.2020
861 Rain 2 1021 86 10000 7.7 50 06:18 24.03.2020
862 Rain 2 1020 86 10000 9.3 60 04:51 24.03.2020
863 Rain 3 1020 86 10000 7.7 70 03:22 24.03.2020
864 Rain 4 1020 80 10000 8.2 70 02:41 24.03.2020
865 Drizzle 4 1020 86 10000 7.7 70 00:54 24.03.2020
866 Drizzle 4 1020 80 10000 6.7 70 00:27 24.03.2020
867 Rain 4 1020 80 10000 7.2 70 23:56 23.03.2020
868 Rain 4 1020 80 10000 7.2 70 23:37 23.03.2020
869 Rain 4 1020 80 10000 7.7 80 23:19 23.03.2020
870 Rain 4 1021 86 10000 5.7 80 22:44 23.03.2020
871 Rain 4 1021 86 10000 5.7 80 22:23 23.03.2020
872 Rain 3 1021 86 10000 5.7 80 21:55 23.03.2020
873 Rain 3 1021 86 10000 5.1 80 21:37 23.03.2020
874 Rain 3 1021 86 10000 6.2 70 21:18 23.03.2020
875 Drizzle 3 1021 86 10000 6.7 70 20:42 23.03.2020
876 Drizzle 3 1021 86 10000 6.7 70 20:24 23.03.2020
877 Rain 3 1021 86 10000 5.7 80 19:56 23.03.2020
878 Rain 3 1021 86 10000 4.1 80 19:37 23.03.2020
879 Rain 3 1021 86 10000 4.1 80 19:19 23.03.2020
880 Drizzle 3 1021 80 10000 5.1 60 18:44 23.03.2020
881 Drizzle 3 1021 80 10000 5.1 60 18:25 23.03.2020
882 Rain 3 1020 80 10000 7.7 50 17:59 23.03.2020
883 Rain 3 1020 80 10000 7.7 50 17:41 23.03.2020
884 Rain 3 1021 80 10000 8.7 50 17:19 23.03.2020
885 Rain 3 1020 75 10000 10.3 40 16:44 23.03.2020
886 Rain 3 1020 75 10000 10.3 40 16:25 23.03.2020
887 Rain 3 1020 75 10000 10.3 40 16:25 23.03.2020
888 Clouds 3 1020 75 10000 9.8 50 15:58 23.03.2020
889 Clouds 3 1020 75 10000 9.8 50 15:39 23.03.2020
890 Clouds 3 1020 75 10000 9.8 50 15:18 23.03.2020
891 Rain 4 1020 75 10000 9.8 50 14:37 23.03.2020
892 Rain 4 1020 75 10000 9.8 50 14:37 23.03.2020
893 Rain 4 1020 75 10000 9.8 50 14:19 23.03.2020
894 Rain 4 1020 75 10000 7.7 50 13:57 23.03.2020
895 Rain 4 1020 75 10000 8.2 60 13:38 23.03.2020
896 Rain 4 1020 75 10000 8.2 60 13:20 23.03.2020
897 Rain 4 1020 75 10000 6.2 70 12:43 23.03.2020
898 Rain 4 1020 75 10000 6.2 70 12:23 23.03.2020
899 Rain 4 1020 75 10000 7.7 70 11:56 23.03.2020
900 Rain 4 1020 81 10000 6.7 60 11:37 23.03.2020
901 Rain 4 1020 81 10000 6.7 60 11:37 23.03.2020
902 Rain 4 1020 81 10000 6.7 60 11:18 23.03.2020
903 Rain 4 1021 86 10000 5.1 60 10:42 23.03.2020
904 Rain 4 1021 86 10000 5.1 60 10:23 23.03.2020
905 Rain 4 1021 86 10000 5.1 70 09:59 23.03.2020
906 Rain 4 1021 80 10000 5.1 60 09:41 23.03.2020
907 Rain 4 1021 80 10000 5.1 60 09:19 23.03.2020
908 Rain 4 1021 86 10000 6.2 60 08:38 23.03.2020
909 Rain 4 1021 86 10000 6.2 60 08:20 23.03.2020
910 Rain 4 1021 86 10000 5.1 50 07:52 23.03.2020
911 Rain 4 1020 86 10000 6.7 60 07:33 23.03.2020
912 Rain 4 1020 86 10000 6.2 60 06:55 23.03.2020
913 Rain 3 1020 93 10000 3.6 40 06:34 23.03.2020
914 Rain 3 1020 86 10000 3.6 30 05:44 23.03.2020
915 Rain 2 1020 86 10000 3.1 20 03:54 23.03.2020
916 Rain 2 1020 86 10000 3.6 10 02:45 23.03.2020
917 Rain 3 1020 86 10000 3.1 360 01:50 23.03.2020
918 Rain 4 1020 86 10000 2.6 30 00:47 23.03.2020
919 Rain 4 1020 86 10000 2.6 30 00:27 23.03.2020
920 Rain 4 1020 81 10000 3.6 10 23:42 22.03.2020
921 Rain 5 1020 81 10000 3.6 10 23:24 22.03.2020
922 Rain 5 1020 81 10000 3.1 30 22:42 22.03.2020
923 Rain 5 1020 70 10000 2.1 30 22:21 22.03.2020
924 Clouds 6 1020 70 10000 2.1 80 21:41 22.03.2020
925 Clouds 6 1020 70 10000 2.1 80 21:23 22.03.2020
926 Rain 6 1019 70 10000 2.6 100 20:59 22.03.2020
927 Rain 6 1019 70 10000 1 0 20:40 22.03.2020
928 Rain 6 1019 70 10000 1 0 20:22 22.03.2020
929 Rain 6 1019 70 10000 2.1 0 19:56 22.03.2020
930 Clouds 6 1019 70 10000 2.1 0 19:38 22.03.2020
931 Clouds 6 1019 70 10000 2.1 0 19:19 22.03.2020
932 Clouds 7 1019 65 10000 4.1 100 18:57 22.03.2020
933 Clouds 6 1018 70 10000 4.6 20 18:39 22.03.2020
934 Clouds 7 1018 70 10000 4.6 20 18:19 22.03.2020
935 Clouds 7 1018 65 10000 5.1 10 17:56 22.03.2020
936 Clouds 7 1018 65 10000 4.1 10 17:37 22.03.2020
937 Clouds 7 1018 65 10000 4.1 10 17:19 22.03.2020
938 Clouds 7 1018 70 10000 2.1 0 16:55 22.03.2020
939 Clouds 8 1017 66 10000 3.1 20 16:37 22.03.2020
940 Clouds 8 1017 66 10000 3.1 20 16:19 22.03.2020
941 Clouds 8 1017 66 10000 7.2 20 15:39 22.03.2020
942 Clouds 9 1017 66 10000 7.2 20 15:19 22.03.2020
943 Clouds 9 1016 66 10000 7.2 10 14:46 22.03.2020
944 Clouds 10 1016 61 10000 6.2 10 14:18 22.03.2020
945 Clouds 10 1016 61 10000 6.2 20 13:42 22.03.2020
946 Clouds 10 1016 61 10000 6.2 20 13:20 22.03.2020
947 Clouds 10 1016 66 10000 5.1 10 12:47 22.03.2020
948 Clouds 12 1016 61 10000 5.7 360 12:23 22.03.2020
949 Clouds 12 1016 61 10000 5.7 360 12:23 22.03.2020
950 Clouds 12 1016 61 10000 5.7 360 12:23 22.03.2020
951 Clouds 13 1016 62 10000 5.1 360 11:59 22.03.2020
952 Clouds 12 1015 66 10000 4.6 350 11:41 22.03.2020
953 Clouds 12 1015 66 10000 4.6 350 11:23 22.03.2020
954 Clouds 10 1015 66 10000 4.1 340 10:57 22.03.2020
955 Clouds 10 1015 66 10000 4.1 330 10:39 22.03.2020
956 Clouds 8 1015 66 10000 4.1 330 10:20 22.03.2020
957 Clouds 10 1015 70 10000 2.1 0 09:42 22.03.2020
958 Clouds 9 1015 70 10000 2.1 0 09:22 22.03.2020
959 Clouds 7 1014 75 10000 4.1 20 08:44 22.03.2020
960 Clouds 7 1014 75 10000 4.1 20 08:24 22.03.2020
961 Clouds 7 1014 81 10000 4.6 360 07:52 22.03.2020
962 Clouds 6 1014 75 10000 5.7 350 07:26 22.03.2020
963 Clouds 5 1013 86 10000 4.6 340 06:35 22.03.2020
964 Clouds 5 1013 81 10000 3.6 0 05:35 22.03.2020
965 Rain 6 1011 87 10000 1 0 03:30 22.03.2020
966 Clear 6 1012 100 9000 1 70 01:28 22.03.2020
967 Clear 6 1012 100 10000 2.1 80 00:48 22.03.2020
968 Clear 6 1012 93 10000 1.5 70 00:28 22.03.2020
969 Clear 6 1012 93 10000 3.1 100 23:43 21.03.2020
970 Clouds 6 1012 93 10000 3.1 100 23:19 21.03.2020
971 Clouds 6 1013 93 10000 3.1 90 22:55 21.03.2020
972 Clouds 6 1013 87 10000 4.1 100 22:37 21.03.2020
973 Clouds 6 1013 87 10000 4.1 100 22:18 21.03.2020
974 Clouds 7 1013 61 10000 3.6 110 21:42 21.03.2020
975 Clouds 7 1013 61 10000 3.6 110 21:23 21.03.2020
976 Clouds 7 1013 81 10000 4.1 100 20:59 21.03.2020
977 Clouds 8 1013 52 10000 3.6 110 20:41 21.03.2020
978 Clouds 8 1013 52 10000 3.6 110 20:19 21.03.2020
979 Clouds 9 1014 57 10000 3.6 100 19:44 21.03.2020
980 Clouds 9 1014 73 10000 4.6 100 19:25 21.03.2020
981 Clouds 9 1014 57 10000 5.1 100 18:57 21.03.2020
982 Clouds 9 1014 61 10000 5.1 90 18:38 21.03.2020
983 Clouds 9 1014 61 10000 5.1 90 18:20 21.03.2020
984 Clouds 9 1014 61 10000 5.1 90 18:20 21.03.2020
985 Clouds 10 1013 57 10000 5.7 90 17:55 21.03.2020
986 Clouds 10 1013 57 10000 6.2 100 17:37 21.03.2020
987 Clouds 11 1013 50 10000 6.7 100 17:18 21.03.2020
988 Clouds 12 1013 54 10000 7.7 100 16:41 21.03.2020
989 Clouds 13 1013 54 10000 7.7 100 16:19 21.03.2020
990 Clouds 14 1014 50 10000 8.2 100 15:55 21.03.2020
991 Clouds 14 1014 54 10000 8.7 100 15:37 21.03.2020
992 Clouds 15 1014 54 10000 8.7 100 15:18 21.03.2020
993 Clouds 15 1014 54 10000 8.2 100 14:54 21.03.2020
994 Clouds 15 1014 58 10000 7.7 100 14:36 21.03.2020
995 Clouds 15 1014 58 10000 7.7 100 14:18 21.03.2020
996 Clouds 16 1015 58 10000 7.7 100 13:56 21.03.2020
997 Clouds 16 1015 54 10000 7.2 100 13:38 21.03.2020
998 Clouds 16 1015 54 10000 7.2 100 13:19 21.03.2020
999 Clouds 17 1016 51 10000 6.7 110 12:39 21.03.2020
1000 Clouds 17 1016 51 10000 6.7 110 12:19 21.03.2020
1001 Clouds 17 1016 47 10000 6.7 110 11:58 21.03.2020
1002 Clouds 17 1016 51 10000 6.2 100 11:39 21.03.2020
1003 Clouds 15 1016 51 10000 6.2 100 11:19 21.03.2020
1004 Clouds 15 1017 51 10000 5.1 110 10:57 21.03.2020
1005 Clouds 15 1017 51 10000 3.6 130 10:39 21.03.2020
1006 Clouds 15 1017 51 10000 3.6 130 10:20 21.03.2020
1007 Clouds 14 1017 50 10000 2.6 130 09:57 21.03.2020
1008 Clouds 14 1018 50 10000 1 0 09:37 21.03.2020
1009 Clouds 14 1018 50 10000 1 0 09:37 21.03.2020
1010 Clouds 14 1018 50 10000 1 0 09:19 21.03.2020
1011 Clouds 14 1018 50 10000 1 0 09:19 21.03.2020
1012 Clouds 13 1018 66 8000 3.85 164 08:45 21.03.2020
1013 Clouds 10 1018 66 8000 3.92 164 08:25 21.03.2020
1014 Clouds 8 1018 70 7000 0.5 0 07:52 21.03.2020
1015 Mist 8 1018 93 5000 1 280 07:32 21.03.2020
1016 Clouds 6 1018 86 6000 1.5 310 06:48 21.03.2020
1017 Clouds 5 1018 86 6000 1.5 20 06:28 21.03.2020
1018 Mist 3 1018 93 4600 1.5 120 05:48 21.03.2020
1019 Clear 4 1018 86 9000 1 290 05:18 21.03.2020
1020 Clear 4 1018 86 10000 0.5 0 03:26 21.03.2020
1021 Clear 5 1019 75 10000 0.54 289 02:34 21.03.2020
1022 Clear 5 1019 75 10000 2.37 311 01:38 21.03.2020
1023 Clear 5 1019 75 10000 2.37 311 01:18 21.03.2020
1024 Clear 5 1020 80 10000 2.66 309 00:38 21.03.2020
1025 Clear 5 1020 75 10000 2.66 309 23:58 20.03.2020
1026 Clear 6 1020 70 10000 1 0 23:40 20.03.2020
1027 Clear 6 1020 70 10000 1 0 23:18 20.03.2020
1028 Clear 6 1020 70 10000 1.65 358 22:41 20.03.2020
1029 Clear 6 1020 70 10000 1.65 358 22:22 20.03.2020
1030 Clear 7 1020 70 10000 1.65 358 21:56 20.03.2020
1031 Clear 7 1020 65 10000 1 0 21:38 20.03.2020
1032 Clear 8 1020 61 10000 0.5 0 21:18 20.03.2020
1033 Clear 8 1020 61 10000 0.5 0 20:57 20.03.2020
1034 Clear 9 1020 61 10000 1.65 358 20:38 20.03.2020
1035 Clear 9 1020 61 10000 3.31 49 20:18 20.03.2020
1036 Clouds 10 1020 57 10000 0.5 0 19:45 20.03.2020
1037 Clouds 11 1020 50 10000 3.11 60 19:19 20.03.2020
1038 Clouds 11 1020 50 10000 3.11 60 19:19 20.03.2020
1039 Clouds 11 1020 53 10000 3.11 60 18:55 20.03.2020
1040 Clouds 11 1020 53 9000 3.11 60 18:37 20.03.2020
1041 Clouds 11 1020 53 9000 3.11 60 18:19 20.03.2020
1042 Clouds 11 1020 53 9000 3.11 60 18:19 20.03.2020
1043 Clouds 13 1020 50 10000 1.5 0 17:39 20.03.2020
1044 Clouds 13 1020 50 10000 1.5 0 17:21 20.03.2020
1045 Clouds 14 1020 47 10000 2.6 120 16:58 20.03.2020
1046 Clouds 14 1020 47 10000 2.6 120 16:58 20.03.2020
1047 Clouds 14 1019 44 10000 4.1 130 16:40 20.03.2020
1048 Clouds 15 1019 44 10000 4.1 130 16:18 20.03.2020
1049 Clouds 15 1019 41 10000 6.7 110 15:42 20.03.2020
1050 Clouds 16 1019 41 10000 6.7 110 15:22 20.03.2020
1051 Clouds 17 1019 41 10000 5.7 130 14:56 20.03.2020
1052 Clouds 17 1019 39 10000 3.6 120 14:37 20.03.2020
1053 Clouds 17 1019 39 10000 3.6 120 14:18 20.03.2020
1054 Clouds 19 1019 32 10000 5.1 360 13:43 20.03.2020
1055 Clouds 19 1019 32 10000 5.1 360 13:19 20.03.2020
1056 Clouds 19 1019 34 10000 7.2 350 12:40 20.03.2020
1057 Clouds 19 1019 34 10000 7.2 350 12:22 20.03.2020
1058 Clouds 18 1020 37 10000 6.2 10 11:57 20.03.2020
1059 Clouds 18 1020 37 10000 3.6 10 11:38 20.03.2020
1060 Clouds 17 1020 39 10000 2.6 280 11:19 20.03.2020
1061 Clouds 17 1021 36 10000 2.6 210 10:41 20.03.2020
1062 Clouds 17 1021 36 10000 2.6 210 10:21 20.03.2020
1063 Clouds 11 1021 50 10000 2.6 250 09:56 20.03.2020
1064 Clouds 11 1021 50 10000 2.6 250 09:56 20.03.2020
1065 Clouds 10 1021 70 10000 2.1 250 09:37 20.03.2020
1066 Clouds 10 1021 70 10000 2.1 250 09:18 20.03.2020
1067 Clouds 9 1021 52 10000 2.1 250 08:42 20.03.2020
1068 Clouds 9 1021 52 10000 2.1 250 08:22 20.03.2020
1069 Clouds 8 1021 52 10000 1.5 250 07:49 20.03.2020
1070 Clouds 7 1021 56 10000 1 0 07:30 20.03.2020
1071 Clouds 6 1021 60 10000 2.94 274 06:58 20.03.2020
1072 Clouds 5 1021 59 10000 0.5 180 06:40 20.03.2020
1073 Clouds 3 1021 59 10000 2.51 267 04:51 20.03.2020
1074 Clouds 2 1021 64 10000 2.51 267 03:21 20.03.2020
1075 Clear 2 1021 64 10000 1 330 01:57 20.03.2020
1076 Clouds 2 1022 59 10000 0.5 0 00:51 20.03.2020
1077 Clouds 2 1022 59 10000 1 280 00:29 20.03.2020
1078 Clouds 2 1022 59 10000 2.6 360 23:47 19.03.2020
1079 Clouds 2 1022 59 10000 2.6 360 23:28 19.03.2020
1080 Clear 2 1022 59 10000 1.5 330 22:56 19.03.2020
1081 Clear 2 1022 59 10000 1.5 330 22:56 19.03.2020
1082 Clear 2 1022 59 10000 2.1 320 22:38 19.03.2020
1083 Clear 2 1022 59 10000 2.1 320 22:19 19.03.2020
1084 Clear 2 1022 69 10000 2.1 10 21:42 19.03.2020
1085 Clear 2 1022 69 10000 2.1 10 21:20 19.03.2020
1086 Clear 2 1023 64 10000 2.6 20 20:59 19.03.2020
1087 Clear 2 1023 64 10000 2.6 10 20:41 19.03.2020
1088 Clear 3 1023 64 10000 2.6 10 20:22 19.03.2020
1089 Clear 3 1023 64 10000 2.6 20 19:55 19.03.2020
1090 Clear 4 1023 56 10000 2.1 10 19:37 19.03.2020
1091 Clear 4 1023 56 10000 2.1 10 19:19 19.03.2020
1092 Clear 6 1023 45 10000 1 0 18:42 19.03.2020
1093 Clear 6 1023 45 10000 1 0 18:22 19.03.2020
1094 Clear 6 1022 45 10000 2.1 140 17:58 19.03.2020
1095 Clear 7 1022 45 10000 2.1 140 17:40 19.03.2020
1096 Clear 9 1022 39 10000 5.1 130 17:19 19.03.2020
1097 Clear 10 1022 39 10000 5.7 130 16:43 19.03.2020
1098 Clear 10 1022 39 10000 5.7 130 16:23 19.03.2020
1099 Clear 11 1022 37 10000 6.7 120 15:45 19.03.2020
1100 Clear 11 1022 37 10000 7.7 120 15:27 19.03.2020
1101 Clear 12 1023 37 10000 7.2 120 14:55 19.03.2020
1102 Clear 12 1023 40 10000 6.7 120 14:37 19.03.2020
1103 Clear 13 1023 40 10000 6.7 120 14:19 19.03.2020
1104 Clear 15 1023 33 10000 3.6 360 13:39 19.03.2020
1105 Clear 14 1023 33 10000 3.6 360 13:19 19.03.2020
1106 Clear 14 1023 33 10000 3.1 0 12:55 19.03.2020
1107 Clear 14 1024 35 10000 6.2 320 12:37 19.03.2020
1108 Clear 13 1024 32 10000 4.6 340 12:18 19.03.2020
1109 Clear 13 1025 32 10000 5.1 330 11:41 19.03.2020
1110 Clear 13 1025 32 10000 5.1 330 11:23 19.03.2020
1111 Clear 12 1025 32 10000 4.1 340 10:56 19.03.2020
1112 Clear 12 1026 32 10000 5.1 310 10:36 19.03.2020
1113 Clear 12 1026 32 10000 5.1 310 10:18 19.03.2020
1114 Clear 10 1026 32 10000 5.1 340 09:42 19.03.2020
1115 Clear 11 1026 32 10000 5.1 340 09:24 19.03.2020
1116 Clear 10 1027 37 10000 5.1 330 08:48 19.03.2020
1117 Clear 8 1027 49 10000 4.1 320 08:23 19.03.2020
1118 Clear 5 1027 48 10000 2.1 300 07:57 19.03.2020
1119 Clear 5 1027 56 10000 1.5 310 07:37 19.03.2020
1120 Clear 4 1027 56 10000 1.5 310 07:18 19.03.2020
1121 Clear 3 1027 59 10000 2.6 310 06:23 19.03.2020
1122 Clear 0 1027 64 10000 2.1 310 05:24 19.03.2020
1123 Clear 0 1027 64 10000 2.6 310 04:46 19.03.2020
1124 Clear 0 1027 64 10000 3.6 320 03:44 19.03.2020
1125 Clouds 0 1028 55 10000 2.6 290 01:45 19.03.2020
1126 Clouds 0 1028 50 10000 3.6 340 00:39 19.03.2020
1127 Clouds 0 1028 50 10000 3.6 340 00:18 19.03.2020
1128 Clouds 0 1028 59 10000 2.1 300 23:41 18.03.2020
1129 Clouds 0 1028 59 10000 2.1 300 23:21 18.03.2020
1130 Clouds -1 1028 59 10000 7.11 17 22:42 18.03.2020
1131 Clouds 0 1028 59 10000 7.11 17 22:22 18.03.2020
1132 Clouds 0 1029 69 10000 1.5 170 21:55 18.03.2020
1133 Clouds 0 1029 74 10000 7.11 17 21:37 18.03.2020
1134 Clouds 1 1029 74 10000 7.11 17 21:19 18.03.2020
1135 Clouds 2 1029 64 10000 0.5 0 20:54 18.03.2020
1136 Clouds 2 1029 64 10000 4.1 30 20:36 18.03.2020
1137 Clouds 3 1029 64 10000 4.1 30 20:18 18.03.2020
1138 Clouds 4 1029 56 10000 4.6 40 19:40 18.03.2020
1139 Clouds 4 1029 56 10000 4.6 40 19:21 18.03.2020
1140 Clouds 4 1029 48 10000 4.1 50 18:56 18.03.2020
1141 Clouds 4 1029 45 10000 3.6 40 18:38 18.03.2020
1142 Clouds 4 1029 45 10000 3.6 40 18:19 18.03.2020
1143 Clouds 6 1028 45 10000 3.6 50 17:54 18.03.2020
1144 Clouds 6 1028 42 10000 4.1 40 17:36 18.03.2020
1145 Clouds 7 1028 39 10000 5.7 30 17:18 18.03.2020
1146 Clouds 8 1028 37 10000 4.6 40 16:42 18.03.2020
1147 Clouds 8 1028 37 10000 4.6 40 16:20 18.03.2020
1148 Clouds 8 1028 49 10000 6.7 150 15:56 18.03.2020
1149 Clouds 8 1028 65 10000 6.7 130 15:37 18.03.2020
1150 Clouds 9 1028 65 10000 6.7 130 15:19 18.03.2020
1151 Clouds 9 1028 65 10000 7.2 140 14:42 18.03.2020
1152 Clouds 9 1028 65 10000 7.2 140 14:21 18.03.2020
1153 Clouds 10 1028 61 10000 5.67 59 13:41 18.03.2020
1154 Clouds 10 1028 61 10000 5.67 59 13:19 18.03.2020
1155 Clouds 9 1028 57 10000 7.2 140 12:44 18.03.2020
1156 Clouds 9 1028 62 10000 6.7 140 12:21 18.03.2020
1157 Clouds 9 1028 62 10000 6.7 140 11:59 18.03.2020
1158 Clouds 9 1028 62 10000 5.7 130 11:37 18.03.2020
1159 Clouds 9 1028 62 10000 5.7 130 11:37 18.03.2020
1160 Clouds 9 1028 57 10000 5.7 140 11:18 18.03.2020
1161 Clouds 9 1028 57 10000 5.7 140 10:56 18.03.2020
1162 Clouds 9 1028 57 10000 5.7 140 10:56 18.03.2020
1163 Clouds 9 1028 61 10000 5.7 140 10:36 18.03.2020
1164 Clouds 9 1028 61 10000 5.7 140 10:18 18.03.2020
1165 Clouds 8 1029 61 10000 4.6 130 09:42 18.03.2020
1166 Clouds 8 1029 61 10000 4.6 130 09:23 18.03.2020
1167 Clouds 6 1029 75 10000 3.1 130 08:54 18.03.2020
1168 Clouds 7 1028 81 10000 2.1 120 08:36 18.03.2020
1169 Clouds 6 1028 81 10000 2.1 120 08:18 18.03.2020
1170 Clouds 5 1028 86 10000 2.29 113 07:39 18.03.2020
1171 Clouds 5 1028 86 10000 2.29 113 07:21 18.03.2020
1172 Clouds 2 1027 60 10000 0.5 0 06:42 18.03.2020
1173 Clouds 1 1027 86 10000 0.5 0 05:43 18.03.2020
1174 Clouds 1 1027 86 10000 0.5 0 04:58 18.03.2020
1175 Clouds 1 1026 86 10000 1 90 03:21 18.03.2020
1176 Clouds 1 1025 86 10000 2.1 50 02:37 18.03.2020
1177 Clouds 1 1025 86 10000 2.1 50 02:37 18.03.2020
1178 Clouds 1 1025 86 10000 2.1 50 02:37 18.03.2020
1179 Clouds 2 1026 62 10000 2.1 60 01:45 18.03.2020
1180 Clouds 1 1026 62 10000 2.6 100 01:19 18.03.2020
1181 Clear 1 1026 64 10000 2.6 100 00:22 18.03.2020
1182 Clear 1 1026 86 10000 1.5 60 23:43 17.03.2020
1183 Clear 1 1027 86 10000 1.5 50 23:22 17.03.2020
1184 Clear 2 1027 60 10000 1 70 22:47 17.03.2020
1185 Clear 2 1027 60 10000 1 70 22:28 17.03.2020
1186 Clear 2 1027 61 10000 1.5 80 21:57 17.03.2020
1187 Clear 2 1027 74 10000 3.1 120 21:36 17.03.2020
1188 Clear 2 1027 74 10000 3.1 120 21:18 17.03.2020
1189 Clear 3 1027 60 10000 3.1 130 20:38 17.03.2020
1190 Clear 3 1027 57 10000 3.1 130 20:19 17.03.2020
1191 Clear 3 1026 57 10000 3.1 120 19:42 17.03.2020
1192 Clear 3 1026 57 10000 3.1 120 19:21 17.03.2020
1193 Clear 3 1026 57 10000 3.6 120 18:59 17.03.2020
1194 Clear 4 1026 57 10000 3.6 120 18:40 17.03.2020
1195 Clear 4 1026 57 10000 3.6 120 18:22 17.03.2020
1196 Clear 4 1026 57 10000 4.6 110 17:56 17.03.2020
1197 Clear 5 1026 57 10000 5.7 120 17:38 17.03.2020
1198 Clear 6 1026 56 10000 6.2 110 17:19 17.03.2020
1199 Clear 7 1027 56 10000 7.2 110 16:42 17.03.2020
1200 Clear 7 1027 56 10000 7.2 110 16:19 17.03.2020
1201 Clear 8 1026 56 10000 7.2 100 15:47 17.03.2020
1202 Clear 9 1027 45 10000 7.2 100 15:23 17.03.2020
1203 Clear 9 1027 42 10000 6.7 100 14:47 17.03.2020
1204 Clear 9 1027 45 10000 6.7 100 14:27 17.03.2020
1205 Clouds 9 1027 45 10000 6.7 110 13:58 17.03.2020
1206 Clouds 9 1028 45 10000 5.7 110 13:40 17.03.2020
1207 Clouds 9 1028 45 10000 5.7 110 13:22 17.03.2020
1208 Clouds 10 1029 49 10000 6.2 100 12:47 17.03.2020
1209 Clouds 9 1029 49 10000 6.2 100 12:25 17.03.2020
1210 Clouds 10 1030 42 10000 4.1 130 11:56 17.03.2020
1211 Clouds 10 1032 49 10000 6.2 30 11:38 17.03.2020
1212 Clouds 8 1032 49 10000 6.2 30 11:20 17.03.2020
1213 Clouds 7 1030 31 10000 3.1 240 10:54 17.03.2020
1214 Clear 7 1031 39 10000 1.5 0 10:36 17.03.2020
1215 Clouds 7 1031 42 10000 1.5 0 10:18 17.03.2020
1216 Clear 6 1031 48 10000 1.5 200 09:44 17.03.2020
1217 Clouds 5 1031 48 10000 1.5 200 09:20 17.03.2020
1218 Clouds 4 1031 60 10000 1 0 08:51 17.03.2020
1219 Clear 2 1031 69 10000 1.5 260 08:24 17.03.2020
1220 Clear 2 1032 74 10000 0.5 0 07:58 17.03.2020
1221 Clear 2 1032 80 10000 2.1 260 07:40 17.03.2020
1222 Clear 2 1032 80 10000 2.1 260 07:19 17.03.2020
1223 Clear -1 1032 86 10000 1.74 291 06:41 17.03.2020
1224 Clear -2 1032 100 10000 1.74 291 06:19 17.03.2020
1225 Clear -3 1032 86 10000 2.93 306 04:51 17.03.2020
1226 Clear -3 1032 86 10000 2.93 306 03:19 17.03.2020
1227 Clear -3 1033 86 10000 1 0 01:49 17.03.2020
1228 Clear -2 1033 86 10000 1 0 01:28 17.03.2020
1229 Clear -3 1033 79 10000 0.5 0 00:50 17.03.2020
1230 Clear -2 1033 79 10000 1 330 23:51 16.03.2020
1231 Clear -2 1033 80 10000 2.1 350 23:33 16.03.2020
1232 Clear -2 1033 80 10000 2.1 350 22:45 16.03.2020
1233 Clear -2 1033 80 10000 2.1 350 22:26 16.03.2020
1234 Clear -2 1034 79 10000 1 0 21:59 16.03.2020
1235 Clear -2 1034 74 10000 1.5 360 21:41 16.03.2020
1236 Clear -1 1034 74 10000 1.5 360 21:23 16.03.2020
1237 Clear -1 1034 80 10000 2.6 260 20:57 16.03.2020
1238 Clear 0 1034 64 10000 2.6 20 20:38 16.03.2020
1239 Clear 0 1034 64 10000 2.6 20 20:19 16.03.2020
1240 Clear 0 1034 64 10000 2.6 30 19:42 16.03.2020
1241 Clear 1 1034 64 10000 2.6 30 19:22 16.03.2020
1242 Clear 1 1034 59 10000 1.5 10 18:56 16.03.2020
1243 Clear 2 1033 55 10000 3.1 110 18:37 16.03.2020
1244 Clear 3 1033 55 10000 3.1 120 18:18 16.03.2020
1245 Clear 4 1033 52 10000 4.1 120 17:42 16.03.2020
1246 Clear 4 1033 52 10000 4.1 120 17:22 16.03.2020
1247 Clear 6 1033 48 10000 5.1 140 16:46 16.03.2020
1248 Clear 6 1033 48 10000 5.1 140 16:28 16.03.2020
1249 Clear 7 1033 48 10000 5.7 140 15:56 16.03.2020
1250 Clear 7 1033 45 10000 5.7 130 15:37 16.03.2020
1251 Clear 7 1033 45 10000 5.7 130 15:18 16.03.2020
1252 Clear 8 1033 31 10000 3.1 360 14:42 16.03.2020
1253 Clear 8 1033 31 10000 3.1 360 14:19 16.03.2020
1254 Clear 8 1033 31 10000 3.6 10 13:42 16.03.2020
1255 Clear 8 1033 31 10000 3.6 10 13:23 16.03.2020
1256 Clear 7 1033 30 10000 4.1 10 12:46 16.03.2020
1257 Clear 7 1033 30 10000 3.1 0 12:26 16.03.2020
1258 Clear 7 1034 28 10000 3.1 20 11:58 16.03.2020
1259 Clear 6 1034 28 10000 3.6 0 11:39 16.03.2020
1260 Clear 6 1034 26 10000 3.1 30 11:18 16.03.2020
1261 Clear 6 1034 28 10000 3.6 50 10:41 16.03.2020
1262 Clear 5 1034 28 10000 3.6 50 10:19 16.03.2020
1263 Clear 5 1034 32 10000 3.6 30 09:44 16.03.2020
1264 Clear 5 1034 32 10000 4.1 10 09:24 16.03.2020
1265 Clear 5 1034 32 10000 4.6 10 08:54 16.03.2020
1266 Clear 4 1034 29 10000 4.6 10 08:25 16.03.2020
1267 Clouds 3 1033 37 10000 4.1 10 07:50 16.03.2020
1268 Clouds 2 1033 40 10000 5.1 10 07:27 16.03.2020
1269 Clouds 2 1033 43 10000 4.1 360 06:54 16.03.2020
1270 Clouds 0 1033 58 10000 1.5 10 06:25 16.03.2020
1271 Clouds 0 1033 58 10000 3.1 10 05:50 16.03.2020
1272 Clouds 0 1031 40 10000 2.6 10 02:45 16.03.2020
1273 Clouds 1 1031 40 10000 3.6 20 01:20 16.03.2020
1274 Clouds 1 1030 43 10000 5.1 20 00:39 16.03.2020
1275 Clouds 1 1030 43 10000 4.6 20 23:48 15.03.2020
1276 Clouds 1 1030 43 10000 4.1 20 23:20 15.03.2020
1277 Clouds 1 1030 43 10000 3.1 20 22:43 15.03.2020
1278 Clouds 1 1030 43 10000 3.1 20 22:23 15.03.2020
1279 Clouds 2 1030 47 10000 3.1 10 21:58 15.03.2020
1280 Clouds 2 1030 51 10000 2.6 30 21:38 15.03.2020
1281 Clouds 2 1030 51 10000 2.6 30 21:18 15.03.2020
1282 Clouds 1 1029 59 10000 1.5 330 20:42 15.03.2020
1283 Clouds 1 1029 59 10000 1.5 330 20:21 15.03.2020
1284 Clouds 1 1028 55 10000 0.5 0 19:58 15.03.2020
1285 Clouds 2 1028 51 10000 2.6 50 19:39 15.03.2020
1286 Clouds 2 1028 51 10000 2.6 50 19:20 15.03.2020
1287 Clouds 2 1028 44 10000 2.6 60 18:56 15.03.2020
1288 Clouds 3 1028 44 10000 2.6 50 18:37 15.03.2020
1289 Clouds 3 1028 44 10000 2.6 50 18:37 15.03.2020
1290 Clouds 3 1028 44 10000 2.6 50 18:19 15.03.2020
1291 Clouds 3 1027 44 10000 4.1 50 17:41 15.03.2020
1292 Clouds 4 1027 44 10000 4.1 50 17:21 15.03.2020
1293 Rain 4 1027 48 10000 5.1 30 16:58 15.03.2020
1294 Rain 4 1026 48 10000 5.1 40 16:40 15.03.2020
1295 Rain 4 1026 48 10000 5.1 40 16:21 15.03.2020
1296 Rain 5 1026 48 10000 5.1 30 15:48 15.03.2020
1297 Clouds 5 1026 48 10000 5.7 30 15:30 15.03.2020
1298 Clouds 5 1025 45 10000 6.2 30 14:58 15.03.2020
1299 Clouds 5 1025 45 10000 8.2 40 14:38 15.03.2020
1300 Clouds 5 1025 45 10000 8.2 40 14:19 15.03.2020
1301 Clouds 6 1024 52 10000 6.7 20 13:55 15.03.2020
1302 Clouds 6 1024 56 10000 9.3 40 13:37 15.03.2020
1303 Clouds 5 1024 56 10000 9.3 40 13:18 15.03.2020
1304 Rain 5 1024 65 10000 8.7 40 13:18 15.03.2020
1305 Rain 4 1024 69 10000 8.2 40 12:40 15.03.2020
1306 Rain 4 1024 69 10000 8.2 40 12:21 15.03.2020
1307 Rain 4 1024 80 10000 10.8 30 11:43 15.03.2020
1308 Rain 4 1024 80 10000 10.8 30 11:24 15.03.2020
1309 Rain 4 1023 80 10000 13.4 30 10:58 15.03.2020
1310 Rain 3 1023 80 10000 13.4 30 10:39 15.03.2020
1311 Rain 4 1023 80 10000 13.4 30 10:21 15.03.2020
1312 Rain 3 1022 86 10000 13.9 30 09:44 15.03.2020
1313 Rain 3 1022 86 10000 13.9 30 09:25 15.03.2020
1314 Rain 3 1021 80 10000 11.8 30 08:59 15.03.2020
1315 Rain 3 1022 86 10000 12.3 30 08:40 15.03.2020
1316 Rain 4 1022 86 10000 12.3 30 08:18 15.03.2020
1317 Rain 4 1021 86 10000 9.8 30 07:44 15.03.2020
1318 Rain 4 1021 86 10000 6.2 30 07:18 15.03.2020
1319 Rain 4 1021 93 8000 8.2 40 06:36 15.03.2020
1320 Rain 5 1020 100 10000 6.13 35 05:46 15.03.2020
1321 Rain 5 1020 100 10000 4.92 66 04:50 15.03.2020
1322 Rain 6 1019 100 10000 1 280 04:32 15.03.2020
1323 Rain 6 1019 100 10000 1.5 260 03:59 15.03.2020
1324 Rain 6 1019 93 10000 1 0 02:48 15.03.2020
1325 Rain 6 1019 93 10000 1 0 01:56 15.03.2020
1326 Rain 5 1019 93 10000 0.5 0 00:53 15.03.2020
1327 Rain 6 1019 93 8000 5.51 57 00:28 15.03.2020
1328 Rain 5 1019 93 8000 1.5 330 23:58 14.03.2020
1329 Rain 5 1019 93 8000 1.5 360 23:37 14.03.2020
1330 Rain 6 1019 93 8000 1.5 360 23:19 14.03.2020
1331 Rain 6 1019 81 8000 1.5 30 22:44 14.03.2020
1332 Rain 6 1019 81 8000 1.5 30 22:26 14.03.2020
1333 Rain 6 1018 87 10000 2.1 50 21:57 14.03.2020
1334 Rain 6 1019 87 10000 2.6 40 21:37 14.03.2020
1335 Rain 6 1019 87 10000 2.6 40 21:18 14.03.2020
1336 Rain 7 1018 81 10000 1 0 20:59 14.03.2020
1337 Rain 7 1018 76 10000 1 0 20:40 14.03.2020
1338 Rain 7 1018 76 10000 1 0 20:20 14.03.2020
1339 Rain 8 1018 81 10000 1.98 74 19:56 14.03.2020
1340 Rain 8 1018 81 10000 1 0 19:38 14.03.2020
1341 Rain 8 1018 81 10000 1 0 19:19 14.03.2020
1342 Clouds 8 1018 76 10000 2.1 120 18:37 14.03.2020
1343 Clouds 8 1018 76 10000 2.1 120 18:19 14.03.2020
1344 Clouds 9 1017 76 10000 3.6 130 17:39 14.03.2020
1345 Clouds 9 1017 76 10000 3.6 130 17:20 14.03.2020
1346 Clouds 9 1017 71 10000 4.1 130 16:41 14.03.2020
1347 Clouds 10 1017 71 10000 4.1 130 16:23 14.03.2020
1348 Clouds 10 1017 62 10000 4.6 120 15:59 14.03.2020
1349 Clouds 11 1017 71 10000 6.2 110 15:27 14.03.2020
1350 Clouds 11 1017 66 10000 6.2 130 14:59 14.03.2020
1351 Clouds 12 1017 66 10000 5.7 130 14:37 14.03.2020
1352 Clouds 12 1017 66 10000 5.7 130 14:19 14.03.2020
1353 Clouds 13 1018 58 10000 6.2 130 13:43 14.03.2020
1354 Clouds 13 1018 58 10000 6.2 130 13:24 14.03.2020
1355 Clouds 13 1018 62 10000 5.7 130 12:57 14.03.2020
1356 Clouds 13 1018 66 10000 5.7 130 12:38 14.03.2020
1357 Clouds 13 1018 58 10000 5.7 140 12:20 14.03.2020
1358 Clouds 13 1018 50 10000 5.1 130 11:42 14.03.2020
1359 Clouds 13 1018 50 10000 5.1 130 11:24 14.03.2020
1360 Clouds 14 1018 44 10000 2.1 0 10:46 14.03.2020
1361 Clouds 13 1018 44 10000 2.1 0 10:27 14.03.2020
1362 Clouds 13 1018 44 10000 2.6 60 09:58 14.03.2020
1363 Clouds 13 1018 47 10000 3.6 70 09:40 14.03.2020
1364 Clouds 12 1018 57 10000 4.1 20 09:20 14.03.2020
1365 Clouds 11 1018 57 10000 3.1 10 08:45 14.03.2020
1366 Clouds 11 1018 57 10000 3.1 10 08:45 14.03.2020
1367 Clouds 11 1018 57 10000 3.1 10 08:23 14.03.2020
1368 Clouds 9 1017 61 10000 2.1 0 07:39 14.03.2020
1369 Clouds 9 1017 61 10000 2.1 0 07:39 14.03.2020
1370 Clouds 9 1017 61 10000 2.1 0 07:20 14.03.2020
1371 Clouds 8 1016 70 10000 3.1 220 06:41 14.03.2020
1372 Clouds 8 1016 76 10000 2.6 290 05:56 14.03.2020
1373 Clouds 8 1015 76 10000 2.6 230 04:51 14.03.2020
1374 Clear 9 1013 66 10000 3.6 0 03:25 14.03.2020
1375 Clear 7 1012 81 10000 2.1 310 02:35 14.03.2020
1376 Clear 7 1011 80 10000 1.5 290 01:27 14.03.2020
1377 Clear 7 1011 75 10000 1 260 00:20 14.03.2020
1378 Clear 7 1011 75 10000 0.5 0 23:32 13.03.2020
1379 Clear 7 1011 75 10000 1 0 22:57 13.03.2020
1380 Clear 9 1011 66 10000 1.5 70 22:38 13.03.2020
1381 Clear 9 1011 66 10000 1.5 70 22:19 13.03.2020
1382 Clear 8 1011 65 10000 2.6 60 21:39 13.03.2020
1383 Clear 8 1011 65 10000 2.6 60 21:18 13.03.2020
1384 Clear 8 1011 66 10000 2.1 50 20:41 13.03.2020
1385 Clear 8 1011 66 10000 2.1 50 20:22 13.03.2020
1386 Clear 8 1011 70 10000 2.1 50 19:51 13.03.2020
1387 Clear 9 1011 76 10000 2.1 60 19:31 13.03.2020
1388 Clear 9 1011 81 10000 3.1 100 18:59 13.03.2020
1389 Clear 9 1010 76 10000 4.1 100 18:39 13.03.2020
1390 Clear 9 1010 76 10000 4.1 100 18:21 13.03.2020
1391 Clear 12 1010 66 10000 6.2 100 17:42 13.03.2020
1392 Clear 13 1010 62 10000 5.7 110 17:21 13.03.2020
1393 Clear 14 1010 62 10000 5.7 110 16:56 13.03.2020
1394 Clear 15 1010 51 10000 5.7 110 16:38 13.03.2020
1395 Clear 17 1010 51 10000 5.7 120 16:19 13.03.2020
1396 Clear 18 1010 45 10000 6.2 110 15:41 13.03.2020
1397 Clear 18 1010 45 10000 6.2 110 15:21 13.03.2020
1398 Clear 18 1010 45 10000 6.2 110 15:21 13.03.2020
1399 Clear 19 1010 42 10000 6.2 110 14:44 13.03.2020
1400 Clear 19 1011 39 10000 5.7 110 14:23 13.03.2020
1401 Clear 18 1011 42 10000 5.7 100 13:58 13.03.2020
1402 Clear 18 1011 39 10000 5.7 110 13:40 13.03.2020
1403 Clear 18 1011 39 10000 5.7 110 13:20 13.03.2020
1404 Clear 19 1011 39 10000 6.2 110 12:55 13.03.2020
1405 Clear 19 1012 42 10000 5.7 110 12:37 13.03.2020
1406 Clear 17 1012 42 10000 5.7 110 12:18 13.03.2020
1407 Clear 16 1013 48 10000 3.6 120 11:43 13.03.2020
1408 Clear 16 1013 48 10000 3.6 120 11:25 13.03.2020
1409 Clear 16 1013 48 10000 2.6 110 10:57 13.03.2020
1410 Clear 16 1014 45 10000 1 0 10:39 13.03.2020
1411 Clear 16 1014 45 10000 1 0 10:21 13.03.2020
1412 Clear 14 1014 54 10000 1 0 09:44 13.03.2020
1413 Clear 16 1014 54 10000 1 0 09:25 13.03.2020
1414 Clear 16 1014 58 10000 0.5 0 08:47 13.03.2020
1415 Clear 11 1015 71 10000 2.1 260 08:23 13.03.2020
1416 Clear 7 1015 76 10000 1 0 07:58 13.03.2020
1417 Clear 7 1015 93 10000 0.54 204 07:38 13.03.2020
1418 Clear 7 1015 93 10000 0.54 204 07:18 13.03.2020
1419 Clear 6 1015 93 10000 1 0 06:43 13.03.2020
1420 Clear 5 1015 100 10000 0.54 204 05:56 13.03.2020
1421 Clear 3 1015 100 10000 0.54 204 05:37 13.03.2020
1422 Clear 4 1015 93 10000 0.5 0 04:38 13.03.2020
1423 Clear 5 1015 86 10000 1.22 202 03:43 13.03.2020
1424 Clear 4 1016 93 10000 2.08 192 01:47 13.03.2020
1425 Clear 5 1016 86 10000 2.57 190 01:19 13.03.2020
1426 Clear 5 1016 86 10000 1 300 00:54 13.03.2020
1427 Clear 6 1017 80 10000 2.57 190 00:29 13.03.2020
1428 Clear 5 1017 86 10000 2.57 190 23:59 12.03.2020
1429 Clear 5 1017 86 10000 2.57 190 23:59 12.03.2020
1430 Clear 5 1017 86 10000 1.5 330 23:28 12.03.2020
1431 Clear 5 1017 80 10000 1 0 22:57 12.03.2020
1432 Clear 6 1018 87 10000 1.5 320 22:39 12.03.2020
1433 Clear 6 1018 87 10000 1.5 320 22:21 12.03.2020
1434 Clear 6 1018 75 10000 1.5 340 21:45 12.03.2020
1435 Clear 7 1018 75 10000 1.5 10 21:27 12.03.2020
1436 Clear 7 1018 75 10000 1.5 350 20:57 12.03.2020
1437 Clear 7 1018 75 10000 1.5 10 20:38 12.03.2020
1438 Clear 7 1018 75 10000 1.5 10 20:19 12.03.2020
1439 Clear 8 1019 75 10000 1 90 19:41 12.03.2020
1440 Clear 8 1019 76 10000 1.5 130 19:20 12.03.2020
1441 Clear 9 1019 71 10000 2.1 140 18:44 12.03.2020
1442 Clear 9 1019 71 10000 2.1 140 18:24 12.03.2020
1443 Clear 10 1019 62 10000 2.6 120 17:57 12.03.2020
1444 Clear 11 1019 62 10000 2.6 120 17:38 12.03.2020
1445 Clear 12 1019 58 10000 4.6 120 17:20 12.03.2020
1446 Clear 13 1019 58 10000 4.6 120 16:55 12.03.2020
1447 Clear 14 1019 50 10000 6.2 110 16:37 12.03.2020
1448 Clear 14 1019 50 10000 6.2 110 16:18 12.03.2020
1449 Clear 15 1019 50 10000 6.2 120 15:45 12.03.2020
1450 Clear 15 1019 44 10000 5.7 120 15:26 12.03.2020
1451 Clear 16 1020 54 10000 6.7 130 14:40 12.03.2020
1452 Clear 16 1020 54 10000 6.7 130 14:21 12.03.2020
1453 Clear 16 1020 51 10000 6.2 130 13:56 12.03.2020
1454 Clear 17 1020 51 10000 7.7 130 13:36 12.03.2020
1455 Clear 17 1020 51 10000 7.7 130 13:18 12.03.2020
1456 Clear 18 1021 48 10000 6.2 140 12:41 12.03.2020
1457 Clear 18 1021 48 10000 6.2 140 12:21 12.03.2020
1458 Clear 17 1021 45 10000 5.7 140 11:57 12.03.2020
1459 Clear 17 1021 45 10000 5.1 140 11:38 12.03.2020
1460 Clear 17 1021 45 10000 5.1 140 11:19 12.03.2020
1461 Clear 16 1021 45 10000 3.6 110 10:58 12.03.2020
1462 Clear 16 1021 42 10000 3.6 10 10:40 12.03.2020
1463 Clear 16 1021 42 10000 3.6 10 10:22 12.03.2020
1464 Clear 15 1021 51 10000 2.6 50 09:46 12.03.2020
1465 Clear 14 1021 51 10000 2.1 0 09:25 12.03.2020
1466 Clear 14 1021 58 10000 3.1 320 08:44 12.03.2020
1467 Clouds 12 1021 58 10000 3.1 320 08:20 12.03.2020
1468 Clouds 10 1020 62 10000 3.1 310 07:56 12.03.2020
1469 Clouds 9 1020 66 10000 4.1 280 07:38 12.03.2020
1470 Clouds 10 1020 66 10000 4.1 280 07:20 12.03.2020
1471 Clouds 8 1019 66 10000 3.6 270 05:48 12.03.2020
1472 Clouds 8 1019 66 10000 3.6 270 05:25 12.03.2020
1473 Clear 8 1018 66 10000 3.6 320 02:41 12.03.2020
1474 Clouds 9 1017 66 10000 3.1 280 01:31 12.03.2020
1475 Clouds 10 1017 66 10000 3.1 300 00:45 12.03.2020
1476 Clouds 9 1017 71 10000 2.1 290 00:26 12.03.2020
1477 Clouds 9 1017 76 10000 2.1 310 23:47 11.03.2020
1478 Clouds 9 1017 76 10000 2.1 310 23:24 11.03.2020
1479 Clouds 9 1017 76 10000 1.5 310 22:48 11.03.2020
1480 Clouds 10 1017 76 10000 1.5 310 22:30 11.03.2020
1481 Clouds 10 1017 71 10000 2.1 350 21:59 11.03.2020
1482 Clouds 10 1017 71 10000 2.1 350 21:59 11.03.2020
1483 Clouds 10 1017 71 10000 1.5 330 21:41 11.03.2020
1484 Clouds 10 1017 71 10000 1.5 330 21:22 11.03.2020
1485 Clouds 10 1017 71 10000 1 0 20:58 11.03.2020
1486 Clouds 10 1016 71 10000 2.1 250 20:39 11.03.2020
1487 Clouds 10 1016 71 10000 2.1 250 20:19 11.03.2020
1488 Clouds 11 1016 81 10000 2.1 310 19:44 11.03.2020
1489 Clouds 11 1016 81 10000 2.1 310 19:25 11.03.2020
1490 Clouds 11 1015 81 10000 4.3 229 18:59 11.03.2020
1491 Clouds 11 1015 81 10000 1.5 160 18:40 11.03.2020
1492 Clouds 11 1015 81 10000 1.5 160 18:21 11.03.2020
1493 Clouds 12 1015 81 10000 1.5 160 17:58 11.03.2020
1494 Clouds 13 1015 71 10000 2.1 120 17:39 11.03.2020
1495 Clouds 14 1014 55 10000 3.6 230 17:20 11.03.2020
1496 Clouds 16 1014 55 10000 4.6 260 16:46 11.03.2020
1497 Clouds 16 1014 55 10000 4.6 260 16:23 11.03.2020
1498 Clear 16 1014 55 10000 4.6 260 15:46 11.03.2020
1499 Clouds 16 1014 51 10000 5.1 250 15:25 11.03.2020
1500 Clear 16 1014 51 10000 3.6 240 14:59 11.03.2020
1501 Clear 16 1014 51 10000 3.6 240 14:41 11.03.2020
1502 Clear 16 1014 51 10000 3.6 240 14:22 11.03.2020
1503 Clouds 15 1015 51 10000 3.6 230 13:45 11.03.2020
1504 Clouds 15 1015 54 10000 4.1 260 13:27 11.03.2020
1505 Clouds 15 1015 54 10000 4.6 240 12:58 11.03.2020
1506 Clouds 14 1016 54 10000 5.7 250 12:40 11.03.2020
1507 Clouds 14 1016 54 10000 5.7 250 12:19 11.03.2020
1508 Clouds 14 1016 54 10000 5.7 250 12:19 11.03.2020
1509 Clouds 14 1016 62 10000 3.6 220 11:42 11.03.2020
1510 Clouds 13 1016 62 10000 3.6 220 11:24 11.03.2020
1511 Clouds 13 1016 62 10000 4.1 250 10:59 11.03.2020
1512 Clouds 12 1017 62 10000 5.1 270 10:41 11.03.2020
1513 Clouds 11 1017 62 10000 5.1 270 10:18 11.03.2020
1514 Clouds 9 1017 70 10000 4.6 270 09:43 11.03.2020
1515 Clouds 9 1017 70 10000 4.6 270 09:43 11.03.2020
1516 Clouds 9 1017 70 10000 4.6 270 09:24 11.03.2020
1517 Clouds 8 1017 70 10000 5.7 270 08:45 11.03.2020
1518 Clouds 8 1017 70 10000 5.7 270 08:27 11.03.2020
1519 Clouds 7 1017 75 10000 5.1 260 07:58 11.03.2020
1520 Clouds 7 1016 75 10000 5.1 270 07:38 11.03.2020
1521 Clouds 7 1016 75 10000 5.1 270 07:18 11.03.2020
1522 Clouds 6 1016 81 10000 4.1 260 06:37 11.03.2020
1523 Clouds 7 1015 87 10000 3.6 280 05:34 11.03.2020
1524 Clouds 7 1015 81 10000 2.6 250 03:59 11.03.2020
1525 Rain 8 1014 87 10000 3.1 270 01:59 11.03.2020
1526 Clouds 8 1014 87 10000 4.1 280 01:26 11.03.2020
1527 Rain 7 1014 87 10000 5.7 270 00:45 11.03.2020
1528 Drizzle 7 1014 87 10000 5.1 280 23:56 10.03.2020
1529 Drizzle 7 1014 87 10000 5.1 280 23:55 10.03.2020
1530 Drizzle 7 1014 87 10000 5.1 280 23:55 10.03.2020
1531 Drizzle 7 1014 87 10000 5.1 280 23:55 10.03.2020
1532 Rain 8 1014 81 10000 5.1 280 23:37 10.03.2020
1533 Clouds 8 1014 81 10000 4.1 280 23:18 10.03.2020
1534 Clouds 8 1013 81 10000 4.6 270 22:38 10.03.2020
1535 Clouds 8 1013 81 10000 4.6 270 22:19 10.03.2020
1536 Clouds 8 1013 87 10000 5.7 280 21:56 10.03.2020
1537 Clouds 8 1013 87 10000 6.2 280 21:38 10.03.2020
1538 Clouds 8 1013 87 10000 6.2 280 21:19 10.03.2020
1539 Clouds 8 1013 87 10000 5.7 280 20:56 10.03.2020
1540 Clouds 8 1012 87 10000 6.2 280 20:38 10.03.2020
1541 Clouds 8 1012 87 10000 6.2 280 20:18 10.03.2020
1542 Clouds 8 1012 87 10000 5.1 280 19:55 10.03.2020
1543 Clouds 8 1012 87 10000 5.1 280 19:36 10.03.2020
1544 Clouds 8 1012 87 10000 5.1 280 19:18 10.03.2020
1545 Clouds 9 1011 93 10000 6.2 260 18:42 10.03.2020
1546 Clouds 9 1011 93 10000 6.2 260 18:23 10.03.2020
1547 Clouds 9 1010 93 10000 5.7 260 17:56 10.03.2020
1548 Clouds 9 1010 93 10000 5.1 270 17:37 10.03.2020
1549 Clouds 9 1010 87 10000 5.7 260 17:19 10.03.2020
1550 Clouds 9 1009 87 10000 6.2 260 16:38 10.03.2020
1551 Clouds 10 1009 87 10000 6.2 260 16:18 10.03.2020
1552 Clouds 9 1009 93 10000 5.7 260 15:44 10.03.2020
1553 Clouds 9 1009 93 10000 5.7 260 15:20 10.03.2020
1554 Clouds 10 1008 81 10000 5.1 270 14:59 10.03.2020
1555 Clouds 10 1008 81 10000 6.2 280 14:40 10.03.2020
1556 Clouds 10 1008 81 10000 6.2 280 14:19 10.03.2020
1557 Clouds 10 1008 81 10000 6.2 280 14:19 10.03.2020
1558 Clouds 10 1007 81 10000 6.2 290 13:45 10.03.2020
1559 Clouds 10 1007 76 10000 7.2 270 13:26 10.03.2020
1560 Clouds 10 1007 81 10000 7.2 280 12:57 10.03.2020
1561 Clouds 11 1007 81 10000 8.2 290 12:37 10.03.2020
1562 Clouds 10 1007 81 10000 8.2 290 12:37 10.03.2020
1563 Clouds 11 1007 81 10000 8.2 290 12:18 10.03.2020
1564 Clouds 11 1006 76 10000 7.7 290 11:42 10.03.2020
1565 Clouds 11 1006 76 10000 7.7 290 11:24 10.03.2020
1566 Clouds 10 1006 81 10000 6.7 300 10:58 10.03.2020
1567 Rain 10 1006 87 10000 6.2 280 10:39 10.03.2020
1568 Rain 10 1006 87 10000 6.2 280 10:19 10.03.2020
1569 Clouds 10 1006 81 10000 7.2 280 09:55 10.03.2020
1570 Clouds 10 1006 81 10000 8.2 300 09:36 10.03.2020
1571 Clouds 9 1006 81 10000 6.2 310 09:18 10.03.2020
1572 Clouds 9 1006 87 9000 6.2 300 08:42 10.03.2020
1573 Clouds 9 1006 87 9000 6.2 300 08:24 10.03.2020
1574 Clouds 9 1004 87 8000 5.7 260 07:42 10.03.2020
1575 Clouds 9 1004 87 8000 5.7 260 07:23 10.03.2020
1576 Clouds 9 1004 87 7000 8.2 290 06:38 10.03.2020
1577 Rain 9 1005 87 9000 4.1 310 05:55 10.03.2020
1578 Rain 9 1005 87 10000 3.6 250 05:36 10.03.2020
1579 Clouds 9 1005 87 10000 4.6 270 04:33 10.03.2020
1580 Clouds 9 1004 93 9000 5.1 270 03:19 10.03.2020
1581 Clouds 9 1005 93 9000 5.1 270 01:36 10.03.2020
1582 Clouds 8 1006 93 9000 5.7 250 00:51 10.03.2020
1583 Clouds 8 1006 93 9000 5.7 250 00:29 10.03.2020
1584 Clouds 9 1006 87 9000 4.6 260 23:43 09.03.2020
1585 Clouds 9 1006 87 9000 4.6 260 23:22 09.03.2020
1586 Clouds 9 1007 87 8000 5.7 270 22:58 09.03.2020
1587 Clouds 9 1007 87 8000 5.1 270 22:38 09.03.2020
1588 Clouds 9 1007 87 8000 5.1 270 22:19 09.03.2020
1589 Clouds 9 1008 87 7000 5.7 260 21:44 09.03.2020
1590 Clouds 9 1008 87 7000 5.7 260 21:22 09.03.2020
1591 Clouds 9 1008 87 7000 5.7 260 21:22 09.03.2020
1592 Clouds 10 1008 81 7000 6.7 310 20:58 09.03.2020
1593 Clouds 10 1008 81 8000 5.7 310 20:40 09.03.2020
1594 Clouds 10 1008 81 8000 5.7 310 20:22 09.03.2020
1595 Clouds 10 1008 81 10000 6.2 270 19:56 09.03.2020
1596 Clouds 11 1008 76 10000 4.6 310 19:38 09.03.2020
1597 Clouds 11 1008 76 10000 4.6 310 19:18 09.03.2020
1598 Clouds 12 1008 71 10000 4.6 350 18:55 09.03.2020
1599 Clouds 12 1008 71 10000 3.1 360 18:37 09.03.2020
1600 Clouds 12 1008 71 10000 3.1 360 18:18 09.03.2020
1601 Clouds 12 1008 71 10000 1 0 17:55 09.03.2020
1602 Clouds 13 1008 67 10000 4.25 28 17:36 09.03.2020
1603 Clouds 14 1008 67 10000 1.5 160 17:18 09.03.2020
1604 Clouds 15 1008 63 10000 2.1 160 16:41 09.03.2020
1605 Clouds 16 1008 63 10000 2.1 160 16:22 09.03.2020
1606 Clouds 17 1008 59 10000 2.6 130 15:58 09.03.2020
1607 Clouds 17 1008 59 10000 2.6 130 15:39 09.03.2020
1608 Clouds 17 1008 63 10000 3.1 150 15:21 09.03.2020
1609 Clouds 17 1008 59 10000 3.6 150 14:58 09.03.2020
1610 Clouds 17 1008 59 10000 3.6 150 14:38 09.03.2020
1611 Clouds 17 1009 63 10000 3.6 130 14:19 09.03.2020
1612 Clouds 18 1009 55 10000 3.1 130 13:58 09.03.2020
1613 Clouds 18 1009 55 10000 3.1 130 13:38 09.03.2020
1614 Clouds 17 1010 59 10000 3.1 130 13:19 09.03.2020
1615 Clouds 18 1010 59 10000 2.1 0 12:43 09.03.2020
1616 Clouds 17 1010 59 10000 3.1 200 12:22 09.03.2020
1617 Clouds 16 1011 63 10000 2.1 230 11:58 09.03.2020
1618 Clouds 16 1011 63 10000 2.1 230 11:38 09.03.2020
1619 Clouds 15 1011 67 10000 2.1 0 11:19 09.03.2020
1620 Clouds 15 1011 67 10000 2.1 250 10:55 09.03.2020
1621 Clouds 15 1011 67 10000 2.1 250 10:36 09.03.2020
1622 Clouds 14 1012 71 10000 2.6 270 10:18 09.03.2020
1623 Clouds 13 1012 76 10000 2.1 270 09:39 09.03.2020
1624 Clouds 13 1012 76 10000 2.1 270 09:39 09.03.2020
1625 Clouds 12 1012 76 10000 3.6 350 09:21 09.03.2020
1626 Clouds 10 1013 81 10000 3.6 10 08:44 09.03.2020
1627 Clouds 10 1013 87 10000 3.6 310 08:26 09.03.2020
1628 Clouds 9 1014 93 8000 3.1 270 07:42 09.03.2020
1629 Clouds 8 1013 87 8000 2.1 0 07:22 09.03.2020
1630 Clouds 7 1014 93 7000 1.5 290 06:46 09.03.2020
1631 Clouds 7 1014 93 6000 4.6 310 06:26 09.03.2020
1632 Clouds 7 1014 93 7000 5.1 300 05:57 09.03.2020
1633 Clouds 7 1014 93 7000 5.1 300 05:39 09.03.2020
1634 Clouds 8 1014 87 10000 2.6 310 04:43 09.03.2020
1635 Clouds 7 1014 100 8000 1.5 300 04:22 09.03.2020
1636 Clouds 8 1014 93 10000 2.1 270 03:21 09.03.2020
1637 Clouds 8 1014 93 10000 2.6 250 01:50 09.03.2020
1638 Clouds 9 1015 87 10000 2.1 260 00:39 09.03.2020
1639 Clouds 9 1015 87 10000 2.1 270 00:21 09.03.2020
1640 Clouds 9 1015 87 10000 1 320 23:52 08.03.2020
1641 Clouds 10 1015 81 10000 1.5 130 23:25 08.03.2020
1642 Clouds 10 1015 81 10000 1 50 22:58 08.03.2020
1643 Clouds 10 1015 81 10000 1 50 22:39 08.03.2020
1644 Clouds 10 1015 87 10000 1.5 100 22:20 08.03.2020
1645 Clouds 10 1015 81 10000 2.65 170 21:56 08.03.2020
1646 Clouds 11 1015 81 10000 2.65 170 21:38 08.03.2020
1647 Clouds 11 1015 87 10000 1.5 90 21:19 08.03.2020
1648 Clouds 12 1015 81 10000 2.6 120 20:40 08.03.2020
1649 Clouds 12 1015 81 10000 2.6 120 20:40 08.03.2020
1650 Clouds 11 1015 81 10000 2.6 120 20:21 08.03.2020
1651 Clouds 11 1015 81 10000 2.6 120 20:21 08.03.2020
1652 Clouds 12 1015 76 10000 2.6 110 19:56 08.03.2020
1653 Clouds 12 1015 76 10000 2.6 110 19:37 08.03.2020
1654 Clouds 13 1015 76 10000 1 0 19:18 08.03.2020
1655 Clouds 12 1015 76 10000 1 0 18:42 08.03.2020
1656 Clouds 12 1015 76 10000 1 0 18:42 08.03.2020
1657 Clouds 12 1015 71 10000 4.6 130 18:24 08.03.2020
1658 Clouds 13 1014 66 10000 4.1 120 17:56 08.03.2020
1659 Clouds 13 1014 66 10000 4.1 120 17:38 08.03.2020
1660 Clouds 14 1015 58 10000 4.1 120 17:19 08.03.2020
1661 Clouds 15 1015 58 10000 4.1 120 16:46 08.03.2020
1662 Clouds 15 1015 58 10000 5.1 110 16:27 08.03.2020
1663 Clouds 15 1015 58 10000 5.7 110 15:56 08.03.2020
1664 Clouds 15 1015 58 10000 6.2 120 15:38 08.03.2020
1665 Clouds 16 1015 58 10000 6.2 120 15:19 08.03.2020
1666 Clouds 18 1015 48 10000 3.6 110 14:40 08.03.2020
1667 Clouds 18 1015 48 10000 3.6 110 14:21 08.03.2020
1668 Clouds 18 1015 48 10000 3.6 110 14:21 08.03.2020
1669 Clouds 18 1015 59 10000 4.6 110 13:57 08.03.2020
1670 Clouds 18 1015 59 10000 5.7 120 13:38 08.03.2020
1671 Clouds 18 1015 59 10000 5.7 120 13:19 08.03.2020
1672 Clouds 18 1015 55 10000 4.6 120 12:39 08.03.2020
1673 Clouds 18 1015 59 10000 5.1 130 12:20 08.03.2020
1674 Clouds 18 1015 59 10000 5.1 130 11:44 08.03.2020
1675 Clouds 17 1015 55 10000 5.1 110 11:25 08.03.2020
1676 Clouds 17 1015 55 10000 5.1 110 10:59 08.03.2020
1677 Clouds 17 1015 55 10000 5.1 110 10:59 08.03.2020
1678 Clouds 17 1015 63 10000 4.1 130 10:41 08.03.2020
1679 Clouds 17 1015 63 10000 4.1 130 10:22 08.03.2020
1680 Clouds 18 1015 52 10000 2.1 150 09:40 08.03.2020
1681 Clouds 17 1016 63 10000 2.1 130 09:22 08.03.2020
1682 Clouds 16 1015 67 10000 2.1 120 08:49 08.03.2020
1683 Clouds 13 1015 76 10000 1.5 120 08:25 08.03.2020
1684 Clouds 12 1015 81 10000 1 0 07:50 08.03.2020
1685 Clouds 13 1015 81 10000 1 0 07:28 08.03.2020
1686 Clouds 11 1014 87 10000 1 0 06:54 08.03.2020
1687 Clouds 11 1014 87 10000 1 0 06:35 08.03.2020
1688 Clouds 10 1014 87 10000 1 100 05:58 08.03.2020
1689 Clouds 10 1013 93 10000 2.1 50 04:50 08.03.2020
1690 Clouds 10 1013 87 10000 0.5 0 03:27 08.03.2020
1691 Clouds 10 1013 87 10000 2.6 130 02:27 08.03.2020
1692 Clouds 10 1013 76 10000 3.1 100 01:21 08.03.2020
1693 Clouds 11 1014 71 10000 2.6 110 00:42 08.03.2020
1694 Clouds 11 1014 71 10000 1.5 140 00:22 08.03.2020
1695 Clouds 12 1013 71 10000 2.1 190 23:43 07.03.2020
1696 Clouds 13 1013 62 10000 3.6 230 23:21 07.03.2020
1697 Clouds 13 1013 62 10000 4.1 180 22:39 07.03.2020
1698 Clouds 13 1013 62 10000 4.1 180 22:39 07.03.2020
1699 Clouds 13 1013 62 10000 4.1 180 22:20 07.03.2020
1700 Clouds 14 1013 62 10000 5.1 190 21:47 07.03.2020
1701 Clouds 13 1013 67 10000 2.6 170 21:24 07.03.2020
1702 Clouds 14 1013 67 10000 1 0 20:42 07.03.2020
1703 Clouds 14 1012 59 10000 3.1 170 20:23 07.03.2020
1704 Clouds 14 1012 67 10000 3.1 130 19:57 07.03.2020
1705 Clouds 14 1012 67 10000 3.1 130 19:38 07.03.2020
1706 Clouds 14 1012 62 10000 2.6 130 19:19 07.03.2020
1707 Clouds 15 1012 62 10000 3.1 70 18:41 07.03.2020
1708 Clouds 14 1011 66 10000 3.1 110 18:22 07.03.2020
1709 Clouds 16 1011 55 10000 2.6 180 17:43 07.03.2020
1710 Clouds 17 1010 52 10000 6.84 204 17:22 07.03.2020
1711 Clouds 18 1010 52 10000 2.1 110 16:59 07.03.2020
1712 Clouds 18 1010 52 10000 2.1 110 16:41 07.03.2020
1713 Clouds 19 1010 45 10000 3.1 230 16:22 07.03.2020
1714 Clouds 20 1010 43 10000 3.6 220 15:57 07.03.2020
1715 Clouds 21 1010 43 10000 3.6 220 15:37 07.03.2020
1716 Clouds 21 1010 37 10000 5.7 220 15:19 07.03.2020
1717 Clouds 21 1010 35 10000 5.7 220 14:46 07.03.2020
1718 Clouds 21 1009 37 10000 6.2 250 14:25 07.03.2020
1719 Clouds 21 1009 37 10000 4.6 220 13:58 07.03.2020
1720 Clouds 21 1009 37 10000 4.6 220 13:38 07.03.2020
1721 Clear 21 1009 37 10000 5.1 230 13:19 07.03.2020
1722 Clear 21 1009 37 10000 5.7 240 12:42 07.03.2020
1723 Clear 21 1009 37 10000 5.1 250 12:20 07.03.2020
1724 Clear 20 1009 40 10000 4.1 250 11:57 07.03.2020
1725 Clear 20 1009 40 10000 4.1 250 11:57 07.03.2020
1726 Clear 20 1009 40 10000 4.1 250 11:39 07.03.2020
1727 Clear 19 1009 42 10000 5.7 270 11:20 07.03.2020
1728 Clear 19 1009 42 10000 5.1 250 10:41 07.03.2020
1729 Clear 17 1009 48 10000 5.1 240 10:20 07.03.2020
1730 Clear 17 1009 51 10000 3.6 250 09:56 07.03.2020
1731 Clear 16 1009 58 10000 2.1 240 09:37 07.03.2020
1732 Clear 16 1009 58 10000 2.1 240 09:18 07.03.2020
1733 Clear 16 1009 58 10000 2.1 240 09:18 07.03.2020
1734 Clear 16 1009 58 10000 1 0 08:44 07.03.2020
1735 Clear 14 1009 62 10000 0.5 0 08:21 07.03.2020
1736 Clear 14 1009 62 10000 0.5 0 08:21 07.03.2020
1737 Clouds 12 1009 71 10000 1 0 07:49 07.03.2020
1738 Clouds 10 1009 81 10000 0.5 30 07:22 07.03.2020
1739 Rain 10 1008 75 10000 6.68 191 06:54 07.03.2020
1740 Rain 9 1008 75 10000 6.68 191 06:29 07.03.2020
1741 Rain 8 1008 75 10000 6.68 191 05:46 07.03.2020
1742 Clouds 8 1007 75 10000 0.5 100 04:34 07.03.2020
1743 Clouds 9 1007 70 10000 2.6 100 02:46 07.03.2020
1744 Clouds 9 1007 70 10000 2.6 100 02:23 07.03.2020
1745 Clouds 9 1007 70 10000 3.1 100 01:23 07.03.2020
1746 Clouds 8 1007 70 10000 3.6 100 00:37 07.03.2020
1747 Clouds 8 1007 70 10000 3.1 110 00:19 07.03.2020
1748 Clouds 8 1007 70 10000 2.6 120 23:41 06.03.2020
1749 Clouds 8 1007 70 10000 2.1 120 23:23 06.03.2020
1750 Clouds 8 1008 70 10000 2.1 130 22:47 06.03.2020
1751 Clouds 9 1008 76 10000 1 90 22:21 06.03.2020
1752 Clouds 9 1008 76 10000 2.6 150 21:50 06.03.2020
1753 Clouds 8 1008 81 10000 2.1 70 21:21 06.03.2020
1754 Clouds 8 1008 81 10000 1.5 120 20:56 06.03.2020
1755 Clouds 8 1008 81 10000 1.5 120 20:36 06.03.2020
1756 Clouds 9 1008 81 10000 1.5 100 20:18 06.03.2020
1757 Clouds 9 1008 81 10000 1 0 19:42 06.03.2020
1758 Clouds 9 1008 81 10000 3.1 130 19:23 06.03.2020
1759 Clouds 9 1007 81 10000 5.7 100 18:42 06.03.2020
1760 Clouds 9 1007 81 10000 5.7 100 18:21 06.03.2020
1761 Clouds 9 1007 81 10000 5.7 100 18:21 06.03.2020
1762 Clouds 9 1007 87 10000 5.7 90 17:57 06.03.2020
1763 Clouds 9 1007 87 10000 5.7 90 17:39 06.03.2020
1764 Clouds 9 1007 87 10000 5.7 90 17:39 06.03.2020
1765 Clear 10 1007 81 10000 5.7 100 17:20 06.03.2020
1766 Clear 11 1007 81 10000 5.7 100 16:54 06.03.2020
1767 Clear 11 1007 76 10000 6.2 90 16:36 06.03.2020
1768 Clear 11 1007 76 10000 6.2 90 16:18 06.03.2020
1769 Clear 12 1007 71 10000 5.7 90 15:42 06.03.2020
1770 Clear 13 1007 62 10000 8.2 100 15:22 06.03.2020
1771 Clear 13 1007 66 10000 7.2 90 14:40 06.03.2020
1772 Clear 14 1007 66 10000 7.7 100 14:22 06.03.2020
1773 Clouds 14 1007 54 10000 8.7 100 13:55 06.03.2020
1774 Clouds 13 1007 54 10000 8.7 100 13:36 06.03.2020
1775 Clouds 14 1007 50 10000 7.7 110 13:18 06.03.2020
1776 Clouds 14 1007 47 10000 8.2 110 12:40 06.03.2020
1777 Clouds 14 1008 44 10000 5.7 130 12:21 06.03.2020
1778 Clouds 13 1008 47 10000 2.6 220 11:59 06.03.2020
1779 Clouds 13 1008 47 10000 2.6 220 11:40 06.03.2020
1780 Clouds 12 1008 47 10000 2.1 0 11:20 06.03.2020
1781 Clouds 11 1008 54 10000 2.6 250 10:42 06.03.2020
1782 Clouds 12 1009 58 10000 2.6 270 10:21 06.03.2020
1783 Clouds 11 1009 57 10000 2.1 230 09:58 06.03.2020
1784 Clouds 10 1009 57 10000 2.1 230 09:39 06.03.2020
1785 Clouds 11 1009 61 10000 3.6 230 09:21 06.03.2020
1786 Clouds 9 1009 66 10000 3.1 240 08:47 06.03.2020
1787 Clouds 8 1009 75 10000 2.6 260 08:28 06.03.2020
1788 Clouds 8 1008 70 10000 2.6 260 07:59 06.03.2020
1789 Clouds 7 1008 70 10000 2.6 260 07:39 06.03.2020
1790 Clouds 6 1008 75 10000 3.6 280 06:59 06.03.2020
1791 Clouds 6 1008 75 10000 3.6 280 06:41 06.03.2020
1792 Clouds 6 1007 75 10000 4.6 290 05:50 06.03.2020
1793 Clouds 6 1007 75 10000 4.1 270 05:31 06.03.2020
1794 Clouds 6 1007 81 10000 4.1 280 04:58 06.03.2020
1795 Clouds 7 1007 75 10000 5.1 290 02:56 06.03.2020
1796 Clouds 7 1007 70 10000 5.1 290 01:41 06.03.2020
1797 Clouds 7 1007 66 10000 5.7 300 01:23 06.03.2020
1798 Clouds 7 1007 70 10000 4.6 290 00:37 06.03.2020
1799 Clouds 7 1007 70 10000 4.6 300 00:18 06.03.2020
1800 Clouds 8 1007 70 10000 5.1 290 23:42 05.03.2020
1801 Clouds 8 1007 70 10000 4.1 280 23:19 05.03.2020
1802 Clouds 8 1007 70 10000 4.1 260 22:40 05.03.2020
1803 Clouds 8 1007 70 10000 3.6 270 22:22 05.03.2020
1804 Clouds 8 1008 76 10000 4.6 260 21:57 05.03.2020
1805 Clouds 8 1008 76 10000 4.6 260 21:38 05.03.2020
1806 Clouds 8 1008 76 10000 3.1 270 21:20 05.03.2020
1807 Clouds 9 1008 76 10000 1.5 320 20:57 05.03.2020
1808 Clouds 9 1008 76 10000 1.5 320 20:39 05.03.2020
1809 Rain 8 1008 81 10000 2.1 280 20:19 05.03.2020
1810 Rain 9 1008 76 10000 4.1 290 19:56 05.03.2020
1811 Rain 9 1008 76 10000 4.1 290 19:38 05.03.2020
1812 Rain 9 1008 76 10000 4.1 270 19:18 05.03.2020
1813 Clouds 9 1007 76 10000 2.6 250 18:54 05.03.2020
1814 Rain 9 1007 76 10000 3.1 310 18:36 05.03.2020
1815 Rain 9 1007 76 10000 3.1 310 18:18 05.03.2020
1816 Rain 9 1007 76 10000 2.6 320 17:40 05.03.2020
1817 Rain 9 1007 71 10000 3.1 310 17:22 05.03.2020
1818 Rain 10 1007 71 10000 3.6 310 16:55 05.03.2020
1819 Rain 10 1007 71 10000 3.6 310 16:36 05.03.2020
1820 Clouds 10 1006 71 10000 4.6 320 16:18 05.03.2020
1821 Clouds 11 1006 71 10000 3.6 320 15:44 05.03.2020
1822 Clouds 11 1007 71 10000 3.1 300 15:22 05.03.2020
1823 Clouds 11 1007 71 10000 3.1 290 14:57 05.03.2020
1824 Clouds 10 1007 71 10000 3.1 290 14:39 05.03.2020
1825 Clouds 10 1007 71 10000 3.1 280 14:20 05.03.2020
1826 Clouds 10 1007 71 10000 2.6 310 13:55 05.03.2020
1827 Clouds 10 1007 71 10000 2.6 310 13:36 05.03.2020
1828 Clouds 10 1007 71 10000 5.1 310 13:18 05.03.2020
1829 Clouds 11 1007 71 10000 4.6 300 12:40 05.03.2020
1830 Clouds 11 1007 71 10000 4.6 300 12:40 05.03.2020
1831 Clouds 11 1007 71 10000 4.6 300 12:40 05.03.2020
1832 Clouds 11 1007 71 10000 4.6 300 12:20 05.03.2020
1833 Clouds 10 1008 71 10000 4.6 300 11:57 05.03.2020
1834 Clouds 10 1008 71 10000 4.6 300 11:37 05.03.2020
1835 Clouds 10 1008 76 10000 4.6 300 11:19 05.03.2020
1836 Clouds 10 1007 76 10000 4.6 300 10:57 05.03.2020
1837 Clouds 10 1007 76 10000 4.6 300 10:38 05.03.2020
1838 Clouds 10 1007 81 10000 3.6 280 10:20 05.03.2020
1839 Clouds 10 1007 81 10000 4.1 270 09:45 05.03.2020
1840 Clouds 10 1007 81 10000 4.1 280 09:26 05.03.2020
1841 Clouds 9 1008 87 10000 4.1 260 08:47 05.03.2020
1842 Clouds 9 1008 81 10000 3.6 300 08:29 05.03.2020
1843 Clouds 8 1007 93 9000 4.1 260 07:49 05.03.2020
1844 Clouds 8 1007 93 10000 2.1 240 07:22 05.03.2020
1845 Rain 8 1007 93 8000 1.5 40 06:49 05.03.2020
1846 Rain 8 1007 93 7000 2.6 290 06:22 05.03.2020
1847 Rain 8 1007 87 10000 2.1 360 05:57 05.03.2020
1848 Clouds 8 1007 93 10000 1 0 05:25 05.03.2020
1849 Clouds 9 1006 87 10000 0.5 310 04:22 05.03.2020
1850 Clouds 8 1006 87 10000 1 0 03:51 05.03.2020
1851 Clouds 8 1007 81 10000 0.5 0 01:58 05.03.2020
1852 Clouds 7 1007 93 10000 2.6 110 01:22 05.03.2020
1853 Clouds 9 1007 81 10000 1.5 340 00:26 05.03.2020
1854 Clouds 9 1008 81 10000 1 0 23:43 04.03.2020
1855 Clouds 9 1008 87 10000 4.6 100 23:23 04.03.2020
1856 Clouds 9 1008 81 10000 5.7 120 22:58 04.03.2020
1857 Clouds 11 1008 81 10000 5.7 120 22:39 04.03.2020
1858 Clouds 10 1007 76 10000 2.1 90 22:19 04.03.2020
1859 Clouds 10 1007 76 10000 1 0 21:58 04.03.2020
1860 Clouds 10 1007 76 10000 1 0 21:40 04.03.2020
1861 Clouds 11 1007 71 10000 1.5 350 21:20 04.03.2020
1862 Clouds 10 1008 76 10000 1 0 20:54 04.03.2020
1863 Clouds 10 1008 76 10000 1 0 20:36 04.03.2020
1864 Clouds 10 1008 81 10000 0.5 0 20:18 04.03.2020
1865 Clouds 10 1008 81 10000 1.5 120 19:42 04.03.2020
1866 Clouds 11 1008 76 10000 1.5 100 19:23 04.03.2020
1867 Clouds 11 1008 66 10000 1.5 110 18:55 04.03.2020
1868 Clouds 11 1008 66 10000 1.5 110 18:36 04.03.2020
1869 Clouds 12 1008 71 10000 2.1 80 18:18 04.03.2020
1870 Clouds 11 1008 71 10000 4.1 110 17:54 04.03.2020
1871 Clouds 12 1008 71 10000 4.1 110 17:36 04.03.2020
1872 Clouds 12 1007 71 10000 5.7 110 17:18 04.03.2020
1873 Clouds 14 1007 66 10000 5.7 110 16:42 04.03.2020
1874 Clouds 15 1007 58 10000 6.2 110 16:23 04.03.2020
1875 Clouds 15 1007 55 10000 5.7 120 15:57 04.03.2020
1876 Clouds 16 1007 55 10000 5.7 120 15:38 04.03.2020
1877 Clouds 16 1007 55 10000 5.1 110 15:19 04.03.2020
1878 Clouds 16 1007 62 10000 6.7 100 14:41 04.03.2020
1879 Clouds 17 1007 51 10000 5.7 150 14:22 04.03.2020
1880 Clouds 17 1007 48 10000 6.2 170 13:59 04.03.2020
1881 Clouds 17 1007 48 10000 6.2 170 13:39 04.03.2020
1882 Clouds 18 1007 45 10000 5.1 190 13:21 04.03.2020
1883 Clouds 18 1008 42 10000 5.7 210 12:56 04.03.2020
1884 Clouds 18 1008 42 10000 5.7 210 12:38 04.03.2020
1885 Clouds 18 1008 42 10000 6.2 210 12:20 04.03.2020
1886 Clouds 18 1008 45 10000 6.7 200 11:55 04.03.2020
1887 Clouds 18 1008 45 10000 6.7 200 11:37 04.03.2020
1888 Clouds 17 1008 45 10000 7.7 200 11:19 04.03.2020
1889 Clouds 17 1009 45 10000 6.2 200 10:41 04.03.2020
1890 Clouds 16 1009 48 10000 6.2 210 10:22 04.03.2020
1891 Clouds 15 1009 55 10000 5.7 220 09:45 04.03.2020
1892 Clouds 16 1009 52 10000 6.7 210 09:23 04.03.2020
1893 Clouds 16 1009 55 10000 7.7 200 08:59 04.03.2020
1894 Clouds 15 1009 55 10000 7.7 200 08:40 04.03.2020
1895 Clouds 13 1009 59 10000 6.2 200 08:22 04.03.2020
1896 Clouds 13 1009 62 10000 6.7 190 07:44 04.03.2020
1897 Clouds 12 1009 58 10000 6.7 190 07:25 04.03.2020
1898 Clouds 13 1009 67 10000 7.2 190 06:49 04.03.2020
1899 Clouds 13 1009 62 10000 5.1 200 06:26 04.03.2020
1900 Clouds 13 1009 67 10000 5.1 200 05:55 04.03.2020
1901 Clouds 12 1009 71 10000 1.5 180 04:59 04.03.2020
1902 Clouds 11 1009 76 10000 2.6 300 03:50 04.03.2020
1903 Clouds 11 1009 81 10000 2.1 260 03:31 04.03.2020
1904 Clouds 12 1009 71 10000 6.4 206 02:58 04.03.2020
1905 Clouds 13 1009 66 10000 1 0 02:25 04.03.2020
1906 Clouds 13 1010 62 10000 2.1 150 01:56 04.03.2020
1907 Clouds 13 1010 62 10000 2.6 170 01:31 04.03.2020
1908 Clouds 13 1010 58 10000 4.1 200 00:41 04.03.2020
1909 Clouds 13 1010 62 10000 3.1 220 00:19 04.03.2020
1910 Clouds 14 1010 58 10000 3.6 190 23:41 03.03.2020
1911 Clear 14 1010 58 10000 4.6 220 23:22 03.03.2020
1912 Clear 14 1010 58 10000 3.1 240 22:42 03.03.2020
1913 Clear 17 1010 51 10000 7.7 220 22:20 03.03.2020
1914 Clear 15 1010 55 10000 4.1 250 21:59 03.03.2020
1915 Clear 15 1010 55 10000 4.1 250 21:40 03.03.2020
1916 Clear 15 1010 55 10000 3.1 240 21:21 03.03.2020
1917 Clear 15 1010 55 10000 4.6 210 20:57 03.03.2020
1918 Clear 15 1010 55 10000 4.6 210 20:38 03.03.2020
1919 Clear 15 1009 55 10000 3.6 220 20:18 03.03.2020
1920 Clear 16 1009 55 10000 3.1 230 19:56 03.03.2020
1921 Clear 16 1009 55 10000 3.1 230 19:37 03.03.2020
1922 Clear 16 1009 55 10000 3.1 230 19:37 03.03.2020
1923 Clear 16 1009 52 10000 4.6 220 19:18 03.03.2020
1924 Clear 17 1009 52 10000 3.1 200 18:55 03.03.2020
1925 Clear 17 1009 52 10000 3.1 200 18:37 03.03.2020
1926 Clear 17 1009 52 10000 3.1 200 18:37 03.03.2020
1927 Clear 17 1009 48 10000 5.7 210 18:18 03.03.2020
1928 Clear 19 1008 45 10000 4.1 200 17:40 03.03.2020
1929 Clear 19 1008 45 10000 5.1 210 17:21 03.03.2020
1930 Clear 20 1008 43 10000 5.7 200 16:59 03.03.2020
1931 Clear 20 1008 43 10000 5.7 200 16:38 03.03.2020
1932 Clear 20 1008 43 10000 5.7 200 16:38 03.03.2020
1933 Clear 21 1008 40 10000 5.1 210 16:20 03.03.2020
1934 Clear 21 1008 40 10000 5.1 210 16:20 03.03.2020
1935 Clear 21 1008 43 10000 6.2 210 15:57 03.03.2020
1936 Clear 21 1008 43 10000 6.2 210 15:39 03.03.2020
1937 Clear 21 1009 40 10000 6.7 220 15:20 03.03.2020
1938 Clear 21 1009 40 10000 7.7 250 14:43 03.03.2020
1939 Clouds 21 1009 43 10000 5.1 230 14:20 03.03.2020
1940 Clouds 21 1009 46 10000 5.1 240 13:58 03.03.2020
1941 Clouds 21 1009 46 10000 5.1 240 13:40 03.03.2020
1942 Clouds 21 1009 46 10000 7.2 250 13:21 03.03.2020
1943 Clouds 21 1009 46 10000 7.2 250 13:21 03.03.2020
1944 Clouds 21 1009 46 10000 7.7 250 12:47 03.03.2020
1945 Clouds 22 1009 43 10000 7.7 230 12:26 03.03.2020
1946 Clouds 21 1010 46 10000 7.7 240 11:58 03.03.2020
1947 Clouds 21 1010 46 10000 7.7 240 11:37 03.03.2020
1948 Clouds 21 1010 52 10000 5.7 240 11:18 03.03.2020
1949 Clouds 21 1010 52 10000 5.7 240 11:18 03.03.2020
1950 Clouds 19 1010 55 10000 5.7 250 10:56 03.03.2020
1951 Clouds 19 1011 55 10000 5.7 240 10:37 03.03.2020
1952 Clouds 19 1011 55 10000 5.7 240 10:18 03.03.2020
1953 Clouds 18 1011 55 10000 5.1 250 09:44 03.03.2020
1954 Clouds 18 1011 59 10000 3.1 0 09:22 03.03.2020
1955 Clouds 16 1011 67 10000 1 0 08:56 03.03.2020
1956 Clouds 15 1011 67 10000 1 0 08:37 03.03.2020
1957 Clouds 14 1011 71 10000 1.5 180 08:19 03.03.2020
1958 Clouds 13 1011 76 10000 2.1 130 07:42 03.03.2020
1959 Clouds 12 1011 81 10000 3.6 120 07:19 03.03.2020
1960 Clouds 9 1010 87 10000 4.1 100 06:41 03.03.2020
1961 Clouds 9 1010 87 10000 4.1 100 06:22 03.03.2020
1962 Clouds 8 1010 87 10000 4.1 90 05:47 03.03.2020
1963 Clouds 9 1010 81 10000 3.6 110 04:58 03.03.2020
1964 Clouds 9 1010 76 10000 3.6 120 03:52 03.03.2020
1965 Clouds 9 1010 81 10000 2.1 100 01:40 03.03.2020
1966 Clouds 10 1011 76 10000 1.5 90 00:48 03.03.2020
1967 Clouds 10 1011 71 10000 1.5 120 00:26 03.03.2020
1968 Clouds 11 1011 71 10000 1 0 23:52 02.03.2020
1969 Clouds 11 1011 71 10000 1.5 110 23:24 02.03.2020
1970 Clouds 11 1010 66 10000 1.5 0 22:58 02.03.2020
1971 Clouds 11 1010 66 10000 1.5 0 22:39 02.03.2020
1972 Clouds 10 1010 71 10000 1 0 22:20 02.03.2020
1973 Clouds 11 1010 66 10000 1 0 21:59 02.03.2020
1974 Clouds 11 1010 66 10000 1 0 21:39 02.03.2020
1975 Clouds 11 1010 62 10000 1.5 10 21:21 02.03.2020
1976 Clouds 12 1010 58 10000 1 0 20:58 02.03.2020
1977 Clouds 12 1010 58 10000 1 0 20:38 02.03.2020
1978 Clear 11 1010 66 10000 1.5 140 20:20 02.03.2020
1979 Clear 11 1010 66 10000 1.5 140 20:20 02.03.2020
1980 Clear 12 1010 58 10000 1 0 19:55 02.03.2020
1981 Clear 12 1010 58 10000 1 0 19:37 02.03.2020
1982 Clear 12 1010 54 10000 1 0 19:18 02.03.2020
1983 Clear 13 1010 47 10000 1.5 40 18:44 02.03.2020
1984 Clear 14 1010 47 10000 1.5 330 18:19 02.03.2020
1985 Clear 14 1009 47 10000 2.1 300 17:58 02.03.2020
1986 Clear 14 1009 47 10000 2.1 300 17:40 02.03.2020
1987 Clear 16 1009 39 10000 2.6 290 17:21 02.03.2020
1988 Clear 17 1009 39 10000 3.6 240 16:55 02.03.2020
1989 Clear 18 1009 39 10000 3.6 240 16:36 02.03.2020
1990 Clear 19 1008 34 10000 4.1 220 16:18 02.03.2020
1991 Clear 19 1008 34 10000 4.6 220 15:42 02.03.2020
1992 Clear 20 1008 34 10000 4.6 240 15:20 02.03.2020
1993 Clear 20 1008 34 10000 5.7 230 14:41 02.03.2020
1994 Clouds 18 1008 37 10000 5.7 250 14:20 02.03.2020
1995 Clouds 18 1008 37 10000 5.1 250 13:58 02.03.2020
1996 Clouds 17 1008 37 10000 5.1 250 13:38 02.03.2020
1997 Clouds 17 1008 42 10000 6.7 260 13:18 02.03.2020
1998 Clouds 17 1008 39 10000 6.7 240 12:43 02.03.2020
1999 Clouds 16 1009 42 10000 6.2 240 12:19 02.03.2020
2000 Clouds 16 1009 44 10000 5.1 220 11:55 02.03.2020
2001 Clouds 14 1009 44 10000 5.1 220 11:36 02.03.2020
2002 Clouds 13 1009 47 10000 4.6 240 11:18 02.03.2020
2003 Clouds 12 1009 54 10000 4.1 270 10:42 02.03.2020
2004 Clouds 12 1010 58 10000 3.1 280 10:20 02.03.2020
2005 Clouds 11 1010 62 10000 2.6 200 09:56 02.03.2020
2006 Clouds 11 1010 62 10000 2.6 200 09:37 02.03.2020
2007 Clouds 9 1010 71 10000 3.1 150 09:18 02.03.2020
2008 Clouds 9 1010 76 10000 3.1 140 08:41 02.03.2020
2009 Clouds 8 1010 81 10000 4.1 130 08:19 02.03.2020
2010 Clouds 7 1010 87 10000 3.1 120 07:41 02.03.2020
2011 Clouds 5 1011 100 10000 4.1 120 06:57 02.03.2020
2012 Clouds 5 1011 100 10000 4.1 120 06:37 02.03.2020
2013 Clouds 4 1011 93 10000 3.6 110 05:52 02.03.2020
2014 Clouds 4 1012 100 10000 3.1 120 04:19 02.03.2020
2015 Clouds 4 1012 93 10000 3.1 120 03:19 02.03.2020
2016 Clouds 4 1012 93 10000 2.6 110 02:36 02.03.2020
2017 Mist 4 1014 93 5000 2.1 100 01:42 02.03.2020
2018 Clouds 4 1014 100 9000 2.6 120 01:23 02.03.2020
2019 Clouds 4 1014 100 8000 3.1 120 00:23 02.03.2020
2020 Clouds 4 1015 100 7000 3.6 110 23:56 01.03.2020
2021 Clouds 4 1015 100 7000 3.6 110 23:38 01.03.2020
2022 Clouds 4 1015 100 6000 2.1 90 23:19 01.03.2020
2023 Clouds 4 1015 100 7000 2.6 110 22:42 01.03.2020
2024 Mist 4 1015 100 4000 2.6 110 22:19 01.03.2020
2025 Mist 4 1015 100 5000 1.5 80 21:44 01.03.2020
2026 Clouds 4 1016 100 7000 1 0 21:25 01.03.2020
2027 Clouds 5 1016 100 9000 2.1 100 20:59 01.03.2020
2028 Clouds 5 1016 100 9000 2.1 100 20:41 01.03.2020
2029 Clouds 6 1016 93 10000 2.6 110 20:22 01.03.2020
2030 Clouds 6 1016 87 10000 2.1 110 19:43 01.03.2020
2031 Clouds 6 1016 87 10000 2.1 110 19:24 01.03.2020
2032 Clouds 6 1016 87 10000 2.6 140 18:59 01.03.2020
2033 Clouds 6 1016 87 10000 2.6 140 18:40 01.03.2020
2034 Clouds 6 1016 81 10000 3.1 0 18:19 01.03.2020
2035 Clouds 7 1016 75 10000 4.1 140 17:57 01.03.2020
2036 Clouds 7 1016 75 10000 3.6 120 17:39 01.03.2020
2037 Clouds 7 1016 75 10000 3.6 120 17:20 01.03.2020
2038 Clouds 8 1016 70 10000 4.1 130 16:57 01.03.2020
2039 Clouds 8 1016 70 10000 4.1 130 16:38 01.03.2020
2040 Clouds 8 1016 66 10000 4.6 130 16:18 01.03.2020
2041 Clouds 9 1016 66 10000 6.7 130 15:56 01.03.2020
2042 Clouds 9 1016 66 10000 6.7 130 15:37 01.03.2020
2043 Clouds 9 1016 66 10000 6.7 130 15:37 01.03.2020
2044 Clouds 9 1016 61 10000 7.2 140 15:18 01.03.2020
2045 Clouds 10 1016 61 10000 7.7 120 14:55 01.03.2020
2046 Clouds 11 1016 61 10000 7.7 120 14:37 01.03.2020
2047 Clouds 11 1016 62 10000 7.2 130 14:18 01.03.2020
2048 Clouds 12 1016 62 10000 7.2 130 13:44 01.03.2020
2049 Clouds 11 1016 57 10000 7.7 120 13:21 01.03.2020
2050 Clouds 13 1016 54 10000 6.7 120 12:59 01.03.2020
2051 Clouds 13 1016 54 10000 6.7 120 12:41 01.03.2020
2052 Clouds 13 1017 53 10000 6.7 120 12:20 01.03.2020
2053 Clouds 13 1017 53 10000 6.7 120 12:20 01.03.2020
2054 Clouds 13 1017 46 10000 4.6 180 11:41 01.03.2020
2055 Clouds 11 1018 50 10000 4.6 0 11:22 01.03.2020
2056 Clouds 10 1018 53 10000 5.1 160 10:57 01.03.2020
2057 Clouds 10 1018 53 10000 5.1 160 10:38 01.03.2020
2058 Clouds 10 1018 53 10000 3.6 190 10:19 01.03.2020
2059 Clouds 10 1019 74 10000 4.1 170 09:46 01.03.2020
2060 Clouds 10 1019 74 10000 4.1 170 09:46 01.03.2020
2061 Clouds 9 1019 74 10000 4.1 170 09:27 01.03.2020
2062 Clouds 8 1019 65 10000 3.6 140 08:57 01.03.2020
2063 Clouds 7 1019 65 10000 3.6 140 08:38 01.03.2020
2064 Clear 7 1019 70 10000 4.1 130 08:19 01.03.2020
2065 Clear 5 1019 75 10000 2.6 120 07:42 01.03.2020
2066 Clear 3 1019 76 10000 3.1 120 07:23 01.03.2020
2067 Clear 3 1018 80 10000 2.6 120 06:51 01.03.2020
2068 Clear 2 1018 86 10000 2.1 110 06:29 01.03.2020
2069 Clear 0 1019 100 10000 1.5 30 04:18 01.03.2020
2070 Clear 0 1020 100 6000 1 0 02:27 01.03.2020
2071 Mist -1 1020 92 5000 1.5 230 01:52 01.03.2020
2072 Clear -1 1020 100 6000 2.1 350 01:21 01.03.2020
2073 Clear 0 1020 80 8000 2.1 30 00:42 01.03.2020
2074 Clear 0 1020 80 9000 2.6 20 00:21 01.03.2020
2075 Clear 0 1020 80 8000 1.5 260 23:46 29.02.2020
2076 Clear -1 1020 92 10000 2.6 340 23:28 29.02.2020
2077 Clear 0 1020 79 10000 2.1 210 22:42 29.02.2020
2078 Clear 0 1020 79 10000 2.6 10 22:23 29.02.2020
2079 Clear 0 1020 79 10000 2.1 330 21:42 29.02.2020
2080 Clear 0 1020 79 10000 1.5 360 21:23 29.02.2020
2081 Clear 1 1020 79 10000 1.5 50 20:43 29.02.2020
2082 Clouds 1 1020 78 10000 2.1 0 20:22 29.02.2020
2083 Clouds 2 1020 78 10000 2.6 330 19:57 29.02.2020
2084 Clouds 2 1020 78 10000 2.6 330 19:38 29.02.2020
2085 Clouds 3 1020 75 10000 3.6 360 19:19 29.02.2020
2086 Clouds 3 1020 78 10000 3.1 350 18:43 29.02.2020
2087 Clouds 4 1019 75 10000 1.5 240 18:24 29.02.2020
2088 Clouds 5 1019 65 10000 1.5 0 17:58 29.02.2020
2089 Clouds 6 1019 65 10000 1.5 0 17:40 29.02.2020
2090 Rain 6 1018 70 10000 2.6 330 17:20 29.02.2020
2091 Rain 6 1018 70 10000 2.6 330 17:20 29.02.2020
2092 Clouds 7 1018 65 10000 3.6 340 16:45 29.02.2020
2093 Clouds 7 1018 65 10000 5.7 310 16:22 29.02.2020
2094 Clouds 7 1018 65 10000 6.2 310 15:58 29.02.2020
2095 Clouds 7 1018 65 10000 6.2 310 15:40 29.02.2020
2096 Clouds 7 1018 61 10000 3.6 330 15:21 29.02.2020
2097 Clouds 8 1018 61 10000 4.1 320 14:41 29.02.2020
2098 Clouds 8 1017 61 10000 4.6 340 14:22 29.02.2020
2099 Clouds 9 1017 61 10000 5.1 330 13:47 29.02.2020
2100 Clouds 8 1017 65 10000 4.6 320 13:28 29.02.2020
2101 Clouds 8 1017 70 10000 4.1 330 12:59 29.02.2020
2102 Clouds 8 1017 70 10000 4.1 330 12:40 29.02.2020
2103 Clouds 7 1017 70 10000 5.7 330 12:21 29.02.2020
2104 Clouds 8 1017 65 10000 3.6 360 11:55 29.02.2020
2105 Clouds 7 1017 70 10000 5.7 350 11:37 29.02.2020
2106 Clouds 7 1017 70 10000 5.7 350 11:18 29.02.2020
2107 Clouds 7 1017 75 10000 5.1 350 10:44 29.02.2020
2108 Clouds 7 1016 75 10000 4.6 360 10:26 29.02.2020
2109 Clouds 6 1016 81 10000 4.6 330 09:47 29.02.2020
2110 Clouds 5 1015 86 10000 7.2 350 09:23 29.02.2020
2111 Clouds 4 1015 86 10000 8.2 340 08:42 29.02.2020
2112 Rain 4 1014 93 10000 8.7 340 08:22 29.02.2020
2113 Clouds 4 1014 86 10000 8.7 340 07:56 29.02.2020
2114 Clouds 4 1014 86 10000 8.7 340 07:36 29.02.2020
2115 Clouds 3 1013 86 10000 7.7 330 07:18 29.02.2020
2116 Rain 3 1013 86 10000 6.7 340 06:41 29.02.2020
2117 Rain 3 1012 86 10000 6.7 340 06:22 29.02.2020
2118 Rain 3 1011 86 10000 8.2 340 05:40 29.02.2020
2119 Clouds 3 1011 86 10000 8.7 340 04:44 29.02.2020
2120 Rain 3 1010 86 10000 5.7 320 03:37 29.02.2020
2121 Rain 3 1010 86 10000 4.1 280 03:18 29.02.2020
2122 Clouds 3 1010 86 10000 4.1 260 02:32 29.02.2020
2123 Clouds 4 1009 80 10000 5.7 250 00:54 29.02.2020
2124 Clouds 4 1009 80 10000 5.7 250 00:36 29.02.2020
2125 Clouds 4 1009 86 10000 5.1 280 23:42 28.02.2020
2126 Drizzle 4 1009 86 10000 6.7 290 23:24 28.02.2020
2127 Clouds 5 1009 75 10000 6.7 280 22:43 28.02.2020
2128 Clouds 5 1009 75 10000 5.7 280 22:23 28.02.2020
2129 Rain 5 1009 93 7000 2.6 270 21:56 28.02.2020
2130 Rain 5 1009 93 7000 2.6 270 21:38 28.02.2020
2131 Rain 5 1009 93 10000 2.1 0 21:19 28.02.2020
2132 Clouds 5 1009 87 10000 1.5 80 20:39 28.02.2020
2133 Clouds 5 1009 86 10000 1.5 70 20:21 28.02.2020
2134 Clouds 4 1009 93 10000 2.6 90 19:57 28.02.2020
2135 Clouds 5 1009 93 10000 2.6 90 19:39 28.02.2020
2136 Clouds 5 1009 93 10000 2.6 90 19:39 28.02.2020
2137 Clouds 5 1009 86 10000 2.1 90 19:20 28.02.2020
2138 Clouds 4 1009 86 10000 3.6 100 18:47 28.02.2020
2139 Clouds 4 1009 86 10000 3.6 100 18:47 28.02.2020
2140 Clouds 4 1009 86 10000 3.6 100 18:47 28.02.2020
2141 Clouds 4 1009 80 10000 2.1 110 18:28 28.02.2020
2142 Clouds 5 1009 81 10000 2.6 80 17:58 28.02.2020
2143 Clouds 5 1009 81 10000 2.6 80 17:39 28.02.2020
2144 -273 0 0 0 0 0 17:39 28.02.2020
2145 Clouds 5 1009 81 10000 2.6 80 17:39 28.02.2020
2146 Clouds 5 1008 75 10000 4.6 130 17:20 28.02.2020
2147 Clouds 6 1008 70 10000 6.2 120 16:43 28.02.2020
2148 Clouds 8 1008 65 10000 6.7 130 16:20 28.02.2020
2149 Clouds 8 1008 61 10000 7.2 130 15:57 28.02.2020
2150 Clouds 8 1008 61 10000 7.2 130 15:39 28.02.2020
2151 Clouds 8 1008 57 10000 6.7 130 15:19 28.02.2020
2152 Clouds 9 1009 77 10000 6.7 130 14:55 28.02.2020
2153 Clouds 9 1009 77 10000 6.7 130 14:37 28.02.2020
2154 Clouds 9 1009 57 10000 8.2 110 14:18 28.02.2020
2155 Clouds 10 1009 66 10000 5.7 140 13:41 28.02.2020
2156 Clouds 10 1009 57 10000 6.7 110 13:20 28.02.2020
2157 Clouds 10 1009 57 10000 6.7 110 13:20 28.02.2020
2158 Clouds 10 1010 66 10000 5.1 120 12:47 28.02.2020
2159 Clouds 10 1010 40 10000 5.1 180 12:28 28.02.2020
2160 Clouds 10 1011 66 10000 4.6 140 11:59 28.02.2020
2161 Clouds 9 1011 66 10000 4.6 140 11:41 28.02.2020
2162 Clouds 8 1011 66 10000 4.6 150 11:21 28.02.2020
2163 Clouds 9 1011 49 10000 3.1 190 10:43 28.02.2020
2164 Clouds 8 1012 52 10000 3.1 0 10:24 28.02.2020
2165 Clouds 8 1012 61 10000 2.1 140 09:59 28.02.2020
2166 Clouds 8 1012 61 10000 2.1 140 09:40 28.02.2020
2167 Clouds 7 1012 66 10000 2.1 110 09:18 28.02.2020
2168 Clouds 6 1012 70 10000 0.5 0 08:42 28.02.2020
2169 Clouds 6 1012 70 10000 0.5 0 08:42 28.02.2020
2170 Clouds 6 1012 75 10000 0.5 0 08:20 28.02.2020
2171 Clouds 4 1012 80 10000 0.5 0 07:45 28.02.2020
2172 Clouds 4 1012 93 10000 1 0 07:25 28.02.2020
2173 Clouds 2 1012 67 10000 1 70 06:51 28.02.2020
2174 Clouds 1 1012 67 10000 2.1 130 06:30 28.02.2020
2175 Clouds 1 1010 67 10000 3.1 330 05:29 28.02.2020
2176 Clouds 1 1010 93 10000 3.6 320 04:31 28.02.2020
2177 Clouds 2 1009 77 10000 4.1 250 02:55 28.02.2020
2178 Clouds 2 1009 86 10000 4.1 270 02:28 28.02.2020
2179 Clouds 3 1009 80 10000 3.6 310 01:46 28.02.2020
2180 Clouds 4 1007 75 10000 9.8 280 00:31 28.02.2020
2181 Clouds 5 1006 72 10000 9.3 270 23:47 27.02.2020
2182 Clouds 4 1006 68 10000 10.3 270 23:22 27.02.2020
2183 Clouds 5 1006 68 10000 8.2 270 22:56 27.02.2020
2184 Clouds 5 1006 68 10000 8.2 270 22:38 27.02.2020
2185 Clouds 5 1006 68 10000 7.7 270 22:20 27.02.2020
2186 Clouds 5 1005 68 10000 7.2 270 21:41 27.02.2020
2187 Clouds 5 1005 68 10000 8.2 270 21:23 27.02.2020
2188 Clouds 5 1005 75 10000 6.7 270 20:59 27.02.2020
2189 Clouds 5 1005 75 10000 6.7 270 20:41 27.02.2020
2190 Clouds 5 1004 75 10000 7.7 270 20:21 27.02.2020
2191 Clouds 6 1004 75 10000 6.2 270 19:57 27.02.2020
2192 Clouds 5 1004 75 10000 6.2 270 19:38 27.02.2020
2193 Clouds 6 1004 70 10000 6.7 270 19:20 27.02.2020
2194 Clouds 6 1004 70 10000 7.7 280 18:54 27.02.2020
2195 Clouds 6 1004 70 10000 7.7 280 18:36 27.02.2020
2196 Clouds 6 1004 81 10000 5.1 270 18:18 27.02.2020
2197 Clouds 7 1003 75 10000 5.1 280 17:40 27.02.2020
2198 Clouds 7 1002 75 10000 4.6 280 17:20 27.02.2020
2199 Clouds 7 1002 81 10000 6.7 290 16:59 27.02.2020
2200 Clouds 7 1002 81 10000 6.7 290 16:40 27.02.2020
2201 Clouds 8 1001 81 10000 8.2 290 16:20 27.02.2020
2202 Rain 8 1002 87 10000 7.7 290 15:59 27.02.2020
2203 Rain 8 1002 87 10000 7.7 290 15:37 27.02.2020
2204 Rain 9 1002 87 10000 8.2 270 15:19 27.02.2020
2205 Rain 9 1001 93 10000 9.3 280 14:56 27.02.2020
2206 Rain 9 1001 93 10000 9.3 280 14:37 27.02.2020
2207 Clouds 10 1000 76 10000 8.2 260 14:19 27.02.2020
2208 Rain 11 999 76 10000 13.4 260 13:42 27.02.2020
2209 Clouds 13 999 58 10000 3.6 190 13:21 27.02.2020
2210 Clouds 14 999 47 10000 5.7 210 12:55 27.02.2020
2211 Clouds 14 999 47 10000 5.7 210 12:37 27.02.2020
2212 Clouds 14 999 45 10000 8.2 220 12:18 27.02.2020
2213 Clouds 16 999 48 10000 7.7 220 11:41 27.02.2020
2214 Clouds 16 1000 51 10000 7.2 220 11:21 27.02.2020
2215 Clouds 16 1000 51 10000 7.2 220 11:21 27.02.2020
2216 Clouds 17 1000 52 10000 6.7 220 10:44 27.02.2020
2217 Clouds 16 1001 55 10000 5.7 230 10:23 27.02.2020
2218 Clouds 16 1001 55 10000 7.7 220 09:49 27.02.2020
2219 Clouds 16 1001 59 10000 7.7 230 09:29 27.02.2020
2220 Clouds 15 1001 59 10000 8.7 210 08:58 27.02.2020
2221 Clouds 16 1001 59 10000 8.7 210 08:40 27.02.2020
2222 Clouds 15 1001 59 10000 6.2 220 08:22 27.02.2020
2223 Clouds 13 1001 62 10000 3.1 290 07:44 27.02.2020
2224 Clouds 12 1001 67 10000 4.1 240 07:25 27.02.2020
2225 Clouds 13 1001 67 10000 3.1 220 06:46 27.02.2020
2226 Clouds 13 1000 67 10000 4.6 240 05:35 27.02.2020
2227 Clouds 13 999 71 10000 4.1 240 03:38 27.02.2020
2228 Clouds 13 1000 71 10000 5.1 230 02:20 27.02.2020
2229 Clouds 13 1000 67 10000 3.6 240 00:45 27.02.2020
2230 Clouds 12 1000 71 10000 3.6 290 00:25 27.02.2020
2231 Clouds 13 1000 66 10000 4.6 280 23:39 26.02.2020
2232 Clouds 13 1000 62 10000 2.1 320 23:19 26.02.2020
2233 Clouds 13 1000 62 10000 4.6 250 22:57 26.02.2020
2234 Clouds 13 1000 62 10000 4.6 250 22:38 26.02.2020
2235 Clouds 13 1000 62 10000 1 0 22:19 26.02.2020
2236 Clouds 13 1000 62 10000 2.6 260 21:55 26.02.2020
2237 Clouds 13 1000 62 10000 2.6 260 21:36 26.02.2020
2238 Clouds 14 1000 58 10000 4.1 240 21:18 26.02.2020
2239 Clouds 14 1000 58 10000 3.6 260 20:54 26.02.2020
2240 Clouds 14 1000 58 10000 3.6 260 20:54 26.02.2020
2241 Clouds 14 1000 58 10000 3.6 260 20:36 26.02.2020
2242 Clouds 14 1000 58 10000 3.6 260 20:36 26.02.2020
2243 Clouds 13 1000 58 10000 3.1 260 20:18 26.02.2020
2244 Clouds 13 1000 55 10000 4.6 220 19:44 26.02.2020
2245 Clouds 14 1000 55 10000 4.1 200 19:20 26.02.2020
2246 Clouds 13 1000 55 10000 4.6 200 18:57 26.02.2020
2247 Clouds 14 1000 55 10000 4.6 200 18:39 26.02.2020
2248 Clouds 13 1000 55 10000 2.6 160 18:20 26.02.2020
2249 Clouds 14 1000 58 10000 5.1 190 17:41 26.02.2020
2250 Clouds 15 1000 48 10000 4.1 210 17:21 26.02.2020
2251 Clouds 16 1000 48 10000 3.6 220 16:57 26.02.2020
2252 Clouds 16 1000 48 10000 3.6 220 16:39 26.02.2020
2253 Clouds 16 1000 42 10000 3.1 210 16:20 26.02.2020
2254 Clouds 17 1000 42 10000 3.1 250 15:46 26.02.2020
2255 Clouds 17 1000 42 10000 3.1 250 15:28 26.02.2020
2256 Clouds 17 1000 42 10000 5.1 240 14:55 26.02.2020
2257 Clouds 17 1000 42 10000 5.1 240 14:37 26.02.2020
2258 Clouds 17 1001 39 10000 6.2 240 14:18 26.02.2020
2259 Clouds 19 1001 37 10000 5.7 210 13:42 26.02.2020
2260 Clouds 19 1001 34 10000 5.1 210 13:20 26.02.2020
2261 Clouds 19 1001 37 10000 4.6 240 12:39 26.02.2020
2262 Clouds 18 1002 37 10000 5.1 250 12:20 26.02.2020
2263 Clouds 17 1002 39 10000 5.1 250 11:56 26.02.2020
2264 Clouds 17 1002 39 10000 5.1 250 11:56 26.02.2020
2265 Clouds 17 1002 39 10000 5.1 250 11:38 26.02.2020
2266 Clouds 17 1003 39 10000 4.6 240 11:20 26.02.2020
2267 Clouds 15 1003 39 10000 4.6 260 10:41 26.02.2020
2268 Clouds 15 1003 39 10000 4.6 260 10:41 26.02.2020
2269 Clouds 16 1003 42 10000 3.6 240 10:22 26.02.2020
2270 Clouds 16 1004 47 10000 4.1 280 09:56 26.02.2020
2271 Clouds 16 1004 47 10000 4.1 280 09:38 26.02.2020
2272 Clouds 15 1004 50 10000 4.1 280 09:18 26.02.2020
2273 Clouds 13 1004 54 10000 4.6 300 08:38 26.02.2020
2274 Clouds 11 1004 54 10000 3.1 300 08:19 26.02.2020
2275 Clouds 8 1004 61 10000 2.6 310 07:50 26.02.2020
2276 Clouds 10 1004 61 10000 3.6 320 07:29 26.02.2020
2277 Clouds 9 1004 65 10000 4.1 310 06:54 26.02.2020
2278 Clouds 9 1004 65 10000 4.1 310 06:36 26.02.2020
2279 Clouds 8 1004 65 10000 3.6 340 06:18 26.02.2020
2280 Clouds 8 1004 65 10000 3.6 330 05:43 26.02.2020
2281 Clouds 8 1004 61 10000 3.1 340 04:49 26.02.2020
2282 Clouds 8 1005 73 10000 3.1 320 02:51 26.02.2020
2283 Clouds 8 1005 52 10000 1 0 01:49 26.02.2020
2284 Clouds 8 1006 49 10000 5.27 190 00:51 26.02.2020
2285 Clouds 8 1006 49 10000 1.5 170 00:25 26.02.2020
2286 Clouds 8 1007 49 10000 1.5 140 23:56 25.02.2020
2287 Clouds 8 1007 49 10000 1.5 140 23:37 25.02.2020
2288 Clouds 9 1007 49 10000 3.1 140 23:19 25.02.2020
2289 Clouds 7 1008 52 10000 0.5 0 22:42 25.02.2020
2290 Clouds 9 1008 45 10000 1.5 140 22:19 25.02.2020
2291 Clouds 9 1009 43 10000 1 0 21:56 25.02.2020
2292 Clouds 9 1009 43 10000 1 0 21:36 25.02.2020
2293 Clouds 9 1009 49 10000 1 0 21:18 25.02.2020
2294 Clouds 9 1009 49 10000 2.1 110 20:55 25.02.2020
2295 Clouds 9 1009 49 10000 2.1 110 20:36 25.02.2020
2296 Clouds 9 1010 43 10000 2.1 170 20:18 25.02.2020
2297 Clouds 9 1010 46 10000 1.5 150 19:42 25.02.2020
2298 Clouds 8 1010 68 10000 2.6 130 19:19 25.02.2020
2299 Clouds 9 1011 68 10000 1.5 150 18:43 25.02.2020
2300 Clouds 9 1011 68 10000 3.1 140 18:22 25.02.2020
2301 Clouds 10 1011 40 10000 3.6 180 18:00 25.02.2020
2302 Clouds 10 1011 40 10000 3.6 180 17:38 25.02.2020
2303 Clear 10 1011 40 10000 3.1 170 17:20 25.02.2020
2304 Clear 11 1011 35 10000 4.6 200 16:59 25.02.2020
2305 Clear 11 1011 35 10000 4.6 200 16:40 25.02.2020
2306 Clear 11 1011 35 10000 4.6 200 16:40 25.02.2020
2307 Clear 12 1012 33 10000 6.7 200 16:22 25.02.2020
2308 Clear 12 1012 35 10000 3.6 180 15:57 25.02.2020
2309 Clear 12 1012 35 10000 3.6 180 15:38 25.02.2020
2310 Clear 12 1013 33 10000 6.2 210 15:18 25.02.2020
2311 Clear 13 1013 28 10000 6.2 220 14:56 25.02.2020
2312 Clear 13 1013 28 10000 6.2 220 14:37 25.02.2020
2313 Clear 13 1013 30 10000 5.7 210 14:18 25.02.2020
2314 Clear 13 1013 30 10000 5.7 210 14:18 25.02.2020
2315 Clear 14 1014 26 10000 6.2 220 13:55 25.02.2020
2316 Clear 14 1014 26 10000 6.2 220 13:37 25.02.2020
2317 Clear 14 1014 33 10000 6.2 230 13:18 25.02.2020
2318 Clear 14 1015 69 10000 6.7 220 12:41 25.02.2020
2319 Clear 14 1015 35 10000 6.2 210 12:21 25.02.2020
2320 Clear 14 1016 69 10000 6.7 220 11:56 25.02.2020
2321 Clear 12 1016 69 10000 6.7 220 11:38 25.02.2020
2322 Clear 11 1017 65 10000 6.7 220 11:19 25.02.2020
2323 Clear 11 1017 65 10000 6.7 220 11:19 25.02.2020
2324 Clear 11 1017 65 10000 6.2 220 10:57 25.02.2020
2325 Clear 11 1017 65 10000 6.2 220 10:57 25.02.2020
2326 Clear 11 1017 65 10000 6.2 220 10:39 25.02.2020
2327 Clear 10 1017 65 10000 5.7 210 10:21 25.02.2020
2328 Clear 10 1017 65 10000 5.7 210 10:21 25.02.2020
2329 Clear 10 1018 49 10000 2.6 240 09:41 25.02.2020
2330 Clouds 10 1018 65 10000 3.1 220 09:20 25.02.2020
2331 Clear 8 1019 52 10000 1.5 170 08:45 25.02.2020
2332 Clear 6 1019 69 10000 0.5 0 08:26 25.02.2020
2333 Clear 5 1019 74 10000 0.5 0 07:51 25.02.2020
2334 Clear 3 1020 86 10000 1 220 07:28 25.02.2020
2335 Clear 1 1019 74 10000 3.77 184 06:59 25.02.2020
2336 Clear -2 1019 85 10000 3.77 184 06:26 25.02.2020
2337 Clear -1 1019 74 10000 1 0 05:24 25.02.2020
2338 Clear -1 1021 74 10000 1.5 310 02:47 25.02.2020
2339 Clear -1 1021 86 10000 2.1 280 01:28 25.02.2020
2340 Clear 1 1020 69 10000 0.5 0 00:34 25.02.2020
2341 Clear 1 1021 74 10000 1.92 339 23:57 24.02.2020
2342 Clear 2 1021 74 10000 1.92 339 23:39 24.02.2020
2343 Clear 3 1021 69 10000 5.47 336 23:19 24.02.2020
2344 Clear 3 1020 64 10000 2.6 20 22:38 24.02.2020
2345 Clear 3 1020 69 10000 2.6 10 22:19 24.02.2020
2346 Clear 3 1020 74 10000 3.6 320 21:55 24.02.2020
2347 Clear 3 1020 74 10000 3.6 320 21:37 24.02.2020
2348 Clear 3 1020 69 10000 3.6 280 21:19 24.02.2020
2349 Clear 4 1019 65 10000 3.6 300 20:55 24.02.2020
2350 Clear 4 1019 65 10000 3.6 300 20:55 24.02.2020
2351 Clear 4 1019 65 10000 3.6 300 20:37 24.02.2020
2352 Clouds 4 1018 69 10000 2.6 320 20:18 24.02.2020
2353 Clouds 5 1018 60 10000 1.5 310 19:55 24.02.2020
2354 Clouds 6 1017 54 10000 2.1 260 19:37 24.02.2020
2355 Clouds 6 1017 54 10000 2.1 260 19:19 24.02.2020
2356 Clouds 7 1017 52 10000 3.6 300 18:41 24.02.2020
2357 Clouds 7 1016 54 10000 2.1 320 18:23 24.02.2020
2358 Clouds 8 1015 54 10000 2.6 350 17:55 24.02.2020
2359 Clouds 8 1015 54 10000 2.6 350 17:37 24.02.2020
2360 Clouds 9 1014 49 10000 4.1 360 17:18 24.02.2020
2361 Clouds 9 1013 53 10000 6.7 360 16:55 24.02.2020
2362 Clouds 10 1013 53 10000 6.7 360 16:36 24.02.2020
2363 Clouds 11 1012 49 10000 7.7 10 16:18 24.02.2020
2364 Clouds 11 1012 49 10000 7.7 10 16:18 24.02.2020
2365 Clouds 12 1011 37 10000 6.2 350 15:55 24.02.2020
2366 Clouds 12 1011 37 10000 6.2 350 15:37 24.02.2020
2367 Clouds 13 1010 35 10000 9.8 320 15:18 24.02.2020
2368 Clouds 14 1009 49 10000 10.8 330 14:40 24.02.2020
2369 Clouds 14 1008 51 10000 12.3 330 14:22 24.02.2020
2370 Rain 15 1007 38 10000 10.3 350 13:58 24.02.2020
2371 Rain 15 1007 38 10000 10.3 350 13:58 24.02.2020
2372 Rain 15 1007 38 10000 10.3 350 13:58 24.02.2020
2373 Rain 15 1007 38 10000 10.3 350 13:39 24.02.2020
2374 Clouds 18 1006 32 9000 15.9 290 13:21 24.02.2020
2375 Clouds 18 1005 30 10000 17.5 280 12:57 24.02.2020
2376 Clouds 19 1005 30 10000 17.5 280 12:38 24.02.2020
2377 Clouds 20 1004 34 10000 14.4 280 12:20 24.02.2020
2378 Clouds 20 1005 32 10000 15.9 270 11:46 24.02.2020
2379 Clouds 19 1005 30 10000 16.5 280 11:28 24.02.2020
2380 Clouds 18 1005 29 10000 15.9 280 10:47 24.02.2020
2381 Clouds 18 1005 24 10000 13.4 280 10:29 24.02.2020
2382 Clouds 16 1005 27 10000 7.7 260 09:54 24.02.2020
2383 Clouds 15 1005 27 10000 7.7 260 09:36 24.02.2020
2384 Clouds 14 1006 37 10000 2.6 220 09:18 24.02.2020
2385 Clouds 12 1007 40 10000 3.1 250 08:46 24.02.2020
2386 Clouds 12 1007 56 10000 1.5 290 08:27 24.02.2020
2387 Clouds 10 1007 46 10000 2.1 310 07:46 24.02.2020
2388 Clouds 10 1007 49 10000 1.5 310 07:27 24.02.2020
2389 Clouds 9 1007 49 10000 3.1 310 06:37 24.02.2020
2390 Clouds 9 1007 49 10000 2.1 350 06:18 24.02.2020
2391 Clouds 9 1007 45 10000 1.5 0 05:30 24.02.2020
2392 Clouds 9 1008 45 10000 2.6 360 04:25 24.02.2020
2393 Clouds 7 1009 56 10000 2.6 350 02:55 24.02.2020
2394 Clouds 7 1011 60 10000 2.1 340 01:46 24.02.2020
2395 Clouds 7 1012 60 10000 2.6 330 00:59 24.02.2020
2396 Clouds 6 1012 60 10000 2.1 330 00:28 24.02.2020
2397 Clouds 7 1013 56 10000 2.6 310 23:59 23.02.2020
2398 Clouds 7 1013 56 10000 2.6 310 23:41 23.02.2020
2399 Clouds 6 1013 56 10000 2.6 340 23:19 23.02.2020
2400 Clouds 6 1014 56 10000 2.1 350 22:56 23.02.2020
2401 Clouds 6 1014 56 10000 2.1 350 22:37 23.02.2020
2402 Clouds 6 1014 60 10000 3.6 340 22:18 23.02.2020
2403 Clouds 5 1015 60 10000 2.6 340 21:44 23.02.2020
2404 Clouds 5 1015 60 10000 3.1 360 21:20 23.02.2020
2405 Clouds 5 1016 67 10000 2.1 10 20:56 23.02.2020
2406 Clouds 5 1016 67 10000 2.1 10 20:38 23.02.2020
2407 Clouds 5 1016 65 10000 1.5 40 20:20 23.02.2020
2408 Clouds 6 1017 71 10000 1.5 40 19:56 23.02.2020
2409 Clouds 6 1017 71 10000 1.5 40 19:38 23.02.2020
2410 Clouds 6 1017 60 10000 0.5 0 19:18 23.02.2020
2411 Clouds 6 1018 56 10000 1 0 18:55 23.02.2020
2412 Clouds 6 1018 56 10000 1 0 18:36 23.02.2020
2413 Clouds 8 1018 49 10000 2.1 270 18:18 23.02.2020
2414 Clouds 8 1018 49 10000 1.5 300 17:56 23.02.2020
2415 Clouds 8 1018 49 10000 1.5 300 17:37 23.02.2020
2416 Clouds 9 1018 70 10000 2.6 220 17:18 23.02.2020
2417 Clouds 10 1018 40 10000 3.6 240 16:42 23.02.2020
2418 Clouds 11 1018 70 10000 4.1 220 16:24 23.02.2020
2419 Clouds 11 1019 70 10000 5.1 240 15:57 23.02.2020
2420 Clouds 11 1019 70 10000 5.1 240 15:38 23.02.2020
2421 Clouds 12 1019 70 10000 5.1 240 15:20 23.02.2020
2422 Clouds 12 1019 37 10000 6.2 240 14:55 23.02.2020
2423 Clouds 13 1019 37 10000 6.2 240 14:37 23.02.2020
2424 Clouds 12 1020 37 10000 5.7 230 14:19 23.02.2020
2425 Clouds 12 1021 35 10000 7.2 250 13:55 23.02.2020
2426 Clouds 13 1021 35 10000 7.2 250 13:37 23.02.2020
2427 Clouds 13 1021 37 10000 6.2 240 13:19 23.02.2020
2428 Clouds 12 1022 40 10000 7.7 240 12:40 23.02.2020
2429 Clouds 12 1023 50 10000 5.1 240 12:21 23.02.2020
2430 Clouds 11 1023 53 10000 6.2 230 11:39 23.02.2020
2431 Clouds 9 1024 57 10000 5.1 250 11:20 23.02.2020
2432 Clouds 9 1024 61 10000 5.1 250 10:59 23.02.2020
2433 Clouds 9 1024 61 10000 5.1 250 10:40 23.02.2020
2434 Clouds 8 1025 65 10000 4.1 270 10:22 23.02.2020
2435 Clouds 7 1025 70 10000 4.1 270 09:56 23.02.2020
2436 Clouds 6 1025 70 10000 4.1 270 09:38 23.02.2020
2437 Clouds 5 1025 75 10000 2.6 250 09:18 23.02.2020
2438 Mist 6 1025 86 5000 2.1 250 08:46 23.02.2020
2439 Mist 4 1025 86 4900 3.86 218 08:25 23.02.2020
2440 Mist 3 1025 70 3800 0.5 0 07:47 23.02.2020
2441 Mist 1 1025 100 2200 0.5 0 07:28 23.02.2020
2442 Mist -1 1025 100 3600 1 290 06:25 23.02.2020
2443 Clear -1 1025 100 9000 1.5 360 05:22 23.02.2020
2444 Mist -1 1025 100 3600 1 270 04:23 23.02.2020
2445 Clear -2 1027 100 6000 0.5 310 02:50 23.02.2020
2446 Clear 1 1027 100 6000 1 320 01:42 23.02.2020
2447 Clouds 0 1027 100 7000 1.5 300 01:20 23.02.2020
2448 Clouds 0 1027 70 6000 1 180 00:44 23.02.2020
2449 Clouds 1 1028 70 7000 1 0 00:22 23.02.2020
2450 Clear 1 1028 70 8000 1 0 23:43 22.02.2020
2451 Clear 0 1028 68 7000 1.5 230 23:24 22.02.2020
2452 Clear 1 1028 68 9000 1 0 22:45 22.02.2020
2453 Clear 1 1028 68 9000 0.5 0 22:20 22.02.2020
2454 Clear 1 1028 86 10000 2.1 260 21:46 22.02.2020
2455 Clear 1 1028 80 10000 0.5 0 21:28 22.02.2020
2456 Clear 1 1028 68 10000 2.75 301 20:59 22.02.2020
2457 Clear 1 1028 68 10000 2.75 301 20:40 22.02.2020
2458 Clear 2 1029 74 10000 1 0 20:21 22.02.2020
2459 Clouds 1 1029 80 10000 1.5 320 19:43 22.02.2020
2460 Clouds 1 1028 80 10000 2.1 360 19:24 22.02.2020
2461 Clouds 2 1028 80 10000 2.1 350 18:57 22.02.2020
2462 Clouds 2 1028 80 10000 2.1 350 18:37 22.02.2020
2463 Clouds 3 1028 74 10000 2.1 340 18:19 22.02.2020
2464 Clouds 3 1028 69 10000 2.1 330 17:44 22.02.2020
2465 Clouds 5 1028 60 10000 2.1 360 17:26 22.02.2020
2466 Clouds 6 1028 56 10000 2.6 360 16:59 22.02.2020
2467 Clouds 6 1028 56 10000 2.6 360 16:40 22.02.2020
2468 Clouds 6 1027 56 10000 2.1 350 16:20 22.02.2020
2469 Clouds 7 1027 52 10000 3.1 10 15:55 22.02.2020
2470 Clouds 7 1027 52 10000 3.1 10 15:37 22.02.2020
2471 Clouds 7 1027 52 10000 3.6 20 15:19 22.02.2020
2472 Clouds 7 1027 52 10000 4.1 360 14:41 22.02.2020
2473 Clouds 7 1027 71 10000 3.6 10 14:21 22.02.2020
2474 Clouds 7 1027 76 10000 3.6 360 13:43 22.02.2020
2475 Clouds 7 1027 76 10000 3.6 360 13:43 22.02.2020
2476 Clouds 8 1027 76 10000 4.1 20 13:20 22.02.2020
2477 Clouds 8 1027 81 10000 4.1 40 12:58 22.02.2020
2478 Clouds 7 1027 81 10000 4.1 40 12:39 22.02.2020
2479 Clouds 7 1027 81 10000 4.6 10 12:20 22.02.2020
2480 Clouds 7 1027 61 10000 4.1 20 11:43 22.02.2020
2481 Clouds 6 1027 65 10000 4.6 40 11:25 22.02.2020
2482 Clouds 7 1027 65 10000 3.6 10 10:55 22.02.2020
2483 Clouds 7 1027 65 10000 3.6 10 10:36 22.02.2020
2484 Clouds 6 1026 75 10000 3.6 30 10:18 22.02.2020
2485 Clouds 6 1026 75 10000 3.6 30 09:41 22.02.2020
2486 Clouds 5 1026 81 10000 2.6 360 09:22 22.02.2020
2487 Clouds 5 1026 75 10000 3.1 350 08:55 22.02.2020
2488 Clouds 5 1025 80 10000 2.6 300 08:28 22.02.2020
2489 Clouds 4 1025 75 10000 1.5 0 07:59 22.02.2020
2490 Clouds 4 1025 75 10000 1.5 0 07:38 22.02.2020
2491 Clouds 4 1025 75 10000 1.5 0 07:38 22.02.2020
2492 Clouds 4 1025 75 10000 1.5 0 07:18 22.02.2020
2493 Clouds 4 1024 75 10000 3.6 300 06:41 22.02.2020
2494 Clouds 3 1023 93 5000 4.23 335 04:44 22.02.2020
2495 Mist 2 1022 100 4600 2.1 280 03:47 22.02.2020
2496 Mist 2 1022 93 5000 4.23 335 02:34 22.02.2020
2497 Clouds 2 1022 100 6000 1 0 01:47 22.02.2020
2498 Clouds 2 1022 93 7000 1 170 01:28 22.02.2020
2499 Clouds 2 1022 93 8000 1.5 130 00:46 22.02.2020
2500 Clouds 2 1022 93 8000 1 160 00:28 22.02.2020
2501 Clouds 2 1022 93 9000 1 120 23:53 21.02.2020
2502 Clouds 2 1022 93 9000 1.5 100 23:25 21.02.2020
2503 Clouds 4 1022 80 10000 2.1 190 22:58 21.02.2020
2504 Clouds 4 1022 80 10000 2.1 190 22:39 21.02.2020
2505 Clouds 4 1022 80 10000 2.1 190 22:39 21.02.2020
2506 Clouds 3 1022 80 10000 2.1 190 22:21 21.02.2020
2507 Clouds 3 1022 80 10000 3.1 290 21:42 21.02.2020
2508 Clouds 3 1022 86 10000 2.1 350 21:24 21.02.2020
2509 Clouds 3 1022 80 10000 2.1 330 20:56 21.02.2020
2510 Clouds 3 1022 80 10000 2.1 330 20:38 21.02.2020
2511 Clouds 3 1021 75 10000 3.1 10 20:19 21.02.2020
2512 Clouds 4 1021 80 10000 3.1 360 19:39 21.02.2020
2513 Clouds 4 1021 80 10000 3.1 360 19:39 21.02.2020
2514 Clouds 4 1021 80 10000 2.1 10 19:19 21.02.2020
2515 Clouds 4 1021 80 10000 3.1 290 18:42 21.02.2020
2516 Clouds 6 1021 75 10000 3.1 300 18:22 21.02.2020
2517 Clouds 6 1021 70 10000 2.1 310 17:56 21.02.2020
2518 Clouds 6 1021 70 10000 2.1 310 17:36 21.02.2020
2519 Clouds 6 1021 70 10000 2.1 300 17:18 21.02.2020
2520 Clouds 6 1021 70 10000 2.1 300 17:18 21.02.2020
2521 Clouds 6 1020 65 10000 2.1 320 16:41 21.02.2020
2522 Clouds 7 1020 61 10000 3.6 330 16:21 21.02.2020
2523 Clouds 7 1020 61 10000 4.1 340 15:57 21.02.2020
2524 Clouds 7 1020 61 10000 4.1 340 15:38 21.02.2020
2525 Clouds 7 1020 61 10000 4.1 340 15:38 21.02.2020
2526 Clouds 7 1020 61 10000 4.6 350 15:18 21.02.2020
2527 Clouds 8 1020 61 10000 4.1 330 14:42 21.02.2020
2528 Clouds 8 1020 61 10000 3.6 330 14:20 21.02.2020
2529 Clouds 8 1020 61 10000 4.1 350 13:45 21.02.2020
2530 Clouds 8 1020 61 10000 4.1 10 13:24 21.02.2020
2531 Clouds 8 1020 61 10000 5.1 350 12:56 21.02.2020
2532 Clouds 8 1020 61 10000 5.1 350 12:37 21.02.2020
2533 Clouds 8 1020 61 10000 5.1 350 12:19 21.02.2020
2534 Clouds 7 1020 65 10000 5.7 340 11:42 21.02.2020
2535 Clouds 8 1021 66 10000 4.1 350 11:23 21.02.2020
2536 Clouds 6 1021 70 10000 4.6 20 10:57 21.02.2020
2537 Clouds 6 1021 70 10000 4.6 20 10:39 21.02.2020
2538 Clouds 6 1021 70 10000 4.6 20 10:39 21.02.2020
2539 Clouds 6 1021 70 10000 4.1 40 10:19 21.02.2020
2540 Clouds 6 1021 75 10000 4.1 350 09:57 21.02.2020
2541 Clouds 6 1021 75 10000 4.1 350 09:57 21.02.2020
2542 Clouds 6 1021 75 10000 4.1 350 09:38 21.02.2020
2543 Clouds 6 1021 81 10000 3.1 360 09:19 21.02.2020
2544 Clouds 4 1021 80 10000 3.1 10 08:43 21.02.2020
2545 Clouds 4 1021 80 9000 2.6 10 08:22 21.02.2020
2546 Clouds 4 1021 86 8000 2.6 0 07:59 21.02.2020
2547 Clouds 3 1021 86 8000 2.6 0 07:40 21.02.2020
2548 Clouds 3 1020 86 10000 3.1 350 07:19 21.02.2020
2549 Clouds 3 1020 80 10000 1 0 06:52 21.02.2020
2550 Clouds 3 1020 80 10000 2.6 20 06:30 21.02.2020
2551 Clouds 3 1019 80 10000 3.1 350 05:43 21.02.2020
2552 Clouds 4 1019 70 10000 4.6 360 04:36 21.02.2020
2553 Clouds 4 1019 80 10000 4.1 360 04:18 21.02.2020
2554 Clouds 4 1019 80 10000 6.7 360 03:31 21.02.2020
2555 Clouds 3 1019 86 10000 5.7 360 01:51 21.02.2020
2556 Clouds 4 1019 75 10000 5.7 360 01:24 21.02.2020
2557 Clouds 4 1019 80 10000 5.1 360 00:45 21.02.2020
2558 Clouds 4 1018 80 10000 5.7 360 00:22 21.02.2020
2559 Clouds 4 1018 80 10000 5.1 360 23:43 20.02.2020
2560 Clouds 4 1018 81 10000 4.1 360 23:23 20.02.2020
2561 Clouds 4 1018 81 10000 4.1 360 22:56 20.02.2020
2562 Clouds 4 1018 81 10000 4.1 360 22:37 20.02.2020
2563 Clouds 5 1018 87 10000 5.1 360 22:18 20.02.2020
2564 Clouds 5 1018 87 10000 4.6 360 21:55 20.02.2020
2565 Clouds 5 1018 87 10000 4.6 360 21:36 20.02.2020
2566 Clouds 5 1018 87 10000 3.6 10 21:18 20.02.2020
2567 Clouds 5 1018 81 10000 3.6 10 20:54 20.02.2020
2568 Clouds 5 1018 81 10000 3.6 10 20:36 20.02.2020
2569 Rain 5 1018 81 10000 5.7 10 20:18 20.02.2020
2570 Clouds 5 1018 75 10000 5.1 10 19:42 20.02.2020
2571 Clouds 5 1017 75 10000 5.7 10 19:24 20.02.2020
2572 Clouds 5 1017 75 10000 5.7 10 19:24 20.02.2020
2573 Clouds 5 1018 75 10000 3.1 20 18:58 20.02.2020
2574 Clouds 5 1017 70 10000 1.5 0 18:37 20.02.2020
2575 Clouds 6 1017 70 10000 1.5 0 18:19 20.02.2020
2576 Clouds 6 1017 75 10000 6.7 30 17:40 20.02.2020
2577 Clouds 6 1017 75 10000 6.7 30 17:20 20.02.2020
2578 Clouds 6 1017 75 10000 5.1 20 16:58 20.02.2020
2579 Clouds 6 1017 75 10000 5.1 20 16:39 20.02.2020
2580 Clouds 6 1016 75 10000 6.2 40 16:19 20.02.2020
2581 Clouds 6 1016 75 10000 5.7 40 15:56 20.02.2020
2582 Clouds 6 1016 75 10000 5.7 40 15:38 20.02.2020
2583 Clouds 6 1016 81 10000 4.6 50 15:19 20.02.2020
2584 Rain 6 1016 81 10000 5.1 50 14:44 20.02.2020
2585 Rain 7 1016 75 10000 5.1 40 14:25 20.02.2020
2586 Rain 7 1016 75 10000 6.2 50 13:59 20.02.2020
2587 Rain 7 1016 75 10000 6.2 50 13:41 20.02.2020
2588 Rain 7 1015 81 10000 5.1 50 13:19 20.02.2020
2589 Rain 6 1015 87 10000 6.2 40 12:43 20.02.2020
2590 Rain 7 1015 81 10000 6.2 50 12:21 20.02.2020
2591 Rain 7 1016 81 10000 4.1 50 11:59 20.02.2020
2592 Rain 7 1016 81 10000 4.1 50 11:41 20.02.2020
2593 Clouds 7 1016 81 10000 5.7 60 11:22 20.02.2020
2594 Clouds 7 1016 81 10000 4.6 60 10:57 20.02.2020
2595 Clouds 7 1016 81 10000 4.6 60 10:38 20.02.2020
2596 Rain 7 1016 87 10000 5.1 70 10:20 20.02.2020
2597 Rain 7 1016 87 8000 4.6 70 09:42 20.02.2020
2598 Rain 7 1016 87 8000 5.7 50 09:23 20.02.2020
2599 Rain 6 1016 93 7000 4.6 50 08:44 20.02.2020
2600 Rain 6 1016 93 5000 3.1 60 08:25 20.02.2020
2601 Rain 6 1015 93 5000 4.1 60 07:56 20.02.2020
2602 Rain 6 1015 93 5000 4.1 60 07:38 20.02.2020
2603 Rain 6 1015 93 4500 3.6 50 07:19 20.02.2020
2604 Drizzle 6 1015 93 5000 3.1 60 06:43 20.02.2020
2605 Drizzle 6 1015 93 6000 2.6 60 06:19 20.02.2020
2606 Rain 6 1015 93 7000 3.1 50 05:42 20.02.2020
2607 Clouds 6 1015 93 8000 3.6 50 04:49 20.02.2020
2608 Clouds 6 1015 93 8000 1 0 03:47 20.02.2020
2609 Clouds 5 1015 100 8000 2.1 110 02:48 20.02.2020
2610 Clouds 6 1016 100 9000 1 20 01:33 20.02.2020
2611 Mist 6 1016 100 5000 1.5 70 00:47 20.02.2020
2612 Mist 6 1016 100 4600 1.5 100 00:25 20.02.2020
2613 Rain 6 1016 100 4300 2.71 18 23:48 19.02.2020
2614 Rain 6 1017 100 6000 0.5 280 23:19 19.02.2020
2615 Clouds 6 1017 100 6000 0.5 0 22:43 19.02.2020
2616 Clouds 6 1017 93 7000 2.1 90 22:25 19.02.2020
2617 Clouds 6 1017 93 8000 1 0 21:59 19.02.2020
2618 Clouds 6 1017 93 8000 1 0 21:40 19.02.2020
2619 Clouds 6 1017 100 8000 2.1 120 21:19 19.02.2020
2620 Clouds 6 1017 93 9000 1.5 120 20:57 19.02.2020
2621 Clouds 6 1017 93 9000 1.5 120 20:57 19.02.2020
2622 Clouds 6 1017 93 9000 1.5 120 20:38 19.02.2020
2623 Clouds 6 1017 93 9000 1.5 120 20:38 19.02.2020
2624 Clouds 7 1017 93 9000 2.1 120 20:19 19.02.2020
2625 Clouds 6 1017 93 9000 2.6 150 19:57 19.02.2020
2626 Clouds 6 1017 93 9000 2.6 150 19:38 19.02.2020
2627 Clouds 7 1018 93 10000 0.5 130 19:19 19.02.2020
2628 Clouds 7 1018 87 10000 1 120 18:57 19.02.2020
2629 Clouds 7 1018 87 10000 1 120 18:39 19.02.2020
2630 Clouds 7 1018 93 10000 1 0 18:21 19.02.2020
2631 Clouds 8 1018 87 10000 2.1 140 17:44 19.02.2020
2632 Clouds 8 1018 81 8000 1 0 17:20 19.02.2020
2633 Clouds 8 1018 81 6000 2.1 120 16:59 19.02.2020
2634 Clouds 8 1018 81 6000 2.1 120 16:41 19.02.2020
2635 Clouds 9 1018 76 10000 3.1 130 16:18 19.02.2020
2636 Clouds 9 1018 76 10000 3.1 140 15:43 19.02.2020
2637 Clouds 9 1018 76 10000 3.6 140 15:25 19.02.2020
2638 Clouds 10 1018 66 10000 4.1 140 14:58 19.02.2020
2639 Clouds 10 1018 66 10000 4.1 140 14:40 19.02.2020
2640 Clouds 10 1018 62 10000 3.6 140 14:21 19.02.2020
2641 Clouds 10 1018 62 10000 4.1 150 13:42 19.02.2020
2642 Clouds 10 1018 58 10000 3.1 90 13:22 19.02.2020
2643 Clouds 10 1019 62 10000 1.5 0 12:55 19.02.2020
2644 Clouds 10 1019 62 10000 1.5 0 12:37 19.02.2020
2645 Clouds 9 1019 66 10000 1.5 310 12:18 19.02.2020
2646 Clouds 9 1019 66 10000 1.5 30 11:38 19.02.2020
2647 Clouds 8 1020 70 10000 2.1 30 11:20 19.02.2020
2648 Clouds 8 1020 70 10000 1 0 10:58 19.02.2020
2649 Clouds 8 1020 70 10000 1 0 10:38 19.02.2020
2650 Clouds 8 1020 70 10000 2.1 60 10:20 19.02.2020
2651 Clouds 8 1020 70 10000 3.1 30 09:58 19.02.2020
2652 Clouds 8 1020 70 10000 3.1 30 09:38 19.02.2020
2653 Clouds 7 1020 75 10000 1.5 230 09:19 19.02.2020
2654 Clouds 7 1020 75 10000 1.5 0 08:45 19.02.2020
2655 Clouds 7 1020 75 10000 4.6 30 08:24 19.02.2020
2656 Clouds 6 1020 75 10000 4.6 20 07:44 19.02.2020
2657 Clouds 6 1020 70 10000 3.1 10 07:26 19.02.2020
2658 Clouds 7 1020 70 10000 3.1 350 06:57 19.02.2020
2659 Clouds 6 1019 70 10000 2.6 50 06:34 19.02.2020
2660 Clouds 6 1020 70 10000 2.6 310 04:28 19.02.2020
2661 Clouds 6 1019 81 10000 2.1 240 03:20 19.02.2020
2662 Clouds 5 1019 81 10000 3.1 290 02:32 19.02.2020
2663 Clouds 5 1019 100 6000 0.5 0 01:25 19.02.2020
2664 Mist 4 1019 100 3900 3.36 316 00:51 19.02.2020
2665 Mist 4 1019 100 2600 0.5 240 00:32 19.02.2020
2666 Mist 4 1019 100 4400 1 250 23:56 18.02.2020
2667 Mist 4 1019 100 4400 1 250 23:37 18.02.2020
2668 Clouds 4 1019 100 8000 1 0 23:19 18.02.2020
2669 Clouds 3 1019 100 8000 1.5 320 22:43 18.02.2020
2670 Clouds 4 1019 93 8000 1.5 310 22:20 18.02.2020
2671 Clouds 4 1019 93 8000 1 280 21:58 18.02.2020
2672 Clouds 4 1019 93 8000 1 280 21:38 18.02.2020
2673 Clouds 4 1019 93 8000 1 280 21:38 18.02.2020
2674 Clouds 5 1019 86 10000 1.71 235 21:19 18.02.2020
2675 Clouds 5 1019 86 10000 1.71 235 20:58 18.02.2020
2676 Clouds 5 1019 86 10000 1.71 235 20:38 18.02.2020
2677 Clouds 6 1019 81 10000 1 30 20:20 18.02.2020
2678 Clouds 6 1019 81 10000 1 0 19:55 18.02.2020
2679 Clouds 6 1019 81 10000 1 0 19:36 18.02.2020
2680 Clouds 5 1019 86 10000 2.67 176 19:18 18.02.2020
2681 Clouds 5 1019 93 10000 2.1 100 18:41 18.02.2020
2682 Clouds 6 1019 93 10000 2.6 110 18:20 18.02.2020
2683 Clouds 6 1018 93 10000 3.6 100 17:56 18.02.2020
2684 Clouds 6 1018 93 10000 3.6 100 17:38 18.02.2020
2685 Clear 6 1018 87 10000 4.1 110 17:18 18.02.2020
2686 Clear 8 1018 87 10000 4.6 110 16:39 18.02.2020
2687 Clear 10 1018 81 10000 5.7 110 16:20 18.02.2020
2688 Clear 10 1017 70 10000 5.7 110 15:41 18.02.2020
2689 Clear 10 1017 61 10000 5.1 110 15:20 18.02.2020
2690 Clear 11 1017 57 10000 6.2 110 14:57 18.02.2020
2691 Clear 12 1017 57 10000 6.2 110 14:39 18.02.2020
2692 Clear 12 1017 54 10000 5.7 110 14:20 18.02.2020
2693 Clear 11 1018 50 10000 5.1 110 13:42 18.02.2020
2694 Clear 12 1018 58 10000 5.7 120 13:24 18.02.2020
2695 Clear 12 1018 54 10000 4.6 130 12:59 18.02.2020
2696 Clear 14 1018 54 10000 4.6 130 12:41 18.02.2020
2697 Clear 14 1018 54 10000 3.6 140 12:22 18.02.2020
2698 Clear 14 1019 50 10000 3.1 130 11:46 18.02.2020
2699 Clear 10 1019 54 10000 3.6 150 11:26 18.02.2020
2700 Clear 9 1019 50 10000 2.1 160 10:58 18.02.2020
2701 Clear 9 1019 50 10000 2.1 160 10:39 18.02.2020
2702 Clear 8 1019 57 10000 2.6 120 10:18 18.02.2020
2703 Clear 11 1020 57 10000 2.6 120 09:56 18.02.2020
2704 Clear 10 1020 57 10000 2.6 120 09:37 18.02.2020
2705 Clear 9 1020 76 10000 3.6 120 09:19 18.02.2020
2706 Clear 7 1020 81 10000 3.6 120 08:43 18.02.2020
2707 Clouds 5 1020 81 10000 4.1 120 08:21 18.02.2020
2708 Clouds 4 1020 100 10000 1 0 07:58 18.02.2020
2709 Clouds 4 1020 100 10000 1 0 07:36 18.02.2020
2710 Clouds 2 1020 100 10000 3.6 90 07:18 18.02.2020
2711 Clouds 2 1020 100 10000 1.5 90 06:41 18.02.2020
2712 Clear 3 1020 100 10000 3.1 90 06:21 18.02.2020
2713 Clear 2 1020 100 10000 3.6 100 05:46 18.02.2020
2714 Clear 2 1021 100 10000 3.1 100 04:39 18.02.2020
2715 Clouds 2 1021 100 10000 3.6 120 03:36 18.02.2020
2716 Clouds 3 1022 93 10000 2.6 140 02:38 18.02.2020
2717 Clouds 4 1022 100 10000 3.1 140 01:19 18.02.2020
2718 Clouds 3 1023 93 10000 3.6 130 00:22 18.02.2020
2719 Clouds 3 1023 93 10000 3.6 130 23:56 17.02.2020
2720 Clouds 4 1023 93 10000 3.6 130 23:37 17.02.2020
2721 Clouds 3 1024 100 10000 2.6 130 23:19 17.02.2020
2722 Clouds 3 1024 100 10000 3.1 120 22:41 17.02.2020
2723 Clouds 3 1024 93 10000 2.6 110 22:21 17.02.2020
2724 Clear 3 1024 93 10000 3.1 120 21:58 17.02.2020
2725 Clear 3 1024 93 10000 3.1 120 21:38 17.02.2020
2726 Clouds 3 1025 100 10000 3.6 120 21:38 17.02.2020
2727 Clouds 3 1025 100 10000 3.6 120 21:18 17.02.2020
2728 Clouds 3 1025 100 10000 4.1 120 20:41 17.02.2020
2729 Clouds 3 1025 100 10000 3.6 120 20:21 17.02.2020
2730 Clouds 3 1025 100 10000 3.6 120 20:21 17.02.2020
2731 Clouds 3 1025 100 10000 3.6 120 19:58 17.02.2020
2732 Clouds 3 1025 100 10000 3.6 120 19:38 17.02.2020
2733 Clouds 3 1025 100 10000 3.6 110 19:20 17.02.2020
2734 Clouds 3 1025 100 10000 3.6 110 19:20 17.02.2020
2735 Clear 3 1025 93 10000 3.1 110 18:38 17.02.2020
2736 Clear 4 1025 93 10000 3.1 120 18:19 17.02.2020
2737 Clear 4 1025 93 10000 3.6 110 17:57 17.02.2020
2738 Clear 4 1025 93 10000 3.6 110 17:37 17.02.2020
2739 Clear 5 1025 86 10000 4.1 110 17:19 17.02.2020
2740 Clear 5 1025 86 10000 4.1 110 17:19 17.02.2020
2741 Clear 6 1025 81 10000 5.7 110 16:55 17.02.2020
2742 Clear 6 1025 81 10000 5.7 110 16:36 17.02.2020
2743 Clear 7 1025 75 10000 5.7 110 16:18 17.02.2020
2744 Clear 8 1025 75 10000 7.2 110 15:42 17.02.2020
2745 Clear 8 1025 70 10000 7.2 110 15:23 17.02.2020
2746 Clear 9 1025 70 10000 8.2 110 14:46 17.02.2020
2747 Clear 9 1025 70 10000 8.2 110 14:46 17.02.2020
2748 Clear 9 1025 61 10000 8.2 100 14:28 17.02.2020
2749 Clear 10 1026 66 10000 7.2 110 13:59 17.02.2020
2750 Clear 10 1026 66 10000 7.2 110 13:40 17.02.2020
2751 Clear 10 1026 66 10000 6.7 100 13:20 17.02.2020
2752 Clear 10 1026 61 10000 5.7 100 12:54 17.02.2020
2753 Clear 10 1026 61 10000 5.7 100 12:54 17.02.2020
2754 Clear 10 1027 66 10000 5.1 100 12:36 17.02.2020
2755 Clear 10 1026 61 10000 5.7 100 12:36 17.02.2020
2756 Clear 10 1027 66 10000 5.1 100 12:18 17.02.2020
2757 Clear 10 1027 66 10000 5.1 120 11:43 17.02.2020
2758 Clear 9 1028 66 10000 4.1 110 11:24 17.02.2020
2759 Clear 9 1028 66 10000 3.1 120 10:56 17.02.2020
2760 Clear 9 1028 66 10000 3.1 120 10:38 17.02.2020
2761 Clear 8 1029 70 10000 2.1 130 10:19 17.02.2020
2762 Clear 7 1029 100 8000 1 0 09:55 17.02.2020
2763 Clear 7 1029 100 8000 1 0 09:36 17.02.2020
2764 Mist 6 1029 100 7000 1 0 09:18 17.02.2020
2765 Fog 5 1029 78 300 1 0 08:41 17.02.2020
2766 Fog 4 1030 100 250 1 0 08:22 17.02.2020
2767 Fog 1 1030 100 200 0.5 0 07:57 17.02.2020
2768 Fog 0 1030 100 150 1.5 280 07:26 17.02.2020
2769 Fog -1 1030 100 200 2.1 300 06:56 17.02.2020
2770 Fog -2 1030 100 250 1.5 280 06:36 17.02.2020
2771 Fog -2 1030 100 300 1.5 220 05:59 17.02.2020
2772 Fog -2 1030 100 300 1.5 220 05:38 17.02.2020
2773 Clouds 0 1030 100 7000 1.5 350 03:53 17.02.2020
2774 Clouds 1 1031 93 10000 1 290 02:19 17.02.2020
2775 Clouds -1 1031 100 10000 2.1 350 00:55 17.02.2020
2776 Clouds 0 1032 77 10000 2.1 10 00:23 17.02.2020
2777 Clouds -1 1032 92 10000 1 0 23:54 16.02.2020
2778 Clouds -1 1032 92 10000 1 0 23:54 16.02.2020
2779 Clouds -1 1032 92 10000 1 340 23:33 16.02.2020
2780 Clouds -1 1032 77 10000 1.5 350 22:58 16.02.2020
2781 Clouds 0 1032 77 10000 1.5 350 22:58 16.02.2020
2782 Clouds 0 1032 77 10000 1.5 350 22:39 16.02.2020
2783 Clouds 0 1032 77 10000 1.5 360 22:21 16.02.2020
2784 Clouds 0 1032 77 10000 3.39 32 21:59 16.02.2020
2785 Clouds 1 1032 77 10000 3.39 32 21:40 16.02.2020
2786 Clouds 1 1032 86 10000 2.1 70 21:22 16.02.2020
2787 Clouds 1 1032 77 10000 2.1 10 20:58 16.02.2020
2788 Clouds 1 1032 77 10000 2.1 10 20:58 16.02.2020
2789 Clouds 1 1032 77 10000 2.1 10 20:40 16.02.2020
2790 Clear 1 1032 93 9000 1 10 20:21 16.02.2020
2791 Clear 1 1032 77 10000 1.5 10 19:58 16.02.2020
2792 Clear 1 1032 77 10000 1.5 10 19:38 16.02.2020
2793 Clear 2 1032 93 10000 1 0 19:19 16.02.2020
2794 Clouds 3 1033 93 8000 1.5 10 18:45 16.02.2020
2795 Clouds 4 1033 93 8000 1.5 20 18:26 16.02.2020
2796 Clouds 4 1032 100 10000 1.5 130 17:57 16.02.2020
2797 Clouds 5 1032 100 10000 1.5 130 17:39 16.02.2020
2798 Clouds 6 1032 86 10000 2.6 120 17:19 16.02.2020
2799 Clouds 7 1032 87 10000 3.1 120 16:55 16.02.2020
2800 Clouds 7 1032 87 10000 3.1 120 16:36 16.02.2020
2801 Clouds 7 1031 81 10000 4.6 120 16:18 16.02.2020
2802 Clouds 8 1031 81 10000 4.6 130 15:41 16.02.2020
2803 Clouds 9 1031 75 10000 4.1 140 15:22 16.02.2020
2804 Clouds 9 1031 70 10000 4.1 140 14:45 16.02.2020
2805 Clouds 8 1031 70 10000 3.1 130 14:24 16.02.2020
2806 Clouds 9 1031 61 10000 3.6 120 13:59 16.02.2020
2807 Clouds 9 1031 61 10000 3.6 120 13:41 16.02.2020
2808 Clouds 10 1031 50 10000 3.6 70 13:23 16.02.2020
2809 Clouds 10 1032 73 10000 5.1 50 12:39 16.02.2020
2810 Clouds 10 1032 73 10000 3.1 30 12:20 16.02.2020
2811 Clear 10 1032 53 10000 3.1 10 11:41 16.02.2020
2812 Clear 9 1032 57 10000 3.6 360 11:20 16.02.2020
2813 Clear 9 1033 57 10000 4.1 10 10:59 16.02.2020
2814 Clear 9 1033 57 10000 4.1 10 10:41 16.02.2020
2815 Clear 8 1033 61 10000 4.1 350 10:22 16.02.2020
2816 Clear 7 1032 70 10000 4.1 340 09:59 16.02.2020
2817 Clear 6 1032 70 10000 4.1 340 09:38 16.02.2020
2818 Clear 6 1032 70 10000 4.1 340 09:38 16.02.2020
2819 Clear 6 1032 70 10000 4.1 340 09:38 16.02.2020
2820 Clear 6 1032 75 10000 4.1 350 09:20 16.02.2020
2821 Clear 5 1033 80 10000 2.6 360 08:56 16.02.2020
2822 Clear 5 1033 80 10000 2.6 360 08:38 16.02.2020
2823 Clear 4 1032 80 10000 3.1 10 08:18 16.02.2020
2824 Clear 2 1032 86 8000 4.6 360 07:41 16.02.2020
2825 Clear 1 1032 75 8000 5.1 360 06:54 16.02.2020
2826 Clear 1 1031 75 8000 4.6 360 06:29 16.02.2020
2827 Clear 1 1031 76 10000 4.1 340 04:37 16.02.2020
2828 Clear 2 1031 76 10000 2.6 350 03:20 16.02.2020
2829 Clear 2 1030 86 10000 4.6 350 01:58 16.02.2020
2830 Clear 2 1030 86 10000 4.6 350 01:58 16.02.2020
2831 Clear 2 1030 86 10000 4.6 350 01:38 16.02.2020
2832 Clouds 3 1030 86 10000 4.1 350 01:19 16.02.2020
2833 Clouds 2 1030 86 10000 2.6 350 00:41 16.02.2020
2834 Clouds 3 1030 86 10000 2.6 350 00:22 16.02.2020
2835 Clouds 4 1030 86 10000 3.6 350 23:43 15.02.2020
2836 Clouds 5 1030 75 10000 3.6 10 23:25 15.02.2020
2837 Clouds 5 1030 75 10000 3.6 10 23:25 15.02.2020
2838 Clouds 5 1029 81 10000 3.6 20 22:57 15.02.2020
2839 Clouds 5 1029 81 10000 3.6 20 22:57 15.02.2020
2840 Clouds 5 1029 81 10000 3.6 20 22:39 15.02.2020
2841 Clouds 6 1029 75 10000 3.6 360 22:19 15.02.2020
2842 Clouds 7 1029 75 10000 2.6 350 21:44 15.02.2020
2843 Clouds 6 1029 81 10000 3.1 340 21:24 15.02.2020
2844 Clouds 6 1029 81 10000 1.5 20 20:58 15.02.2020
2845 Clouds 6 1029 81 10000 1.5 20 20:37 15.02.2020
2846 Clouds 6 1029 81 10000 1 0 20:19 15.02.2020
2847 Clouds 6 1029 81 10000 2.1 30 19:42 15.02.2020
2848 Clouds 7 1028 75 10000 3.1 70 19:22 15.02.2020
2849 Clouds 7 1028 70 10000 4.6 50 18:42 15.02.2020
2850 Clouds 8 1027 66 10000 4.1 40 18:21 15.02.2020
2851 Clouds 8 1027 66 10000 4.1 50 17:57 15.02.2020
2852 Clouds 8 1027 66 10000 4.1 50 17:37 15.02.2020
2853 Clouds 8 1026 66 10000 3.6 360 17:19 15.02.2020
2854 Clouds 9 1026 66 10000 4.1 360 16:41 15.02.2020
2855 Clouds 9 1025 57 10000 4.6 350 16:23 15.02.2020
2856 Clouds 9 1025 61 10000 3.1 350 15:56 15.02.2020
2857 Clouds 9 1025 61 10000 3.1 350 15:38 15.02.2020
2858 Clouds 10 1024 57 10000 5.7 340 15:20 15.02.2020
2859 Clouds 11 1024 53 10000 6.2 350 14:43 15.02.2020
2860 Clouds 10 1024 50 10000 7.2 10 14:19 15.02.2020
2861 Clouds 11 1023 50 10000 5.7 360 13:43 15.02.2020
2862 Clouds 11 1023 57 10000 5.7 10 13:25 15.02.2020
2863 Clouds 11 1023 57 10000 6.2 10 12:59 15.02.2020
2864 Clouds 11 1023 57 10000 6.2 10 12:40 15.02.2020
2865 Clouds 10 1023 61 10000 5.1 10 12:21 15.02.2020
2866 Clouds 9 1023 66 10000 4.1 10 11:47 15.02.2020
2867 Clouds 8 1023 70 10000 2.1 0 11:27 15.02.2020
2868 Clouds 8 1023 70 10000 2.1 0 10:49 15.02.2020
2869 Clouds 7 1023 75 10000 2.6 0 10:30 15.02.2020
2870 Clouds 7 1022 75 8000 4.1 310 09:57 15.02.2020
2871 Clouds 6 1022 75 8000 4.1 310 09:38 15.02.2020
2872 Clouds 6 1022 81 9000 3.1 0 09:20 15.02.2020
2873 Clouds 6 1022 75 10000 2.6 0 08:43 15.02.2020
2874 Clouds 5 1021 75 10000 3.1 0 08:23 15.02.2020
2875 Clouds 5 1021 75 10000 4.1 280 07:50 15.02.2020
2876 Clouds 5 1021 70 10000 5.1 280 07:30 15.02.2020
2877 Clouds 5 1020 70 10000 5.1 270 06:47 15.02.2020
2878 Clouds 5 1019 70 10000 5.7 280 06:28 15.02.2020
2879 Clouds 6 1019 65 10000 4.6 300 05:31 15.02.2020
2880 Clouds 6 1019 65 10000 5.7 280 04:45 15.02.2020
2881 Clouds 6 1018 70 10000 4.6 270 03:23 15.02.2020
2882 Clouds 6 1018 70 10000 4.1 270 02:42 15.02.2020
2883 Clouds 6 1018 70 10000 4.1 270 02:42 15.02.2020
2884 Clouds 7 1017 65 10000 2.1 270 02:19 15.02.2020
2885 Clouds 5 1017 80 10000 0.5 0 01:38 15.02.2020
2886 Clouds 5 1017 86 7000 0.5 0 00:38 15.02.2020
2887 Clouds 4 1017 93 9000 2.1 250 00:18 15.02.2020
2888 Clouds 3 1017 100 10000 2.1 310 23:39 14.02.2020
2889 Clouds 2 1017 100 10000 1.5 300 23:19 14.02.2020
2890 Clouds 3 1017 93 9000 1.5 340 22:43 14.02.2020
2891 Clouds 3 1017 100 8000 1 40 22:23 14.02.2020
2892 Clouds 3 1017 100 8000 2.1 20 21:51 14.02.2020
2893 Clouds 3 1017 100 8000 2.1 20 21:51 14.02.2020
2894 Clouds 3 1017 86 9000 2.1 10 21:33 14.02.2020
2895 Clouds 3 1017 93 10000 1.5 10 20:58 14.02.2020
2896 Clouds 4 1017 93 10000 1.5 10 20:39 14.02.2020
2897 Clouds 4 1017 93 10000 2.1 30 20:19 14.02.2020
2898 Clouds 5 1017 93 10000 2.1 80 19:42 14.02.2020
2899 Clouds 5 1017 93 10000 2.6 100 19:24 14.02.2020
2900 Clouds 5 1017 86 10000 4.1 100 18:58 14.02.2020
2901 Clouds 5 1017 86 10000 4.1 100 18:40 14.02.2020
2902 Clouds 6 1017 87 10000 4.6 100 18:20 14.02.2020
2903 Clouds 6 1017 81 10000 2.6 80 17:44 14.02.2020
2904 Clouds 6 1017 81 10000 2.6 80 17:44 14.02.2020
2905 Clouds 6 1017 81 10000 3.1 110 17:23 14.02.2020
2906 Clouds 7 1017 75 10000 4.6 120 16:59 14.02.2020
2907 -273 0 0 0 0 0 16:41 14.02.2020
2908 Clouds 7 1017 75 10000 5.7 120 16:23 14.02.2020
2909 Clouds 8 1016 70 10000 5.7 120 15:56 14.02.2020
2910 Clouds 8 1016 70 10000 5.7 120 15:38 14.02.2020
2911 Clouds 8 1016 70 10000 5.7 120 15:38 14.02.2020
2912 Clouds 9 1016 61 10000 6.2 120 15:20 14.02.2020
2913 Clouds 9 1017 57 10000 6.7 100 14:59 14.02.2020
2914 Clouds 9 1017 57 10000 6.7 100 14:40 14.02.2020
2915 Clouds 9 1017 74 10000 7.2 100 14:22 14.02.2020
2916 Clouds 9 1017 72 10000 7.2 100 14:22 14.02.2020
2917 Clouds 9 1017 53 10000 7.2 100 13:55 14.02.2020
2918 Clouds 9 1017 53 10000 7.2 100 13:37 14.02.2020
2919 Clouds 9 1017 53 10000 7.2 110 13:18 14.02.2020
2920 Clouds 10 1017 72 10000 7.2 120 12:56 14.02.2020
2921 Clouds 10 1017 72 10000 7.2 120 12:56 14.02.2020
2922 Clouds 10 1017 72 10000 7.2 120 12:37 14.02.2020
2923 Clouds 10 1018 40 10000 6.7 110 12:18 14.02.2020
2924 Clouds 10 1018 43 10000 6.2 110 11:54 14.02.2020
2925 Clouds 10 1018 43 10000 6.2 110 11:36 14.02.2020
2926 Clouds 10 1019 34 10000 4.6 140 11:18 14.02.2020
2927 Clouds 9 1019 40 10000 4.6 130 10:40 14.02.2020
2928 Clouds 9 1020 70 10000 4.1 120 10:21 14.02.2020
2929 Clouds 8 1020 57 10000 3.6 120 09:44 14.02.2020
2930 Clouds 7 1020 70 10000 3.6 120 09:22 14.02.2020
2931 Clouds 6 1020 70 10000 3.6 120 08:56 14.02.2020
2932 Clouds 5 1021 80 10000 3.1 120 08:38 14.02.2020
2933 Clouds 5 1021 80 10000 3.1 120 08:19 14.02.2020
2934 Clouds 4 1021 86 10000 2.6 110 07:49 14.02.2020
2935 Clouds 4 1021 86 10000 2.6 110 07:49 14.02.2020
2936 Clouds 4 1021 86 10000 2.6 110 07:49 14.02.2020
2937 Clouds 2 1021 69 10000 1.5 120 07:24 14.02.2020
2938 Clouds 0 1021 80 10000 1 0 06:33 14.02.2020
2939 Clouds 1 1022 69 10000 1 100 05:59 14.02.2020
2940 Clouds 1 1022 80 10000 0.5 0 05:27 14.02.2020
2941 Clear 0 1023 80 10000 2.1 100 03:31 14.02.2020
2942 Clear 0 1023 80 10000 2.1 120 02:52 14.02.2020
2943 Clear 1 1023 64 10000 1.5 320 01:54 14.02.2020
2944 Clear 0 1024 64 10000 1.5 290 00:44 14.02.2020
2945 Clear 0 1024 64 10000 1.5 300 00:24 14.02.2020
2946 Clear 0 1024 69 10000 1 0 23:51 13.02.2020
2947 Clear 1 1024 64 10000 3.1 10 23:23 13.02.2020
2948 Clear -1 1024 80 10000 3.6 20 22:56 13.02.2020
2949 Clear 1 1024 64 10000 4.41 186 22:37 13.02.2020
2950 Clear 1 1024 64 10000 4.41 186 22:18 13.02.2020
2951 Clear 1 1024 64 10000 2.1 40 21:41 13.02.2020
2952 Clear 2 1025 64 10000 1.5 20 21:23 13.02.2020
2953 Clear 1 1025 64 10000 1.5 360 20:58 13.02.2020
2954 Clear 1 1025 64 10000 1.5 360 20:39 13.02.2020
2955 Clear 1 1025 64 10000 1.5 360 20:39 13.02.2020
2956 Clouds 3 1025 55 10000 0.5 0 20:21 13.02.2020
2957 Clouds 2 1025 59 10000 1.5 10 19:56 13.02.2020
2958 Clouds 2 1025 59 10000 1.5 10 19:37 13.02.2020
2959 Clouds 3 1025 51 10000 2.1 70 19:19 13.02.2020
2960 Clouds 4 1024 52 10000 2.1 50 18:44 13.02.2020
2961 Clouds 4 1024 52 10000 2.1 50 18:44 13.02.2020
2962 Clouds 5 1024 45 10000 0.53 209 18:24 13.02.2020
2963 Clouds 5 1024 45 10000 0.53 209 18:24 13.02.2020
2964 Clouds 6 1024 45 10000 0.5 0 17:59 13.02.2020
2965 Clouds 7 1024 45 10000 0.5 0 17:40 13.02.2020
2966 Clouds 7 1024 42 10000 1.5 330 17:21 13.02.2020
2967 Clouds 9 1024 34 10000 4.6 290 16:58 13.02.2020
2968 Clouds 9 1024 34 10000 4.6 290 16:38 13.02.2020
2969 Clouds 9 1024 34 10000 4.6 290 16:38 13.02.2020
2970 Clouds 10 1024 29 10000 6.2 290 16:19 13.02.2020
2971 Clouds 11 1024 29 10000 7.2 290 15:56 13.02.2020
2972 Clouds 11 1024 29 10000 7.2 290 15:37 13.02.2020
2973 Clouds 11 1023 29 10000 8.7 290 15:19 13.02.2020
2974 Clouds 11 1023 30 10000 8.2 290 14:56 13.02.2020
2975 Clouds 11 1023 30 10000 8.2 290 14:37 13.02.2020
2976 Clouds 11 1024 27 10000 7.2 280 14:19 13.02.2020
2977 Clouds 11 1023 30 10000 9.3 300 13:44 13.02.2020
2978 Clouds 11 1023 30 10000 9.3 300 13:44 13.02.2020
2979 Clouds 12 1023 30 10000 7.7 280 13:18 13.02.2020
2980 Clouds 12 1023 30 10000 7.7 280 12:56 13.02.2020
2981 Clouds 12 1023 30 10000 7.7 280 12:55 13.02.2020
2982 Clouds 12 1023 30 10000 7.7 280 12:37 13.02.2020
2983 Clouds 10 1024 32 10000 8.2 280 12:18 13.02.2020
2984 Clouds 10 1024 34 10000 7.7 270 11:43 13.02.2020
2985 Clouds 10 1024 34 10000 7.7 270 11:43 13.02.2020
2986 Clouds 10 1024 34 10000 7.7 270 11:43 13.02.2020
2987 Clear 9 1024 39 10000 7.2 270 11:20 13.02.2020
2988 Clear 8 1024 39 10000 4.6 260 10:46 13.02.2020
2989 Clear 8 1024 45 10000 7.2 270 10:27 13.02.2020
2990 Clear 7 1024 45 10000 7.7 260 09:51 13.02.2020
2991 Clear 7 1024 45 10000 7.7 260 09:28 13.02.2020
2992 Clear 5 1024 52 10000 5.1 280 08:58 13.02.2020
2993 Clear 5 1024 52 10000 5.1 280 08:37 13.02.2020
2994 Clouds 5 1024 56 10000 3.1 280 08:18 13.02.2020
2995 -273 0 0 0 0 0 07:39 13.02.2020
2996 Clouds 1 1023 69 10000 2.6 270 07:20 13.02.2020
2997 Clouds 1 1023 69 10000 2.6 330 06:44 13.02.2020
2998 Clouds 0 1023 67 10000 3.1 330 06:19 13.02.2020
2999 Clouds 1 1022 69 10000 3.1 330 05:33 13.02.2020
3000 Clouds 2 1021 59 10000 3.1 260 04:26 13.02.2020
3001 Clouds 2 1021 59 10000 1.5 280 03:51 13.02.2020
3002 Clouds 2 1020 55 10000 2.6 320 03:20 13.02.2020
3003 Clouds 2 1020 55 10000 2.1 330 02:50 13.02.2020
3004 Clouds 2 1020 59 10000 2.6 290 02:19 13.02.2020
3005 Clouds 3 1019 55 10000 5.7 250 01:32 13.02.2020
3006 Clouds 3 1019 59 10000 2.6 320 00:33 13.02.2020
3007 Clouds 3 1019 59 10000 3.1 300 23:59 12.02.2020
3008 Clouds 3 1019 59 10000 3.1 300 23:38 12.02.2020
3009 Clouds 4 1018 60 10000 2.6 310 23:20 12.02.2020
3010 Clouds 3 1018 64 10000 2.6 310 22:44 12.02.2020
3011 Clouds 4 1018 60 10000 3.1 280 22:24 12.02.2020
3012 Clouds 4 1018 60 10000 1 0 21:58 12.02.2020
3013 Clouds 4 1018 60 10000 1 0 21:39 12.02.2020
3014 Clouds 5 1018 56 10000 1 0 21:19 12.02.2020
3015 Clouds 4 1018 60 10000 1.5 330 20:56 12.02.2020
3016 Clouds 4 1017 60 10000 1 0 20:37 12.02.2020
3017 Clouds 4 1017 60 10000 1 0 20:18 12.02.2020
3018 Clouds 4 1017 60 10000 1 0 20:18 12.02.2020
3019 Clouds 4 1017 60 10000 1.5 240 19:44 12.02.2020
3020 Clouds 5 1017 56 10000 1.5 290 19:23 12.02.2020
3021 Clouds 5 1017 56 10000 3.1 260 18:54 12.02.2020
3022 Clouds 5 1017 56 10000 3.1 260 18:36 12.02.2020
3023 Clouds 6 1017 52 10000 3.6 270 18:18 12.02.2020
3024 Clouds 6 1017 52 10000 3.1 270 17:42 12.02.2020
3025 Clouds 7 1016 52 10000 2.6 280 17:20 12.02.2020
3026 Clouds 8 1016 42 10000 5.1 280 16:57 12.02.2020
3027 Clouds 9 1015 37 10000 8.2 280 16:37 12.02.2020
3028 Clouds 9 1015 37 10000 8.2 280 16:18 12.02.2020
3029 Clouds 10 1015 37 10000 8.2 290 15:40 12.02.2020
3030 Clouds 10 1015 37 10000 9.3 280 15:20 12.02.2020
3031 Clouds 10 1015 40 10000 9.3 280 14:54 12.02.2020
3032 Clouds 11 1015 40 10000 9.3 280 14:36 12.02.2020
3033 Clouds 10 1015 37 10000 9.3 280 14:18 12.02.2020
3034 Clouds 11 1015 40 10000 10.3 280 13:55 12.02.2020
3035 Clouds 11 1015 57 10000 10.3 280 13:36 12.02.2020
3036 Clouds 11 1015 57 10000 10.3 280 13:18 12.02.2020
3037 Clouds 10 1015 57 10000 10.3 290 12:55 12.02.2020
3038 Clouds 10 1015 46 10000 10.3 280 12:36 12.02.2020
3039 Clouds 11 1015 46 10000 10.3 280 12:18 12.02.2020
3040 Clouds 11 1015 57 10000 10.3 270 11:41 12.02.2020
3041 Clouds 10 1015 65 10000 10.3 270 11:21 12.02.2020
3042 Clouds 9 1015 65 10000 9.3 280 10:58 12.02.2020
3043 Clouds 9 1015 65 10000 9.3 280 10:58 12.02.2020
3044 Clouds 9 1015 65 10000 9.3 280 10:40 12.02.2020
3045 Clouds 9 1015 65 10000 9.3 270 10:20 12.02.2020
3046 Clouds 9 1014 65 10000 7.7 260 09:54 12.02.2020
3047 Clouds 9 1014 65 10000 7.7 260 09:36 12.02.2020
3048 Clouds 8 1015 65 10000 6.7 260 09:18 12.02.2020
3049 Clouds 8 1015 65 10000 6.7 260 09:18 12.02.2020
3050 Clouds 7 1015 65 10000 7.2 270 08:55 12.02.2020
3051 Clouds 7 1015 65 10000 7.2 270 08:36 12.02.2020
3052 Clouds 6 1015 60 10000 7.2 270 08:18 12.02.2020
3053 Clouds 6 1015 60 10000 7.2 270 08:18 12.02.2020
3054 Clouds 5 1015 60 10000 8.2 270 07:41 12.02.2020
3055 Clouds 5 1014 60 10000 6.2 280 07:20 12.02.2020
3056 Clouds 4 1013 65 10000 6.2 260 06:43 12.02.2020
3057 Clouds 5 1013 60 10000 5.7 250 06:19 12.02.2020
3058 Clouds 5 1012 60 10000 5.1 250 05:30 12.02.2020
3059 Clouds 5 1012 60 10000 5.1 240 04:43 12.02.2020
3060 Clouds 5 1011 60 10000 2.1 270 03:58 12.02.2020
3061 Clouds 6 1010 56 10000 5.7 280 03:29 12.02.2020
3062 Clouds 5 1010 70 10000 5.1 270 02:44 12.02.2020
3063 Clouds 5 1010 70 10000 5.7 310 02:25 12.02.2020
3064 Clouds 4 1010 74 10000 5.1 260 01:30 12.02.2020
3065 Clouds 5 1010 70 10000 5.7 250 00:41 12.02.2020
3066 Clouds 5 1009 75 10000 5.7 260 00:22 12.02.2020
3067 Clouds 5 1009 70 10000 7.2 270 23:47 11.02.2020
3068 Clouds 5 1009 70 10000 9.3 270 23:29 11.02.2020
3069 Clouds 6 1009 75 10000 5.1 280 22:57 11.02.2020
3070 Clouds 6 1009 75 10000 5.1 280 22:39 11.02.2020
3071 Clouds 6 1009 75 10000 6.2 280 22:20 11.02.2020
3072 Clouds 7 1008 70 10000 6.7 270 21:57 11.02.2020
3073 Clouds 6 1008 70 10000 6.7 270 21:38 11.02.2020
3074 Clouds 6 1008 75 10000 10.3 280 21:18 11.02.2020
3075 Clouds 7 1008 70 10000 8.2 280 20:57 11.02.2020
3076 Clouds 7 1008 70 10000 8.2 280 20:38 11.02.2020
3077 Clouds 6 1008 75 10000 6.2 280 20:19 11.02.2020
3078 Clouds 6 1008 75 10000 6.2 280 20:19 11.02.2020
3079 Clouds 6 1008 81 10000 4.6 290 19:54 11.02.2020
3080 Clouds 7 1008 81 10000 4.6 290 19:36 11.02.2020
3081 Rain 7 1008 87 10000 4.6 260 19:18 11.02.2020
3082 Rain 7 1009 81 10000 6.7 290 18:43 11.02.2020
3083 Rain 8 1008 76 10000 8.7 300 18:25 11.02.2020
3084 Rain 8 1007 87 10000 8.2 330 17:55 11.02.2020
3085 Rain 8 1007 87 10000 8.2 330 17:37 11.02.2020
3086 Rain 9 1005 81 10000 3.1 330 17:18 11.02.2020
3087 Rain 9 1005 71 10000 2.6 350 16:58 11.02.2020
3088 Rain 10 1005 71 10000 2.6 350 16:38 11.02.2020
3089 Rain 10 1005 71 10000 5.7 260 16:20 11.02.2020
3090 Clouds 11 1005 54 10000 4.6 250 15:47 11.02.2020
3091 Clouds 11 1005 54 10000 3.6 250 15:29 11.02.2020
3092 Clouds 12 1005 50 10000 5.7 250 14:58 11.02.2020
3093 Clouds 12 1005 50 10000 5.7 250 14:39 11.02.2020
3094 Clouds 12 1005 50 10000 7.2 240 14:19 11.02.2020
3095 Clouds 12 1005 54 10000 5.7 260 13:42 11.02.2020
3096 Clouds 11 1006 57 10000 5.7 260 13:22 11.02.2020
3097 Clouds 11 1006 50 10000 6.7 270 12:59 11.02.2020
3098 Clouds 11 1006 50 10000 6.7 270 12:40 11.02.2020
3099 Clouds 11 1006 53 10000 10.3 270 12:21 11.02.2020
3100 Clouds 10 1006 53 10000 10.8 280 11:55 11.02.2020
3101 Clouds 10 1006 53 10000 10.8 280 11:55 11.02.2020
3102 Clouds 10 1006 53 10000 10.8 280 11:37 11.02.2020
3103 Clouds 10 1006 53 10000 10.8 280 11:37 11.02.2020
3104 Clouds 10 1006 57 10000 8.2 270 11:18 11.02.2020
3105 Clouds 10 1007 57 10000 9.3 280 10:39 11.02.2020
3106 Clouds 9 1008 61 10000 8.7 270 10:20 11.02.2020
3107 Clouds 9 1008 66 10000 7.2 280 09:57 11.02.2020
3108 Clouds 9 1008 66 10000 7.2 280 09:39 11.02.2020
3109 Clouds 8 1008 65 10000 7.7 300 09:20 11.02.2020
3110 Clouds 8 1008 65 10000 7.2 280 08:48 11.02.2020
3111 Clouds 8 1008 65 10000 6.7 210 08:24 11.02.2020
3112 Clouds 7 1007 65 10000 6.2 270 07:49 11.02.2020
3113 Clouds 7 1006 65 10000 8.2 260 07:28 11.02.2020
3114 Clouds 6 1006 75 10000 6.2 250 06:55 11.02.2020
3115 Clouds 6 1006 75 10000 6.2 250 06:37 11.02.2020
3116 Clouds 6 1006 75 10000 4.6 280 06:19 11.02.2020
3117 Clouds 6 1007 75 10000 2.6 270 05:26 11.02.2020
3118 Clouds 6 1007 75 10000 2.6 280 04:53 11.02.2020
3119 Rain 7 1007 70 10000 2.1 320 03:26 11.02.2020
3120 Rain 7 1007 70 10000 2.1 340 02:33 11.02.2020
3121 Clouds 6 1008 81 10000 2.6 320 01:39 11.02.2020
3122 Clouds 6 1008 81 10000 2.1 340 00:50 11.02.2020
3123 Clouds 6 1009 75 10000 1 0 00:22 11.02.2020
3124 Rain 6 1008 81 10000 2.1 40 23:40 10.02.2020
3125 Clouds 6 1009 81 10000 1.5 20 23:20 10.02.2020
3126 Clouds 5 1010 86 10000 1 360 22:43 10.02.2020
3127 Clouds 5 1011 86 10000 1.5 20 22:21 10.02.2020
3128 Clouds 5 1011 86 10000 1.5 40 21:57 10.02.2020
3129 Clouds 5 1011 86 10000 1.5 40 21:39 10.02.2020
3130 Clouds 6 1012 81 10000 1 340 21:21 10.02.2020
3131 Clouds 6 1012 87 10000 0.5 0 20:54 10.02.2020
3132 Clouds 6 1012 87 10000 0.5 0 20:36 10.02.2020
3133 Clouds 7 1012 75 10000 0.5 0 20:18 10.02.2020
3134 Clouds 6 1013 75 10000 6.85 211 19:56 10.02.2020
3135 Clouds 6 1013 75 10000 6.85 211 19:36 10.02.2020
3136 Clouds 6 1013 75 10000 6.85 211 19:36 10.02.2020
3137 Clouds 6 1013 75 10000 1.5 130 19:18 10.02.2020
3138 Clouds 6 1013 70 10000 2.6 140 18:41 10.02.2020
3139 Clouds 6 1014 70 10000 2.1 170 18:22 10.02.2020
3140 Clouds 6 1014 70 10000 1 210 17:59 10.02.2020
3141 Clouds 6 1014 70 10000 1 210 17:39 10.02.2020
3142 Clear 6 1014 65 10000 1.5 220 17:21 10.02.2020
3143 Clear 6 1015 61 10000 2.1 230 16:59 10.02.2020
3144 Clear 6 1015 61 10000 2.1 230 16:40 10.02.2020
3145 Clear 7 1015 57 10000 3.1 200 16:20 10.02.2020
3146 Clear 8 1015 57 10000 3.6 190 15:58 10.02.2020
3147 Clear 9 1016 81 10000 4.1 200 15:39 10.02.2020
3148 Clear 9 1016 81 10000 4.1 200 15:20 10.02.2020
3149 Clear 9 1016 81 10000 3.1 190 14:56 10.02.2020
3150 Clear 9 1016 81 10000 3.1 190 14:38 10.02.2020
3151 Clear 9 1017 77 10000 5.1 210 14:18 10.02.2020
3152 Clear 9 1017 77 10000 4.1 210 13:43 10.02.2020
3153 Clear 9 1018 80 10000 6.2 220 13:24 10.02.2020
3154 Clear 9 1019 50 10000 5.7 220 12:56 10.02.2020
3155 Clear 9 1019 50 10000 5.7 220 12:37 10.02.2020
3156 Clear 8 1020 80 10000 1 0 12:19 10.02.2020
3157 Clear 8 1020 80 10000 1 0 11:45 10.02.2020
3158 Clear 7 1021 52 10000 2.1 0 11:20 10.02.2020
3159 Clear 7 1021 52 10000 2.1 0 11:20 10.02.2020
3160 Clear 6 1022 56 10000 1.5 0 10:47 10.02.2020
3161 Clear 6 1022 60 10000 1.5 190 10:28 10.02.2020
3162 Clear 5 1023 65 10000 1.5 170 09:48 10.02.2020
3163 Clear 4 1023 64 10000 1.5 180 09:27 10.02.2020
3164 Clear 3 1024 69 10000 1.5 180 08:58 10.02.2020
3165 Clear 3 1024 69 10000 1.5 180 08:38 10.02.2020
3166 Clear 3 1024 69 10000 2.1 110 08:19 10.02.2020
3167 Clear 2 1024 74 10000 2.1 120 07:51 10.02.2020
3168 Clear 1 1025 72 10000 2.6 100 07:31 10.02.2020
3169 Clear -1 1025 80 10000 2.1 80 06:23 10.02.2020
3170 Clear -2 1026 86 10000 6.41 186 04:46 10.02.2020
3171 Clear -3 1026 86 10000 1.5 30 03:45 10.02.2020
3172 Clear -3 1027 86 10000 6.41 186 02:56 10.02.2020
3173 Clear -3 1028 86 10000 5.55 192 01:59 10.02.2020
3174 Clear -3 1028 86 10000 2.1 80 00:55 10.02.2020
3175 Clear -3 1028 86 10000 2.1 80 00:36 10.02.2020
3176 Clear -2 1029 79 10000 2.6 20 23:58 09.02.2020
3177 Clear -2 1029 79 10000 2.6 20 23:58 09.02.2020
3178 Clear -2 1029 79 10000 2.6 20 23:39 09.02.2020
3179 Clear -2 1029 79 10000 1.5 20 23:21 09.02.2020
3180 Clear -2 1029 79 10000 2.1 20 22:41 09.02.2020
3181 Clear -1 1029 74 10000 0.5 0 22:21 09.02.2020
3182 Clear -1 1030 74 10000 1 50 21:44 09.02.2020
3183 Clear -1 1030 74 10000 1 50 21:25 09.02.2020
3184 Clear -1 1030 80 10000 1.5 40 20:56 09.02.2020
3185 Clear -1 1030 80 10000 1.5 40 20:38 09.02.2020
3186 Clear -1 1030 53 10000 1.5 50 20:18 09.02.2020
3187 Clear -1 1030 53 10000 1.5 20 19:40 09.02.2020
3188 Clear 0 1030 64 10000 1 0 19:21 09.02.2020
3189 Clear 0 1031 64 10000 1.5 60 18:57 09.02.2020
3190 Clear 0 1031 64 10000 1.5 60 18:57 09.02.2020
3191 Clear 0 1031 64 10000 1.5 60 18:38 09.02.2020
3192 Clear 0 1031 64 10000 2.1 60 18:20 09.02.2020
3193 Clear 0 1031 55 10000 2.6 80 17:42 09.02.2020
3194 Clear 0 1030 55 10000 3.6 90 17:23 09.02.2020
3195 Clear 1 1030 51 10000 4.6 100 16:56 09.02.2020
3196 Clear 1 1030 51 10000 4.6 100 16:56 09.02.2020
3197 Clear 2 1030 51 10000 4.6 100 16:37 09.02.2020
3198 Clear 4 1030 44 10000 4.6 100 16:18 09.02.2020
3199 Clear 6 1030 33 10000 2.6 110 15:54 09.02.2020
3200 Clear 7 1031 33 10000 2.1 260 15:36 09.02.2020
3201 Clear 7 1031 33 10000 2.1 260 15:18 09.02.2020
3202 Clear 7 1031 33 10000 2.1 0 14:41 09.02.2020
3203 Clear 7 1031 33 10000 2.1 0 14:41 09.02.2020
3204 Clear 6 1031 30 10000 2.6 270 14:23 09.02.2020
3205 Clear 6 1031 33 10000 2.1 0 13:47 09.02.2020
3206 Clear 5 1031 35 10000 3.6 240 13:28 09.02.2020
3207 Clear 5 1031 32 10000 3.6 250 12:57 09.02.2020
3208 Clear 5 1031 32 10000 3.6 250 12:38 09.02.2020
3209 Clear 5 1032 35 10000 3.1 230 12:19 09.02.2020
3210 Clear 5 1032 35 10000 3.1 230 12:19 09.02.2020
3211 Clear 5 1032 35 10000 3.1 230 12:19 09.02.2020
3212 Clear 4 1032 41 10000 2.1 0 11:42 09.02.2020
3213 Clear 2 1032 47 10000 1 0 11:22 09.02.2020
3214 Clear 1 1032 50 10000 1 0 10:59 09.02.2020
3215 Clear 1 1032 50 10000 1 0 10:41 09.02.2020
3216 Clear 1 1033 55 10000 1.5 260 10:21 09.02.2020
3217 Clear 0 1033 54 10000 1.5 250 09:46 09.02.2020
3218 Clear 0 1033 68 10000 0.5 0 09:27 09.02.2020
3219 Clear -1 1032 68 10000 0.5 0 08:46 09.02.2020
3220 Clouds -1 1032 68 10000 1 290 08:28 09.02.2020
3221 Clouds -2 1032 73 10000 2.68 272 07:59 09.02.2020
3222 Clouds -3 1032 73 10000 2.68 272 07:41 09.02.2020
3223 Clouds -4 1032 79 10000 1.5 290 06:48 09.02.2020
3224 Clouds -4 1032 79 10000 2.6 250 06:28 09.02.2020
3225 Clouds -4 1032 79 10000 2.1 240 05:43 09.02.2020
3226 Clouds -4 1032 79 10000 2.1 240 05:18 09.02.2020
3227 Clouds -4 1031 79 10000 1.5 250 03:52 09.02.2020
3228 Clouds -3 1031 68 10000 1.5 260 02:45 09.02.2020
3229 Clouds -4 1031 73 10000 3.18 276 02:26 09.02.2020
3230 Clouds -4 1032 68 10000 1 300 01:35 09.02.2020
3231 Clouds -5 1032 79 10000 1 250 00:44 09.02.2020
3232 Clouds -4 1032 68 10000 0.5 0 00:24 09.02.2020
3233 Clouds -5 1032 79 10000 4.22 289 23:43 08.02.2020
3234 Clear -5 1032 79 10000 0.5 230 23:21 08.02.2020
3235 Clear -6 1032 79 10000 4.08 287 22:43 08.02.2020
3236 Clear -6 1032 79 10000 4.08 287 22:22 08.02.2020
3237 Clear -6 1032 79 10000 4.08 287 22:22 08.02.2020
3238 Clear -6 1032 79 10000 0.5 0 21:59 08.02.2020
3239 Clear -6 1032 79 10000 0.5 0 21:40 08.02.2020
3240 Clear -5 1032 73 10000 1.5 360 21:21 08.02.2020
3241 Clear -6 1032 79 10000 0.5 0 20:56 08.02.2020
3242 Clear -6 1032 79 10000 0.5 0 20:56 08.02.2020
3243 Clear -6 1032 79 10000 0.5 0 20:38 08.02.2020
3244 Clouds -5 1032 73 10000 4.05 324 20:19 08.02.2020
3245 Clouds -5 1032 73 10000 4.05 324 19:54 08.02.2020
3246 Clouds -6 1032 73 10000 0.5 0 19:36 08.02.2020
3247 Clouds -6 1032 73 10000 0.5 0 19:18 08.02.2020
3248 Clouds -5 1032 73 10000 2.6 320 18:42 08.02.2020
3249 Clouds -5 1032 73 10000 2.6 320 18:42 08.02.2020
3250 Clouds -5 1031 68 10000 2.6 300 18:23 08.02.2020
3251 Clouds -4 1031 68 10000 4.1 280 17:43 08.02.2020
3252 Clouds -4 1031 63 10000 3.1 290 17:21 08.02.2020
3253 -273 0 0 0 0 0 17:21 08.02.2020
3254 Clouds -3 1031 63 10000 3.6 310 16:58 08.02.2020
3255 Clouds -3 1031 63 10000 3.6 310 16:39 08.02.2020
3256 Clouds -2 1031 54 10000 4.1 290 16:20 08.02.2020
3257 Clouds -1 1031 54 10000 4.6 300 15:42 08.02.2020
3258 Clouds -1 1031 54 10000 6.7 290 15:19 08.02.2020
3259 Clouds 0 1031 61 10000 7.7 290 14:58 08.02.2020
3260 Clouds 0 1031 61 10000 7.7 290 14:39 08.02.2020
3261 Clouds -1 1031 58 10000 6.7 300 14:18 08.02.2020
3262 Clouds 0 1031 56 10000 5.7 290 13:43 08.02.2020
3263 Clouds 0 1031 61 10000 5.7 290 13:23 08.02.2020
3264 Clouds 0 1031 61 10000 5.7 290 13:23 08.02.2020
3265 Clouds 0 1031 61 10000 4.1 330 12:55 08.02.2020
3266 Clouds 0 1031 61 10000 4.1 330 12:36 08.02.2020
3267 Clouds 0 1031 61 10000 6.2 300 12:18 08.02.2020
3268 Clouds 0 1031 61 10000 5.1 290 11:41 08.02.2020
3269 Clouds 0 1031 60 10000 2.6 0 11:21 08.02.2020
3270 Clouds -1 1031 54 10000 5.7 340 10:43 08.02.2020
3271 Clouds -2 1030 58 10000 9.3 360 10:24 08.02.2020
3272 Clouds -2 1029 58 10000 11.8 360 09:53 08.02.2020
3273 Clouds -3 1029 58 10000 11.3 350 09:30 08.02.2020
3274 Clouds -3 1029 58 10000 10.3 350 08:59 08.02.2020
3275 Clouds -3 1029 58 10000 10.3 350 08:59 08.02.2020
3276 Clouds -3 1029 58 10000 10.3 350 08:39 08.02.2020
3277 Clear -4 1029 62 10000 9.3 340 08:21 08.02.2020
3278 Clear -4 1029 62 10000 8.7 340 07:50 08.02.2020
3279 Clear -5 1029 67 10000 8.2 340 07:31 08.02.2020
3280 Clear -6 1028 67 10000 7.2 330 06:33 08.02.2020
3281 Clear -6 1028 67 10000 6.2 330 05:57 08.02.2020
3282 Clear -7 1028 73 10000 4.1 320 05:31 08.02.2020
3283 Clear -7 1028 79 10000 2.6 280 04:51 08.02.2020
3284 Clear -6 1027 67 10000 3.6 320 03:57 08.02.2020
3285 Clear -6 1027 67 10000 3.6 330 02:58 08.02.2020
3286 Clear -6 1026 67 10000 3.6 340 02:24 08.02.2020
3287 Snow -5 1026 68 10000 7.7 350 01:28 08.02.2020
3288 Clouds -4 1025 63 10000 6.7 350 00:45 08.02.2020
3289 Clouds -4 1025 68 10000 5.1 340 00:23 08.02.2020
3290 Clouds -5 1025 62 10000 5.7 340 23:56 07.02.2020
3291 Clouds -5 1025 62 10000 5.7 340 23:37 07.02.2020
3292 Snow -4 1025 58 10000 4.6 340 23:19 07.02.2020
3293 Snow -4 1024 58 10000 4.6 350 22:41 07.02.2020
3294 Snow -4 1024 58 10000 4.6 350 22:41 07.02.2020
3295 Snow -3 1024 54 10000 3.6 350 22:19 07.02.2020
3296 Snow -2 1023 50 10000 4.1 30 21:44 07.02.2020
3297 Snow -2 1022 58 10000 3.6 350 21:23 07.02.2020
3298 Snow -2 1022 58 10000 5.1 360 20:59 07.02.2020
3299 Snow -2 1022 58 10000 5.1 360 20:38 07.02.2020
3300 Clouds -1 1021 58 10000 8.7 10 20:18 07.02.2020
3301 Clouds -1 1021 58 10000 8.7 10 20:18 07.02.2020
3302 Clouds -1 1020 58 10000 7.2 10 19:42 07.02.2020
3303 Clouds -2 1020 63 10000 6.7 10 19:22 07.02.2020
3304 Clouds -2 1020 68 10000 5.1 20 18:58 07.02.2020
3305 Clouds -2 1020 68 10000 5.1 20 18:58 07.02.2020
3306 Clouds -1 1020 68 10000 5.1 20 18:40 07.02.2020
3307 Snow -2 1019 68 10000 5.7 10 18:20 07.02.2020
3308 Snow -2 1019 80 7000 6.7 10 17:43 07.02.2020
3309 Snow -1 1019 58 7000 6.7 10 17:22 07.02.2020
3310 Snow -1 1018 76 6000 5.7 350 16:57 07.02.2020
3311 Snow -1 1018 76 6000 5.7 350 16:38 07.02.2020
3312 Clouds 0 1018 69 10000 6.2 350 16:19 07.02.2020
3313 Snow 1 1018 64 8000 7.2 350 15:47 07.02.2020
3314 Clouds 2 1018 69 10000 5.1 340 15:22 07.02.2020
3315 Clouds 3 1017 64 10000 5.7 330 14:46 07.02.2020
3316 Clouds 3 1017 64 10000 6.2 310 14:26 07.02.2020
3317 Clouds 3 1017 64 10000 6.2 290 13:58 07.02.2020
3318 Clouds 3 1017 64 10000 6.2 290 13:39 07.02.2020
3319 Clouds 3 1017 69 10000 6.7 300 13:21 07.02.2020
3320 Clouds 3 1017 69 10000 6.7 300 13:21 07.02.2020
3321 Clouds 3 1017 69 10000 6.2 280 12:55 07.02.2020
3322 Clouds 3 1017 69 10000 6.2 280 12:37 07.02.2020
3323 Clouds 3 1017 74 10000 7.2 270 12:19 07.02.2020
3324 Clouds 2 1017 74 10000 7.2 270 11:42 07.02.2020
3325 Clouds 1 1017 74 10000 5.1 270 11:20 07.02.2020
3326 Clouds 1 1018 80 10000 7.2 270 10:42 07.02.2020
3327 Snow 1 1018 75 10000 7.2 270 10:24 07.02.2020
3328 Snow 0 1018 75 8000 6.2 260 09:56 07.02.2020
3329 Snow 0 1018 75 8000 6.2 260 09:37 07.02.2020
3330 Clouds 0 1018 75 10000 7.2 260 09:19 07.02.2020
3331 Clouds -1 1018 75 10000 6.7 260 08:42 07.02.2020
3332 Snow -1 1017 80 10000 6.7 260 08:21 07.02.2020
3333 Clouds -2 1017 74 10000 7.2 270 07:45 07.02.2020
3334 Clouds -3 1017 79 10000 7.2 270 07:26 07.02.2020
3335 Clouds -3 1017 79 10000 6.7 270 06:46 07.02.2020
3336 Clouds -3 1017 79 10000 7.2 260 06:26 07.02.2020
3337 Clouds -2 1017 74 10000 6.2 260 05:56 07.02.2020
3338 Clouds -2 1017 74 10000 6.2 260 04:43 07.02.2020
3339 Clouds -3 1017 79 10000 5.1 280 02:51 07.02.2020
3340 Clouds -3 1017 86 10000 3.1 260 01:50 07.02.2020
3341 Clouds -3 1017 74 10000 1 0 00:48 07.02.2020
3342 Clouds -2 1017 74 10000 3.1 290 00:20 07.02.2020
3343 Clouds -2 1017 74 10000 3.1 290 00:20 07.02.2020
3344 Clouds -2 1017 74 10000 3.6 270 23:37 06.02.2020
3345 Clouds -2 1017 74 10000 2.6 270 23:19 06.02.2020
3346 Clouds -2 1017 68 10000 3.1 280 22:44 06.02.2020
3347 Clouds -2 1018 68 10000 4.1 300 22:25 06.02.2020
3348 Clouds -2 1018 68 10000 4.1 310 21:38 06.02.2020
3349 Clouds -2 1018 68 10000 4.1 310 21:20 06.02.2020
3350 Clouds -2 1017 68 10000 5.1 300 20:58 06.02.2020
3351 Clouds -2 1017 68 10000 5.1 300 20:39 06.02.2020
3352 Clouds -1 1017 61 10000 5.1 280 20:19 06.02.2020
3353 Clouds -1 1017 67 10000 4.1 300 19:59 06.02.2020
3354 Clouds -1 1017 67 10000 4.1 300 19:40 06.02.2020
3355 Clouds -2 1017 68 10000 4.6 290 19:22 06.02.2020
3356 Clouds -2 1017 68 10000 6.2 320 18:58 06.02.2020
3357 Clouds -2 1017 68 10000 6.2 320 18:39 06.02.2020
3358 Clouds -2 1017 68 10000 8.2 330 18:20 06.02.2020
3359 Clouds -2 1015 68 10000 6.7 350 17:42 06.02.2020
3360 Clouds -2 1015 68 10000 8.7 330 17:21 06.02.2020
3361 Snow -2 1015 68 10000 8.7 340 16:57 06.02.2020
3362 Snow -2 1015 68 10000 8.7 340 16:39 06.02.2020
3363 Snow -2 1015 68 10000 7.2 340 16:20 06.02.2020
3364 Snow -3 1015 74 10000 7.7 340 15:42 06.02.2020
3365 Snow -3 1014 79 10000 10.8 350 15:21 06.02.2020
3366 Snow -3 1013 79 10000 13.9 350 14:48 06.02.2020
3367 Snow -3 1012 79 10000 13.9 360 14:27 06.02.2020
3368 Snow -3 1012 74 10000 14.9 360 13:55 06.02.2020
3369 Snow -3 1012 74 10000 14.9 360 13:36 06.02.2020
3370 Snow -2 1012 79 10000 14.4 360 13:18 06.02.2020
3371 Snow -2 1011 79 9000 13.4 360 12:43 06.02.2020
3372 Snow -2 1011 79 9000 13.4 360 12:43 06.02.2020
3373 Snow -2 1012 79 9000 12.3 360 12:18 06.02.2020
3374 Snow -2 1011 79 1400 12.9 360 11:56 06.02.2020
3375 Snow -2 1011 79 1400 12.9 360 11:37 06.02.2020
3376 Snow -2 1011 86 1200 12.9 360 11:18 06.02.2020
3377 Snow -2 1011 86 1200 12.9 360 11:18 06.02.2020
3378 Snow -3 1011 86 3900 12.3 360 10:54 06.02.2020
3379 Snow -3 1011 86 3900 12.3 360 10:36 06.02.2020
3380 Snow -2 1010 86 10000 12.9 360 10:18 06.02.2020
3381 Snow -2 1009 86 10000 14.4 360 09:42 06.02.2020
3382 Snow -2 1009 86 10000 14.9 360 09:20 06.02.2020
3383 Snow -2 1008 86 10000 14.4 360 08:47 06.02.2020
3384 Clouds -2 1007 80 10000 15.4 360 08:25 06.02.2020
3385 Snow -2 1007 80 10000 14.9 360 07:57 06.02.2020
3386 Snow -2 1006 80 10000 15.4 360 07:33 06.02.2020
3387 Snow -2 1005 80 10000 16.5 360 06:54 06.02.2020
3388 Snow -2 1004 80 10000 16.5 360 06:19 06.02.2020
3389 Snow -2 1004 80 10000 16.5 360 05:40 06.02.2020
3390 Snow -1 1002 86 10000 14.9 360 04:18 06.02.2020
3391 Snow 0 1001 86 9000 13.4 360 03:18 06.02.2020
3392 Snow 0 1001 86 9000 13.4 360 03:18 06.02.2020
3393 Snow 1 1000 90 9000 12.9 10 01:57 06.02.2020
3394 Snow 1 999 92 10000 13.4 10 01:24 06.02.2020
3395 Clouds 1 998 92 10000 14.9 10 00:38 06.02.2020
3396 Rain 1 997 92 10000 14.4 10 00:19 06.02.2020
3397 Clouds 1 997 92 10000 14.4 10 23:40 05.02.2020
3398 Clouds 1 996 92 10000 14.4 10 23:22 05.02.2020
3399 Snow 2 996 95 10000 13.4 20 22:41 05.02.2020
3400 Clouds 2 995 95 10000 12.9 20 22:23 05.02.2020
3401 Clouds 2 994 86 10000 12.3 10 21:58 05.02.2020
3402 Clouds 2 994 86 10000 12.3 10 21:40 05.02.2020
3403 Clouds 2 994 86 10000 11.8 10 21:22 05.02.2020
3404 Rain 3 994 86 5000 11.3 20 20:54 05.02.2020
3405 Rain 3 994 86 5000 11.3 20 20:36 05.02.2020
3406 Rain 4 994 86 10000 10.8 30 20:18 05.02.2020
3407 Rain 5 993 87 10000 12.9 30 19:54 05.02.2020
3408 Rain 5 993 81 10000 3.6 0 19:36 05.02.2020
3409 Rain 5 993 81 10000 3.6 0 19:18 05.02.2020
3410 Clouds 5 992 87 10000 6.7 40 18:42 05.02.2020
3411 Rain 5 989 87 10000 13.4 30 18:20 05.02.2020
3412 Rain 5 992 87 10000 2.6 0 17:40 05.02.2020
3413 Rain 5 992 87 10000 2.6 0 17:20 05.02.2020
3414 Rain 5 991 87 10000 7.2 40 16:59 05.02.2020
3415 Rain 5 991 87 10000 7.2 40 16:41 05.02.2020
3416 Rain 5 990 87 10000 9.8 20 16:23 05.02.2020
3417 Rain 5 990 87 10000 8.7 20 15:56 05.02.2020
3418 Rain 5 990 87 10000 8.7 20 15:38 05.02.2020
3419 Rain 5 992 93 10000 3.1 40 15:18 05.02.2020
3420 Clouds 5 992 86 10000 6.7 10 14:42 05.02.2020
3421 Clouds 5 993 86 10000 3.1 340 14:22 05.02.2020
3422 Rain 4 993 80 10000 2.6 300 13:44 05.02.2020
3423 Rain 4 993 86 10000 5.1 300 13:24 05.02.2020
3424 Rain 4 994 86 10000 3.6 290 12:59 05.02.2020
3425 Rain 4 994 86 10000 3.6 290 12:39 05.02.2020
3426 Rain 4 994 86 10000 6.2 310 12:21 05.02.2020
3427 Rain 4 994 86 10000 4.1 290 11:41 05.02.2020
3428 Rain 4 994 86 10000 4.1 290 11:23 05.02.2020
3429 Rain 4 994 86 10000 5.1 280 10:58 05.02.2020
3430 Rain 4 994 93 10000 4.6 290 10:39 05.02.2020
3431 Rain 4 994 93 10000 4.6 290 10:18 05.02.2020
3432 Rain 4 994 93 10000 4.6 280 09:43 05.02.2020
3433 Rain 4 994 93 9000 5.1 280 09:22 05.02.2020
3434 Rain 4 994 86 10000 5.7 270 08:56 05.02.2020
3435 Rain 4 994 86 10000 5.7 270 08:37 05.02.2020
3436 Rain 5 994 80 10000 7.2 280 08:19 05.02.2020
3437 Rain 5 993 75 10000 8.2 280 07:42 05.02.2020
3438 Clouds 5 993 80 10000 7.2 270 07:19 05.02.2020
3439 Clouds 5 993 80 10000 7.2 280 06:40 05.02.2020
3440 Rain 5 993 81 10000 6.2 290 06:21 05.02.2020
3441 Rain 6 993 75 10000 7.7 270 05:20 05.02.2020
3442 Rain 6 993 70 10000 8.7 280 04:58 05.02.2020
3443 Rain 6 993 65 10000 8.2 280 04:25 05.02.2020
3444 Clouds 8 993 70 10000 9.3 280 02:52 05.02.2020
3445 Clouds 8 993 70 10000 9.3 280 02:21 05.02.2020
3446 Clouds 10 993 66 10000 7.2 270 01:28 05.02.2020
3447 Clouds 13 993 66 10000 6.2 260 00:22 05.02.2020
3448 Clouds 12 993 66 10000 5.1 240 23:40 04.02.2020
3449 Clouds 13 993 66 10000 3.1 250 23:20 04.02.2020
3450 Clouds 13 993 62 10000 3.6 260 22:57 04.02.2020
3451 Clouds 13 994 66 10000 3.6 250 22:39 04.02.2020
3452 Clouds 13 994 66 10000 3.6 250 22:20 04.02.2020
3453 Clouds 12 994 76 10000 1 0 21:55 04.02.2020
3454 Clouds 12 994 76 10000 1 0 21:37 04.02.2020
3455 Clouds 12 994 76 10000 1 0 21:18 04.02.2020
3456 Clouds 12 994 76 10000 2.1 160 20:44 04.02.2020
3457 Clouds 11 995 76 10000 3.1 100 20:22 04.02.2020
3458 Clouds 11 995 76 10000 3.6 110 19:59 04.02.2020
3459 Clouds 11 995 76 10000 3.6 110 19:40 04.02.2020
3460 Clouds 11 995 76 10000 3.6 110 19:40 04.02.2020
3461 Clouds 10 996 81 10000 4.6 110 19:22 04.02.2020
3462 Clouds 10 997 81 10000 4.6 120 18:57 04.02.2020
3463 Clouds 10 997 81 10000 4.6 120 18:38 04.02.2020
3464 Clouds 10 997 76 10000 6.7 100 18:19 04.02.2020
3465 Clouds 10 998 76 10000 6.2 100 17:43 04.02.2020
3466 Clouds 10 998 76 10000 6.2 100 17:22 04.02.2020
3467 Clouds 11 999 57 10000 4.6 120 16:59 04.02.2020
3468 Clouds 11 1000 53 10000 4.6 130 16:38 04.02.2020
3469 Clouds 11 1000 53 10000 4.6 130 16:20 04.02.2020
3470 Clouds 11 1001 50 10000 5.1 140 15:56 04.02.2020
3471 Clouds 11 1001 50 10000 5.1 140 15:38 04.02.2020
3472 Clouds 11 1001 50 10000 4.1 120 15:19 04.02.2020
3473 Clouds 12 1002 50 10000 4.6 140 14:44 04.02.2020
3474 Clouds 12 1003 47 10000 3.6 180 14:23 04.02.2020
3475 Clouds 12 1003 50 10000 5.1 210 13:58 04.02.2020
3476 Clouds 12 1003 50 10000 5.1 210 13:39 04.02.2020
3477 Clouds 12 1004 50 10000 5.7 150 13:20 04.02.2020
3478 Clouds 12 1005 44 10000 4.1 160 12:44 04.02.2020
3479 Clouds 12 1006 47 10000 3.6 210 12:26 04.02.2020
3480 Clouds 12 1007 50 10000 4.1 250 11:58 04.02.2020
3481 Clouds 12 1007 50 10000 4.1 250 11:39 04.02.2020
3482 Clouds 11 1008 54 10000 4.1 230 11:21 04.02.2020
3483 Clouds 11 1009 58 10000 4.1 250 10:55 04.02.2020
3484 Clouds 11 1010 54 10000 5.7 260 10:36 04.02.2020
3485 Clouds 11 1009 58 10000 4.1 250 10:36 04.02.2020
3486 Clouds 11 1010 54 10000 5.7 260 10:18 04.02.2020
3487 Clouds 11 1010 58 10000 4.1 240 09:40 04.02.2020
3488 Clouds 10 1010 57 10000 2.6 260 09:22 04.02.2020
3489 Clouds 9 1010 70 10000 4.1 310 08:50 04.02.2020
3490 Clouds 9 1011 70 10000 1.5 270 08:28 04.02.2020
3491 Clouds 9 1011 70 10000 1.5 270 08:28 04.02.2020
3492 Clouds 7 1011 87 10000 1 320 07:58 04.02.2020
3493 Clouds 7 1011 87 10000 1 320 07:39 04.02.2020
3494 Clouds 6 1011 93 10000 2.1 340 07:21 04.02.2020
3495 Clouds 6 1011 93 10000 1 340 06:42 04.02.2020
3496 Clouds 6 1012 93 10000 1.5 320 05:40 04.02.2020
3497 Clouds 8 1012 93 10000 1.5 110 04:55 04.02.2020
3498 Clouds 8 1012 93 10000 3.97 234 03:49 04.02.2020
3499 Clouds 8 1012 93 10000 3.97 234 03:31 04.02.2020
3500 Clouds 9 1012 87 10000 2.6 150 02:51 04.02.2020
3501 Clouds 8 1012 87 10000 1.5 130 02:28 04.02.2020
3502 Clouds 8 1012 87 10000 1 0 01:48 04.02.2020
3503 Clouds 8 1012 87 10000 2.6 130 01:21 04.02.2020
3504 Clouds 9 1011 87 10000 2.6 130 00:25 04.02.2020
3505 Clouds 9 1011 87 10000 2.6 140 23:57 03.02.2020
3506 Clouds 9 1011 87 10000 2.6 140 23:38 03.02.2020
3507 Clouds 9 1011 81 10000 2.6 130 23:18 03.02.2020
3508 Clouds 9 1010 76 10000 4.6 110 22:39 03.02.2020
3509 Clouds 11 1009 62 10000 4.6 60 22:20 03.02.2020
3510 Clouds 12 1009 51 10000 8.7 300 21:42 03.02.2020
3511 Clouds 12 1008 51 10000 11.8 300 21:20 03.02.2020
3512 Clouds 13 1007 51 10000 8.7 290 20:57 03.02.2020
3513 Clouds 13 1007 51 10000 8.7 290 20:39 03.02.2020
3514 Clouds 14 1007 48 10000 11.8 290 20:18 03.02.2020
3515 Clouds 15 1006 48 10000 10.3 290 19:43 03.02.2020
3516 Clouds 16 1006 45 10000 11.3 290 19:23 03.02.2020
3517 Clouds 16 1006 45 10000 12.3 280 18:59 03.02.2020
3518 Clouds 16 1006 45 10000 12.3 280 18:41 03.02.2020
3519 Clouds 16 1006 45 10000 12.3 280 18:41 03.02.2020
3520 Clouds 17 1006 42 10000 10.3 270 18:22 03.02.2020
3521 Clouds 16 1006 42 10000 9.3 280 17:58 03.02.2020
3522 Clouds 16 1006 42 10000 9.3 280 17:39 03.02.2020
3523 Clouds 17 1006 42 10000 8.7 280 17:19 03.02.2020
3524 Clouds 17 1005 39 10000 10.3 280 16:40 03.02.2020
3525 Clouds 17 1005 39 10000 9.3 270 16:22 03.02.2020
3526 Clouds 17 1004 39 10000 11.8 260 15:58 03.02.2020
3527 Clouds 18 1004 39 10000 11.8 260 15:39 03.02.2020
3528 Clouds 18 1004 37 10000 12.9 260 15:20 03.02.2020
3529 Clouds 18 1005 37 10000 13.4 270 14:57 03.02.2020
3530 Clouds 18 1005 37 10000 13.4 270 14:39 03.02.2020
3531 Clouds 18 1005 37 10000 10.8 270 14:21 03.02.2020
3532 Clouds 18 1005 37 10000 11.3 270 13:43 03.02.2020
3533 Clouds 19 1006 32 10000 12.3 260 13:21 03.02.2020
3534 Clouds 19 1006 32 10000 12.3 280 12:58 03.02.2020
3535 Clouds 19 1006 32 10000 12.3 280 12:39 03.02.2020
3536 Clouds 19 1006 34 10000 10.3 270 12:21 03.02.2020
3537 Clouds 18 1007 34 10000 12.3 270 11:55 03.02.2020
3538 Clouds 17 1007 42 10000 7.7 250 11:36 03.02.2020
3539 Clouds 17 1007 42 10000 7.7 250 11:18 03.02.2020
3540 Clouds 15 1008 44 10000 5.7 250 10:40 03.02.2020
3541 Clouds 14 1008 51 10000 4.6 280 10:22 03.02.2020
3542 Clouds 13 1009 58 10000 3.1 270 09:46 03.02.2020
3543 Clouds 13 1009 58 10000 4.1 270 09:23 03.02.2020
3544 Clouds 12 1009 66 10000 4.6 280 08:55 03.02.2020
3545 Clouds 12 1009 66 10000 4.6 280 08:37 03.02.2020
3546 Clouds 12 1009 62 10000 4.1 280 08:18 03.02.2020
3547 Clouds 11 1010 62 10000 4.1 280 07:40 03.02.2020
3548 Clouds 11 1010 62 10000 3.6 320 07:21 03.02.2020
3549 Clouds 10 1010 61 10000 3.6 320 06:49 03.02.2020
3550 Clouds 10 1011 61 10000 3.1 310 06:27 03.02.2020
3551 Clouds 11 1011 57 10000 2.1 320 05:37 03.02.2020
3552 Clouds 10 1011 70 10000 1.5 300 04:59 03.02.2020
3553 Clouds 10 1012 66 10000 1.5 0 03:19 03.02.2020
3554 Clouds 10 1013 66 10000 4.1 320 02:34 03.02.2020
3555 Clouds 11 1013 62 10000 3.6 310 01:41 03.02.2020
3556 Clouds 11 1014 58 10000 4.1 280 00:46 03.02.2020
3557 Clouds 11 1014 58 10000 6.2 240 00:23 03.02.2020
3558 Clouds 12 1014 54 10000 4.1 210 23:38 02.02.2020
3559 Clear 12 1014 58 10000 4.6 230 23:20 02.02.2020
3560 Clear 12 1014 58 10000 4.6 230 23:20 02.02.2020
3561 Clear 12 1014 58 10000 4.1 250 22:57 02.02.2020
3562 Clear 12 1014 58 10000 4.1 250 22:37 02.02.2020
3563 Clear 10 1014 66 10000 4.6 250 22:19 02.02.2020
3564 Clear 11 1014 62 10000 4.1 250 21:43 02.02.2020
3565 Clear 11 1014 62 10000 3.1 240 21:24 02.02.2020
3566 Clear 11 1014 62 10000 4.1 280 20:58 02.02.2020
3567 Clear 11 1014 62 10000 4.1 280 20:39 02.02.2020
3568 Clouds 12 1014 62 10000 4.6 280 20:21 02.02.2020
3569 Clouds 11 1013 62 10000 3.1 280 19:59 02.02.2020
3570 Clouds 11 1013 62 10000 3.1 280 19:41 02.02.2020
3571 Clouds 12 1013 62 10000 3.6 280 19:23 02.02.2020
3572 Clouds 14 1013 54 10000 3.6 290 18:58 02.02.2020
3573 Clouds 14 1013 54 10000 3.6 290 18:38 02.02.2020
3574 Clouds 14 1013 54 10000 6.62 261 18:20 02.02.2020
3575 Clouds 15 1013 48 10000 3.6 280 17:58 02.02.2020
3576 Clouds 15 1013 48 10000 3.6 280 17:38 02.02.2020
3577 Clouds 15 1013 48 10000 3.6 280 17:38 02.02.2020
3578 Clouds 16 1013 45 10000 7.2 280 17:18 02.02.2020
3579 Clouds 16 1012 45 10000 9.3 280 16:58 02.02.2020
3580 Clouds 16 1012 45 10000 9.3 280 16:39 02.02.2020
3581 Clouds 16 1012 45 10000 9.3 280 16:39 02.02.2020
3582 Clouds 17 1012 42 10000 8.7 280 16:19 02.02.2020
3583 Clouds 18 1012 39 10000 9.3 270 15:57 02.02.2020
3584 Clouds 18 1012 39 10000 9.3 270 15:38 02.02.2020
3585 Clouds 19 1012 37 10000 10.8 270 15:19 02.02.2020
3586 Clouds 20 1012 37 10000 10.8 260 14:45 02.02.2020
3587 Clouds 19 1012 37 10000 10.8 270 14:20 02.02.2020
3588 Clouds 19 1012 37 10000 10.3 280 13:59 02.02.2020
3589 Clouds 20 1012 37 10000 10.3 280 13:41 02.02.2020
3590 Clouds 19 1012 34 10000 9.8 280 13:23 02.02.2020
3591 Clouds 20 1012 37 10000 11.3 270 12:58 02.02.2020
3592 Clouds 20 1012 37 10000 11.3 270 12:40 02.02.2020
3593 Clouds 19 1013 39 10000 8.7 270 12:22 02.02.2020
3594 Clouds 18 1013 42 10000 9.3 280 11:54 02.02.2020
3595 Clouds 18 1013 42 10000 9.3 280 11:54 02.02.2020
3596 Clouds 18 1013 42 10000 9.3 280 11:36 02.02.2020
3597 Clouds 18 1013 42 10000 8.7 270 11:18 02.02.2020
3598 Clouds 18 1013 42 10000 9.8 270 10:54 02.02.2020
3599 Clouds 18 1013 42 10000 9.8 270 10:36 02.02.2020
3600 Clouds 16 1014 48 10000 6.7 260 10:18 02.02.2020
3601 Clouds 15 1014 54 10000 3.1 230 09:40 02.02.2020
3602 Clouds 13 1014 66 10000 3.1 190 09:21 02.02.2020
3603 Clouds 13 1014 66 10000 3.1 190 09:21 02.02.2020
3604 Clouds 12 1014 71 10000 1.5 200 08:49 02.02.2020
3605 Clouds 10 1014 81 10000 1 0 08:30 02.02.2020
3606 Clear 9 1014 81 10000 1 0 07:49 02.02.2020
3607 Clear 7 1014 86 10000 0.5 0 07:30 02.02.2020
3608 Clear 6 1014 93 10000 1.5 330 06:56 02.02.2020
3609 Clear 6 1014 93 10000 1.5 330 06:37 02.02.2020
3610 Clear 6 1014 86 7000 1.5 240 06:18 02.02.2020
3611 Clear 6 1013 93 10000 1.5 260 05:20 02.02.2020
3612 Clear 8 1014 87 10000 2.6 360 03:43 02.02.2020
3613 Clear 7 1014 93 10000 1.5 310 03:22 02.02.2020
3614 Clouds 7 1014 86 10000 1 0 02:19 02.02.2020
3615 Clouds 6 1014 80 10000 0.5 0 01:49 02.02.2020
3616 Clouds 7 1014 81 10000 1.5 290 00:50 02.02.2020
3617 Clouds 8 1014 87 10000 0.5 290 00:24 02.02.2020
3618 Clouds 9 1015 75 10000 0.5 310 23:55 01.02.2020
3619 Clouds 9 1015 75 10000 0.5 310 23:37 01.02.2020
3620 Clouds 7 1015 81 10000 1 0 23:18 01.02.2020
3621 Clouds 7 1015 81 10000 1 0 22:43 01.02.2020
3622 Clouds 7 1015 81 10000 1.5 290 22:18 01.02.2020
3623 Clouds 7 1015 81 10000 1.5 290 22:18 01.02.2020
3624 Clouds 8 1015 75 10000 2.96 238 21:40 01.02.2020
3625 Clouds 8 1015 75 10000 2.1 0 21:19 01.02.2020
3626 Clouds 8 1015 75 10000 2.1 0 21:19 01.02.2020
3627 Clouds 9 1015 71 10000 3.1 20 20:55 01.02.2020
3628 Clouds 9 1015 71 10000 3.1 20 20:36 01.02.2020
3629 Clear 9 1015 76 10000 2.6 130 20:18 01.02.2020
3630 Clear 8 1015 70 10000 1.5 0 19:54 01.02.2020
3631 Clear 9 1015 70 10000 1.5 0 19:36 01.02.2020
3632 Clear 9 1015 66 10000 3.1 350 19:18 01.02.2020
3633 Clear 10 1015 62 10000 2.1 340 18:55 01.02.2020
3634 Clear 10 1015 62 10000 2.1 340 18:36 01.02.2020
3635 Clear 10 1015 58 10000 1.5 10 18:18 01.02.2020
3636 Clear 13 1015 54 10000 2.1 10 17:44 01.02.2020
3637 Clear 13 1014 54 10000 1.5 300 17:20 01.02.2020
3638 Clear 14 1014 51 10000 0.5 310 16:58 01.02.2020
3639 Clear 14 1014 51 10000 0.5 310 16:38 01.02.2020
3640 Clear 16 1014 45 10000 3.1 280 16:20 01.02.2020
3641 Clear 17 1014 45 10000 5.7 290 15:43 01.02.2020
3642 Clear 18 1014 42 10000 6.7 290 15:25 01.02.2020
3643 Clouds 17 1014 45 10000 7.7 280 14:58 01.02.2020
3644 Clouds 17 1014 45 10000 7.7 280 14:39 01.02.2020
3645 Clouds 18 1013 45 10000 8.7 270 14:20 01.02.2020
3646 Clouds 18 1013 45 10000 8.2 280 13:43 01.02.2020
3647 Clouds 18 1013 45 10000 8.7 280 13:21 01.02.2020
3648 Clouds 17 1013 45 10000 7.7 280 12:44 01.02.2020
3649 Clouds 17 1014 51 10000 8.2 280 12:25 01.02.2020
3650 Clouds 16 1014 48 10000 6.7 270 11:56 01.02.2020
3651 Clouds 15 1014 48 10000 6.7 270 11:37 01.02.2020
3652 Clear 15 1014 51 10000 7.2 280 11:18 01.02.2020
3653 Clear 14 1015 54 10000 5.1 270 10:55 01.02.2020
3654 Clear 14 1015 54 10000 5.1 270 10:37 01.02.2020
3655 Clear 13 1015 58 10000 2.6 260 10:18 01.02.2020
3656 Clear 12 1015 58 10000 2.1 210 09:41 01.02.2020
3657 Clear 11 1015 58 10000 3.6 240 09:22 01.02.2020
3658 Clear 10 1015 62 10000 3.1 290 08:58 01.02.2020
3659 Clear 9 1015 66 10000 2.6 300 08:27 01.02.2020
3660 Clouds 7 1014 75 10000 4.1 310 07:46 01.02.2020
3661 Clouds 7 1014 70 10000 2.6 300 07:24 01.02.2020
3662 Clouds 7 1014 65 10000 3.1 300 06:44 01.02.2020
3663 Clouds 6 1013 70 10000 3.6 310 05:54 01.02.2020
3664 Clouds 6 1012 65 10000 1.5 270 04:58 01.02.2020
3665 Clouds 8 1011 57 10000 6.2 250 03:26 01.02.2020
3666 Clouds 8 1011 57 10000 5.1 250 02:59 01.02.2020
3667 Clouds 8 1011 57 10000 5.1 250 02:40 01.02.2020
3668 Clouds 9 1011 50 10000 6.7 320 02:20 01.02.2020
3669 Clouds 10 1010 50 10000 8.7 330 01:46 01.02.2020
3670 Clouds 10 1010 50 10000 8.2 340 01:27 01.02.2020
3671 Clouds 10 1009 46 10000 7.2 320 00:24 01.02.2020
3672 Clouds 11 1009 46 10000 6.7 320 23:41 31.01.2020
3673 Clouds 11 1009 46 10000 7.7 300 23:19 31.01.2020
3674 Clouds 10 1009 43 10000 3.6 260 22:57 31.01.2020
3675 Clouds 10 1009 43 10000 3.6 260 22:38 31.01.2020
3676 Rain 8 1009 56 10000 1 0 22:20 31.01.2020
3677 Rain 9 1009 45 10000 4.58 293 21:55 31.01.2020
3678 Rain 9 1009 45 10000 4.58 293 21:37 31.01.2020
3679 Clouds 9 1009 42 10000 2.1 320 21:18 31.01.2020
3680 Clouds 9 1009 42 10000 4.1 290 20:54 31.01.2020
3681 Clouds 9 1009 42 10000 4.1 290 20:54 31.01.2020
3682 Clouds 9 1009 42 10000 4.1 290 20:36 31.01.2020
3683 Clouds 9 1009 42 10000 4.1 290 20:36 31.01.2020
3684 Clouds 9 1009 42 10000 3.6 320 20:18 31.01.2020
3685 Clouds 8 1009 42 10000 4.1 300 19:41 31.01.2020
3686 Clouds 8 1009 42 10000 3.1 320 19:22 31.01.2020
3687 Clouds 8 1009 45 10000 2.1 320 18:58 31.01.2020
3688 Clouds 8 1009 45 10000 2.1 320 18:36 31.01.2020
3689 Clouds 8 1010 39 10000 2.6 310 18:18 31.01.2020
3690 Clouds 8 1010 39 10000 2.1 320 17:43 31.01.2020
3691 Clouds 8 1011 39 10000 2.1 310 17:24 31.01.2020
3692 Clouds 9 1011 39 10000 3.1 320 16:57 31.01.2020
3693 Clouds 9 1011 39 10000 3.1 320 16:38 31.01.2020
3694 Clouds 10 1011 37 10000 3.6 260 16:19 31.01.2020
3695 Clouds 10 1011 34 10000 4.1 250 15:57 31.01.2020
3696 Clouds 10 1011 34 10000 4.1 250 15:38 31.01.2020
3697 Clouds 10 1012 34 10000 4.6 240 15:19 31.01.2020
3698 Clouds 11 1012 30 10000 4.6 240 14:42 31.01.2020
3699 Clouds 11 1012 30 10000 4.6 240 14:42 31.01.2020
3700 Clouds 11 1012 30 10000 3.6 240 14:23 31.01.2020
3701 Clouds 10 1012 34 10000 4.6 230 13:52 31.01.2020
3702 Clouds 10 1013 32 10000 5.7 240 13:32 31.01.2020
3703 Clouds 11 1013 34 10000 6.2 240 12:56 31.01.2020
3704 Clouds 11 1013 34 10000 6.2 240 12:38 31.01.2020
3705 Clouds 10 1014 39 10000 6.2 250 12:20 31.01.2020
3706 Clouds 9 1014 39 10000 6.7 260 11:42 31.01.2020
3707 Clouds 9 1015 42 10000 6.7 260 11:23 31.01.2020
3708 Clouds 8 1016 52 10000 5.7 250 10:58 31.01.2020
3709 Clouds 8 1016 52 10000 5.7 250 10:39 31.01.2020
3710 Clouds 8 1016 52 10000 5.7 250 10:20 31.01.2020
3711 Clouds 6 1017 56 10000 4.6 260 09:55 31.01.2020
3712 Clouds 5 1017 56 10000 4.6 260 09:37 31.01.2020
3713 Clouds 5 1017 56 10000 4.6 260 09:37 31.01.2020
3714 Clouds 5 1017 65 10000 3.6 280 09:18 31.01.2020
3715 Clouds 4 1017 64 10000 1.5 330 08:42 31.01.2020
3716 Clouds 3 1017 74 10000 1.5 340 08:23 31.01.2020
3717 Clear 1 1018 80 10000 2.1 10 07:52 31.01.2020
3718 Clear 0 1018 86 10000 2.6 360 07:20 31.01.2020
3719 Clear 0 1018 86 10000 2.1 360 06:38 31.01.2020
3720 Clear 0 1017 63 10000 0.5 0 05:58 31.01.2020
3721 Clear 0 1018 80 10000 5.78 258 05:33 31.01.2020
3722 Clear 0 1018 70 10000 1 80 04:41 31.01.2020
3723 Clear 1 1018 74 10000 3.1 310 02:55 31.01.2020
3724 Clear 1 1018 74 10000 4.6 310 01:32 31.01.2020
3725 Clear 1 1018 74 10000 3.1 330 00:42 31.01.2020
3726 Clear 2 1018 74 10000 3.6 300 00:23 31.01.2020
3727 Clear 2 1018 74 10000 3.6 250 23:44 30.01.2020
3728 Clear 2 1018 74 10000 5.1 290 23:23 30.01.2020
3729 Clear 2 1018 69 10000 2.6 300 22:40 30.01.2020
3730 Clear 2 1018 74 10000 3.6 320 22:21 30.01.2020
3731 Clear 2 1018 74 10000 5.1 290 21:59 30.01.2020
3732 Clear 3 1018 74 10000 5.1 290 21:41 30.01.2020
3733 Clear 2 1018 74 10000 4.1 280 21:19 30.01.2020
3734 Clear 3 1017 74 10000 2.1 310 20:57 30.01.2020
3735 Clear 3 1017 74 10000 2.1 310 20:38 30.01.2020
3736 Clear 3 1017 69 10000 4.1 310 20:20 30.01.2020
3737 Clear 3 1017 69 10000 2.1 300 19:44 30.01.2020
3738 Clear 3 1017 69 10000 0.5 0 19:19 30.01.2020
3739 Clear 3 1016 64 10000 3.6 300 18:59 30.01.2020
3740 Clear 3 1016 64 10000 3.6 300 18:38 30.01.2020
3741 Clear 4 1016 60 10000 2.1 330 18:19 30.01.2020
3742 Clear 3 1016 64 10000 3.6 280 17:54 30.01.2020
3743 Clear 3 1016 64 10000 3.6 280 17:36 30.01.2020
3744 Clouds 4 1015 55 10000 3.1 330 17:18 30.01.2020
3745 Clouds 5 1015 52 10000 4.1 310 16:40 30.01.2020
3746 Clouds 7 1014 48 10000 5.1 320 16:21 30.01.2020
3747 Clouds 8 1014 49 10000 6.7 300 15:45 30.01.2020
3748 Clouds 8 1014 42 10000 6.2 310 15:22 30.01.2020
3749 Clouds 8 1014 42 10000 6.2 310 15:22 30.01.2020
3750 Clouds 8 1014 42 10000 6.7 290 14:58 30.01.2020
3751 Clouds 9 1014 42 10000 6.7 290 14:40 30.01.2020
3752 Clouds 9 1013 45 10000 7.2 320 14:22 30.01.2020
3753 Clouds 9 1013 49 10000 7.2 320 13:42 30.01.2020
3754 Clouds 8 1013 45 10000 6.7 310 13:24 30.01.2020
3755 Clouds 9 1013 46 10000 6.7 330 12:57 30.01.2020
3756 Clouds 9 1013 46 10000 6.7 330 12:38 30.01.2020
3757 Clouds 9 1013 46 10000 8.2 300 12:19 30.01.2020
3758 Clouds 8 1013 49 10000 7.7 320 11:41 30.01.2020
3759 Clouds 7 1013 65 10000 4.6 300 11:22 30.01.2020
3760 Clouds 6 1013 75 10000 5.7 270 10:59 30.01.2020
3761 Clouds 6 1013 75 10000 5.7 270 10:40 30.01.2020
3762 Clouds 5 1013 75 10000 4.1 260 10:20 30.01.2020
3763 Clouds 5 1013 80 10000 6.7 270 09:45 30.01.2020
3764 Clouds 5 1013 75 10000 5.7 270 09:25 30.01.2020
3765 Clouds 5 1013 80 10000 6.7 270 08:43 30.01.2020
3766 Clouds 5 1013 86 10000 4.6 250 08:22 30.01.2020
3767 Clouds 4 1013 93 10000 5.1 270 07:58 30.01.2020
3768 Clouds 4 1013 93 10000 5.1 270 07:39 30.01.2020
3769 Clouds 3 1012 93 10000 3.1 280 07:18 30.01.2020
3770 Rain 4 1012 86 10000 3.1 310 06:44 30.01.2020
3771 Rain 4 1012 86 10000 5.7 310 06:25 30.01.2020
3772 Clouds 5 1011 78 10000 4.6 290 05:30 30.01.2020
3773 Clouds 5 1011 80 10000 4.1 300 04:57 30.01.2020
3774 Clouds 4 1011 80 10000 2.6 240 03:48 30.01.2020
3775 Rain 2 1011 86 10000 1.5 240 02:59 30.01.2020
3776 Clouds 1 1010 86 10000 1 330 01:30 30.01.2020
3777 Clouds 1 1010 80 10000 0.5 340 00:30 30.01.2020
3778 Clouds 1 1010 86 10000 0.5 0 23:58 29.01.2020
3779 Clouds 1 1010 86 10000 0.5 0 23:39 29.01.2020
3780 Clouds 2 1010 80 10000 2.1 350 23:20 29.01.2020
3781 Clouds 2 1011 67 10000 2.1 20 22:55 29.01.2020
3782 Clouds 3 1011 67 10000 2.1 20 22:37 29.01.2020
3783 Clouds 2 1011 67 10000 3.34 215 22:18 29.01.2020
3784 Clouds 2 1011 67 10000 1 0 21:54 29.01.2020
3785 Clouds 3 1011 67 10000 1 0 21:36 29.01.2020
3786 Clouds 3 1010 67 10000 3.6 20 21:18 29.01.2020
3787 Clouds 3 1010 67 10000 3.6 20 21:18 29.01.2020
3788 Clouds 4 1010 67 10000 1 0 20:41 29.01.2020
3789 Clouds 4 1011 67 10000 1.5 210 20:22 29.01.2020
3790 Clouds 4 1011 67 10000 1.5 210 20:22 29.01.2020
3791 Clouds 5 1010 70 10000 1.5 30 19:58 29.01.2020
3792 Clouds 5 1010 70 10000 1.5 30 19:38 29.01.2020
3793 Clouds 5 1010 75 10000 1.5 40 19:20 29.01.2020
3794 Clouds 6 1010 70 10000 1.5 10 18:58 29.01.2020
3795 Clouds 6 1010 70 10000 1.5 10 18:38 29.01.2020
3796 Clouds 6 1010 70 10000 1 0 18:18 29.01.2020
3797 Clouds 7 1010 65 10000 3.1 290 17:41 29.01.2020
3798 Clouds 7 1009 65 10000 2.6 300 17:22 29.01.2020
3799 Clouds 7 1009 61 10000 6.2 280 16:54 29.01.2020
3800 Clouds 8 1009 61 10000 6.2 280 16:36 29.01.2020
3801 Clouds 8 1008 57 10000 7.2 290 16:18 29.01.2020
3802 Clouds 8 1008 57 10000 7.7 280 15:39 29.01.2020
3803 Clouds 8 1008 61 10000 7.7 290 15:20 29.01.2020
3804 Clouds 9 1008 61 10000 8.2 280 14:45 29.01.2020
3805 Clouds 9 1007 66 10000 7.7 280 14:23 29.01.2020
3806 Clouds 9 1007 66 10000 9.3 290 13:57 29.01.2020
3807 Clouds 9 1007 66 10000 9.3 290 13:39 29.01.2020
3808 Clouds 9 1006 66 10000 7.2 290 13:20 29.01.2020
3809 Clouds 10 1006 66 10000 8.2 270 12:56 29.01.2020
3810 Clouds 10 1006 66 10000 8.2 270 12:37 29.01.2020
3811 Clouds 10 1006 62 10000 13.9 270 12:19 29.01.2020
3812 Clouds 10 1006 58 10000 10.3 280 11:45 29.01.2020
3813 Clouds 10 1006 62 10000 5.7 270 11:22 29.01.2020
3814 Clouds 9 1005 66 10000 4.1 290 10:47 29.01.2020
3815 Clouds 9 1005 66 10000 3.1 310 10:28 29.01.2020
3816 Clouds 9 1005 70 10000 1 0 09:59 29.01.2020
3817 Clouds 9 1005 70 10000 1 0 09:40 29.01.2020
3818 Clouds 9 1005 70 10000 1 0 09:21 29.01.2020
3819 Clouds 8 1005 75 10000 2.6 340 08:56 29.01.2020
3820 Clouds 8 1005 75 10000 2.6 340 08:38 29.01.2020
3821 Clouds 7 1005 81 10000 2.1 360 08:18 29.01.2020
3822 Clouds 6 1005 81 10000 2.6 360 07:43 29.01.2020
3823 Clouds 4 1005 100 8000 2.1 10 07:24 29.01.2020
3824 Clouds 4 1006 100 8000 0.5 0 06:39 29.01.2020
3825 Clouds 4 1006 100 10000 1 0 06:21 29.01.2020
3826 Clouds 4 1006 93 10000 0.5 0 05:55 29.01.2020
3827 Clouds 3 1006 100 8000 6.86 222 05:36 29.01.2020
3828 Clouds 3 1006 93 10000 0.5 0 04:49 29.01.2020
3829 Clouds 3 1006 93 10000 0.5 0 04:49 29.01.2020
3830 Clouds 3 1007 80 10000 2.1 110 04:25 29.01.2020
3831 Clouds 3 1008 80 10000 1 0 02:41 29.01.2020
3832 Clouds 3 1009 100 10000 5.07 228 01:44 29.01.2020
3833 Clear 2 1009 100 10000 1.5 320 00:41 29.01.2020
3834 Clear 3 1009 86 10000 2.6 340 00:23 29.01.2020
3835 Clear 3 1009 100 10000 2.1 350 23:41 28.01.2020
3836 Clear 3 1010 80 10000 1.5 360 23:20 28.01.2020
3837 Clear 4 1010 93 10000 1 0 22:57 28.01.2020
3838 Clear 4 1010 93 10000 1 0 22:39 28.01.2020
3839 Clear 3 1010 93 10000 1.5 350 22:20 28.01.2020
3840 Clear 4 1011 86 10000 2.6 10 21:41 28.01.2020
3841 Clear 4 1011 86 10000 2.1 20 21:20 28.01.2020
3842 Clear 4 1011 86 10000 2.1 20 21:20 28.01.2020
3843 Clear 4 1011 86 10000 1.5 30 20:46 28.01.2020
3844 Clear 4 1011 86 10000 2.1 20 20:28 28.01.2020
3845 Clouds 3 1011 93 10000 1.5 360 19:58 28.01.2020
3846 Clouds 3 1011 93 10000 1.5 360 19:38 28.01.2020
3847 Clouds 4 1011 80 10000 1 0 19:19 28.01.2020
3848 Clouds 4 1011 80 10000 2.1 30 18:54 28.01.2020
3849 Clouds 4 1011 80 10000 2.1 30 18:36 28.01.2020
3850 Clouds 5 1011 81 10000 1 0 18:36 28.01.2020
3851 Clouds 5 1011 81 10000 1 0 18:18 28.01.2020
3852 Clouds 6 1011 75 10000 3.21 227 17:55 28.01.2020
3853 Clouds 7 1011 75 10000 3.21 227 17:36 28.01.2020
3854 Clear 7 1011 65 10000 2.1 330 17:18 28.01.2020
3855 Clear 9 1011 66 10000 2.1 270 16:44 28.01.2020
3856 Clear 9 1011 61 10000 2.6 250 16:25 28.01.2020
3857 Clouds 10 1011 57 10000 5.1 260 15:57 28.01.2020
3858 Clouds 11 1011 57 10000 5.1 260 15:38 28.01.2020
3859 Clouds 11 1011 58 10000 6.7 250 15:18 28.01.2020
3860 Clouds 11 1011 58 10000 5.7 270 14:44 28.01.2020
3861 Clouds 11 1011 58 10000 5.7 270 14:20 28.01.2020
3862 Clouds 11 1011 62 10000 5.1 270 13:43 28.01.2020
3863 Clouds 11 1011 62 10000 6.7 270 13:24 28.01.2020
3864 Clouds 10 1011 66 10000 6.2 280 12:45 28.01.2020
3865 Clouds 10 1012 66 10000 5.7 290 12:25 28.01.2020
3866 Clouds 10 1012 71 10000 6.2 280 11:59 28.01.2020
3867 Clouds 9 1012 71 10000 6.2 280 11:41 28.01.2020
3868 Clouds 9 1012 71 10000 6.7 280 11:21 28.01.2020
3869 Clouds 8 1012 70 10000 7.2 290 10:44 28.01.2020
3870 Clouds 8 1013 70 10000 6.7 290 10:26 28.01.2020
3871 Clouds 7 1012 81 10000 7.2 280 09:59 28.01.2020
3872 Clouds 7 1012 81 10000 7.2 280 09:59 28.01.2020
3873 Clouds 7 1012 81 10000 7.2 280 09:39 28.01.2020
3874 Clouds 7 1013 75 10000 7.7 270 09:20 28.01.2020
3875 Clouds 6 1013 81 10000 6.2 270 08:44 28.01.2020
3876 Clouds 6 1013 87 10000 7.7 280 08:25 28.01.2020
3877 Clouds 5 1013 87 9000 6.7 270 07:44 28.01.2020
3878 Clouds 5 1013 87 7000 6.2 280 07:26 28.01.2020
3879 Clouds 5 1013 87 6000 6.2 270 06:47 28.01.2020
3880 Clouds 5 1013 87 7000 5.1 260 06:24 28.01.2020
3881 Clouds 5 1013 87 8000 5.7 260 05:37 28.01.2020
3882 Clouds 5 1012 87 7000 5.1 260 05:19 28.01.2020
3883 Rain 5 1012 87 5000 5.7 260 03:46 28.01.2020
3884 Rain 5 1012 87 5000 6.2 270 02:44 28.01.2020
3885 Rain 5 1012 87 5000 5.1 260 02:24 28.01.2020
3886 Clouds 6 1012 81 6000 6.7 290 01:52 28.01.2020
3887 Rain 6 1013 87 6000 5.7 270 00:58 28.01.2020
3888 Rain 6 1013 87 6000 5.7 270 00:39 28.01.2020
3889 Rain 6 1013 87 6000 5.7 270 00:19 28.01.2020
3890 Rain 6 1013 87 7000 5.1 270 23:42 27.01.2020
3891 Rain 6 1013 87 6000 4.6 280 23:18 27.01.2020
3892 Rain 7 1013 87 7000 5.7 310 22:44 27.01.2020
3893 Rain 7 1013 93 7000 2.1 310 22:20 27.01.2020
3894 Rain 7 1013 93 7000 2.1 310 22:20 27.01.2020
3895 Rain 7 1013 93 7000 2.1 310 22:20 27.01.2020
3896 Clouds 7 1013 100 6000 1 0 21:57 27.01.2020
3897 Clouds 7 1013 100 6000 1 0 21:38 27.01.2020
3898 Clouds 7 1013 100 6000 1 0 21:38 27.01.2020
3899 Rain 7 1013 100 4300 2.1 300 21:18 27.01.2020
3900 Rain 7 1013 100 4900 4.44 224 20:55 27.01.2020
3901 Rain 8 1013 100 4900 4.44 224 20:37 27.01.2020
3902 Rain 8 1013 100 4600 1 170 20:18 27.01.2020
3903 Clouds 8 1013 93 6000 6.39 176 19:42 27.01.2020
3904 Clouds 8 1013 93 6000 1 0 19:23 27.01.2020
3905 Mist 8 1013 100 5000 2.6 120 18:58 27.01.2020
3906 Mist 8 1013 100 5000 2.6 120 18:39 27.01.2020
3907 Mist 8 1013 100 5000 6.39 176 18:20 27.01.2020
3908 Clouds 8 1013 93 8000 6.39 176 17:55 27.01.2020
3909 Clouds 9 1013 93 8000 6.39 176 17:37 27.01.2020
3910 Clouds 9 1013 93 8000 6.39 176 17:37 27.01.2020
3911 Rain 10 1013 81 8000 2.6 100 17:18 27.01.2020
3912 Rain 10 1013 81 8000 2.6 100 16:41 27.01.2020
3913 Rain 10 1013 81 8000 2.6 100 16:41 27.01.2020
3914 Clouds 10 1014 81 8000 3.1 120 16:23 27.01.2020
3915 Clouds 11 1014 76 9000 3.6 110 15:55 27.01.2020
3916 Clouds 11 1014 76 9000 3.6 110 15:37 27.01.2020
3917 Clouds 11 1014 76 9000 3.6 120 15:19 27.01.2020
3918 Clouds 11 1014 76 9000 3.6 120 15:19 27.01.2020
3919 Clouds 11 1014 76 9000 4.6 110 14:43 27.01.2020
3920 Clouds 11 1014 76 9000 4.6 120 14:23 27.01.2020
3921 Clouds 11 1014 81 8000 3.1 120 13:58 27.01.2020
3922 Clouds 11 1014 81 8000 3.1 120 13:40 27.01.2020
3923 Clouds 12 1015 76 9000 4.1 120 13:20 27.01.2020
3924 Clouds 11 1015 81 9000 4.1 140 12:55 27.01.2020
3925 Clouds 11 1015 81 9000 4.1 140 12:37 27.01.2020
3926 Mist 12 1015 71 5000 2.1 140 12:18 27.01.2020
3927 Mist 12 1016 76 5000 1.5 130 11:41 27.01.2020
3928 Mist 10 1017 81 4500 0.5 0 11:21 27.01.2020
3929 Mist 10 1017 87 5000 2.1 260 10:43 27.01.2020
3930 Mist 9 1017 93 3600 4.4 182 10:24 27.01.2020
3931 Fog 8 1018 100 1000 1.5 150 09:56 27.01.2020
3932 Fog 7 1018 100 1000 1.5 150 09:38 27.01.2020
3933 Mist 8 1018 100 2400 4.4 182 09:18 27.01.2020
3934 Fog 7 1018 100 1700 4.4 182 08:42 27.01.2020
3935 Fog 6 1018 100 300 2.58 194 08:20 27.01.2020
3936 Fog 5 1018 100 600 2.58 194 07:54 27.01.2020
3937 Mist 5 1018 100 1400 1 0 07:34 27.01.2020
3938 Fog 4 1018 100 2200 2.58 194 06:53 27.01.2020
3939 Mist 4 1019 100 5000 0.5 0 06:24 27.01.2020
3940 Clouds 5 1019 86 6000 1 60 05:23 27.01.2020
3941 Clouds 2 1020 82 6000 0.5 270 03:47 27.01.2020
3942 Clouds 2 1020 82 8000 1.65 154 02:36 27.01.2020
3943 Clouds 1 1021 76 8000 0.5 0 01:29 27.01.2020
3944 Clouds 1 1021 78 8000 1 340 00:44 27.01.2020
3945 Clouds 1 1021 100 8000 0.5 10 00:26 27.01.2020
3946 Clouds 1 1022 78 8000 2.12 160 00:00 27.01.2020
3947 Clouds 1 1022 78 8000 2.12 160 23:59 26.01.2020
3948 Clouds 1 1022 78 8000 2.12 160 23:41 26.01.2020
3949 Clouds 1 1022 78 8000 2.12 160 23:41 26.01.2020
3950 Clouds 1 1022 78 8000 2.12 160 23:41 26.01.2020
3951 Clear 1 1022 86 8000 1 350 23:18 26.01.2020
3952 Clear 2 1022 80 8000 2.1 10 22:54 26.01.2020
3953 Clear 2 1022 80 8000 2.1 10 22:36 26.01.2020
3954 Clear 2 1022 86 8000 1.5 340 22:18 26.01.2020
3955 Clear 1 1022 86 8000 1.5 340 21:54 26.01.2020
3956 Clear 1 1022 86 8000 1.5 340 21:36 26.01.2020
3957 Clear 1 1022 86 8000 1.5 340 21:36 26.01.2020
3958 Clear 2 1022 74 8000 0.5 0 21:18 26.01.2020
3959 Clear 2 1022 74 8000 2.1 10 20:54 26.01.2020
3960 Clear 2 1022 74 8000 2.1 10 20:36 26.01.2020
3961 Clouds 2 1023 80 8000 1 340 20:18 26.01.2020
3962 Clouds 2 1023 74 8000 2.1 10 19:40 26.01.2020
3963 Clouds 2 1023 74 8000 2.1 360 19:21 26.01.2020
3964 Clouds 3 1023 80 8000 2.34 112 18:59 26.01.2020
3965 Clouds 3 1023 80 8000 2.34 112 18:39 26.01.2020
3966 Clouds 3 1023 86 10000 2.34 112 18:21 26.01.2020
3967 Clouds 5 1023 93 9000 2.34 112 17:57 26.01.2020
3968 Clouds 5 1023 93 9000 2.34 112 17:38 26.01.2020
3969 Clouds 5 1023 86 10000 1.5 130 17:18 26.01.2020
3970 Clouds 5 1023 86 10000 1.5 130 17:18 26.01.2020
3971 Clouds 5 1023 86 10000 1.5 130 17:18 26.01.2020
3972 Clouds 6 1022 75 10000 3.1 100 16:57 26.01.2020
3973 Clouds 6 1022 75 10000 3.1 100 16:57 26.01.2020
3974 Clouds 7 1022 75 10000 3.1 100 16:39 26.01.2020
3975 Clouds 9 1023 65 10000 5.1 120 16:19 26.01.2020
3976 Clouds 9 1022 61 10000 5.7 120 15:45 26.01.2020
3977 Clouds 10 1022 57 10000 6.2 120 15:22 26.01.2020
3978 Clouds 8 1023 72 0 2.43 121 14:58 26.01.2020
3979 Clouds 8 1023 72 0 2.43 121 14:39 26.01.2020
3980 Clouds 14 1020 33 0 0.45 270 14:19 26.01.2020
3981 Clouds 15 1020 33 0 0.89 225 13:41 26.01.2020
3982 Clear 14 1020 35 0 0.45 195 13:20 26.01.2020
3983 Clear 13 1020 36 0 0.89 334 12:56 26.01.2020
3984 Clear 14 1020 35 0 0.89 17 12:37 26.01.2020
3985 Clear 14 1020 35 0 0.89 292 12:19 26.01.2020
3986 Clear 14 1020 35 0 0.89 292 12:19 26.01.2020
3987 Clear 13 1021 37 0 0.89 176 11:57 26.01.2020
3988 Clear 13 1021 37 0 0.89 176 11:57 26.01.2020
3989 Clear 13 1021 37 0 1.34 207 11:37 26.01.2020
3990 Clear 11 1023 43 10000 2.6 300 11:18 26.01.2020
3991 Clear 11 1023 43 10000 2.6 300 10:55 26.01.2020
3992 Clear 11 1023 43 10000 2.6 300 10:55 26.01.2020
3993 Clear 11 1023 43 10000 2.6 300 10:37 26.01.2020
3994 Clear 11 1023 43 10000 2.6 300 10:19 26.01.2020
3995 Clear 11 1023 43 10000 2.6 300 10:19 26.01.2020
3996 Clear 10 1023 45 10000 1.5 260 09:42 26.01.2020
3997 Clear 9 1023 45 10000 0.5 0 09:23 26.01.2020
3998 Clear 8 1023 52 9000 1.13 353 08:59 26.01.2020
3999 Clear 8 1023 52 9000 1.13 353 08:41 26.01.2020
4000 Clear 3 1023 64 10000 1.5 290 08:21 26.01.2020
4001 Clear 1 1023 69 10000 1.5 250 07:50 26.01.2020
4002 Clear 1 1023 64 10000 1 280 07:26 26.01.2020
4003 Clear 2 1022 60 10000 1 0 06:40 26.01.2020
4004 Clear -1 1022 80 10000 2.6 180 06:22 26.01.2020
4005 Clear 1 1022 74 10000 0.5 0 05:27 26.01.2020
4006 Clear 1 1022 59 10000 1 250 03:23 26.01.2020
4007 Clear 0 1022 68 10000 2.1 260 02:24 26.01.2020
4008 Clouds 3 1022 55 10000 1.5 310 01:40 26.01.2020
4009 Clouds 2 1022 59 10000 0.5 0 01:21 26.01.2020
4010 Clouds 3 1022 55 10000 2.06 270 00:41 26.01.2020
4011 Clouds 4 1022 55 10000 2.06 270 00:20 26.01.2020
4012 Clouds 4 1019 48 0 0.89 218 23:38 25.01.2020
4013 Clouds 5 1019 46 0 0.89 208 23:20 25.01.2020
4014 Clouds 5 1019 46 0 1.34 228 22:44 25.01.2020
4015 Clouds 4 1019 48 0 1.34 225 22:21 25.01.2020
4016 Clouds 5 1019 44 0 1.34 225 21:59 25.01.2020
4017 Clouds 5 1019 44 0 1.34 225 21:59 25.01.2020
4018 Clouds 6 1019 45 0 1.79 225 21:41 25.01.2020
4019 Clouds 6 1019 43 0 0.89 212 21:22 25.01.2020
4020 Clouds 8 1024 60 0 2.63 261 20:54 25.01.2020
4021 Clouds 6 1019 44 0 1.79 225 20:36 25.01.2020
4022 Clear 6 1019 45 0 1.79 259 20:18 25.01.2020
4023 Clear 6 1019 45 0 1.34 261 19:41 25.01.2020
4024 Clear 4 1019 50 0 1.79 225 19:20 25.01.2020
4025 Clear 5 1019 48 0 0.89 225 18:56 25.01.2020
4026 Clear 4 1019 50 0 3.24 247 18:38 25.01.2020
4027 Clear 4 1019 50 0 0.45 202 18:20 25.01.2020
4028 Clear 4 1019 50 0 0.45 202 18:20 25.01.2020
4029 Clear 4 1019 47 0 0.89 225 17:39 25.01.2020
4030 Clear 5 1019 42 0 1.34 210 17:19 25.01.2020
4031 Clear 5 1019 42 0 1.34 210 17:19 25.01.2020
4032 Clear 8 1019 32 0 0.89 213 16:56 25.01.2020
4033 Clear 9 1019 32 0 0.45 180 16:38 25.01.2020
4034 Clear 10 1019 30 0 2.65 211 16:19 25.01.2020
4035 Clear 10 1023 57 0 2.65 211 15:46 25.01.2020
4036 Clear 10 1023 57 0 2.65 211 15:25 25.01.2020
4037 Clear 10 1023 57 0 2.65 211 14:57 25.01.2020
4038 Clear 10 1023 57 0 2.65 211 14:39 25.01.2020
4039 Clear 9 1023 57 0 1.83 255 14:18 25.01.2020
4040 Clear 9 1023 57 0 1.83 255 13:40 25.01.2020
4041 Clear 9 1023 57 0 1.39 246 13:22 25.01.2020
4042 Clear 14 1022 26 10000 4.6 260 12:43 25.01.2020
4043 Clear 13 1022 26 10000 4.6 260 12:23 25.01.2020
4044 Clear 13 1022 26 10000 4.6 260 11:45 25.01.2020
4045 Clear 11 1023 29 10000 2.6 250 11:21 25.01.2020
4046 Clear 10 1023 36 10000 3.1 240 10:58 25.01.2020
4047 Clear 10 1023 36 10000 3.1 240 10:40 25.01.2020
4048 Clear 7 1023 42 10000 2.6 250 10:20 25.01.2020
4049 Clear 7 1023 44 10000 1.5 260 09:41 25.01.2020
4050 -273 0 0 0 0 0 09:22 25.01.2020
4051 Clear 4 1023 64 10000 0.5 0 08:44 25.01.2020
4052 Clear 0 1023 72 10000 2.93 259 08:21 25.01.2020
4053 Clear -3 1023 73 10000 1 0 07:43 25.01.2020
4054 Clear -3 1023 73 10000 1 0 07:43 25.01.2020
4055 Clear -1 1022 73 10000 2.1 330 06:45 25.01.2020
4056 Clear -2 1022 79 10000 1 0 06:25 25.01.2020
4057 Clear -2 1022 79 10000 1.5 260 05:44 25.01.2020
4058 Clear -2 1023 79 10000 2.1 330 04:26 25.01.2020
4059 Clear -1 1023 68 10000 2.1 330 03:50 25.01.2020
4060 Clear -2 1023 73 10000 2.6 340 02:48 25.01.2020
4061 Clear 0 1024 63 10000 2.6 340 01:59 25.01.2020
4062 Clear 0 1024 63 10000 2.6 340 01:35 25.01.2020
4063 Clear -2 1024 74 10000 2.1 350 00:42 25.01.2020
4064 Clear -1 1024 68 10000 1.5 360 00:23 25.01.2020
4065 Clear -1 1025 68 10000 3.1 360 23:42 24.01.2020
4066 Clear -1 1025 68 10000 2.1 10 23:24 24.01.2020
4067 Clear 0 1025 68 10000 3.1 10 22:56 24.01.2020
4068 Clear 0 1025 68 10000 3.1 10 22:37 24.01.2020
4069 Clear 0 1025 59 8000 3.1 360 22:19 24.01.2020
4070 Clear 0 1026 68 10000 2.1 20 21:41 24.01.2020
4071 Clear 0 1026 59 10000 3.1 360 21:19 24.01.2020
4072 Clear 1 1027 59 10000 2.1 350 20:44 24.01.2020
4073 Clear 1 1027 55 10000 2.1 360 20:23 24.01.2020
4074 Clear 1 1027 59 10000 2.1 30 19:59 24.01.2020
4075 Clear 1 1027 59 10000 2.1 30 19:41 24.01.2020
4076 Clear 1 1027 59 10000 2.1 360 19:22 24.01.2020
4077 Clear 3 1027 44 10000 7.25 217 18:58 24.01.2020
4078 Clear 3 1027 44 10000 7.25 217 18:40 24.01.2020
4079 Clear 3 1027 44 10000 1.5 200 18:21 24.01.2020
4080 Clear 3 1028 44 10000 7.25 217 17:44 24.01.2020
4081 Clear 4 1028 38 10000 2.6 210 17:21 24.01.2020
4082 Clear 5 1028 38 10000 3.1 220 16:57 24.01.2020
4083 Clear 5 1028 38 10000 3.1 220 16:38 24.01.2020
4084 Clear 6 1028 36 10000 2.1 230 16:18 24.01.2020
4085 Clear 6 1028 36 10000 2.1 230 16:18 24.01.2020
4086 Clear 8 1028 33 10000 3.1 230 15:40 24.01.2020
4087 Clear 8 1028 31 10000 4.1 250 15:20 24.01.2020
4088 Clear 8 1028 31 10000 4.1 220 14:42 24.01.2020
4089 Clear 8 1028 34 10000 4.1 230 14:23 24.01.2020
4090 Clear 8 1028 36 10000 4.1 220 13:58 24.01.2020
4091 Clear 8 1028 36 10000 4.1 220 13:39 24.01.2020
4092 Clear 8 1029 36 10000 3.1 240 13:19 24.01.2020
4093 Clear 8 1029 36 10000 3.1 240 13:19 24.01.2020
4094 Clear 7 1029 39 10000 3.1 250 12:41 24.01.2020
4095 Clear 7 1030 42 10000 2.1 270 12:19 24.01.2020
4096 Clear 7 1031 45 10000 0.5 0 11:43 24.01.2020
4097 Clear 6 1031 45 10000 1.5 260 11:19 24.01.2020
4098 Clear 5 1032 48 10000 1.5 0 10:43 24.01.2020
4099 Clear 5 1032 59 10000 1 0 10:22 24.01.2020
4100 Clear 3 1033 64 10000 1.5 260 09:57 24.01.2020
4101 Clear 3 1033 64 10000 1.5 260 09:39 24.01.2020
4102 Clear 3 1033 64 10000 2.16 214 09:21 24.01.2020
4103 Clear 0 1033 74 9000 1 0 08:40 24.01.2020
4104 Clear -1 1033 74 9000 2.34 255 08:20 24.01.2020
4105 Clear -3 1033 79 10000 0.5 0 07:51 24.01.2020
4106 Clear -4 1033 79 10000 0.5 0 07:32 24.01.2020
4107 Clear -6 1033 79 10000 1 0 06:48 24.01.2020
4108 Clear -4 1033 79 10000 2.34 255 06:29 24.01.2020
4109 Clear -4 1033 79 10000 1 0 05:58 24.01.2020
4110 Clear -5 1032 79 10000 1.5 10 04:54 24.01.2020
4111 Clear -4 1033 73 10000 0.5 0 02:53 24.01.2020
4112 Clear -2 1033 68 10000 1.5 300 02:24 24.01.2020
4113 Clear -2 1033 68 10000 1 0 01:42 24.01.2020
4114 Clear -3 1033 73 10000 1.5 310 01:24 24.01.2020
4115 Clear -2 1033 68 10000 2.6 220 00:20 24.01.2020
4116 Clear 0 1032 55 10000 2.1 30 23:48 23.01.2020
4117 Clear 0 1033 59 10000 1 0 23:30 23.01.2020
4118 Clear 0 1032 56 10000 0.5 0 22:59 23.01.2020
4119 Clear 0 1032 56 10000 0.5 0 22:37 23.01.2020
4120 Clear -1 1032 68 10000 1 0 22:19 23.01.2020
4121 Clear 1 1032 55 10000 2.6 350 21:57 23.01.2020
4122 Clear 0 1032 55 10000 2.6 350 21:38 23.01.2020
4123 Clear 0 1032 55 10000 2.6 360 21:20 23.01.2020
4124 Clear 0 1032 55 10000 3.1 10 20:57 23.01.2020
4125 Clear 0 1032 55 10000 3.1 10 20:38 23.01.2020
4126 Clear 0 1032 53 10000 2.1 360 20:19 23.01.2020
4127 Clear 1 1032 50 10000 3.1 300 19:44 23.01.2020
4128 Clear 1 1032 50 10000 3.1 300 19:44 23.01.2020
4129 Clear 1 1031 50 10000 2.1 350 19:24 23.01.2020
4130 Clear 1 1031 50 10000 2.1 350 19:24 23.01.2020
4131 Clear 1 1031 50 10000 2.1 300 18:59 23.01.2020
4132 Clear 2 1031 50 10000 2.1 300 18:40 23.01.2020
4133 Clear 2 1031 51 10000 3.1 320 18:20 23.01.2020
4134 Clear 3 1030 47 10000 4.1 330 17:58 23.01.2020
4135 Clear 3 1030 47 10000 4.1 330 17:39 23.01.2020
4136 Clear 4 1030 48 10000 4.1 330 17:19 23.01.2020
4137 Clear 5 1030 44 10000 4.6 310 16:39 23.01.2020
4138 Clear 5 1029 38 10000 4.6 310 16:20 23.01.2020
4139 Clear 6 1029 33 10000 6.7 310 15:58 23.01.2020
4140 Clear 7 1029 33 10000 6.7 310 15:40 23.01.2020
4141 Clear 7 1029 36 10000 6.7 310 15:19 23.01.2020
4142 Clear 7 1029 36 10000 6.7 310 15:19 23.01.2020
4143 Clear 7 1029 33 10000 7.7 320 14:59 23.01.2020
4144 Clear 7 1029 33 10000 7.7 320 14:41 23.01.2020
4145 Clear 7 1028 33 10000 8.7 320 14:23 23.01.2020
4146 Clear 7 1028 36 10000 9.3 320 13:59 23.01.2020
4147 Clear 7 1028 36 10000 9.3 320 13:38 23.01.2020
4148 Clear 7 1028 36 10000 8.2 310 13:19 23.01.2020
4149 Clear 6 1028 36 10000 9.3 330 12:46 23.01.2020
4150 Clear 6 1028 39 10000 7.2 330 12:25 23.01.2020
4151 Clear 6 1029 45 10000 8.7 310 11:57 23.01.2020
4152 Clear 6 1029 45 10000 8.7 310 11:38 23.01.2020
4153 Clear 6 1029 39 10000 7.2 340 11:19 23.01.2020
4154 Clear 5 1028 45 10000 7.2 320 10:44 23.01.2020
4155 Clear 5 1028 45 10000 7.2 330 10:22 23.01.2020
4156 Clear 4 1027 48 10000 9.3 340 09:57 23.01.2020
4157 Clear 4 1027 48 10000 9.3 340 09:36 23.01.2020
4158 Clear 4 1028 51 10000 5.7 320 09:18 23.01.2020
4159 Clear 2 1028 55 10000 5.1 300 08:40 23.01.2020
4160 Clear 2 1027 55 10000 6.7 310 08:22 23.01.2020
4161 Clouds 1 1027 55 10000 6.7 310 07:45 23.01.2020
4162 Clouds 0 1027 62 10000 0.5 0 07:26 23.01.2020
4163 Clouds 0 1026 62 10000 5.7 280 06:52 23.01.2020
4164 Clouds 0 1025 64 10000 5.1 260 06:22 23.01.2020
4165 Clouds 1 1024 64 10000 3.1 290 05:44 23.01.2020
4166 Clouds 3 1022 55 10000 9.3 360 04:24 23.01.2020
4167 Clouds 4 1020 48 10000 11.3 360 02:34 23.01.2020
4168 Clouds 4 1020 35 10000 6.2 310 01:19 23.01.2020
4169 Clouds 5 1018 24 10000 6.2 260 00:27 23.01.2020
4170 Clouds 5 1018 26 10000 3.6 280 23:48 22.01.2020
4171 Clouds 7 1017 24 10000 4.1 250 23:29 22.01.2020
4172 Clouds 5 1017 32 10000 4.6 260 22:59 22.01.2020
4173 Clouds 5 1017 32 10000 4.6 260 22:40 22.01.2020
4174 Clouds 5 1017 32 10000 4.6 260 22:40 22.01.2020
4175 Clouds 6 1017 33 10000 5.7 260 22:22 22.01.2020
4176 Clouds 2 1018 47 10000 1.5 0 21:40 22.01.2020
4177 Clouds 3 1018 40 10000 0.5 0 21:22 22.01.2020
4178 Clouds 4 1018 38 10000 1 0 20:57 22.01.2020
4179 Clouds 4 1018 38 10000 1 0 20:37 22.01.2020
4180 Clouds 4 1018 44 10000 0.5 0 20:19 22.01.2020
4181 Clouds 5 1019 38 10000 0.5 0 19:56 22.01.2020
4182 Clouds 5 1019 38 10000 0.5 0 19:37 22.01.2020
4183 Clouds 5 1019 35 10000 4.6 290 19:18 22.01.2020
4184 Clouds 5 1020 38 10000 4.1 300 18:56 22.01.2020
4185 Clouds 5 1020 38 10000 4.1 300 18:37 22.01.2020
4186 Clouds 5 1020 38 10000 3.6 310 18:19 22.01.2020
4187 Clouds 5 1021 41 10000 4.6 320 17:40 22.01.2020
4188 Clouds 5 1021 41 10000 3.6 310 17:21 22.01.2020
4189 Clouds 5 1021 45 10000 4.1 300 16:58 22.01.2020
4190 Clouds 5 1021 45 10000 4.1 300 16:58 22.01.2020
4191 Clouds 5 1021 45 10000 4.1 300 16:39 22.01.2020
4192 Clouds 6 1021 36 10000 5.1 290 16:21 22.01.2020
4193 Clouds 9 1022 36 10000 4.1 300 15:56 22.01.2020
4194 Clouds 9 1022 36 10000 4.1 300 15:38 22.01.2020
4195 Clouds 8 1022 36 10000 4.1 290 15:18 22.01.2020
4196 Clouds 8 1022 36 10000 4.1 290 15:18 22.01.2020
4197 Clouds 8 1023 37 10000 3.6 280 14:39 22.01.2020
4198 Clouds 8 1023 37 10000 5.7 260 14:20 22.01.2020
4199 Clouds 8 1023 37 10000 5.7 260 14:20 22.01.2020
4200 Clouds 9 1024 32 10000 5.7 270 13:58 22.01.2020
4201 Clouds 9 1024 32 10000 5.7 270 13:37 22.01.2020
4202 Clear 8 1025 34 10000 6.7 270 13:19 22.01.2020
4203 Clear 9 1026 37 10000 8.2 270 12:57 22.01.2020
4204 Clear 9 1026 37 10000 8.2 270 12:38 22.01.2020
4205 Clear 8 1026 39 10000 5.7 260 12:19 22.01.2020
4206 Clear 8 1027 42 10000 6.2 270 11:57 22.01.2020
4207 Clear 8 1027 42 10000 6.2 270 11:39 22.01.2020
4208 Clear 7 1027 45 10000 6.7 280 11:19 22.01.2020
4209 Clear 6 1028 45 10000 6.7 280 10:45 22.01.2020
4210 Clear 5 1029 52 10000 7.2 270 10:21 22.01.2020
4211 Clear 5 1029 52 10000 7.2 270 10:21 22.01.2020
4212 Clear 4 1029 55 10000 7.7 280 09:58 22.01.2020
4213 Clear 4 1029 55 10000 7.7 280 09:40 22.01.2020
4214 Clear 4 1029 55 10000 7.2 280 09:21 22.01.2020
4215 Clear 2 1030 64 10000 6.7 260 08:55 22.01.2020
4216 Clear 2 1030 64 10000 6.7 260 08:37 22.01.2020
4217 Clear 1 1030 69 10000 7.2 250 08:19 22.01.2020
4218 Clear 0 1030 66 10000 3.6 250 07:44 22.01.2020
4219 Clear -1 1030 66 10000 4.1 260 07:26 22.01.2020
4220 Clear -1 1031 74 10000 3.6 270 06:34 22.01.2020
4221 Clear -1 1031 74 10000 3.1 270 05:54 22.01.2020
4222 Clear 0 1032 69 10000 5.7 280 04:25 22.01.2020
4223 Clear 0 1032 69 10000 7.2 280 03:26 22.01.2020
4224 Clear 0 1033 69 10000 5.7 270 02:48 22.01.2020
4225 Clear 0 1033 71 10000 4.1 270 00:47 22.01.2020
4226 Clear 0 1034 71 10000 5.1 270 00:27 22.01.2020
4227 Clear 0 1034 71 10000 3.6 260 23:57 21.01.2020
4228 Clear 0 1034 71 10000 3.6 260 23:37 21.01.2020
4229 Clear -1 1034 80 10000 3.6 290 23:19 21.01.2020
4230 Clear -1 1034 80 10000 4.6 280 22:40 21.01.2020
4231 Clear 1 1035 74 10000 5.7 270 22:21 21.01.2020
4232 Clear 0 1035 75 10000 4.6 270 21:58 21.01.2020
4233 Clear 0 1035 75 10000 4.6 270 21:38 21.01.2020
4234 Clear 1 1035 69 10000 3.1 260 21:20 21.01.2020
4235 Clear 1 1035 69 10000 5.1 280 20:57 21.01.2020
4236 Clear 1 1035 69 10000 5.1 280 20:38 21.01.2020
4237 Clouds 1 1035 69 10000 4.6 280 20:19 21.01.2020
4238 Clouds 1 1036 69 10000 4.1 290 19:56 21.01.2020
4239 Clouds 1 1036 69 10000 4.1 290 19:56 21.01.2020
4240 Clouds 1 1036 69 10000 4.1 290 19:38 21.01.2020
4241 Clouds 1 1036 69 10000 3.6 270 19:20 21.01.2020
4242 Clouds 1 1036 69 10000 3.6 280 18:55 21.01.2020
4243 Clouds 1 1036 69 10000 3.6 280 18:55 21.01.2020
4244 Clouds 1 1036 69 10000 3.6 280 18:37 21.01.2020
4245 Clouds 2 1036 64 10000 4.6 310 18:18 21.01.2020
4246 Clouds 2 1036 64 10000 4.1 300 17:45 21.01.2020
4247 Clouds 2 1036 64 10000 3.6 290 17:20 21.01.2020
4248 Clouds 2 1036 59 10000 3.6 270 16:59 21.01.2020
4249 Clouds 2 1036 59 10000 3.6 270 16:59 21.01.2020
4250 Clouds 3 1036 59 10000 3.6 270 16:37 21.01.2020
4251 Clouds 3 1036 60 10000 5.1 310 16:19 21.01.2020
4252 Clouds 5 1036 52 10000 5.7 310 15:42 21.01.2020
4253 Clouds 5 1036 52 10000 6.2 300 15:22 21.01.2020
4254 Clouds 5 1036 52 10000 7.7 300 14:59 21.01.2020
4255 Clouds 6 1036 48 10000 7.7 280 14:38 21.01.2020
4256 Clouds 5 1036 52 10000 7.7 300 14:38 21.01.2020
4257 Clouds 6 1036 48 10000 7.7 280 14:19 21.01.2020
4258 Clouds 5 1037 52 10000 7.2 270 13:40 21.01.2020
4259 Clouds 5 1037 52 10000 7.2 280 13:19 21.01.2020
4260 Clouds 5 1038 56 10000 7.2 270 12:44 21.01.2020
4261 Clouds 5 1038 56 10000 6.2 270 12:25 21.01.2020
4262 Clouds 4 1039 60 10000 7.2 280 11:57 21.01.2020
4263 Clouds 3 1039 60 10000 7.2 280 11:39 21.01.2020
4264 Clouds 3 1039 60 10000 7.2 270 11:21 21.01.2020
4265 Clouds 3 1040 60 10000 7.2 260 10:55 21.01.2020
4266 Clouds 3 1040 60 10000 7.2 260 10:37 21.01.2020
4267 Clouds 3 1040 59 10000 6.2 260 10:18 21.01.2020
4268 Clouds 2 1040 64 10000 6.2 260 09:41 21.01.2020
4269 Clouds 2 1040 64 10000 5.1 250 09:22 21.01.2020
4270 Clouds 1 1040 69 10000 4.1 260 08:49 21.01.2020
4271 Clouds 0 1040 69 10000 3.1 300 08:29 21.01.2020
4272 Clouds -1 1041 80 10000 3.6 290 07:59 21.01.2020
4273 Clouds -1 1041 80 10000 3.6 290 07:39 21.01.2020
4274 Clouds -2 1041 80 10000 3.1 280 07:21 21.01.2020
4275 Clouds -2 1041 80 10000 3.6 270 06:48 21.01.2020
4276 Clouds -1 1041 76 10000 4.1 270 06:26 21.01.2020
4277 Clouds -1 1041 76 10000 4.1 280 05:42 21.01.2020
4278 Clouds -1 1041 75 10000 3.6 300 04:39 21.01.2020
4279 Clouds 0 1041 69 10000 3.6 310 02:56 21.01.2020
4280 Clouds 0 1041 69 10000 3.6 320 01:51 21.01.2020
4281 Clouds 0 1041 69 10000 4.1 300 00:57 21.01.2020
4282 Clouds 0 1041 71 10000 3.6 280 00:35 21.01.2020
4283 Clouds 0 1041 71 10000 4.1 270 23:57 20.01.2020
4284 Clouds 0 1041 71 10000 4.1 270 23:37 20.01.2020
4285 Clouds 0 1042 72 10000 3.6 280 23:18 20.01.2020
4286 Clouds 0 1042 72 10000 3.6 280 23:18 20.01.2020
4287 Clouds 0 1042 72 10000 3.6 270 22:56 20.01.2020
4288 Clouds 0 1042 72 10000 3.6 270 22:37 20.01.2020
4289 Clouds 0 1042 72 10000 3.1 290 22:18 20.01.2020
4290 Clouds 0 1042 69 10000 2.6 310 21:57 20.01.2020
4291 Clouds 0 1042 69 10000 2.6 310 21:36 20.01.2020
4292 Clouds 0 1042 69 10000 2.6 320 21:18 20.01.2020
4293 Clouds 0 1042 69 10000 2.1 320 20:55 20.01.2020
4294 Clouds 0 1042 69 10000 2.1 320 20:36 20.01.2020
4295 Clouds 0 1041 69 10000 1.5 0 20:18 20.01.2020
4296 Clouds 0 1041 69 10000 2.1 330 19:56 20.01.2020
4297 Clouds 0 1041 69 10000 2.1 330 19:37 20.01.2020
4298 Clouds 0 1041 69 10000 3.1 310 19:18 20.01.2020
4299 Clouds 0 1041 69 10000 3.1 310 18:42 20.01.2020
4300 Clouds 0 1041 69 10000 3.1 310 18:21 20.01.2020
4301 Clouds 1 1040 69 10000 2.6 300 17:39 20.01.2020
4302 Clouds 1 1040 59 10000 3.6 310 17:19 20.01.2020
4303 Clouds 1 1040 59 10000 3.6 310 16:55 20.01.2020
4304 Clouds 1 1040 59 10000 3.6 310 16:36 20.01.2020
4305 Clouds 1 1040 59 10000 3.6 320 16:18 20.01.2020
4306 Clouds 1 1040 59 10000 5.1 330 15:41 20.01.2020
4307 Clouds 1 1040 59 10000 4.1 340 15:22 20.01.2020
4308 Clouds 1 1040 64 10000 6.2 350 14:59 20.01.2020
4309 Clouds 1 1040 64 10000 6.2 350 14:41 20.01.2020
4310 Clouds 1 1040 64 10000 6.2 330 14:21 20.01.2020
4311 Clouds 1 1039 64 10000 6.2 350 13:57 20.01.2020
4312 Clouds 1 1039 64 10000 6.2 350 13:38 20.01.2020
4313 Clouds 1 1039 64 10000 6.2 350 13:20 20.01.2020
4314 Clouds 1 1039 64 10000 8.2 360 12:42 20.01.2020
4315 Clouds 1 1039 64 10000 7.7 350 12:23 20.01.2020
4316 Clouds 1 1039 64 10000 6.2 350 11:56 20.01.2020
4317 Clouds 1 1039 64 10000 6.2 350 11:37 20.01.2020
4318 Clouds 1 1039 64 10000 6.2 340 11:18 20.01.2020
4319 Clouds 0 1039 64 10000 6.2 340 10:46 20.01.2020
4320 Clouds 0 1038 64 10000 7.7 360 10:21 20.01.2020
4321 Clouds 0 1038 64 10000 7.7 360 09:42 20.01.2020
4322 Clouds 0 1038 64 10000 7.7 360 09:24 20.01.2020
4323 Clouds 0 1037 69 10000 8.2 360 08:56 20.01.2020
4324 Clouds -1 1037 72 10000 8.2 360 08:34 20.01.2020
4325 Clouds -1 1036 77 10000 7.7 360 07:59 20.01.2020
4326 Clouds -1 1036 77 10000 7.7 360 07:41 20.01.2020
4327 Clouds -1 1036 77 10000 7.7 350 07:21 20.01.2020
4328 Clouds -1 1036 77 10000 7.7 360 06:44 20.01.2020
4329 Clouds 0 1035 74 10000 6.7 10 06:22 20.01.2020
4330 Clouds 0 1034 74 10000 5.1 330 05:38 20.01.2020
4331 Clouds 0 1034 74 10000 5.1 330 05:19 20.01.2020
4332 Clouds 0 1033 69 10000 9.3 360 04:23 20.01.2020
4333 Clouds 1 1032 64 10000 7.2 10 01:59 20.01.2020
4334 Clouds 2 1032 64 10000 7.2 10 01:40 20.01.2020
4335 Clouds 2 1032 69 10000 7.2 10 01:18 20.01.2020
4336 Clouds 1 1031 69 10000 8.2 360 00:42 20.01.2020
4337 Clouds 1 1031 69 10000 8.7 360 00:20 20.01.2020
4338 Clouds 1 1031 69 10000 8.7 360 23:38 19.01.2020
4339 Clouds 1 1030 69 10000 8.7 360 23:19 19.01.2020
4340 Clouds 1 1030 74 10000 9.3 360 22:56 19.01.2020
4341 Clouds 2 1030 74 10000 9.3 360 22:37 19.01.2020
4342 Clouds 2 1030 69 10000 9.3 360 22:19 19.01.2020
4343 Clouds 2 1030 69 10000 8.2 10 21:56 19.01.2020
4344 Clouds 2 1030 69 10000 8.2 10 21:38 19.01.2020
4345 Clouds 2 1030 74 10000 7.2 10 21:19 19.01.2020
4346 Clouds 2 1029 74 10000 8.2 360 20:56 19.01.2020
4347 Clouds 2 1029 74 10000 8.2 360 20:38 19.01.2020
4348 Clouds 2 1029 74 10000 9.3 360 20:19 19.01.2020
4349 Clouds 2 1029 83 10000 8.2 10 19:55 19.01.2020
4350 Clouds 3 1029 83 10000 8.2 10 19:37 19.01.2020
4351 Clouds 2 1029 74 10000 9.3 10 19:19 19.01.2020
4352 Clouds 2 1028 83 10000 9.3 360 18:55 19.01.2020
4353 Clouds 3 1028 83 10000 9.3 360 18:37 19.01.2020
4354 Clouds 3 1028 74 10000 9.8 350 18:18 19.01.2020
4355 Clouds 3 1028 74 10000 9.8 350 18:18 19.01.2020
4356 Clouds 3 1028 69 10000 7.7 10 17:57 19.01.2020
4357 Clouds 3 1028 69 10000 7.7 10 17:38 19.01.2020
4358 Clouds 3 1027 69 10000 6.7 10 17:19 19.01.2020
4359 Clouds 3 1026 78 10000 7.2 350 16:55 19.01.2020
4360 Clouds 4 1026 78 10000 7.2 350 16:36 19.01.2020
4361 Clouds 3 1026 78 10000 6.7 360 16:18 19.01.2020
4362 Rain 4 1026 78 10000 6.7 350 15:54 19.01.2020
4363 Rain 4 1026 78 10000 6.7 350 15:36 19.01.2020
4364 Clouds 4 1026 78 10000 6.2 350 15:18 19.01.2020
4365 Clouds 4 1026 78 10000 6.2 350 15:18 19.01.2020
4366 Clouds 4 1026 78 10000 6.2 350 15:18 19.01.2020
4367 Clouds 5 1026 65 10000 5.7 10 14:40 19.01.2020
4368 Clouds 4 1026 65 10000 5.1 10 14:20 19.01.2020
4369 Clouds 4 1025 65 10000 4.6 360 13:59 19.01.2020
4370 Clouds 4 1025 65 10000 4.6 360 13:40 19.01.2020
4371 Clouds 4 1025 65 10000 4.1 20 13:21 19.01.2020
4372 Clouds 4 1025 80 10000 6.2 20 12:59 19.01.2020
4373 Clouds 4 1025 80 10000 6.2 20 12:59 19.01.2020
4374 Clouds 4 1025 80 10000 6.2 20 12:40 19.01.2020
4375 Clouds 4 1025 80 10000 5.1 20 12:21 19.01.2020
4376 Clouds 4 1025 80 10000 5.7 20 11:57 19.01.2020
4377 Clouds 4 1025 80 10000 5.7 20 11:37 19.01.2020
4378 Clouds 4 1025 81 10000 6.2 10 11:18 19.01.2020
4379 Clouds 4 1025 69 10000 6.7 20 10:40 19.01.2020
4380 Clouds 3 1025 69 10000 5.7 10 10:20 19.01.2020
4381 Clouds 3 1025 69 10000 5.7 10 09:57 19.01.2020
4382 Clouds 3 1025 69 10000 5.7 10 09:38 19.01.2020
4383 Clouds 3 1025 69 10000 5.7 20 09:19 19.01.2020
4384 Clouds 2 1025 74 10000 6.2 10 08:55 19.01.2020
4385 Clouds 2 1025 79 10000 5.1 10 08:32 19.01.2020
4386 Rain 2 1025 78 10000 5.1 10 07:54 19.01.2020
4387 Clouds 2 1025 74 10000 5.7 10 07:28 19.01.2020
4388 Clouds 2 1025 74 10000 5.7 10 06:55 19.01.2020
4389 Clouds 2 1025 74 10000 5.1 20 06:22 19.01.2020
4390 Clouds 2 1025 74 10000 5.7 10 03:55 19.01.2020
4391 Clouds 2 1025 72 10000 4.6 10 02:33 19.01.2020
4392 Clouds 2 1025 72 10000 4.6 20 01:39 19.01.2020
4393 Clouds 2 1025 71 10000 4.6 20 01:19 19.01.2020
4394 Clouds 3 1025 71 10000 4.6 10 00:44 19.01.2020
4395 Clouds 3 1025 71 10000 4.1 10 00:20 19.01.2020
4396 Clouds 3 1025 71 10000 4.1 10 23:45 18.01.2020
4397 Clouds 3 1026 71 10000 3.6 10 23:25 18.01.2020
4398 Clouds 3 1026 74 10000 4.1 10 22:58 18.01.2020
4399 Clouds 3 1026 74 10000 4.1 10 22:40 18.01.2020
4400 Clouds 3 1026 74 10000 3.6 10 22:21 18.01.2020
4401 Clouds 3 1026 74 10000 4.1 10 21:58 18.01.2020
4402 Clouds 3 1026 74 10000 4.1 10 21:38 18.01.2020
4403 Clouds 3 1026 74 10000 4.1 20 21:20 18.01.2020
4404 Clouds 3 1026 74 10000 4.1 20 21:20 18.01.2020
4405 Clouds 3 1026 74 10000 4.1 10 20:55 18.01.2020
4406 Clouds 3 1026 74 10000 4.1 10 20:36 18.01.2020
4407 Clouds 3 1026 80 10000 4.1 20 20:18 18.01.2020
4408 Clouds 3 1027 80 10000 4.1 20 19:42 18.01.2020
4409 Clouds 3 1027 80 10000 2.6 20 19:24 18.01.2020
4410 Clouds 3 1027 80 10000 2.6 10 18:43 18.01.2020
4411 Clouds 3 1027 75 10000 3.1 30 18:24 18.01.2020
4412 Clouds 3 1027 75 10000 2.6 20 17:57 18.01.2020
4413 Clouds 3 1027 75 10000 2.6 20 17:39 18.01.2020
4414 Clouds 4 1027 74 10000 3.6 40 17:19 18.01.2020
4415 Clouds 4 1027 74 10000 3.1 20 16:55 18.01.2020
4416 Clouds 4 1027 74 10000 3.1 20 16:37 18.01.2020
4417 Clouds 4 1027 74 10000 4.1 30 16:19 18.01.2020
4418 Clouds 4 1027 74 10000 4.6 30 15:42 18.01.2020
4419 Clouds 5 1027 74 10000 4.6 30 15:24 18.01.2020
4420 Clouds 5 1027 74 10000 5.1 40 14:57 18.01.2020
4421 Clouds 5 1027 74 10000 5.1 40 14:39 18.01.2020
4422 Clouds 5 1027 74 10000 6.2 40 14:18 18.01.2020
4423 Clouds 5 1027 74 10000 4.6 40 13:44 18.01.2020
4424 Clouds 5 1028 74 10000 2.6 50 13:26 18.01.2020
4425 Clouds 5 1028 75 10000 4.6 20 12:58 18.01.2020
4426 Clouds 5 1028 75 10000 4.6 20 12:39 18.01.2020
4427 Clouds 4 1028 75 10000 4.6 20 12:20 18.01.2020
4428 Clouds 4 1029 75 10000 5.7 20 11:44 18.01.2020
4429 Clouds 4 1029 76 10000 5.7 20 11:22 18.01.2020
4430 Clouds 4 1029 76 10000 5.1 10 10:57 18.01.2020
4431 Clouds 4 1029 76 10000 5.1 10 10:38 18.01.2020
4432 Clouds 3 1029 76 10000 6.2 10 10:20 18.01.2020
4433 Clouds 2 1030 76 10000 6.7 360 09:46 18.01.2020
4434 Clouds 2 1030 76 10000 6.2 360 09:28 18.01.2020
4435 Clouds 2 1030 76 10000 7.2 10 08:56 18.01.2020
4436 Clouds 2 1030 76 10000 7.2 10 08:38 18.01.2020
4437 Clouds 1 1030 80 10000 6.7 360 08:19 18.01.2020
4438 Clouds 1 1030 80 10000 7.2 10 07:47 18.01.2020
4439 Clouds 1 1030 80 10000 7.2 10 07:29 18.01.2020
4440 Clouds 1 1029 80 10000 7.2 10 06:47 18.01.2020
4441 Clouds 1 1029 80 10000 5.7 10 05:59 18.01.2020
4442 Clouds 1 1029 80 10000 5.7 350 05:19 18.01.2020
4443 Clouds 1 1030 80 10000 7.7 360 02:53 18.01.2020
4444 Clouds 1 1030 79 10000 7.2 350 01:52 18.01.2020
4445 Clouds 1 1030 78 10000 6.7 350 01:29 18.01.2020
4446 Clouds 1 1030 78 10000 6.2 350 00:36 18.01.2020
4447 Clouds 1 1030 78 10000 5.7 360 00:18 18.01.2020
4448 Clouds 1 1030 78 10000 5.1 350 23:40 17.01.2020
4449 Clouds 1 1030 74 10000 5.7 340 23:19 17.01.2020
4450 Clouds 1 1031 74 10000 5.7 350 22:44 17.01.2020
4451 Clouds 1 1031 74 10000 5.1 350 22:21 17.01.2020
4452 Clouds 1 1031 74 10000 5.7 340 21:58 17.01.2020
4453 Clouds 1 1031 74 10000 5.7 340 21:58 17.01.2020
4454 Clouds 1 1031 74 10000 5.7 340 21:40 17.01.2020
4455 Clouds 1 1031 80 10000 5.1 330 21:22 17.01.2020
4456 Clouds 1 1031 80 10000 5.7 340 20:55 17.01.2020
4457 Clouds 1 1031 80 10000 5.7 340 20:37 17.01.2020
4458 Clouds 1 1031 80 10000 4.6 330 20:19 17.01.2020
4459 Clouds 1 1031 80 10000 4.6 350 19:54 17.01.2020
4460 Clouds 1 1031 80 10000 4.6 350 19:36 17.01.2020
4461 Clouds 1 1031 80 10000 5.1 340 19:18 17.01.2020
4462 Clouds 1 1031 80 10000 5.1 340 19:18 17.01.2020
4463 Clouds 1 1032 71 10000 5.7 330 18:44 17.01.2020
4464 Clouds 1 1031 71 10000 5.1 320 18:26 17.01.2020
4465 Clouds 1 1031 71 10000 4.6 310 17:56 17.01.2020
4466 Clouds 1 1031 71 10000 4.6 330 17:38 17.01.2020
4467 Clouds 1 1031 70 10000 4.6 330 17:20 17.01.2020
4468 Clouds 1 1031 70 10000 6.2 340 16:42 17.01.2020
4469 Clouds 2 1030 70 10000 5.1 340 16:20 17.01.2020
4470 Clouds 2 1030 80 10000 5.1 350 15:48 17.01.2020
4471 Clouds 2 1030 80 10000 6.7 350 15:27 17.01.2020
4472 Clouds 2 1030 80 10000 7.2 360 14:56 17.01.2020
4473 Clouds 2 1030 80 10000 7.2 360 14:38 17.01.2020
4474 Clouds 2 1030 74 10000 6.7 350 14:19 17.01.2020
4475 Clouds 2 1030 74 10000 7.7 350 13:39 17.01.2020
4476 Clouds 2 1030 80 10000 6.7 340 13:20 17.01.2020
4477 Clouds 2 1030 74 10000 7.2 350 12:45 17.01.2020
4478 Clouds 2 1030 74 10000 7.2 350 12:22 17.01.2020
4479 Clouds 2 1030 74 10000 6.2 350 11:41 17.01.2020
4480 Clouds 2 1030 74 10000 7.2 340 11:19 17.01.2020
4481 Clouds 2 1030 80 10000 7.2 340 10:45 17.01.2020
4482 Clouds 2 1031 74 10000 7.2 330 10:24 17.01.2020
4483 Clouds 1 1031 80 10000 6.2 340 09:59 17.01.2020
4484 Clouds 1 1031 80 10000 6.2 340 09:41 17.01.2020
4485 Clouds 1 1031 80 10000 5.7 340 09:20 17.01.2020
4486 Clouds 1 1031 74 10000 6.2 330 08:46 17.01.2020
4487 Clouds 1 1030 76 10000 5.1 340 08:26 17.01.2020
4488 Clouds 1 1030 76 10000 6.2 340 07:56 17.01.2020
4489 Clouds 1 1030 76 10000 6.2 340 07:36 17.01.2020
4490 Clouds 1 1030 76 10000 4.6 340 07:18 17.01.2020
4491 Clouds 2 1030 74 10000 3.6 330 06:41 17.01.2020
4492 Clouds 2 1030 76 10000 3.6 340 05:57 17.01.2020
4493 Clouds 1 1027 85 0 1.34 315 03:39 17.01.2020
4494 Clouds 3 1029 73 10000 4.1 340 02:55 17.01.2020
4495 Clouds 2 1027 84 0 0.89 349 01:48 17.01.2020
4496 Clouds 2 1027 84 0 0.45 188 01:29 17.01.2020
4497 Clouds 2 1027 83 0 0.89 59 00:51 17.01.2020
4498 Clouds 4 1029 68 10000 2.1 30 00:28 17.01.2020
4499 Clouds 5 1029 68 10000 2.1 30 23:46 16.01.2020
4500 Clouds 5 1029 68 10000 2.1 30 23:46 16.01.2020
4501 Clouds 5 1029 68 10000 2.1 30 23:26 16.01.2020
4502 Clouds 5 1030 72 10000 2.1 20 22:58 16.01.2020
4503 Clouds 5 1030 72 10000 2.1 20 22:40 16.01.2020
4504 Clouds 5 1030 72 10000 3.1 40 22:20 16.01.2020
4505 Clouds 5 1030 72 10000 2.1 40 21:55 16.01.2020
4506 Clouds 5 1030 72 10000 2.1 40 21:37 16.01.2020
4507 Clouds 6 1029 72 10000 2.6 10 21:18 16.01.2020
4508 Clouds 6 1029 72 10000 3.1 10 20:41 16.01.2020
4509 Clouds 6 1029 72 10000 3.1 10 20:41 16.01.2020
4510 Clouds 5 1029 72 10000 3.1 30 20:22 16.01.2020
4511 Clouds 5 1029 72 10000 1.5 20 19:59 16.01.2020
4512 Clouds 5 1029 72 10000 1.5 20 19:41 16.01.2020
4513 Clouds 5 1030 60 10000 2.6 30 19:22 16.01.2020
4514 Clouds 5 1030 60 10000 4.1 40 18:57 16.01.2020
4515 Clouds 5 1030 60 10000 4.1 40 18:39 16.01.2020
4516 Clouds 5 1029 72 10000 3.1 60 18:20 16.01.2020
4517 Clouds 5 1029 72 10000 2.6 30 17:59 16.01.2020
4518 Clouds 5 1029 72 10000 2.6 30 17:40 16.01.2020
4519 Clouds 5 1029 72 10000 2.6 30 17:40 16.01.2020
4520 Clouds 6 1029 71 10000 3.1 60 17:20 16.01.2020
4521 Clouds 6 1029 65 10000 3.1 60 16:42 16.01.2020
4522 Clouds 6 1029 65 10000 3.6 100 16:24 16.01.2020
4523 Clouds 6 1029 65 10000 2.1 30 15:59 16.01.2020
4524 Clouds 6 1029 65 10000 2.1 30 15:39 16.01.2020
4525 Clouds 6 1029 65 10000 3.6 60 15:20 16.01.2020
4526 Clouds 7 1029 71 10000 3.1 80 14:45 16.01.2020
4527 Clouds 7 1029 71 10000 2.6 110 14:24 16.01.2020
4528 Clouds 7 1029 72 10000 3.1 140 13:56 16.01.2020
4529 Clouds 7 1029 72 10000 3.1 140 13:37 16.01.2020
4530 Clouds 7 1029 71 10000 1.5 120 13:19 16.01.2020
4531 Clouds 7 1029 71 10000 2.6 140 12:42 16.01.2020
4532 Clouds 7 1029 65 10000 2.1 130 12:22 16.01.2020
4533 Clouds 6 1030 70 10000 2.1 110 11:43 16.01.2020
4534 Clouds 6 1030 70 10000 2.1 110 11:43 16.01.2020
4535 Clouds 6 1030 81 10000 1.5 140 11:24 16.01.2020
4536 Mist 6 1030 100 9000 1 0 10:59 16.01.2020
4537 Mist 6 1030 100 9000 1 0 10:38 16.01.2020
4538 Mist 5 1030 100 1700 0.5 0 10:20 16.01.2020
4539 Mist 4 1031 100 1200 1 0 09:56 16.01.2020
4540 Mist 4 1031 100 1200 1 0 09:37 16.01.2020
4541 Mist 4 1031 100 1200 1 0 09:37 16.01.2020
4542 Mist 3 1031 100 1200 1 0 09:18 16.01.2020
4543 Fog 1 1031 100 750 5.3 78 08:44 16.01.2020
4544 Fog 1 1031 74 250 5.3 78 08:23 16.01.2020
4545 Fog 0 1031 73 100 3.32 84 07:44 16.01.2020
4546 Fog 0 1030 73 650 3.32 84 07:25 16.01.2020
4547 Fog 0 1030 73 450 3.32 84 06:56 16.01.2020
4548 Fog 0 1030 73 450 3.32 84 06:37 16.01.2020
4549 Fog 0 1030 73 600 3.32 84 05:56 16.01.2020
4550 Fog -1 1030 100 300 3.32 84 05:31 16.01.2020
4551 Fog -1 1030 100 350 4.55 72 04:37 16.01.2020
4552 Fog 1 1030 100 550 1 0 03:28 16.01.2020
4553 Fog 1 1031 100 750 4.55 72 02:29 16.01.2020
4554 Fog 1 1031 100 300 0.5 0 00:45 16.01.2020
4555 Fog 2 1031 100 350 1 320 00:24 16.01.2020
4556 Fog 1 1031 100 300 1 330 23:48 15.01.2020
4557 Fog 0 1031 100 450 0.5 0 23:22 15.01.2020
4558 Fog 1 1031 100 1000 1 330 22:57 15.01.2020
4559 Fog 0 1031 100 1000 1 330 22:39 15.01.2020
4560 Fog 0 1032 100 450 1 340 22:19 15.01.2020
4561 Fog 0 1032 100 300 1 350 21:57 15.01.2020
4562 Fog 0 1032 100 300 1 350 21:37 15.01.2020
4563 Fog 0 1032 100 250 1 0 21:19 15.01.2020
4564 Fog 0 1032 100 300 1 10 20:56 15.01.2020
4565 Fog 1 1032 100 300 1 10 20:38 15.01.2020
4566 Fog 1 1032 100 300 1.5 340 20:19 15.01.2020
4567 Fog 2 1032 100 300 1.5 20 19:54 15.01.2020
4568 Fog 3 1032 100 300 1.5 20 19:36 15.01.2020
4569 Fog 2 1032 100 300 1.5 10 19:18 15.01.2020
4570 Fog 2 1032 100 300 1.5 10 19:18 15.01.2020
4571 Fog 2 1032 100 350 1.5 20 18:56 15.01.2020
4572 Fog 3 1032 100 350 1.5 20 18:37 15.01.2020
4573 Fog 3 1032 100 500 3.57 105 18:19 15.01.2020
4574 Fog 4 1031 100 1000 2.1 360 17:42 15.01.2020
4575 Mist 3 1031 100 3100 2.6 100 17:23 15.01.2020
4576 Drizzle 4 1031 100 2000 2.6 100 16:59 15.01.2020
4577 Drizzle 4 1031 100 2000 2.6 100 16:39 15.01.2020
4578 Fog 5 1030 100 900 3.6 130 16:21 15.01.2020
4579 Fog 5 1030 100 900 3.6 130 16:21 15.01.2020
4580 Mist 5 1030 100 3500 3.6 130 15:44 15.01.2020
4581 Mist 5 1030 100 3900 4.6 120 15:22 15.01.2020
4582 Mist 6 1030 93 4500 4.6 120 14:59 15.01.2020
4583 Mist 7 1030 87 5000 3.6 130 14:41 15.01.2020
4584 Mist 7 1030 87 5000 3.6 130 14:18 15.01.2020
4585 Mist 8 1030 87 2100 3.6 120 13:46 15.01.2020
4586 Mist 9 1030 81 4500 1.5 120 13:26 15.01.2020
4587 Mist 8 1030 93 4200 1 0 12:58 15.01.2020
4588 Mist 8 1030 93 4200 1 0 12:39 15.01.2020
4589 Mist 7 1030 100 3300 0.5 0 12:19 15.01.2020
4590 Mist 6 1031 100 1200 0.5 0 11:56 15.01.2020
4591 Mist 7 1031 100 1200 0.5 0 11:36 15.01.2020
4592 Fog 6 1031 100 300 0.5 0 11:18 15.01.2020
4593 Fog 5 1031 100 200 1 300 10:41 15.01.2020
4594 Fog 5 1031 100 200 1 0 10:23 15.01.2020
4595 Fog 3 1031 100 200 1 0 09:42 15.01.2020
4596 Fog 2 1031 74 500 0.5 0 09:22 15.01.2020
4597 Fog 2 1031 74 250 0.5 0 08:55 15.01.2020
4598 Fog 2 1031 74 250 0.5 0 08:37 15.01.2020
4599 Fog 1 1031 100 150 1.8 329 08:19 15.01.2020
4600 Fog 0 1030 100 100 0.5 0 07:43 15.01.2020
4601 Fog -1 1030 100 100 1 10 07:24 15.01.2020
4602 Fog -2 1030 100 150 1.5 300 06:44 15.01.2020
4603 Fog -2 1029 100 100 1 20 05:57 15.01.2020
4604 Fog -3 1029 100 250 1 0 03:56 15.01.2020
4605 Fog -3 1028 100 350 1.5 250 02:28 15.01.2020
4606 Fog -2 1028 100 350 1.83 286 01:22 15.01.2020
4607 Fog -1 1028 100 250 1.79 278 00:44 15.01.2020
4608 Fog -1 1028 100 250 0.5 0 00:25 15.01.2020
4609 Fog -1 1028 72 400 1.5 300 23:47 14.01.2020
4610 Fog 1 1028 100 800 1.5 320 23:29 14.01.2020
4611 Mist -1 1028 100 2400 2.1 340 22:58 14.01.2020
4612 Mist -1 1028 100 2400 2.1 340 22:40 14.01.2020
4613 Fog 0 1028 100 1200 1.08 274 22:19 14.01.2020
4614 Mist 1 1028 100 4700 2.1 50 21:58 14.01.2020
4615 Clouds 1 1028 93 6000 1.5 20 21:39 14.01.2020
4616 Clouds 0 1028 93 6000 1.5 20 21:19 14.01.2020
4617 Mist 0 1028 70 5000 1.08 274 20:54 14.01.2020
4618 Mist 0 1028 70 5000 1.08 274 20:54 14.01.2020
4619 Mist 0 1028 70 5000 1.08 274 20:36 14.01.2020
4620 Clouds 1 1028 74 8000 1 30 20:18 14.01.2020
4621 Clouds 1 1028 74 8000 1 30 19:55 14.01.2020
4622 Clouds 1 1028 74 8000 1 30 19:37 14.01.2020
4623 Clouds 1 1027 74 8000 2.1 40 19:18 14.01.2020
4624 Clouds 1 1027 74 8000 2.1 40 19:18 14.01.2020
4625 Clouds 2 1027 74 8000 2.1 30 18:41 14.01.2020
4626 Clouds 3 1027 75 9000 2.1 50 18:20 14.01.2020
4627 Clouds 3 1027 75 9000 2.1 50 17:56 14.01.2020
4628 Clouds 3 1027 75 9000 2.1 50 17:36 14.01.2020
4629 Clouds 4 1026 80 9000 2.1 70 17:18 14.01.2020
4630 Clouds 4 1026 80 9000 3.6 100 16:42 14.01.2020
4631 Clouds 5 1026 75 9000 2.6 120 16:22 14.01.2020
4632 Clouds 7 1025 75 9000 2.6 120 15:56 14.01.2020
4633 Clouds 7 1025 75 9000 2.6 120 15:38 14.01.2020
4634 Clouds 7 1025 70 10000 2.6 130 15:19 14.01.2020
4635 Clouds 8 1025 66 10000 2.1 130 14:43 14.01.2020
4636 Clouds 8 1025 57 10000 2.1 150 14:20 14.01.2020
4637 Clouds 9 1025 67 10000 0.5 0 13:55 14.01.2020
4638 Clouds 8 1025 67 10000 0.5 0 13:37 14.01.2020
4639 Clouds 8 1025 53 10000 1.5 210 13:18 14.01.2020
4640 Clouds 9 1025 57 10000 2.1 180 12:41 14.01.2020
4641 Clouds 10 1025 57 10000 1.5 220 12:20 14.01.2020
4642 Clouds 8 1026 61 9000 1 0 11:43 14.01.2020
4643 Clouds 6 1026 65 8000 1 0 11:23 14.01.2020
4644 Clouds 6 1026 75 7000 1 0 10:59 14.01.2020
4645 Clouds 7 1026 75 7000 1 0 10:39 14.01.2020
4646 Clouds 6 1026 75 7000 1 0 10:20 14.01.2020
4647 Mist 6 1026 100 4500 1 0 09:57 14.01.2020
4648 Mist 6 1026 100 4500 1 0 09:57 14.01.2020
4649 Mist 6 1026 100 4500 1 0 09:39 14.01.2020
4650 Mist 4 1026 68 3200 1 0 09:20 14.01.2020
4651 Mist 2 1026 100 1200 1.21 266 08:46 14.01.2020
4652 Fog 2 1026 100 800 1.5 280 08:24 14.01.2020
4653 Fog 0 1026 100 1000 1.5 290 07:53 14.01.2020
4654 Fog -1 1025 100 650 1.5 280 07:33 14.01.2020
4655 Mist -3 1025 100 3100 2.1 310 06:54 14.01.2020
4656 Fog -3 1025 100 1500 1.5 300 06:27 14.01.2020
4657 Fog -4 1025 100 150 1.5 280 05:25 14.01.2020
4658 Fog -3 1025 100 1800 1 280 03:52 14.01.2020
4659 Mist -2 1025 100 4000 0.5 340 02:42 14.01.2020
4660 Mist -3 1025 100 4100 1 260 01:53 14.01.2020
4661 Mist -2 1025 100 5000 1 260 00:51 14.01.2020
4662 Clear -2 1025 74 7000 0.5 330 00:32 14.01.2020
4663 Clear -2 1025 74 9000 2.02 280 23:54 13.01.2020
4664 Clear -2 1025 74 9000 2.02 280 23:54 13.01.2020
4665 Clear -1 1025 74 9000 2.02 280 23:36 13.01.2020
4666 Clear -1 1025 73 8000 2.65 217 23:18 13.01.2020
4667 Clear -1 1025 100 8000 0.5 310 22:41 13.01.2020
4668 Clear -1 1025 92 8000 2.65 217 22:21 13.01.2020
4669 Clear -1 1025 73 9000 2.65 217 21:56 13.01.2020
4670 Clear -1 1025 73 9000 2.65 217 21:38 13.01.2020
4671 Clear -1 1025 73 8000 1 0 21:18 13.01.2020
4672 Clear 0 1025 73 10000 1 350 20:57 13.01.2020
4673 Clear 0 1025 73 10000 2.1 10 20:38 13.01.2020
4674 Clear 0 1025 74 10000 2.1 10 20:20 13.01.2020
4675 Clear 0 1025 86 8000 2.1 10 19:56 13.01.2020
4676 Clear 0 1025 86 8000 2.1 10 19:38 13.01.2020
4677 Clear 0 1025 86 9000 2.1 10 19:18 13.01.2020
4678 Clear 1 1026 80 8000 1.5 10 18:56 13.01.2020
4679 Clear 1 1026 80 8000 1.5 10 18:37 13.01.2020
4680 Clear 1 1026 80 7000 3.17 183 18:18 13.01.2020
4681 Clear 2 1025 74 8000 2.1 30 17:40 13.01.2020
4682 Clear 3 1025 80 9000 2.1 30 17:21 13.01.2020
4683 Clear 5 1025 81 10000 2.6 100 16:56 13.01.2020
4684 Clear 5 1025 81 10000 2.6 100 16:37 13.01.2020
4685 Clear 5 1023 62 0 0.89 189 16:18 13.01.2020
4686 Clear 7 1026 73 0 3.51 167 15:43 13.01.2020
4687 Clear 7 1026 73 0 3.51 167 15:22 13.01.2020
4688 Clear 7 1026 73 0 3.51 167 15:22 13.01.2020
4689 Clear 7 1026 73 0 3.51 167 14:57 13.01.2020
4690 Clear 7 1026 73 0 3.51 167 14:37 13.01.2020
4691 Clear 7 1026 73 0 3.51 167 14:37 13.01.2020
4692 Clear 11 1023 41 0 1.79 248 14:18 13.01.2020
4693 Clear 12 1023 40 0 1.79 213 13:41 13.01.2020
4694 Clear 12 1023 40 0 2.24 231 13:22 13.01.2020
4695 Clear 9 1027 70 10000 2.1 270 12:58 13.01.2020
4696 Clear 9 1027 70 10000 2.1 270 12:40 13.01.2020
4697 Clear 8 1027 70 10000 2.1 270 12:21 13.01.2020
4698 Clear 8 1027 70 10000 2.1 270 11:56 13.01.2020
4699 Clear 8 1027 70 10000 2.1 270 11:36 13.01.2020
4700 Clear 7 1028 70 10000 2.6 260 11:18 13.01.2020
4701 Clear 7 1028 70 10000 2.6 260 11:18 13.01.2020
4702 Clear 7 1028 70 10000 2.6 260 11:18 13.01.2020
4703 Clouds 6 1028 100 10000 1.5 270 10:55 13.01.2020
4704 Clouds 6 1028 100 10000 1.5 270 10:36 13.01.2020
4705 Fog 6 1028 100 2900 1.5 270 10:18 13.01.2020
4706 Fog 5 1028 66 900 2.1 260 09:40 13.01.2020
4707 Fog 5 1028 66 900 2.1 260 09:40 13.01.2020
4708 Fog 3 1028 100 100 2.1 270 09:22 13.01.2020
4709 Fog 2 1028 100 200 1.5 260 08:41 13.01.2020
4710 Fog 2 1028 100 1900 1 290 08:21 13.01.2020
4711 Fog -1 1028 92 200 2.6 280 07:52 13.01.2020
4712 Fog -1 1028 92 150 2.1 270 07:33 13.01.2020
4713 Fog -2 1028 92 250 1.5 290 06:44 13.01.2020
4714 Fog -3 1028 100 250 1.5 290 06:22 13.01.2020
4715 Fog -3 1028 100 200 1.5 260 05:36 13.01.2020
4716 Mist -3 1029 100 2000 1.5 300 03:57 13.01.2020
4717 Mist -3 1029 100 3800 1.83 285 03:25 13.01.2020
4718 Clear -3 1029 100 6000 1.83 285 02:47 13.01.2020
4719 Clear -3 1029 100 9000 1.83 285 02:28 13.01.2020
4720 Clear -2 1029 100 10000 2.56 317 01:21 13.01.2020
4721 Clear -2 1029 100 10000 2.56 317 00:41 13.01.2020
4722 Clear -1 1029 100 10000 2.56 317 00:22 13.01.2020
4723 Clear -2 1029 100 10000 2.56 317 23:44 12.01.2020
4724 Clear -2 1029 100 10000 2.56 317 23:24 12.01.2020
4725 Clear -2 1030 92 10000 2.31 327 22:58 12.01.2020
4726 Clear -2 1030 92 10000 2.31 327 22:39 12.01.2020
4727 Clear -2 1030 92 10000 1 0 22:21 12.01.2020
4728 Clear -2 1030 92 10000 1.5 350 21:56 12.01.2020
4729 Clear -1 1030 92 10000 1.5 350 21:38 12.01.2020
4730 Clear -1 1030 86 10000 2.1 330 21:19 12.01.2020
4731 Clear -1 1030 68 10000 1 0 20:56 12.01.2020
4732 Clear -1 1030 68 10000 1 0 20:37 12.01.2020
4733 Clouds 0 1030 80 10000 2.1 350 20:19 12.01.2020
4734 Clouds 0 1030 80 10000 2.1 350 20:19 12.01.2020
4735 Clouds 0 1030 80 10000 1 310 19:55 12.01.2020
4736 Clouds 0 1030 80 10000 1 310 19:37 12.01.2020
4737 Clouds 1 1030 70 10000 4.83 7 19:18 12.01.2020
4738 Clouds 1 1030 74 10000 1 0 18:57 12.01.2020
4739 Clouds 1 1030 74 10000 1 0 18:38 12.01.2020
4740 Clouds 1 1030 74 10000 2.1 10 18:20 12.01.2020
4741 Clouds 3 1029 70 10000 2.1 30 17:42 12.01.2020
4742 Clouds 4 1029 70 10000 2.6 10 17:22 12.01.2020
4743 Clouds 5 1029 74 10000 2.6 360 16:58 12.01.2020
4744 Clouds 5 1029 74 10000 2.6 360 16:39 12.01.2020
4745 Clouds 6 1029 74 10000 2.1 350 16:20 12.01.2020
4746 Clouds 8 1029 61 10000 3.1 10 15:56 12.01.2020
4747 Clouds 8 1029 61 10000 3.1 10 15:38 12.01.2020
4748 Clouds 8 1029 57 10000 3.6 350 15:20 12.01.2020
4749 Clouds 10 1029 74 10000 2.1 20 14:42 12.01.2020
4750 Clouds 9 1029 74 10000 2.6 50 14:23 12.01.2020
4751 Clouds 9 1029 53 10000 2.1 0 13:57 12.01.2020
4752 Clouds 9 1029 53 10000 2.1 0 13:39 12.01.2020
4753 Clouds 9 1028 76 10000 3.1 20 13:20 12.01.2020
4754 Clouds 8 1029 76 10000 3.6 40 12:55 12.01.2020
4755 Clouds 9 1029 76 10000 3.6 40 12:37 12.01.2020
4756 Clouds 9 1029 76 10000 3.6 40 12:37 12.01.2020
4757 Clouds 8 1029 76 10000 4.6 50 12:18 12.01.2020
4758 Clouds 8 1029 57 10000 2.1 340 11:41 12.01.2020
4759 Clouds 8 1029 65 10000 5.1 340 11:22 12.01.2020
4760 Clouds 8 1029 65 10000 2.1 10 10:56 12.01.2020
4761 Clouds 7 1029 65 10000 2.1 10 10:37 12.01.2020
4762 Clouds 6 1029 65 10000 2.6 290 10:18 12.01.2020
4763 Clouds 6 1029 65 10000 2.1 280 09:41 12.01.2020
4764 Clouds 6 1029 65 10000 2.1 280 09:41 12.01.2020
4765 Clouds 6 1029 65 10000 3.1 280 09:21 12.01.2020
4766 Clouds 5 1029 70 10000 2.6 290 08:47 12.01.2020
4767 Clouds 5 1029 70 10000 2.1 320 08:22 12.01.2020
4768 Clouds 5 1029 70 10000 2.1 0 07:46 12.01.2020
4769 Clouds 5 1028 70 10000 1 0 07:25 12.01.2020
4770 Clouds 5 1028 65 10000 4.1 300 06:50 12.01.2020
4771 Clouds 5 1028 70 10000 1.5 290 06:32 12.01.2020
4772 Clouds 5 1027 70 10000 3.1 270 05:49 12.01.2020
4773 Clouds 5 1027 65 10000 3.1 340 04:53 12.01.2020
4774 Clouds 6 1026 74 10000 1.5 280 03:33 12.01.2020
4775 Clouds 5 1026 65 10000 1 0 02:43 12.01.2020
4776 Clouds 5 1026 74 10000 1 0 02:22 12.01.2020
4777 Clouds 5 1026 74 10000 2.6 240 01:30 12.01.2020
4778 Clouds 5 1026 74 10000 2.1 280 00:45 12.01.2020
4779 Clouds 5 1026 74 10000 2.1 250 00:22 12.01.2020
4780 Clouds 5 1025 74 10000 3.1 230 23:56 11.01.2020
4781 Clouds 4 1025 74 10000 3.1 230 23:37 11.01.2020
4782 Clouds 4 1026 66 10000 4.1 280 23:18 11.01.2020
4783 Clouds 5 1025 66 10000 2.6 240 22:56 11.01.2020
4784 Clouds 5 1025 66 10000 2.6 240 22:37 11.01.2020
4785 Clouds 5 1025 66 10000 2.1 250 22:18 11.01.2020
4786 Clouds 5 1025 66 10000 3.6 300 21:42 11.01.2020
4787 Clouds 5 1025 66 10000 3.6 280 21:18 11.01.2020
4788 Clouds 6 1024 66 10000 3.1 270 20:55 11.01.2020
4789 Clouds 6 1024 66 10000 2.6 260 20:36 11.01.2020
4790 Clouds 6 1024 65 10000 2.6 260 20:18 11.01.2020
4791 Clouds 6 1024 65 10000 2.6 260 20:18 11.01.2020
4792 Clouds 6 1023 65 10000 3.6 280 19:54 11.01.2020
4793 Clouds 6 1023 65 10000 1.5 0 19:36 11.01.2020
4794 Clouds 6 1023 65 10000 1.5 0 19:18 11.01.2020
4795 Clouds 6 1023 65 10000 3.6 260 18:39 11.01.2020
4796 Clouds 6 1022 65 10000 2.1 0 18:20 11.01.2020
4797 Clouds 6 1023 65 10000 4.1 300 17:58 11.01.2020
4798 Clouds 6 1023 65 10000 4.1 300 17:40 11.01.2020
4799 Clouds 6 1023 62 10000 6.2 330 17:20 11.01.2020
4800 Clouds 7 1022 62 10000 4.6 340 16:55 11.01.2020
4801 Clouds 7 1022 62 10000 4.6 340 16:55 11.01.2020
4802 Clouds 7 1022 62 10000 4.6 340 16:36 11.01.2020
4803 Clouds 7 1022 62 10000 4.6 340 16:36 11.01.2020
4804 Clouds 7 1022 62 10000 5.1 340 16:18 11.01.2020
4805 Clouds 8 1022 62 10000 4.6 310 15:41 11.01.2020
4806 Clouds 9 1022 62 10000 5.1 310 15:23 11.01.2020
4807 Clouds 9 1021 62 10000 4.6 320 14:58 11.01.2020
4808 Clouds 10 1021 62 10000 4.6 320 14:39 11.01.2020
4809 Clear 10 1021 62 10000 6.2 310 14:21 11.01.2020
4810 Clear 11 1021 62 10000 6.2 280 13:55 11.01.2020
4811 Clear 11 1021 62 10000 6.2 280 13:36 11.01.2020
4812 Clear 11 1020 62 10000 7.7 280 13:18 11.01.2020
4813 Clear 12 1021 62 10000 7.2 280 12:41 11.01.2020
4814 Clear 12 1021 62 10000 7.2 280 12:41 11.01.2020
4815 Clear 13 1021 37 10000 6.2 290 12:23 11.01.2020
4816 Clear 12 1021 37 10000 6.7 280 11:48 11.01.2020
4817 Clear 12 1021 40 10000 5.7 270 11:26 11.01.2020
4818 Clear 11 1022 40 10000 4.6 270 10:55 11.01.2020
4819 Clear 10 1022 46 10000 2.6 240 10:36 11.01.2020
4820 Clear 12 1022 40 10000 4.6 270 10:36 11.01.2020
4821 Clear 10 1022 46 10000 2.6 240 10:18 11.01.2020
4822 Clear 9 1022 52 10000 2.1 260 09:39 11.01.2020
4823 Clear 8 1022 60 10000 1.5 270 09:20 11.01.2020
4824 Clear 8 1022 60 10000 1.5 270 09:20 11.01.2020
4825 Clear 6 1022 64 9000 1 0 08:42 11.01.2020
4826 Clear 2 1022 69 8000 1 0 08:22 11.01.2020
4827 Clear 4 1022 74 7000 1 0 07:44 11.01.2020
4828 Clear 3 1022 80 6000 1 280 07:25 11.01.2020
4829 Clear 2 1022 54 9000 2.66 276 06:51 11.01.2020
4830 Clear 1 1022 54 10000 2.66 276 05:48 11.01.2020
4831 Clear 3 1021 52 10000 2.35 273 04:47 11.01.2020
4832 Clear 2 1021 69 10000 1 0 04:28 11.01.2020
4833 Clear 2 1021 80 10000 1 0 02:49 11.01.2020
4834 Clear 1 1021 52 10000 2.1 250 02:27 11.01.2020
4835 Clear 1 1021 52 10000 1 0 01:43 11.01.2020
4836 Clear 1 1021 51 10000 1.5 260 01:19 11.01.2020
4837 Clear 2 1021 69 10000 2.36 276 00:38 11.01.2020
4838 Clear 1 1021 64 10000 1.5 320 23:59 10.01.2020
4839 Clear 1 1021 64 10000 1.5 320 23:40 10.01.2020
4840 Clear 2 1022 59 10000 1.5 350 23:21 10.01.2020
4841 Clear 1 1022 69 10000 1.5 360 22:57 10.01.2020
4842 Clear 1 1022 69 10000 1.5 360 22:39 10.01.2020
4843 Clear 2 1022 64 10000 0.5 0 22:20 10.01.2020
4844 Clear 2 1022 69 10000 1.5 330 21:56 10.01.2020
4845 Clear 1 1022 69 10000 1.5 330 21:36 10.01.2020
4846 Clear 1 1022 69 10000 1 360 21:18 10.01.2020
4847 Clear 2 1022 59 10000 1.5 350 20:43 10.01.2020
4848 Clear 2 1022 59 10000 1.5 350 20:43 10.01.2020
4849 Clear 2 1022 59 10000 1.5 30 20:24 10.01.2020
4850 Clear 2 1021 64 10000 0.5 10 19:56 10.01.2020
4851 Clear 2 1021 64 10000 0.5 10 19:37 10.01.2020
4852 Clear 2 1021 64 10000 1.5 10 19:19 10.01.2020
4853 Clear 2 1021 64 10000 1.5 10 19:19 10.01.2020
4854 Clear 3 1021 64 10000 1.5 10 18:42 10.01.2020
4855 Clear 2 1021 64 10000 1 20 18:19 10.01.2020
4856 Clear 3 1022 56 10000 2.1 60 17:57 10.01.2020
4857 Clear 2 1022 64 10000 3.6 100 17:39 10.01.2020
4858 Clear 3 1022 64 10000 3.6 100 17:20 10.01.2020
4859 Clear 4 1021 64 10000 4.1 100 16:56 10.01.2020
4860 Clear 5 1021 56 10000 4.1 110 16:37 10.01.2020
4861 Clear 6 1021 56 10000 4.1 110 16:19 10.01.2020
4862 Clear 8 1021 56 10000 4.1 110 15:55 10.01.2020
4863 Clear 8 1021 56 10000 4.1 110 15:36 10.01.2020
4864 Clear 9 1021 34 10000 2.6 170 15:18 10.01.2020
4865 Clear 9 1021 34 10000 3.6 270 14:54 10.01.2020
4866 Clear 9 1021 37 10000 4.1 260 14:36 10.01.2020
4867 Clouds 9 1021 37 10000 4.1 260 14:18 10.01.2020
4868 Clouds 9 1021 37 10000 3.6 250 13:41 10.01.2020
4869 Clouds 10 1021 37 10000 2.6 250 13:23 10.01.2020
4870 Clouds 9 1022 39 10000 1.5 0 12:58 10.01.2020
4871 Clouds 9 1022 39 10000 1.5 0 12:38 10.01.2020
4872 Clouds 9 1022 39 10000 2.6 270 12:19 10.01.2020
4873 Clouds 7 1023 45 10000 1 0 11:55 10.01.2020
4874 Clouds 7 1023 45 10000 1 0 11:37 10.01.2020
4875 Clear 5 1023 48 10000 1 0 11:18 10.01.2020
4876 Clear 5 1023 55 10000 1.5 310 10:42 10.01.2020
4877 Clear 5 1024 60 10000 1.5 310 10:24 10.01.2020
4878 Clear 4 1024 64 10000 1.5 260 09:56 10.01.2020
4879 Clear 4 1024 64 10000 1.5 260 09:56 10.01.2020
4880 Clear 4 1024 64 10000 1.5 260 09:37 10.01.2020
4881 Clear 4 1024 69 7000 2.01 247 09:19 10.01.2020
4882 Clear 3 1024 74 8000 1 0 08:41 10.01.2020
4883 Clouds 3 1024 74 7000 0.5 0 08:23 10.01.2020
4884 Clouds 1 1024 56 6000 2.7 277 07:44 10.01.2020
4885 Clouds 0 1024 86 7000 1 0 07:24 10.01.2020
4886 Clouds 0 1024 80 10000 1 10 06:46 10.01.2020
4887 Clouds 0 1024 80 10000 1 0 06:26 10.01.2020
4888 Clouds 0 1024 86 10000 1 270 05:48 10.01.2020
4889 Clear 0 1023 80 10000 0.5 250 03:37 10.01.2020
4890 Clear 0 1024 57 10000 1 290 03:18 10.01.2020
4891 Clear 0 1024 57 10000 1 250 02:39 10.01.2020
4892 Clouds 0 1024 55 10000 2.5 300 01:38 10.01.2020
4893 Clouds 0 1025 53 10000 2.61 292 01:19 10.01.2020
4894 Clouds 0 1025 53 10000 0.5 0 00:39 10.01.2020
4895 Clouds 1 1025 69 10000 0.5 300 23:58 09.01.2020
4896 Clouds 1 1025 69 10000 0.5 300 23:38 09.01.2020
4897 Clouds 1 1025 69 10000 2.96 287 23:20 09.01.2020
4898 Clouds 1 1025 69 10000 1.5 260 22:57 09.01.2020
4899 Clouds 1 1025 69 10000 1.5 260 22:37 09.01.2020
4900 Clouds 1 1025 64 10000 1.5 10 22:18 09.01.2020
4901 Clouds 2 1025 59 10000 2.96 287 21:56 09.01.2020
4902 Clouds 1 1025 64 10000 2.96 287 21:37 09.01.2020
4903 Clouds 1 1025 59 10000 2.96 287 21:37 09.01.2020
4904 Clouds 1 1025 64 10000 2.96 287 21:37 09.01.2020
4905 Clouds 1 1025 64 10000 2.96 287 21:18 09.01.2020
4906 Clouds 2 1025 59 10000 2.96 287 20:56 09.01.2020
4907 Clouds 2 1025 59 10000 2.96 287 20:38 09.01.2020
4908 Clouds 2 1025 59 10000 1 0 20:19 09.01.2020
4909 Clouds 2 1025 59 10000 1.5 240 19:54 09.01.2020
4910 Clouds 3 1025 55 10000 1.5 0 19:36 09.01.2020
4911 Clouds 3 1025 55 10000 1.5 0 19:18 09.01.2020
4912 Clouds 4 1025 55 10000 3.1 310 18:54 09.01.2020
4913 Clouds 4 1025 55 10000 3.1 330 18:36 09.01.2020
4914 Clouds 4 1025 55 10000 3.1 330 18:18 09.01.2020
4915 Clouds 4 1025 55 10000 1.5 360 17:40 09.01.2020
4916 Clouds 3 1025 55 10000 1.5 360 17:18 09.01.2020
4917 Clouds 3 1025 55 10000 1.5 360 17:18 09.01.2020
4918 Clouds 3 1025 55 10000 1.5 360 17:18 09.01.2020
4919 Clouds 3 1025 55 10000 2.6 310 16:46 09.01.2020
4920 Clouds 5 1025 52 10000 3.1 250 16:22 09.01.2020
4921 Clouds 6 1025 45 10000 4.1 250 15:44 09.01.2020
4922 Clouds 6 1025 45 10000 4.1 250 15:25 09.01.2020
4923 Clouds 6 1025 45 10000 3.6 240 14:59 09.01.2020
4924 Clouds 7 1025 42 10000 3.6 290 14:41 09.01.2020
4925 Clouds 7 1025 42 10000 3.6 290 14:19 09.01.2020
4926 Clouds 6 1025 42 10000 3.6 290 13:56 09.01.2020
4927 Clouds 6 1025 42 10000 4.1 280 13:38 09.01.2020
4928 Clouds 6 1025 42 10000 4.1 280 13:19 09.01.2020
4929 Clouds 6 1025 45 10000 4.1 250 12:56 09.01.2020
4930 Clouds 6 1026 48 10000 5.1 260 12:38 09.01.2020
4931 Clouds 6 1026 48 10000 5.1 260 12:18 09.01.2020
4932 Clouds 4 1027 51 10000 3.6 270 11:42 09.01.2020
4933 Clouds 4 1027 51 10000 3.6 270 11:24 09.01.2020
4934 Clouds 4 1027 51 10000 3.6 270 11:24 09.01.2020
4935 Clouds 4 1027 51 10000 3.6 270 11:24 09.01.2020
4936 Clouds 3 1027 51 10000 4.1 260 10:58 09.01.2020
4937 Clouds 3 1028 55 10000 4.6 270 10:40 09.01.2020
4938 Clouds 2 1028 55 10000 4.6 270 10:21 09.01.2020
4939 Clouds 2 1028 55 10000 2.6 280 09:46 09.01.2020
4940 Clouds 1 1028 64 10000 2.1 260 09:25 09.01.2020
4941 Clouds 0 1028 74 10000 0.5 0 08:58 09.01.2020
4942 Clouds -1 1028 79 10000 1 270 08:39 09.01.2020
4943 Clear -1 1028 79 10000 1 270 08:20 09.01.2020
4944 Clear -1 1028 79 10000 1 270 08:20 09.01.2020
4945 Clear -3 1028 79 10000 1.5 280 07:47 09.01.2020
4946 Clear -3 1028 85 10000 2.1 260 07:28 09.01.2020
4947 Clear -4 1028 79 10000 2.1 320 06:40 09.01.2020
4948 Clear -4 1028 79 10000 2.1 320 06:22 09.01.2020
4949 Clear -4 1028 85 10000 2.6 320 05:51 09.01.2020
4950 Clear -4 1028 85 10000 1.5 310 05:18 09.01.2020
4951 Clear -4 1028 85 10000 1.5 300 04:38 09.01.2020
4952 Clear -4 1029 85 10000 2.1 240 03:26 09.01.2020
4953 Clear -4 1029 79 10000 0.5 0 02:46 09.01.2020
4954 Clear -3 1030 79 10000 5.7 310 01:41 09.01.2020
4955 Clear -3 1030 79 10000 5.1 310 00:56 09.01.2020
4956 Clear -3 1029 79 10000 2.6 340 00:36 09.01.2020
4957 Clear -3 1029 79 10000 2.6 340 00:18 09.01.2020
4958 Clear -2 1030 80 10000 2.6 260 23:39 08.01.2020
4959 Clear -2 1030 80 10000 2.6 260 23:20 08.01.2020
4960 Clear -2 1030 79 10000 4.6 250 22:40 08.01.2020
4961 Clear -2 1030 79 10000 4.6 250 22:21 08.01.2020
4962 Clear -2 1030 79 10000 4.6 250 21:58 08.01.2020
4963 Clear -2 1030 80 10000 3.6 260 21:40 08.01.2020
4964 Clear -2 1030 80 10000 3.6 260 21:40 08.01.2020
4965 Clear -2 1030 80 10000 3.6 260 21:20 08.01.2020
4966 Clear -2 1030 80 10000 3.1 250 20:59 08.01.2020
4967 Clear -2 1030 80 10000 3.6 280 20:40 08.01.2020
4968 Clear -2 1030 80 10000 3.6 280 20:20 08.01.2020
4969 Clear -2 1030 80 10000 3.6 280 20:20 08.01.2020
4970 Clear -2 1030 80 10000 3.6 290 19:57 08.01.2020
4971 Clear -2 1030 74 10000 3.1 270 19:38 08.01.2020
4972 Clear -2 1030 74 10000 3.1 270 19:19 08.01.2020
4973 Clear -1 1030 74 10000 2.6 260 18:57 08.01.2020
4974 Clear -1 1030 60 10000 2.1 0 18:38 08.01.2020
4975 Clear -1 1030 60 10000 2.1 0 18:18 08.01.2020
4976 Clear -1 1030 74 10000 3.6 250 17:56 08.01.2020
4977 Clear -1 1030 74 10000 3.6 250 17:56 08.01.2020
4978 Clear -1 1030 60 10000 2.6 270 17:37 08.01.2020
4979 Clear -1 1030 60 10000 2.6 270 17:18 08.01.2020
4980 Clear -1 1030 60 10000 2.6 300 16:54 08.01.2020
4981 Clear 0 1030 59 10000 4.1 310 16:36 08.01.2020
4982 Clear 1 1030 59 10000 4.1 310 16:18 08.01.2020
4983 Clear 1 1029 55 10000 6.7 320 15:41 08.01.2020
4984 Clear 1 1029 55 10000 6.7 320 15:21 08.01.2020
4985 Clear 2 1029 55 10000 5.7 330 14:57 08.01.2020
4986 Clear 2 1029 55 10000 5.7 340 14:39 08.01.2020
4987 Clouds 2 1029 55 10000 5.7 340 14:20 08.01.2020
4988 Clouds 2 1029 55 10000 6.2 340 13:40 08.01.2020
4989 Clouds 2 1029 55 10000 6.2 340 13:40 08.01.2020
4990 Clouds 2 1029 55 10000 6.2 340 13:19 08.01.2020
4991 Clouds 1 1029 55 10000 6.2 330 12:42 08.01.2020
4992 Clouds 1 1029 55 10000 6.2 330 12:19 08.01.2020
4993 Clouds 1 1030 51 10000 5.7 330 11:55 08.01.2020
4994 Clouds 1 1030 59 10000 6.2 330 11:37 08.01.2020
4995 Clouds 1 1030 59 10000 6.2 330 11:19 08.01.2020
4996 Clouds 0 1030 59 10000 4.6 320 10:55 08.01.2020
4997 Clouds 0 1031 64 10000 4.1 320 10:37 08.01.2020
4998 Clouds 0 1031 64 10000 4.1 320 10:18 08.01.2020
4999 Clouds -1 1030 74 10000 3.6 290 09:41 08.01.2020
5000 Clouds -1 1030 74 10000 3.6 290 09:19 08.01.2020
5001 Clouds -3 1030 79 10000 3.6 270 08:56 08.01.2020
5002 Clouds -4 1030 79 10000 3.1 280 08:37 08.01.2020
5003 Clouds -4 1030 79 10000 3.1 280 08:19 08.01.2020
5004 Clear -5 1030 79 10000 2.6 280 07:48 08.01.2020
5005 Clear -5 1030 79 10000 0.5 0 07:29 08.01.2020
5006 Clear -5 1029 73 10000 2.6 260 06:45 08.01.2020
5007 Clear -5 1029 73 10000 2.6 260 06:19 08.01.2020
5008 Clear -5 1028 79 10000 3.6 250 05:41 08.01.2020
5009 Clear -5 1028 73 10000 2.6 300 04:56 08.01.2020
5010 Clear -5 1028 79 10000 2.1 0 04:24 08.01.2020
5011 Clear -5 1028 85 10000 3.1 260 02:45 08.01.2020
5012 Clouds -5 1028 85 10000 3.1 260 02:21 08.01.2020
5013 Clouds -5 1028 79 10000 3.6 270 01:42 08.01.2020
5014 Clouds -5 1028 79 10000 3.6 280 00:59 08.01.2020
5015 Clouds -4 1028 73 10000 3.6 270 00:27 08.01.2020
5016 Clouds -4 1028 73 10000 2.6 270 23:47 07.01.2020
5017 Clouds -3 1028 68 10000 2.6 260 23:22 07.01.2020
5018 Clouds -3 1028 74 10000 2.6 280 22:58 07.01.2020
5019 Clouds -3 1028 73 10000 3.1 270 22:39 07.01.2020
5020 Clouds -3 1028 73 10000 3.1 270 22:20 07.01.2020
5021 Clouds -3 1028 68 10000 3.1 270 21:55 07.01.2020
5022 Clouds -3 1027 74 10000 2.6 290 21:37 07.01.2020
5023 Clouds -3 1027 74 10000 2.6 290 21:19 07.01.2020
5024 Clouds -3 1027 74 10000 2.6 290 21:19 07.01.2020
5025 Clouds -2 1027 71 10000 3.1 300 20:42 07.01.2020
5026 Clouds -2 1027 70 10000 3.1 300 20:24 07.01.2020
5027 Clouds -1 1027 70 10000 3.1 320 19:59 07.01.2020
5028 Clouds -1 1027 70 10000 3.1 320 19:38 07.01.2020
5029 Clouds -1 1027 70 10000 3.1 320 19:19 07.01.2020
5030 Clouds -1 1027 70 10000 5.7 340 18:58 07.01.2020
5031 Clouds -1 1027 70 10000 4.1 340 18:39 07.01.2020
5032 Clouds -1 1027 70 10000 4.1 340 18:18 07.01.2020
5033 Clouds 0 1027 70 10000 5.7 10 17:58 07.01.2020
5034 Clouds 0 1027 70 10000 5.1 360 17:38 07.01.2020
5035 Clouds 0 1027 69 10000 5.1 360 17:20 07.01.2020
5036 Clouds 0 1026 69 10000 4.1 350 16:55 07.01.2020
5037 Clouds 0 1026 69 10000 5.1 340 16:37 07.01.2020
5038 Clouds 0 1026 69 10000 5.1 340 16:18 07.01.2020
5039 Clouds 0 1025 50 10000 4.6 350 15:43 07.01.2020
5040 Clouds 0 1025 50 10000 4.6 350 15:24 07.01.2020
5041 Clouds 0 1025 50 10000 4.6 350 15:24 07.01.2020
5042 Clouds 0 1025 50 10000 4.6 350 15:24 07.01.2020
5043 Clouds 1 1025 47 10000 6.2 340 14:59 07.01.2020
5044 Clouds 1 1025 47 10000 6.2 350 14:41 07.01.2020
5045 Clouds 1 1025 47 10000 6.2 350 14:22 07.01.2020
5046 Clouds 1 1025 47 10000 6.2 350 14:22 07.01.2020
5047 Clouds 2 1025 51 10000 7.7 330 13:56 07.01.2020
5048 Clouds 2 1025 47 10000 7.2 340 13:37 07.01.2020
5049 Clouds 2 1025 47 10000 7.2 340 13:18 07.01.2020
5050 Clouds 2 1025 47 10000 8.2 350 12:40 07.01.2020
5051 Clouds 2 1025 47 10000 8.2 350 12:19 07.01.2020
5052 Clouds 2 1025 47 10000 7.2 350 11:42 07.01.2020
5053 Clouds 2 1025 47 10000 7.2 350 11:23 07.01.2020
5054 Clouds 1 1025 47 10000 5.1 350 10:58 07.01.2020
5055 Clouds 1 1025 55 10000 5.1 360 10:39 07.01.2020
5056 Clouds 1 1025 55 10000 5.1 360 10:21 07.01.2020
5057 Clouds 0 1025 59 10000 5.1 350 09:55 07.01.2020
5058 Clouds 0 1025 68 10000 3.6 320 09:37 07.01.2020
5059 Clouds 0 1025 68 10000 3.6 320 09:19 07.01.2020
5060 Clouds -2 1026 74 10000 3.1 300 08:41 07.01.2020
5061 Clouds -2 1025 74 10000 4.1 330 08:18 07.01.2020
5062 Clouds -2 1025 74 10000 6.2 340 07:47 07.01.2020
5063 Clouds -3 1025 74 10000 6.2 340 07:23 07.01.2020
5064 Clouds -3 1024 74 10000 4.6 330 06:50 07.01.2020
5065 Clouds -3 1024 74 10000 5.7 320 06:30 07.01.2020
5066 Clouds -3 1024 74 10000 5.1 340 05:41 07.01.2020
5067 Clouds -2 1024 74 10000 6.7 350 03:47 07.01.2020
5068 Clouds -2 1024 77 10000 6.7 350 03:25 07.01.2020
5069 Clouds -1 1024 79 10000 6.7 340 02:20 07.01.2020
5070 Clouds 0 1024 69 10000 5.1 350 01:40 07.01.2020
5071 Clouds 0 1024 69 10000 5.1 350 01:40 07.01.2020
5072 Clouds -1 1024 69 10000 3.6 0 00:59 07.01.2020
5073 Clouds 0 1024 74 10000 4.1 0 00:21 07.01.2020
5074 Clouds 0 1023 74 10000 7.2 340 23:57 06.01.2020
5075 Clouds 0 1023 74 10000 6.7 350 23:38 06.01.2020
5076 Clouds 0 1023 74 10000 7.2 350 23:20 06.01.2020
5077 Clouds 1 1023 69 10000 8.7 360 22:44 06.01.2020
5078 Clouds 1 1023 69 10000 8.7 360 22:25 06.01.2020
5079 Clouds 1 1023 69 10000 9.3 350 21:59 06.01.2020
5080 Clouds 1 1023 69 10000 7.7 350 21:40 06.01.2020
5081 Clouds 1 1023 69 10000 7.7 350 21:20 06.01.2020
5082 Clouds 1 1023 74 10000 7.2 350 20:57 06.01.2020
5083 Clouds 1 1024 74 10000 6.7 360 20:39 06.01.2020
5084 Clouds 1 1024 74 10000 6.7 360 20:20 06.01.2020
5085 Clouds 1 1023 74 10000 7.7 360 19:57 06.01.2020
5086 Clouds 1 1023 74 10000 9.8 360 19:38 06.01.2020
5087 Clouds 1 1023 74 10000 9.8 360 19:20 06.01.2020
5088 Clouds 1 1023 74 10000 9.3 360 18:48 06.01.2020
5089 Clouds 1 1023 74 10000 9.3 360 18:48 06.01.2020
5090 Clouds 1 1023 74 10000 8.7 10 18:23 06.01.2020
5091 Clouds 1 1023 74 10000 8.7 360 17:59 06.01.2020
5092 Clouds 2 1023 74 10000 7.7 360 17:38 06.01.2020
5093 Clouds 1 1023 74 10000 7.7 360 17:19 06.01.2020
5094 Clouds 2 1023 64 10000 7.7 10 16:46 06.01.2020
5095 Clouds 2 1023 69 10000 8.2 10 16:46 06.01.2020
5096 Clouds 2 1023 69 10000 8.2 10 16:27 06.01.2020
5097 Clouds 2 1023 69 10000 8.2 10 15:59 06.01.2020
5098 Clouds 2 1022 69 10000 7.7 10 15:39 06.01.2020
5099 Clouds 3 1022 60 10000 9.8 10 15:20 06.01.2020
5100 Clouds 3 1022 60 10000 9.8 10 14:58 06.01.2020
5101 Clouds 3 1022 60 10000 9.8 10 14:40 06.01.2020
5102 Clouds 3 1022 60 10000 9.8 10 14:20 06.01.2020
5103 Clouds 3 1022 64 10000 10.3 10 13:55 06.01.2020
5104 Clouds 3 1022 64 10000 10.3 10 13:55 06.01.2020
5105 Clouds 3 1021 64 10000 10.8 10 13:37 06.01.2020
5106 Clouds 3 1021 64 10000 10.8 10 13:19 06.01.2020
5107 Clouds 3 1022 64 10000 10.8 10 12:42 06.01.2020
5108 Clouds 3 1022 64 10000 10.8 10 12:20 06.01.2020
5109 Clouds 2 1022 69 10000 9.3 10 11:57 06.01.2020
5110 Clouds 2 1023 69 10000 9.8 10 11:39 06.01.2020
5111 Clouds 2 1023 69 10000 9.8 10 11:20 06.01.2020
5112 Clouds 2 1023 69 10000 9.3 10 10:45 06.01.2020
5113 Clouds 2 1023 69 10000 9.3 10 10:45 06.01.2020
5114 Clouds 2 1023 69 10000 9.3 10 10:27 06.01.2020
5115 Clouds 2 1023 69 10000 9.3 10 09:59 06.01.2020
5116 Clouds 2 1023 69 10000 8.7 360 09:37 06.01.2020
5117 Clouds 2 1023 69 10000 8.7 360 09:19 06.01.2020
5118 Clouds 1 1023 80 10000 9.8 360 08:43 06.01.2020
5119 Clouds 1 1023 80 10000 9.8 360 08:24 06.01.2020
5120 Clouds 1 1022 74 10000 8.2 350 07:48 06.01.2020
5121 Clouds 1 1023 80 10000 5.1 0 07:23 06.01.2020
5122 Clouds 1 1022 74 10000 3.1 290 06:44 06.01.2020
5123 Clouds 1 1022 74 10000 4.1 330 05:52 06.01.2020
5124 Clouds 1 1022 74 10000 4.6 330 05:33 06.01.2020
5125 Clouds 1 1022 74 10000 3.6 0 04:26 06.01.2020
5126 Clouds 1 1022 74 10000 2.6 0 03:53 06.01.2020
5127 Clouds 0 1022 80 10000 3.1 0 02:32 06.01.2020
5128 Clouds 0 1022 80 10000 3.1 0 01:56 06.01.2020
5129 Clouds 0 1022 74 10000 3.6 270 01:32 06.01.2020
5130 Clouds 0 1021 74 10000 2.1 240 00:58 06.01.2020
5131 Clouds 1 1021 69 10000 1.5 0 00:39 06.01.2020
5132 Clouds 1 1021 69 10000 3.1 0 00:18 06.01.2020
5133 Clouds 1 1021 69 10000 3.6 310 23:40 05.01.2020
5134 Clouds 1 1021 69 10000 3.6 310 23:21 05.01.2020
5135 Clouds 1 1020 69 10000 6.2 10 22:54 05.01.2020
5136 Clouds 1 1020 69 10000 5.7 10 22:36 05.01.2020
5137 Clouds 1 1020 69 10000 5.7 10 22:18 05.01.2020
5138 Clouds 1 1020 69 10000 3.1 0 21:41 05.01.2020
5139 Clouds 1 1020 69 10000 3.1 0 21:21 05.01.2020
5140 Clouds 1 1020 69 10000 2.6 360 20:58 05.01.2020
5141 Clouds 1 1020 69 10000 3.6 330 20:39 05.01.2020
5142 Clouds 1 1020 69 10000 3.6 330 20:20 05.01.2020
5143 Clouds 1 1020 74 10000 4.1 340 19:59 05.01.2020
5144 Clouds 2 1019 69 10000 4.1 340 19:39 05.01.2020
5145 Clouds 2 1019 69 10000 4.1 340 19:20 05.01.2020
5146 Clouds 1 1019 74 10000 4.1 340 18:56 05.01.2020
5147 Clouds 1 1018 74 10000 3.1 290 18:38 05.01.2020
5148 Clouds 1 1018 74 10000 3.1 290 18:19 05.01.2020
5149 Clouds 2 1018 74 10000 3.6 320 17:58 05.01.2020
5150 Clouds 2 1018 74 10000 3.6 360 17:39 05.01.2020
5151 Clouds 2 1018 74 10000 3.6 360 17:20 05.01.2020
5152 Clouds 2 1017 64 10000 4.6 10 16:57 05.01.2020
5153 Clouds 2 1017 69 10000 4.6 360 16:38 05.01.2020
5154 Clouds 2 1017 69 10000 4.6 360 16:19 05.01.2020
5155 Clouds 3 1016 69 10000 5.7 360 15:39 05.01.2020
5156 Clouds 3 1016 69 10000 5.7 360 15:39 05.01.2020
5157 Clouds 3 1016 69 10000 5.7 360 15:20 05.01.2020
5158 Clouds 3 1015 69 10000 6.7 10 14:56 05.01.2020
5159 Clouds 3 1015 77 10000 7.7 10 14:38 05.01.2020
5160 Clouds 3 1015 77 10000 7.7 10 14:20 05.01.2020
5161 Clouds 3 1014 77 10000 6.2 350 13:56 05.01.2020
5162 Clouds 3 1014 77 10000 7.2 340 13:38 05.01.2020
5163 Clouds 3 1014 78 10000 7.2 340 13:19 05.01.2020
5164 Clouds 3 1014 78 10000 7.2 340 13:19 05.01.2020
5165 Clouds 2 1014 78 10000 4.6 310 12:55 05.01.2020
5166 Clouds 2 1014 78 10000 4.6 320 12:37 05.01.2020
5167 Clouds 3 1014 78 10000 5.7 340 12:19 05.01.2020
5168 Clouds 3 1014 78 10000 6.7 340 11:44 05.01.2020
5169 Clouds 3 1014 81 10000 6.7 340 11:20 05.01.2020
5170 Clouds 3 1014 81 10000 5.7 340 10:58 05.01.2020
5171 Clouds 3 1014 69 10000 6.7 330 10:39 05.01.2020
5172 Clouds 3 1014 69 10000 6.7 330 10:39 05.01.2020
5173 Clouds 4 1014 69 10000 6.7 330 10:19 05.01.2020
5174 Clouds 3 1014 65 10000 6.7 290 09:42 05.01.2020
5175 Clouds 3 1014 65 10000 6.7 290 09:22 05.01.2020
5176 Clouds 4 1014 65 10000 5.1 270 08:50 05.01.2020
5177 Clouds 4 1014 65 10000 5.7 280 08:31 05.01.2020
5178 Clouds 5 1013 65 10000 4.6 270 07:57 05.01.2020
5179 Clouds 5 1013 65 10000 6.7 270 07:38 05.01.2020
5180 Clouds 5 1013 65 10000 6.7 270 07:20 05.01.2020
5181 Clouds 6 1013 60 10000 6.2 290 06:20 05.01.2020
5182 Clouds 6 1012 70 10000 6.7 290 05:33 05.01.2020
5183 Clouds 6 1012 70 10000 6.7 290 05:33 05.01.2020
5184 Clouds 6 1012 70 10000 6.7 290 05:33 05.01.2020
5185 Clouds 6 1012 70 10000 6.7 290 05:33 05.01.2020
5186 Clouds 5 1012 65 10000 8.2 280 04:44 05.01.2020
5187 Clouds 5 1012 70 10000 7.7 280 04:18 05.01.2020
5188 Clouds 5 1013 75 10000 2.1 270 02:46 05.01.2020
5189 Clouds 5 1013 75 10000 2.1 270 02:24 05.01.2020
5190 Clouds 5 1013 70 10000 4.1 310 01:48 05.01.2020
5191 Clouds 4 1013 75 10000 5.7 290 01:19 05.01.2020
5192 Clouds 3 1014 59 10000 2.1 310 00:42 05.01.2020
5193 Clouds 3 1014 59 10000 2.1 310 00:42 05.01.2020
5194 Clouds 3 1014 59 10000 2.1 310 00:23 05.01.2020
5195 Clouds 4 1014 59 10000 2.1 310 23:59 04.01.2020
5196 Clouds 3 1014 64 10000 2.6 330 23:40 04.01.2020
5197 Clouds 3 1014 64 10000 2.6 330 23:19 04.01.2020
5198 Clouds 3 1014 64 10000 2.6 330 23:19 04.01.2020
5199 Clouds 3 1014 64 10000 2.6 330 23:19 04.01.2020
5200 Clouds 3 1015 64 10000 2.1 310 22:40 04.01.2020
5201 Clouds 3 1015 64 10000 2.1 310 22:22 04.01.2020
5202 Clouds 3 1015 64 10000 2.1 320 21:58 04.01.2020
5203 Clouds 3 1015 55 10000 1.5 220 21:39 04.01.2020
5204 Clouds 3 1015 55 10000 1.5 220 21:20 04.01.2020
5205 Clouds 3 1015 51 10000 2.1 10 20:59 04.01.2020
5206 Clouds 3 1015 55 10000 1.5 0 20:40 04.01.2020
5207 Clouds 2 1015 55 10000 1.5 0 20:21 04.01.2020
5208 Clouds 3 1015 51 10000 2.1 280 19:56 04.01.2020
5209 Clouds 4 1015 48 10000 3.1 300 19:38 04.01.2020
5210 Clouds 4 1015 48 10000 3.1 300 19:19 04.01.2020
5211 Clouds 5 1015 48 10000 3.6 280 18:54 04.01.2020
5212 Clouds 5 1015 48 10000 3.6 280 18:36 04.01.2020
5213 Clouds 5 1015 48 10000 3.6 280 18:18 04.01.2020
5214 Clouds 5 1015 48 10000 3.6 280 18:18 04.01.2020
5215 Clouds 7 1015 42 10000 3.6 290 17:41 04.01.2020
5216 Clouds 5 1015 42 10000 3.6 290 17:23 04.01.2020
5217 Clear 5 1015 39 10000 3.6 270 16:57 04.01.2020
5218 Clear 6 1015 36 10000 4.1 320 16:39 04.01.2020
5219 Clear 6 1015 36 10000 4.1 320 16:39 04.01.2020
5220 Clear 7 1015 36 10000 4.1 320 16:21 04.01.2020
5221 Clear 11 1015 29 10000 5.1 300 15:43 04.01.2020
5222 Clear 11 1015 29 10000 5.1 300 15:20 04.01.2020
5223 Clear 12 1015 25 10000 4.6 330 14:59 04.01.2020
5224 Clear 12 1015 25 10000 5.1 310 14:41 04.01.2020
5225 Clouds 12 1015 25 10000 5.1 310 14:20 04.01.2020
5226 Clouds 12 1015 25 10000 4.6 300 13:58 04.01.2020
5227 Clouds 12 1015 23 10000 5.1 320 13:37 04.01.2020
5228 Clouds 12 1015 23 10000 5.1 320 13:19 04.01.2020
5229 Clouds 11 1015 27 10000 5.7 300 12:56 04.01.2020
5230 Clouds 11 1015 27 10000 5.1 310 12:38 04.01.2020
5231 Clouds 11 1015 27 10000 5.1 310 12:18 04.01.2020
5232 Clouds 10 1015 27 10000 5.7 300 11:55 04.01.2020
5233 Clouds 10 1016 31 10000 5.1 280 11:36 04.01.2020
5234 Clouds 10 1016 31 10000 5.1 280 11:18 04.01.2020
5235 Clouds 7 1017 36 10000 4.1 260 10:40 04.01.2020
5236 Clouds 7 1017 36 10000 4.1 260 10:21 04.01.2020
5237 Clouds 7 1017 39 10000 5.1 260 09:44 04.01.2020
5238 Clouds 6 1017 39 10000 5.1 260 09:25 04.01.2020
5239 Clouds 5 1017 48 10000 2.6 260 08:49 04.01.2020
5240 Clouds 4 1017 51 10000 2.6 240 08:29 04.01.2020
5241 Clear 2 1017 59 10000 2.1 260 07:55 04.01.2020
5242 Clear 2 1017 59 10000 2.1 260 07:55 04.01.2020
5243 Clear 1 1016 64 10000 0.5 0 07:37 04.01.2020
5244 Clear 2 1016 51 10000 2.1 230 06:43 04.01.2020
5245 Clear 1 1016 59 10000 2.1 0 05:57 04.01.2020
5246 Clear 0 1016 74 10000 2.6 270 04:50 04.01.2020
5247 Clear 0 1017 56 10000 2.6 300 04:29 04.01.2020
5248 Clear 1 1017 56 10000 2.6 270 03:28 04.01.2020
5249 Clear 1 1017 56 10000 3.1 270 02:46 04.01.2020
5250 Clouds 1 1018 64 10000 3.1 250 02:18 04.01.2020
5251 Clouds 0 1018 58 10000 4.1 270 01:37 04.01.2020
5252 Clouds 0 1018 58 10000 4.1 270 01:18 04.01.2020
5253 Clouds 1 1018 58 10000 4.6 280 00:29 04.01.2020
5254 Clouds 1 1018 58 10000 4.1 280 23:53 03.01.2020
5255 Clouds 1 1019 64 10000 2.6 280 23:28 03.01.2020
5256 Clouds 1 1019 64 10000 4.1 250 22:56 03.01.2020
5257 Clouds 1 1019 69 10000 4.6 260 22:37 03.01.2020
5258 Clouds 1 1019 69 10000 4.6 260 22:18 03.01.2020
5259 Clouds 1 1019 69 10000 3.6 260 21:56 03.01.2020
5260 Clouds 1 1019 69 10000 2.6 280 21:37 03.01.2020
5261 Clouds 1 1019 69 10000 2.6 280 21:18 03.01.2020
5262 Clouds 1 1020 69 10000 3.6 270 20:54 03.01.2020
5263 Clouds 2 1020 64 10000 2.6 250 20:36 03.01.2020
5264 Clouds 1 1020 64 10000 2.6 250 20:18 03.01.2020
5265 Clouds 2 1020 69 10000 2.1 270 19:41 03.01.2020
5266 Clouds 2 1020 69 10000 2.1 270 19:23 03.01.2020
5267 Clouds 2 1021 69 10000 3.1 280 18:54 03.01.2020
5268 Clouds 2 1021 69 10000 3.6 280 18:36 03.01.2020
5269 Clouds 2 1021 69 10000 3.6 280 18:18 03.01.2020
5270 Clouds 4 1021 64 10000 3.6 270 17:41 03.01.2020
5271 Clouds 3 1021 64 10000 3.6 270 17:21 03.01.2020
5272 Clouds 3 1021 60 10000 3.1 260 16:44 03.01.2020
5273 Clouds 4 1021 60 10000 3.1 260 16:25 03.01.2020
5274 Clouds 4 1021 56 10000 3.1 270 15:59 03.01.2020
5275 Clouds 7 1021 52 10000 4.1 270 15:41 03.01.2020
5276 Clouds 6 1021 52 10000 4.1 270 15:19 03.01.2020
5277 Clouds 8 1022 52 10000 5.7 260 14:40 03.01.2020
5278 Clouds 6 1022 52 10000 5.7 260 14:20 03.01.2020
5279 Clouds 7 1022 49 10000 6.2 250 13:57 03.01.2020
5280 Clouds 7 1022 52 10000 6.7 260 13:39 03.01.2020
5281 Clouds 7 1022 52 10000 6.7 260 13:20 03.01.2020
5282 Clouds 6 1023 52 10000 5.7 270 12:41 03.01.2020
5283 Clouds 6 1023 52 10000 5.7 270 12:22 03.01.2020
5284 Clouds 5 1023 60 10000 5.7 250 11:53 03.01.2020
5285 Clouds 4 1024 64 10000 5.7 250 11:34 03.01.2020
5286 Clouds 4 1024 64 10000 5.1 250 10:58 03.01.2020
5287 Clouds 3 1025 69 10000 4.6 250 10:39 03.01.2020
5288 Clouds 4 1025 69 10000 4.6 250 10:21 03.01.2020
5289 Clouds 2 1025 74 10000 4.1 250 09:55 03.01.2020
5290 Clouds 2 1025 80 10000 4.1 250 09:37 03.01.2020
5291 Clouds 2 1025 80 10000 4.1 250 09:19 03.01.2020
5292 Clouds 1 1026 86 10000 3.1 290 08:44 03.01.2020
5293 Clouds 1 1026 86 10000 3.1 290 08:22 03.01.2020
5294 Clouds -1 1026 92 10000 1.5 290 07:43 03.01.2020
5295 Clouds -1 1026 92 10000 1.5 290 07:19 03.01.2020
5296 Clouds -1 1026 92 10000 1.5 290 07:19 03.01.2020
5297 Clouds -3 1026 100 8000 1 320 06:58 03.01.2020
5298 Clouds -2 1026 92 9000 2.1 290 06:39 03.01.2020
5299 Clouds -2 1026 92 9000 2.1 290 06:20 03.01.2020
5300 Clouds -2 1026 92 6000 1.5 260 04:43 03.01.2020
5301 Mist -3 1027 100 5000 1.5 290 03:37 03.01.2020
5302 Clouds -3 1027 100 5000 2.1 220 02:50 03.01.2020
5303 Clear -3 1028 92 8000 3.68 300 01:48 03.01.2020
5304 Clear -2 1028 92 10000 3.74 300 00:57 03.01.2020
5305 Clear -3 1028 92 10000 3.74 300 00:33 03.01.2020
5306 Clear -2 1028 86 10000 1 20 23:58 02.01.2020
5307 Clear -3 1028 86 10000 2.1 350 23:39 02.01.2020
5308 Clear -3 1028 86 10000 2.1 350 23:20 02.01.2020
5309 Clear -3 1029 86 10000 2.1 350 22:58 02.01.2020
5310 Clear -3 1029 92 10000 1 0 22:39 02.01.2020
5311 Clear -3 1029 92 10000 1 0 22:19 02.01.2020
5312 Clear -3 1029 79 10000 2.97 294 21:55 02.01.2020
5313 Clear -2 1029 86 10000 2.1 360 21:36 02.01.2020
5314 Clear -2 1029 86 10000 2.1 360 21:18 02.01.2020
5315 Clear -2 1029 86 10000 2.97 294 20:40 02.01.2020
5316 Clear -2 1029 86 10000 3.53 308 20:21 02.01.2020
5317 Clear -1 1029 80 10000 1.5 300 19:56 02.01.2020
5318 Clear -1 1030 80 10000 2.1 360 19:38 02.01.2020
5319 Clear 0 1030 80 10000 2.1 360 19:19 02.01.2020
5320 Clear 0 1030 71 10000 0.5 0 18:59 02.01.2020
5321 Clear -1 1030 74 10000 2.6 320 18:41 02.01.2020
5322 Clear -1 1030 74 10000 2.6 320 18:22 02.01.2020
5323 Clear -1 1030 71 10000 1 0 17:57 02.01.2020
5324 Clear 0 1030 69 10000 2.1 20 17:38 02.01.2020
5325 Clear 0 1030 69 10000 2.1 20 17:19 02.01.2020
5326 Clear 1 1029 59 10000 2.1 310 16:57 02.01.2020
5327 Clear 2 1030 59 10000 2.6 280 16:39 02.01.2020
5328 Clear 3 1030 59 10000 2.6 280 16:20 02.01.2020
5329 Clear 3 1029 59 10000 3.6 310 15:56 02.01.2020
5330 Clear 3 1029 59 10000 3.6 310 15:56 02.01.2020
5331 Clear 5 1029 55 10000 4.1 310 15:37 02.01.2020
5332 Clear 5 1029 52 10000 4.6 320 15:19 02.01.2020
5333 Clear 5 1029 52 10000 4.6 320 14:55 02.01.2020
5334 Clear 5 1029 52 10000 4.1 310 14:36 02.01.2020
5335 Clear 5 1029 52 10000 4.1 310 14:18 02.01.2020
5336 Clear 5 1029 52 10000 5.7 330 13:47 02.01.2020
5337 Clear 5 1029 52 10000 5.7 330 13:47 02.01.2020
5338 Clear 5 1029 52 10000 5.7 330 13:29 02.01.2020
5339 Clear 4 1030 52 10000 4.6 350 12:44 02.01.2020
5340 Clear 4 1030 52 10000 4.6 350 12:25 02.01.2020
5341 Clear 3 1030 55 10000 4.6 360 11:43 02.01.2020
5342 Clear 3 1030 55 10000 4.6 360 11:25 02.01.2020
5343 Clear 3 1031 60 10000 4.6 350 10:57 02.01.2020
5344 Clear 2 1031 59 10000 3.1 350 10:38 02.01.2020
5345 Clear 2 1031 59 10000 3.1 350 10:19 02.01.2020
5346 Clear 2 1031 69 10000 5.1 350 09:41 02.01.2020
5347 Clear 2 1031 69 10000 5.1 350 09:22 02.01.2020
5348 Clear 1 1031 70 10000 3.6 330 08:44 02.01.2020
5349 Clear 0 1031 68 10000 3.6 330 08:25 02.01.2020
5350 Clear 0 1031 80 10000 3.6 340 07:49 02.01.2020
5351 Clear -1 1031 86 10000 2.1 300 07:30 02.01.2020
5352 Clear -2 1030 79 10000 1 0 06:44 02.01.2020
5353 Clear -3 1030 79 10000 1 0 06:26 02.01.2020
5354 Clear -2 1030 80 10000 3.6 340 04:40 02.01.2020
5355 Clear -2 1030 80 10000 3.6 340 04:21 02.01.2020
5356 Clear -2 1030 80 10000 3.6 340 04:21 02.01.2020
5357 Clear -1 1030 76 10000 2.1 260 02:28 02.01.2020
5358 Clouds 0 1030 64 10000 2.6 300 01:57 02.01.2020
5359 Clouds 0 1029 64 10000 2.1 350 01:32 02.01.2020
5360 Clear 1 1029 59 10000 3.1 360 00:53 02.01.2020
5361 Clear 2 1028 64 10000 5.1 360 00:32 02.01.2020
5362 Clear 2 1028 64 10000 5.1 360 23:48 01.01.2020
5363 Clear 2 1028 64 10000 5.1 350 23:25 01.01.2020
5364 Clouds 2 1028 59 10000 5.1 350 22:54 01.01.2020
5365 Clouds 1 1028 69 10000 4.6 340 22:36 01.01.2020
5366 Clouds 1 1028 69 10000 4.6 340 22:18 01.01.2020
5367 Clouds 1 1028 74 10000 3.6 310 21:42 01.01.2020
5368 Clouds 1 1028 74 10000 3.6 310 21:21 01.01.2020
5369 Clouds 1 1029 74 10000 4.1 300 20:58 01.01.2020
5370 Clouds 1 1028 69 10000 3.6 300 20:39 01.01.2020
5371 Clouds 1 1028 69 10000 3.6 300 20:20 01.01.2020
5372 Clouds 1 1028 69 10000 3.1 270 19:57 01.01.2020
5373 Clouds 2 1028 64 10000 2.6 320 19:38 01.01.2020
5374 Clouds 2 1028 64 10000 2.6 320 19:20 01.01.2020
5375 Clouds 2 1028 69 10000 4.1 300 18:57 01.01.2020
5376 Clouds 2 1028 64 10000 4.1 300 18:38 01.01.2020
5377 Clouds 3 1028 64 10000 4.1 300 18:20 01.01.2020
5378 Clouds 3 1028 64 10000 4.6 330 17:58 01.01.2020
5379 Clouds 3 1027 60 10000 4.6 330 17:39 01.01.2020
5380 Clouds 3 1027 60 10000 4.6 330 17:19 01.01.2020
5381 Clouds 3 1027 60 10000 4.1 320 16:57 01.01.2020
5382 Clouds 3 1026 60 10000 4.6 320 16:38 01.01.2020
5383 Clouds 3 1026 60 10000 4.6 320 16:38 01.01.2020
5384 Clouds 3 1026 60 10000 4.6 320 16:19 01.01.2020
5385 Clouds 3 1026 56 10000 5.7 310 15:54 01.01.2020
5386 Clouds 4 1026 56 10000 5.7 310 15:36 01.01.2020
5387 Clouds 4 1026 56 10000 5.7 310 15:36 01.01.2020
5388 Clouds 4 1026 56 10000 5.7 310 15:18 01.01.2020
5389 Clouds 4 1025 56 10000 5.1 310 14:41 01.01.2020
5390 Clouds 5 1025 56 10000 5.1 310 14:23 01.01.2020
5391 Clouds 5 1025 56 10000 7.2 310 13:57 01.01.2020
5392 Clouds 5 1025 52 10000 8.7 330 13:38 01.01.2020
5393 Clouds 5 1025 52 10000 8.7 330 13:19 01.01.2020
5394 Clouds 4 1025 52 10000 7.7 330 12:57 01.01.2020
5395 Clouds 4 1025 52 10000 7.7 340 12:39 01.01.2020
5396 Clouds 5 1025 52 10000 7.7 340 12:19 01.01.2020
5397 Clouds 5 1025 52 10000 7.7 340 12:19 01.01.2020
5398 Clouds 4 1024 48 10000 10.3 340 11:56 01.01.2020
5399 Clouds 4 1024 48 10000 9.8 340 11:37 01.01.2020
5400 Clouds 4 1024 48 10000 9.8 340 11:18 01.01.2020
5401 Clouds 4 1025 45 10000 8.7 330 10:41 01.01.2020
5402 Clouds 6 1025 45 10000 8.7 330 10:21 01.01.2020
5403 Clouds 4 1025 48 10000 9.8 330 09:59 01.01.2020
5404 Clouds 4 1024 48 10000 6.7 320 09:38 01.01.2020
5405 Clouds 4 1024 51 10000 4.1 290 09:19 01.01.2020
5406 Clouds 3 1024 51 10000 4.1 290 08:56 01.01.2020
5407 Clouds 3 1023 55 10000 7.2 320 08:37 01.01.2020
5408 Clouds 3 1023 55 10000 7.2 320 08:19 01.01.2020
5409 Clouds 3 1023 59 10000 7.2 320 07:54 01.01.2020
5410 Clouds 2 1023 59 10000 7.2 320 07:36 01.01.2020
5411 Clouds 0 1023 64 10000 6.2 310 06:45 01.01.2020
5412 Clouds 1 1022 59 10000 6.2 310 06:21 01.01.2020
5413 Clouds 2 1022 64 10000 4.1 270 05:23 01.01.2020
5414 Clouds 3 1021 60 10000 4.1 280 03:47 01.01.2020
5415 Clouds 3 1021 55 10000 4.6 280 03:23 01.01.2020
5416 Clouds 3 1021 55 10000 4.6 280 03:23 01.01.2020
5417 Clouds 4 1021 60 10000 5.1 250 02:57 01.01.2020
5418 Clouds 3 1021 60 10000 4.6 290 02:37 01.01.2020
5419 Clouds 3 1021 55 10000 5.1 280 01:59 01.01.2020
5420 Clouds 3 1021 60 10000 6.7 300 01:38 01.01.2020
5421 Clouds 3 1021 60 10000 6.7 300 01:20 01.01.2020
5422 Clouds 4 1020 60 10000 5.1 280 00:44 01.01.2020
5423 Clouds 4 1020 60 10000 5.1 280 00:44 01.01.2020
5424 Clouds 3 1020 60 10000 5.1 280 00:25 01.01.2020
5425 Clouds 3 1020 52 10000 5.7 300 23:41 31.12.2019
5426 Clouds 5 1020 52 10000 5.7 300 23:21 31.12.2019
5427 Clouds 3 1020 52 10000 6.2 290 22:57 31.12.2019
5428 Rain 3 1020 52 10000 8.2 290 22:39 31.12.2019
5429 Rain 3 1020 52 10000 8.2 290 22:39 31.12.2019
5430 Rain 3 1020 52 10000 8.2 290 22:20 31.12.2019
5431 Rain 3 1020 55 10000 5.7 280 21:57 31.12.2019
5432 Rain 3 1020 51 10000 5.1 270 21:39 31.12.2019
5433 Rain 3 1020 51 10000 5.1 270 21:39 31.12.2019
5434 Rain 3 1020 51 10000 5.1 270 21:20 31.12.2019
5435 Clouds 3 1020 51 10000 4.6 280 20:55 31.12.2019
5436 Clouds 3 1020 55 10000 6.2 290 20:37 31.12.2019
5437 Clouds 3 1020 55 10000 6.2 290 20:18 31.12.2019
5438 Clouds 3 1020 55 10000 7.2 280 19:43 31.12.2019
5439 Clouds 2 1020 55 10000 7.2 280 19:24 31.12.2019
5440 Clouds 2 1021 55 10000 6.2 280 18:59 31.12.2019
5441 Clouds 2 1021 55 10000 5.1 290 18:40 31.12.2019
5442 Clouds 2 1021 55 10000 5.1 290 18:21 31.12.2019
5443 Clouds 1 1021 59 10000 4.6 290 17:57 31.12.2019
5444 Clouds 1 1021 64 10000 2.1 320 17:38 31.12.2019
5445 Clouds 1 1021 64 10000 2.1 320 17:19 31.12.2019
5446 Clouds 1 1021 64 10000 2.1 320 17:19 31.12.2019
5447 Clouds 2 1022 59 10000 3.6 310 16:57 31.12.2019
5448 Clouds 2 1022 59 10000 3.6 310 16:57 31.12.2019
5449 Clouds 2 1022 55 10000 3.1 280 16:38 31.12.2019
5450 Clouds 2 1022 55 10000 3.1 280 16:19 31.12.2019
5451 Clear 4 1022 55 10000 3.6 280 15:57 31.12.2019
5452 Clear 5 1022 52 10000 4.6 270 15:39 31.12.2019
5453 Clear 4 1022 52 10000 4.6 270 15:21 31.12.2019
5454 Clear 5 1022 52 10000 5.1 280 14:58 31.12.2019
5455 Clear 5 1022 52 10000 6.7 280 14:39 31.12.2019
5456 Clear 4 1023 52 10000 6.7 270 14:19 31.12.2019
5457 Clear 5 1023 52 10000 6.7 270 13:58 31.12.2019
5458 Clear 5 1023 48 10000 8.2 280 13:40 31.12.2019
5459 Clear 5 1023 48 10000 8.2 280 13:21 31.12.2019
5460 Clear 5 1024 52 10000 7.7 260 12:58 31.12.2019
5461 Clear 4 1024 52 10000 6.7 260 12:40 31.12.2019
5462 Clear 5 1024 52 10000 6.7 260 12:20 31.12.2019
5463 Clear 4 1025 55 10000 6.7 280 11:57 31.12.2019
5464 Clear 4 1025 51 10000 4.6 280 11:38 31.12.2019
5465 Clear 4 1025 51 10000 4.6 280 11:20 31.12.2019
5466 Clear 3 1026 55 10000 5.7 270 10:58 31.12.2019
5467 Clear 2 1026 64 10000 5.1 260 10:38 31.12.2019
5468 Clear 2 1026 64 10000 5.1 260 10:20 31.12.2019
5469 Clear 1 1027 64 10000 5.1 270 09:59 31.12.2019
5470 Clear 0 1027 73 10000 5.1 260 09:39 31.12.2019
5471 Clear 0 1027 73 10000 5.1 260 09:21 31.12.2019
5472 Clear -1 1027 80 10000 3.6 260 08:57 31.12.2019
5473 Clear -1 1027 79 10000 2.6 270 08:39 31.12.2019
5474 Clear -1 1027 79 10000 2.6 270 08:19 31.12.2019
5475 Clear -3 1027 85 10000 3.1 230 07:43 31.12.2019
5476 Clear -3 1027 85 10000 3.1 230 07:21 31.12.2019
5477 Clear -4 1027 85 10000 2.6 270 06:50 31.12.2019
5478 Clear -4 1028 86 10000 4.1 270 05:57 31.12.2019
5479 Clear -3 1028 79 10000 4.6 300 04:29 31.12.2019
5480 Clouds -3 1028 92 10000 3.6 270 03:38 31.12.2019
5481 Clouds -2 1029 86 10000 3.6 270 02:55 31.12.2019
5482 Clouds -1 1029 86 10000 3.6 270 02:18 31.12.2019
5483 Clouds -2 1030 86 10000 2.6 290 01:42 31.12.2019
5484 Clouds -2 1030 86 10000 2.6 290 01:23 31.12.2019
5485 Clouds -2 1030 86 10000 2.1 300 00:46 31.12.2019
5486 Clouds -2 1030 80 10000 3.6 320 00:22 31.12.2019
5487 Clouds -2 1030 80 10000 5.7 320 23:56 30.12.2019
5488 Clouds -2 1030 80 10000 5.1 340 23:38 30.12.2019
5489 Clouds -2 1030 80 10000 5.1 340 23:20 30.12.2019
5490 Clouds -1 1031 77 10000 3.6 340 22:57 30.12.2019
5491 Clouds -1 1031 77 10000 3.6 320 22:38 30.12.2019
5492 Clouds -1 1031 77 10000 3.6 320 22:19 30.12.2019
5493 Clouds -1 1031 77 10000 5.1 340 21:56 30.12.2019
5494 Clouds -1 1031 77 10000 4.6 350 21:38 30.12.2019
5495 Clouds -1 1031 77 10000 4.6 350 21:18 30.12.2019
5496 Clouds 0 1031 69 10000 3.6 340 20:56 30.12.2019
5497 Clouds 0 1031 69 10000 5.7 350 20:38 30.12.2019
5498 Clouds 0 1031 69 10000 5.7 350 20:19 30.12.2019
5499 Clouds 0 1031 69 10000 4.6 350 19:56 30.12.2019
5500 Clouds 0 1031 69 10000 4.6 10 19:37 30.12.2019
5501 Clouds 0 1031 69 10000 4.6 10 19:37 30.12.2019
5502 Clouds 0 1031 69 10000 4.6 10 19:19 30.12.2019
5503 Clouds 0 1031 74 10000 3.6 10 18:56 30.12.2019
5504 Clouds 0 1031 74 10000 4.6 340 18:37 30.12.2019
5505 Clouds 0 1031 74 10000 4.6 340 18:19 30.12.2019
5506 Clouds 0 1031 74 10000 5.7 360 17:54 30.12.2019
5507 Clouds 0 1030 74 10000 4.6 10 17:36 30.12.2019
5508 Clouds 0 1030 74 10000 4.6 10 17:18 30.12.2019
5509 Clouds 1 1030 69 10000 5.7 10 16:41 30.12.2019
5510 Clouds 1 1030 69 10000 5.7 10 16:41 30.12.2019
5511 Clouds 1 1030 69 10000 5.7 10 16:21 30.12.2019
5512 Clouds 1 1030 74 10000 5.1 10 15:58 30.12.2019
5513 Clouds 1 1030 74 10000 8.2 10 15:39 30.12.2019
5514 Clouds 1 1030 74 10000 8.2 10 15:19 30.12.2019
5515 Clouds 1 1030 74 10000 8.2 10 15:19 30.12.2019
5516 Clouds 1 1030 74 10000 7.7 10 14:55 30.12.2019
5517 Clouds 2 1030 69 10000 7.2 20 14:37 30.12.2019
5518 Clouds 2 1030 69 10000 7.2 20 14:37 30.12.2019
5519 Clouds 2 1030 69 10000 7.2 20 14:18 30.12.2019
5520 Clouds 2 1029 74 10000 9.3 10 13:42 30.12.2019
5521 Clouds 2 1029 74 10000 9.3 10 13:24 30.12.2019
5522 Clouds 2 1029 85 10000 8.7 10 12:59 30.12.2019
5523 Clouds 2 1029 85 10000 8.2 10 12:41 30.12.2019
5524 Clouds 2 1029 85 10000 8.2 10 12:19 30.12.2019
5525 Clouds 2 1029 85 10000 8.7 20 11:56 30.12.2019
5526 Clouds 1 1029 85 10000 8.7 20 11:38 30.12.2019
5527 Clouds 1 1029 87 10000 8.7 20 11:18 30.12.2019
5528 Clouds 2 1029 87 9000 8.2 10 10:43 30.12.2019
5529 Clouds 1 1029 87 9000 8.2 10 10:20 30.12.2019
5530 Clouds 1 1028 80 8000 10.8 10 09:44 30.12.2019
5531 Clouds 1 1028 80 8000 10.8 10 09:22 30.12.2019
5532 Clouds 1 1028 87 9000 11.3 10 08:58 30.12.2019
5533 Rain 1 1029 87 9000 10.8 10 08:39 30.12.2019
5534 Rain 1 1029 84 9000 10.8 10 08:21 30.12.2019
5535 Clouds 1 1028 80 10000 12.3 10 07:49 30.12.2019
5536 Clouds 1 1028 84 10000 10.8 10 07:25 30.12.2019
5537 Clouds 1 1027 84 10000 10.3 10 06:39 30.12.2019
5538 Clouds 1 1027 80 10000 9.3 10 04:32 30.12.2019
5539 Clouds 1 1027 80 10000 10.3 10 03:51 30.12.2019
5540 Drizzle 1 1027 80 10000 9.8 360 02:47 30.12.2019
5541 Drizzle 1 1027 82 10000 10.3 360 02:27 30.12.2019
5542 Drizzle 1 1026 92 10000 11.3 10 01:39 30.12.2019
5543 Drizzle 1 1026 92 10000 11.3 10 01:19 30.12.2019
5544 Clouds 1 1026 86 10000 9.8 10 00:42 30.12.2019
5545 Clouds 1 1026 80 10000 8.7 360 23:58 29.12.2019
5546 Rain 0 1026 86 10000 10.3 360 23:37 29.12.2019
5547 Clouds 0 1026 86 10000 10.3 360 23:19 29.12.2019
5548 Clouds 0 1026 86 10000 9.8 360 22:41 29.12.2019
5549 Clouds 0 1026 86 10000 9.8 360 22:22 29.12.2019
5550 Clouds 0 1026 86 10000 9.8 360 21:56 29.12.2019
5551 Clouds 0 1025 86 10000 9.8 360 21:38 29.12.2019
5552 Clouds 0 1025 86 10000 9.8 360 21:19 29.12.2019
5553 Clouds 0 1026 86 10000 9.3 10 20:55 29.12.2019
5554 Snow 0 1025 86 10000 9.3 360 20:37 29.12.2019
5555 Snow 0 1025 86 10000 9.3 360 20:18 29.12.2019
5556 Snow 0 1025 86 10000 8.2 360 19:56 29.12.2019
5557 Snow 0 1026 86 10000 6.2 360 19:37 29.12.2019
5558 Snow 0 1026 86 10000 6.2 360 19:19 29.12.2019
5559 Snow 0 1025 80 10000 6.7 360 18:55 29.12.2019
5560 Snow 0 1025 80 10000 6.7 360 18:55 29.12.2019
5561 Snow 0 1025 80 10000 6.7 360 18:37 29.12.2019
5562 Snow 0 1025 80 10000 6.7 360 18:18 29.12.2019
5563 Snow 0 1024 80 10000 8.7 360 17:56 29.12.2019
5564 Clouds 0 1024 80 10000 8.2 350 17:37 29.12.2019
5565 Clouds 0 1024 80 10000 8.2 350 17:37 29.12.2019
5566 Clouds 0 1024 80 10000 8.2 350 17:37 29.12.2019
5567 Clouds 0 1024 80 10000 8.2 350 17:19 29.12.2019
5568 Clouds 0 1024 80 10000 7.2 340 16:55 29.12.2019
5569 Clouds 0 1024 80 10000 7.2 340 16:36 29.12.2019
5570 Clouds 0 1024 80 10000 7.2 340 16:36 29.12.2019
5571 Clouds 0 1024 80 10000 7.2 340 16:18 29.12.2019
5572 Clouds 0 1024 74 10000 7.7 340 15:55 29.12.2019
5573 Clouds 1 1024 74 10000 7.2 340 15:37 29.12.2019
5574 Clouds 1 1024 74 10000 7.2 340 15:18 29.12.2019
5575 Clouds 1 1023 74 10000 7.7 350 14:55 29.12.2019
5576 Clouds 1 1023 74 10000 8.7 350 14:37 29.12.2019
5577 Clouds 1 1022 74 10000 9.8 350 14:18 29.12.2019
5578 Clouds 1 1022 74 10000 9.3 360 13:40 29.12.2019
5579 Clouds 1 1022 74 10000 9.3 360 13:40 29.12.2019
5580 Clouds 1 1022 74 10000 9.3 360 13:22 29.12.2019
5581 Clouds 1 1022 74 10000 8.7 350 12:58 29.12.2019
5582 Rain 1 1023 74 10000 7.7 350 12:40 29.12.2019
5583 Rain 1 1023 74 10000 7.7 350 12:22 29.12.2019
5584 Rain 1 1023 74 10000 7.7 350 12:22 29.12.2019
5585 Clouds 1 1023 74 10000 4.1 0 11:43 29.12.2019
5586 Clouds 1 1023 74 10000 4.1 0 11:23 29.12.2019
5587 Clouds 1 1023 80 10000 3.1 0 10:59 29.12.2019
5588 Clouds 1 1023 80 10000 5.7 330 10:40 29.12.2019
5589 Clouds 1 1023 80 10000 5.7 330 10:18 29.12.2019
5590 Clouds 1 1024 80 10000 4.6 320 09:47 29.12.2019
5591 Clouds 1 1023 80 10000 5.7 320 09:28 29.12.2019
5592 Clouds 1 1023 80 10000 5.7 320 09:28 29.12.2019
5593 Clouds 1 1023 74 10000 6.2 330 08:59 29.12.2019
5594 Clouds 1 1023 74 10000 7.2 330 08:40 29.12.2019
5595 Clouds 1 1023 74 10000 7.2 330 08:40 29.12.2019
5596 Clouds 1 1023 74 10000 7.2 330 08:21 29.12.2019
5597 Clouds 1 1022 80 10000 4.6 300 07:44 29.12.2019
5598 Clouds 1 1022 80 10000 4.6 300 07:25 29.12.2019
5599 Clouds 1 1022 74 10000 5.1 320 06:38 29.12.2019
5600 Clouds 1 1022 74 10000 5.1 320 06:18 29.12.2019
5601 Clouds 0 1022 86 10000 4.1 310 05:44 29.12.2019
5602 Clouds 1 1022 80 10000 7.2 340 04:32 29.12.2019
5603 Clouds 1 1022 74 10000 6.7 340 03:36 29.12.2019
5604 Clouds 1 1022 80 10000 5.7 350 02:30 29.12.2019
5605 Clouds 1 1022 80 10000 5.7 350 02:30 29.12.2019
5606 Clouds 1 1022 80 10000 6.7 350 01:52 29.12.2019
5607 Clouds 1 1022 80 10000 5.1 340 01:29 29.12.2019
5608 Clouds 1 1022 80 10000 5.1 340 01:29 29.12.2019
5609 Clouds 1 1022 86 10000 5.1 340 00:45 29.12.2019
5610 Clouds 1 1022 86 10000 5.1 340 00:45 29.12.2019
5611 Clouds 1 1022 86 10000 3.1 330 00:25 29.12.2019
5612 Clouds 1 1022 86 10000 3.1 330 00:25 29.12.2019
5613 Clouds 1 1022 86 10000 0.5 0 23:55 28.12.2019
5614 Clouds 1 1022 80 10000 1.5 330 23:37 28.12.2019
5615 Clouds 1 1022 80 10000 1.5 330 23:18 28.12.2019
5616 Clouds 0 1022 65 10000 1.5 360 22:37 28.12.2019
5617 Clouds 0 1022 65 10000 1.5 360 22:18 28.12.2019
5618 Clouds 0 1021 86 10000 2.6 320 21:56 28.12.2019
5619 Clouds 0 1021 86 10000 2.6 320 21:56 28.12.2019
5620 Clouds 0 1021 65 10000 1 290 21:37 28.12.2019
5621 Clouds 0 1021 65 10000 1 290 21:19 28.12.2019
5622 Clouds -1 1021 86 10000 1.5 300 20:42 28.12.2019
5623 Clouds -1 1021 86 10000 1.5 300 20:23 28.12.2019
5624 Clouds 0 1021 62 10000 2.6 350 19:59 28.12.2019
5625 Clouds 0 1021 62 10000 1 0 19:41 28.12.2019
5626 Clouds 0 1021 62 10000 1 0 19:23 28.12.2019
5627 Clouds 0 1021 86 10000 2.1 350 18:59 28.12.2019
5628 Clouds 0 1020 62 10000 2.1 360 18:40 28.12.2019
5629 Clouds 0 1020 62 10000 2.1 360 18:20 28.12.2019
5630 Clouds 1 1020 80 10000 2.6 350 17:57 28.12.2019
5631 Clouds 1 1020 80 10000 3.1 360 17:38 28.12.2019
5632 Clouds 2 1019 80 10000 2.1 350 17:19 28.12.2019
5633 Clouds 3 1019 74 10000 3.1 320 16:47 28.12.2019
5634 Clouds 3 1019 74 10000 3.1 320 16:26 28.12.2019
5635 Clouds 3 1019 69 10000 4.1 300 15:57 28.12.2019
5636 Clouds 4 1019 60 10000 3.6 300 15:39 28.12.2019
5637 Clouds 4 1019 60 10000 3.6 300 15:19 28.12.2019
5638 Clouds 5 1019 60 10000 4.6 340 14:44 28.12.2019
5639 Clouds 5 1019 60 10000 4.6 340 14:24 28.12.2019
5640 Clouds 5 1019 60 10000 4.6 340 14:24 28.12.2019
5641 Clouds 5 1019 56 10000 4.1 310 13:57 28.12.2019
5642 Clouds 5 1018 60 10000 5.1 320 13:38 28.12.2019
5643 Clouds 5 1018 60 10000 5.1 320 13:19 28.12.2019
5644 Clouds 5 1019 60 10000 2.1 20 12:43 28.12.2019
5645 Clouds 5 1019 60 10000 2.1 20 12:24 28.12.2019
5646 Clouds 5 1019 65 10000 4.6 330 11:57 28.12.2019
5647 Clouds 5 1019 60 10000 3.6 360 11:38 28.12.2019
5648 Clouds 5 1019 60 10000 3.6 360 11:20 28.12.2019
5649 Clouds 4 1019 64 10000 2.1 330 10:44 28.12.2019
5650 Clouds 4 1019 64 10000 2.1 330 10:22 28.12.2019
5651 Clouds 3 1019 74 10000 2.1 0 09:58 28.12.2019
5652 Clouds 2 1019 80 10000 2.6 260 09:40 28.12.2019
5653 Clouds 2 1019 80 10000 2.6 260 09:20 28.12.2019
5654 Clouds 1 1019 80 10000 0.5 0 08:44 28.12.2019
5655 Clouds 1 1019 80 10000 0.5 0 08:26 28.12.2019
5656 Clouds 1 1019 80 10000 1 0 07:53 28.12.2019
5657 Clouds 0 1018 80 10000 2.6 270 07:31 28.12.2019
5658 Clouds 0 1018 80 10000 3.1 260 06:41 28.12.2019
5659 Clouds 0 1018 76 10000 0.5 0 04:51 28.12.2019
5660 Clouds 0 1018 76 10000 6.56 326 03:47 28.12.2019
5661 Clouds 0 1018 76 10000 1.5 250 02:48 28.12.2019
5662 Clouds 0 1017 75 10000 1 0 01:59 28.12.2019
5663 Clouds 1 1017 86 10000 2.1 250 01:30 28.12.2019
5664 Clouds 1 1017 80 10000 3.6 260 00:55 28.12.2019
5665 Clouds 1 1017 86 10000 4.1 270 00:37 28.12.2019
5666 Clouds 1 1017 86 10000 4.1 270 00:19 28.12.2019
5667 Clouds 2 1017 80 10000 4.1 270 23:43 27.12.2019
5668 Clouds 2 1017 80 10000 4.1 270 23:20 27.12.2019
5669 Clouds 2 1018 72 10000 4.6 320 22:57 27.12.2019
5670 Clouds 2 1018 72 10000 5.7 280 22:38 27.12.2019
5671 Clouds 2 1018 72 10000 5.7 280 22:20 27.12.2019
5672 Clouds 3 1018 72 10000 4.1 260 21:55 27.12.2019
5673 Clouds 3 1018 72 10000 3.1 240 21:36 27.12.2019
5674 Clouds 3 1018 72 10000 3.1 240 21:18 27.12.2019
5675 Clouds 3 1017 72 10000 2.6 250 20:41 27.12.2019
5676 Rain 3 1017 63 10000 2.6 250 20:22 27.12.2019
5677 Clouds 3 1017 65 10000 1.5 320 19:42 27.12.2019
5678 Clouds 3 1017 65 10000 1.5 320 19:21 27.12.2019
5679 Clouds 3 1017 80 10000 1.5 310 18:59 27.12.2019
5680 Clouds 3 1017 65 10000 2.1 330 18:39 27.12.2019
5681 Clouds 4 1017 65 10000 2.1 330 18:20 27.12.2019
5682 Clouds 4 1017 86 10000 3.1 330 17:57 27.12.2019
5683 Clouds 4 1017 65 10000 2.6 300 17:39 27.12.2019
5684 Clouds 3 1017 57 10000 2.6 300 17:19 27.12.2019
5685 Clouds 3 1017 86 10000 2.1 320 16:58 27.12.2019
5686 Clouds 4 1017 75 10000 1.5 300 16:38 27.12.2019
5687 Clouds 4 1017 75 10000 1.5 300 16:19 27.12.2019
5688 Clouds 4 1017 75 10000 1.5 300 16:19 27.12.2019
5689 Clouds 5 1016 70 10000 3.6 280 15:43 27.12.2019
5690 Clouds 6 1016 70 10000 3.6 280 15:20 27.12.2019
5691 Clouds 8 1016 61 10000 5.1 270 14:57 27.12.2019
5692 Clouds 7 1016 65 10000 4.1 290 14:39 27.12.2019
5693 Clouds 8 1016 65 10000 4.1 290 14:20 27.12.2019
5694 Clouds 7 1016 65 10000 6.2 290 13:48 27.12.2019
5695 Clouds 7 1016 65 10000 5.7 270 13:25 27.12.2019
5696 Clouds 7 1016 65 10000 3.1 290 12:58 27.12.2019
5697 Clouds 6 1016 63 10000 4.6 280 12:39 27.12.2019
5698 Clouds 6 1016 63 10000 4.6 280 12:21 27.12.2019
5699 Clouds 6 1017 70 10000 2.6 270 11:43 27.12.2019
5700 Clouds 6 1017 70 10000 2.6 270 11:23 27.12.2019
5701 Clouds 5 1017 73 10000 4.6 280 10:55 27.12.2019
5702 Clouds 5 1017 73 10000 4.6 280 10:36 27.12.2019
5703 Clouds 5 1017 73 10000 4.6 280 10:18 27.12.2019
5704 Clouds 5 1017 73 10000 4.6 280 09:40 27.12.2019
5705 Clouds 5 1017 73 10000 4.6 280 09:21 27.12.2019
5706 Clouds 4 1017 73 10000 4.6 290 08:54 27.12.2019
5707 Clouds 4 1017 80 10000 5.7 300 08:34 27.12.2019
5708 Clouds 3 1017 80 10000 5.7 280 07:49 27.12.2019
5709 Clouds 3 1017 80 10000 5.7 260 07:28 27.12.2019
5710 Clouds 4 1017 80 10000 4.6 270 06:36 27.12.2019
5711 Clouds 4 1017 80 10000 5.1 280 04:58 27.12.2019
5712 Clouds 4 1017 80 10000 3.6 260 02:53 27.12.2019
5713 Clear 4 1016 75 10000 3.1 210 01:59 27.12.2019
5714 Clear 4 1016 75 10000 2.1 180 01:24 27.12.2019
5715 Clear 4 1016 75 10000 1 0 00:53 27.12.2019
5716 Clear 4 1016 80 10000 1 0 00:34 27.12.2019
5717 Clear 4 1016 80 10000 1 0 23:59 26.12.2019
5718 Clear 4 1016 80 10000 1 0 23:40 26.12.2019
5719 Clear 4 1016 80 10000 1 0 23:21 26.12.2019
5720 Clear 4 1016 80 10000 3.1 290 22:43 26.12.2019
5721 Clear 4 1016 80 10000 3.1 290 22:21 26.12.2019
5722 Clear 4 1016 86 10000 2.6 270 21:56 26.12.2019
5723 Clear 4 1016 65 10000 2.6 260 21:37 26.12.2019
5724 Clear 4 1016 65 10000 2.6 260 21:19 26.12.2019
5725 Clear 4 1016 65 10000 3.6 290 20:45 26.12.2019
5726 Clear 4 1016 65 10000 3.6 290 20:45 26.12.2019
5727 Clouds 4 1016 63 10000 3.6 290 20:22 26.12.2019
5728 Clouds 3 1016 61 10000 3.6 290 19:58 26.12.2019
5729 Clouds 3 1015 61 10000 3.6 310 19:39 26.12.2019
5730 Clouds 3 1015 61 10000 3.6 310 19:20 26.12.2019
5731 Clouds 3 1015 61 10000 3.1 300 18:57 26.12.2019
5732 Clouds 3 1015 80 10000 3.1 300 18:37 26.12.2019
5733 Clouds 3 1015 80 10000 3.1 300 18:19 26.12.2019
5734 Clouds 3 1015 80 10000 2.1 280 17:42 26.12.2019
5735 Clouds 3 1015 80 10000 2.1 280 17:22 26.12.2019
5736 Clouds 4 1014 70 10000 2.6 280 16:54 26.12.2019
5737 Clouds 5 1014 70 10000 3.1 280 16:36 26.12.2019
5738 Clouds 5 1014 70 10000 3.1 280 16:36 26.12.2019
5739 Clouds 4 1014 70 10000 3.1 280 16:18 26.12.2019
5740 Clouds 5 1014 65 10000 4.1 300 15:41 26.12.2019
5741 Clouds 5 1014 65 10000 4.1 300 15:19 26.12.2019
5742 Clouds 6 1013 65 10000 3.6 310 14:43 26.12.2019
5743 Clouds 6 1013 59 10000 3.6 310 14:24 26.12.2019
5744 Clouds 6 1013 59 10000 3.6 310 14:24 26.12.2019
5745 Clouds 6 1013 65 10000 3.6 310 14:24 26.12.2019
5746 Clouds 6 1013 59 10000 3.6 310 14:24 26.12.2019
5747 Clouds 6 1013 65 10000 4.6 310 13:58 26.12.2019
5748 Clouds 7 1013 65 10000 3.6 310 13:40 26.12.2019
5749 Clouds 7 1013 65 10000 3.6 310 13:18 26.12.2019
5750 Clouds 7 1013 60 10000 4.6 320 12:56 26.12.2019
5751 Clouds 7 1013 60 10000 5.7 340 12:36 26.12.2019
5752 Clouds 7 1013 60 10000 5.7 340 12:18 26.12.2019
5753 Clouds 6 1013 60 10000 4.6 330 11:42 26.12.2019
5754 Clouds 6 1013 60 10000 4.6 330 11:42 26.12.2019
5755 Clouds 6 1013 60 10000 4.6 330 11:23 26.12.2019
5756 Clouds 6 1013 63 10000 4.6 350 10:54 26.12.2019
5757 Clouds 6 1013 63 10000 3.6 340 10:36 26.12.2019
5758 Clouds 6 1013 63 10000 3.6 340 10:18 26.12.2019
5759 Clouds 5 1013 75 10000 4.1 300 09:42 26.12.2019
5760 Clouds 5 1013 75 10000 4.1 300 09:24 26.12.2019
5761 Clouds 5 1012 70 10000 4.1 310 08:40 26.12.2019
5762 Clouds 5 1012 70 10000 4.1 310 08:21 26.12.2019
5763 Clouds 4 1012 75 10000 3.6 330 07:46 26.12.2019
5764 Clouds 4 1012 75 10000 3.6 330 07:26 26.12.2019
5765 Clouds 5 1011 70 10000 4.1 310 06:39 26.12.2019
5766 Clouds 4 1011 70 10000 4.1 310 06:20 26.12.2019
5767 Clouds 5 1010 75 10000 3.6 280 05:43 26.12.2019
5768 Clouds 5 1010 75 10000 3.6 280 05:43 26.12.2019
5769 Clouds 5 1010 75 10000 3.1 290 04:36 26.12.2019
5770 Clouds 4 1010 87 10000 3.6 260 03:32 26.12.2019
5771 Clouds 4 1010 87 10000 3.6 270 02:47 26.12.2019
5772 Clouds 5 1010 87 10000 4.6 250 02:29 26.12.2019
5773 Clouds 5 1010 87 10000 2.1 0 01:44 26.12.2019
5774 Clouds 5 1010 87 10000 2.1 0 01:25 26.12.2019
5775 Clouds 5 1009 81 10000 3.6 260 00:44 26.12.2019
5776 Clouds 5 1009 81 10000 3.6 260 00:23 26.12.2019
5777 Clouds 5 1009 87 10000 2.1 270 23:57 25.12.2019
5778 Clouds 5 1009 87 10000 2.1 270 23:37 25.12.2019
5779 Clouds 5 1009 87 10000 1 0 23:19 25.12.2019
5780 Clouds 5 1009 87 10000 1 0 22:56 25.12.2019
5781 Clouds 5 1009 87 10000 2.6 260 22:37 25.12.2019
5782 Clouds 6 1009 87 10000 2.6 260 22:18 25.12.2019
5783 Clouds 6 1009 87 10000 2.6 260 22:18 25.12.2019
5784 Clouds 5 1009 87 10000 2.1 230 21:55 25.12.2019
5785 Clouds 5 1009 87 10000 2.1 230 21:55 25.12.2019
5786 Clouds 5 1009 87 10000 2.6 250 21:37 25.12.2019
5787 Clouds 5 1009 87 10000 2.6 250 21:18 25.12.2019
5788 Clouds 5 1009 93 10000 7.66 313 20:40 25.12.2019
5789 Clouds 5 1009 93 10000 7.1 316 20:21 25.12.2019
5790 Clouds 5 1008 93 10000 1.5 280 19:59 25.12.2019
5791 Clouds 5 1008 87 10000 3.1 260 19:40 25.12.2019
5792 Clouds 5 1008 87 10000 3.1 260 19:21 25.12.2019
5793 Clouds 5 1008 87 10000 2.6 270 18:40 25.12.2019
5794 Clouds 5 1008 87 10000 2.6 270 18:20 25.12.2019
5795 Clouds 6 1007 81 10000 3.1 280 17:57 25.12.2019
5796 Clouds 5 1007 87 10000 3.6 280 17:39 25.12.2019
5797 Clouds 6 1007 81 10000 3.1 280 17:18 25.12.2019
5798 Clouds 6 1007 87 10000 3.6 280 16:39 25.12.2019
5799 Clouds 6 1007 87 10000 3.6 280 16:20 25.12.2019
5800 Clouds 6 1007 87 10000 3.6 270 15:59 25.12.2019
5801 Clouds 6 1007 87 10000 4.6 260 15:40 25.12.2019
5802 Clouds 6 1007 87 10000 4.6 260 15:21 25.12.2019
5803 Clouds 6 1007 87 10000 5.1 260 14:59 25.12.2019
5804 Rain 7 1007 87 10000 5.1 260 14:40 25.12.2019
5805 Rain 6 1007 87 10000 5.1 260 14:22 25.12.2019
5806 Rain 6 1007 87 10000 5.1 260 13:57 25.12.2019
5807 Rain 6 1007 87 10000 5.7 270 13:39 25.12.2019
5808 Rain 6 1007 87 10000 5.7 270 13:19 25.12.2019
5809 Rain 6 1007 87 10000 5.7 270 12:42 25.12.2019
5810 Rain 6 1007 87 10000 5.7 270 12:21 25.12.2019
5811 Rain 6 1007 87 10000 5.7 270 11:57 25.12.2019
5812 Rain 6 1007 93 10000 4.1 280 11:39 25.12.2019
5813 Rain 6 1007 93 10000 4.1 280 11:18 25.12.2019
5814 Rain 6 1007 93 10000 5.1 280 10:38 25.12.2019
5815 Rain 6 1007 93 10000 5.1 280 10:20 25.12.2019
5816 Rain 6 1007 87 10000 6.2 280 09:51 25.12.2019
5817 Rain 6 1007 87 10000 7.2 280 09:32 25.12.2019
5818 Rain 6 1007 87 10000 6.2 280 08:51 25.12.2019
5819 Rain 6 1007 87 10000 6.2 280 08:51 25.12.2019
5820 Rain 5 1006 100 10000 4.6 270 08:31 25.12.2019
5821 Rain 5 1006 100 10000 5.7 280 07:52 25.12.2019
5822 Rain 5 1006 100 10000 5.1 280 07:34 25.12.2019
5823 Rain 5 1006 87 10000 4.6 290 06:52 25.12.2019
5824 Rain 5 1006 100 10000 4.1 290 06:23 25.12.2019
5825 Rain 5 1006 93 10000 5.1 290 05:18 25.12.2019
5826 Rain 5 1005 93 10000 5.1 290 04:39 25.12.2019
5827 Rain 5 1005 93 10000 5.1 290 04:20 25.12.2019
5828 Rain 5 1005 93 10000 5.1 280 03:42 25.12.2019
5829 Rain 5 1005 93 10000 5.7 270 02:54 25.12.2019
5830 Rain 5 1005 93 10000 6.2 270 02:27 25.12.2019
5831 Rain 6 1005 100 10000 6.2 270 01:25 25.12.2019
5832 Rain 6 1005 100 10000 5.7 270 00:54 25.12.2019
5833 Rain 6 1005 100 10000 5.7 270 00:54 25.12.2019
5834 Rain 6 1005 87 10000 6.2 270 00:32 25.12.2019
5835 Rain 6 1005 87 10000 6.2 280 23:57 24.12.2019
5836 Rain 7 1005 87 10000 6.2 270 23:38 24.12.2019
5837 Rain 6 1005 87 10000 6.2 270 23:20 24.12.2019
5838 Clouds 7 1005 93 10000 7.7 260 22:41 24.12.2019
5839 Clouds 6 1005 93 10000 7.7 260 22:21 24.12.2019
5840 Clouds 7 1004 93 10000 7.2 260 21:44 24.12.2019
5841 Clouds 7 1004 93 10000 7.2 260 21:23 24.12.2019
5842 Rain 7 1004 81 10000 5.7 270 20:57 24.12.2019
5843 Clouds 7 1004 81 10000 5.1 270 20:39 24.12.2019
5844 Clouds 7 1004 81 10000 5.1 270 20:19 24.12.2019
5845 Rain 7 1004 87 10000 6.2 280 19:44 24.12.2019
5846 Rain 7 1004 87 10000 6.2 280 19:20 24.12.2019
5847 Clouds 8 1003 81 10000 7.7 290 18:44 24.12.2019
5848 Clouds 8 1003 81 10000 7.7 290 18:44 24.12.2019
5849 Clouds 8 1003 81 10000 7.7 290 18:25 24.12.2019
5850 Clouds 8 1003 76 10000 7.2 300 17:59 24.12.2019
5851 Clouds 8 1002 76 10000 6.2 290 17:38 24.12.2019
5852 Clouds 8 1002 76 10000 6.2 290 17:20 24.12.2019
5853 Clouds 8 1002 76 10000 5.7 270 16:55 24.12.2019
5854 Clouds 8 1002 76 10000 7.2 280 16:37 24.12.2019
5855 Clouds 8 1002 76 10000 7.2 280 16:19 24.12.2019
5856 Clouds 8 1002 76 10000 6.7 270 15:55 24.12.2019
5857 Clouds 9 1001 71 10000 6.2 280 15:36 24.12.2019
5858 Clouds 9 1001 71 10000 6.2 280 15:18 24.12.2019
5859 Clouds 10 1001 71 10000 7.2 280 14:55 24.12.2019
5860 Clouds 9 1001 66 10000 8.7 280 14:36 24.12.2019
5861 Clouds 10 1001 66 10000 8.7 280 14:18 24.12.2019
5862 Clouds 10 1001 66 10000 8.2 280 13:55 24.12.2019
5863 Clouds 10 1000 66 10000 7.7 280 13:37 24.12.2019
5864 Clouds 10 1000 66 10000 7.7 280 13:18 24.12.2019
5865 Clouds 10 1000 71 10000 7.7 280 12:55 24.12.2019
5866 Clouds 9 1000 70 10000 7.7 270 12:36 24.12.2019
5867 Clouds 9 1000 70 10000 7.7 270 12:18 24.12.2019
5868 Clouds 10 1000 71 10000 6.7 280 11:54 24.12.2019
5869 Clouds 9 1000 70 10000 6.2 280 11:36 24.12.2019
5870 Clouds 9 1000 70 10000 6.2 280 11:36 24.12.2019
5871 Clouds 9 1000 70 10000 6.2 280 11:18 24.12.2019
5872 Clouds 9 1000 71 10000 5.7 290 10:55 24.12.2019
5873 Clouds 9 1000 66 10000 8.2 280 10:36 24.12.2019
5874 Clouds 9 1000 66 10000 8.2 280 10:18 24.12.2019
5875 Clouds 8 1000 70 10000 6.7 280 09:54 24.12.2019
5876 Clouds 9 1000 66 10000 7.2 280 09:36 24.12.2019
5877 Clouds 9 1000 66 10000 7.2 280 09:18 24.12.2019
5878 Clouds 8 1000 70 10000 6.2 280 08:42 24.12.2019
5879 Clouds 8 1000 70 10000 6.2 280 08:19 24.12.2019
5880 Clouds 7 999 75 10000 4.1 260 07:45 24.12.2019
5881 Clouds 6 999 75 10000 4.1 260 07:22 24.12.2019
5882 Clouds 6 999 81 10000 5.7 280 06:41 24.12.2019
5883 Clouds 6 999 81 10000 5.7 280 06:22 24.12.2019
5884 Clouds 7 998 70 10000 3.6 280 05:56 24.12.2019
5885 Clouds 7 998 70 10000 3.6 280 05:56 24.12.2019
5886 Clouds 6 998 81 10000 4.1 260 05:20 24.12.2019
5887 Clouds 7 997 75 10000 3.6 280 04:22 24.12.2019
5888 Clouds 7 997 70 10000 3.1 290 03:50 24.12.2019
5889 Clouds 7 997 75 10000 4.1 290 02:37 24.12.2019
5890 Rain 7 997 75 10000 4.1 290 02:18 24.12.2019
5891 Clouds 7 996 75 10000 4.6 270 01:42 24.12.2019
5892 Clouds 7 996 75 10000 4.6 270 01:42 24.12.2019
5893 Clouds 7 996 75 10000 4.6 270 01:19 24.12.2019
5894 Rain 8 996 81 10000 4.6 260 00:40 24.12.2019
5895 Rain 8 996 81 10000 4.6 260 00:20 24.12.2019
5896 Clouds 8 996 76 10000 5.7 270 23:43 23.12.2019
5897 Clouds 8 996 76 10000 5.7 270 23:24 23.12.2019
5898 Clouds 9 995 66 10000 5.1 270 22:58 23.12.2019
5899 Clouds 8 995 76 10000 4.6 270 22:38 23.12.2019
5900 Clouds 8 995 76 10000 4.6 270 22:20 23.12.2019
5901 Clouds 8 995 76 10000 5.1 270 21:57 23.12.2019
5902 Clouds 8 995 76 10000 6.2 280 21:37 23.12.2019
5903 Clouds 8 995 76 10000 6.2 280 21:19 23.12.2019
5904 Clouds 8 995 76 10000 6.2 280 20:59 23.12.2019
5905 Clouds 9 995 81 10000 6.7 270 20:41 23.12.2019
5906 Clouds 9 995 81 10000 6.7 270 20:19 23.12.2019
5907 Clouds 9 995 81 10000 6.7 270 20:19 23.12.2019
5908 Rain 9 994 87 10000 5.7 270 19:59 23.12.2019
5909 Rain 10 994 76 10000 4.6 300 19:40 23.12.2019
5910 Rain 10 994 76 10000 4.6 300 19:21 23.12.2019
5911 Clouds 11 994 76 10000 4.1 260 18:58 23.12.2019
5912 Clouds 11 994 76 10000 4.1 260 18:58 23.12.2019
5913 Clouds 11 993 76 10000 5.1 330 18:39 23.12.2019
5914 Clouds 11 993 76 10000 5.1 330 18:21 23.12.2019
5915 Clouds 11 993 76 10000 4.6 330 17:59 23.12.2019
5916 Clouds 11 993 71 10000 4.6 330 17:40 23.12.2019
5917 Clouds 12 993 71 10000 4.6 330 17:19 23.12.2019
5918 Clouds 12 992 82 10000 2.1 290 16:57 23.12.2019
5919 Clouds 12 992 87 10000 2.1 110 16:39 23.12.2019
5920 Clouds 12 992 87 10000 2.1 110 16:19 23.12.2019
5921 Clouds 12 992 87 10000 2.1 110 16:19 23.12.2019
5922 Clouds 12 992 87 10000 2.1 110 16:19 23.12.2019
5923 Rain 13 992 76 10000 2.6 130 15:57 23.12.2019
5924 Clouds 13 991 76 10000 2.6 130 15:37 23.12.2019
5925 Clouds 14 991 76 10000 2.6 130 15:19 23.12.2019
5926 Clouds 15 991 72 10000 3.1 140 14:56 23.12.2019
5927 Clouds 15 991 72 10000 3.1 140 14:56 23.12.2019
5928 Clouds 15 991 72 10000 3.1 140 14:56 23.12.2019
5929 Clouds 15 991 63 10000 2.6 130 14:37 23.12.2019
5930 Clouds 15 991 63 10000 2.6 130 14:18 23.12.2019
5931 Clouds 15 991 67 10000 4.1 120 13:55 23.12.2019
5932 Clouds 15 991 67 10000 3.1 120 13:37 23.12.2019
5933 Clouds 14 991 67 10000 3.1 120 13:19 23.12.2019
5934 Clouds 14 991 67 10000 1.5 220 12:41 23.12.2019
5935 Clouds 13 991 67 10000 1.5 220 12:21 23.12.2019
5936 Clouds 13 992 67 10000 3.1 210 11:59 23.12.2019
5937 Clouds 14 992 67 10000 4.1 210 11:41 23.12.2019
5938 Clouds 14 992 67 10000 4.1 210 11:22 23.12.2019
5939 Clouds 14 992 67 10000 3.6 200 10:55 23.12.2019
5940 Clouds 13 992 71 10000 3.1 190 10:37 23.12.2019
5941 Clouds 13 992 71 10000 3.1 190 10:18 23.12.2019
5942 Clouds 13 992 71 10000 2.1 170 09:54 23.12.2019
5943 Clouds 12 993 76 10000 3.1 160 09:36 23.12.2019
5944 Clouds 12 993 76 10000 3.1 160 09:18 23.12.2019
5945 Clouds 12 992 76 10000 2.1 180 08:41 23.12.2019
5946 Clouds 12 992 76 10000 2.1 180 08:22 23.12.2019
5947 Clouds 11 992 71 10000 2.6 180 07:49 23.12.2019
5948 Clouds 11 992 71 10000 2.1 190 07:22 23.12.2019
5949 Clouds 12 992 71 10000 4.1 160 06:57 23.12.2019
5950 Clouds 13 992 71 10000 5.7 190 06:30 23.12.2019
5951 Clouds 13 992 71 10000 6.7 170 05:56 23.12.2019
5952 Clouds 13 992 71 10000 5.1 180 05:30 23.12.2019
5953 Rain 13 992 71 10000 4.6 150 04:39 23.12.2019
5954 Clouds 13 993 71 10000 3.6 160 03:28 23.12.2019
5955 Clouds 13 994 76 10000 5.7 140 02:43 23.12.2019
5956 Clouds 13 994 76 10000 5.7 140 02:19 23.12.2019
5957 Clouds 13 995 71 10000 4.1 150 01:44 23.12.2019
5958 Clouds 13 995 71 10000 4.1 150 01:26 23.12.2019
5959 Clouds 13 995 71 10000 5.1 160 00:45 23.12.2019
5960 Rain 13 995 76 10000 8.2 180 00:24 23.12.2019
5961 Rain 13 995 76 10000 8.2 180 00:24 23.12.2019
5962 Clouds 15 996 63 10000 7.7 180 23:40 22.12.2019
5963 Clouds 15 996 63 10000 7.7 180 23:22 22.12.2019
5964 Clouds 16 996 55 10000 6.7 180 22:58 22.12.2019
5965 Clouds 16 996 59 10000 4.1 180 22:40 22.12.2019
5966 Clouds 15 996 59 10000 4.1 180 22:22 22.12.2019
5967 Clouds 16 997 59 10000 6.7 190 21:58 22.12.2019
5968 Clouds 16 997 55 10000 7.2 190 21:40 22.12.2019
5969 Clouds 17 997 55 10000 7.2 190 21:21 22.12.2019
5970 Clouds 16 997 63 10000 6.2 200 20:58 22.12.2019
5971 Clouds 16 998 63 10000 7.2 210 20:39 22.12.2019
5972 Clouds 16 998 63 10000 7.2 210 20:19 22.12.2019
5973 Clouds 16 998 63 10000 8.2 200 19:56 22.12.2019
5974 Clouds 16 998 67 10000 9.3 210 19:37 22.12.2019
5975 Clouds 16 998 67 10000 9.3 210 19:19 22.12.2019
5976 Clouds 17 998 63 10000 5.7 210 18:41 22.12.2019
5977 Clouds 17 998 63 10000 5.7 210 18:23 22.12.2019
5978 Clouds 16 998 63 10000 5.1 200 17:56 22.12.2019
5979 Clouds 16 998 67 10000 5.7 210 17:37 22.12.2019
5980 Clouds 16 998 67 10000 5.7 210 17:19 22.12.2019
5981 Clouds 16 998 67 10000 5.7 210 17:19 22.12.2019
5982 Clouds 16 998 59 10000 4.1 220 16:57 22.12.2019
5983 Clouds 17 998 59 10000 6.2 200 16:38 22.12.2019
5984 Clouds 17 998 59 10000 6.2 200 16:19 22.12.2019
5985 Clouds 17 998 63 10000 7.7 190 15:56 22.12.2019
5986 Clouds 17 999 59 10000 5.7 200 15:37 22.12.2019
5987 Clouds 17 999 59 10000 5.7 200 15:37 22.12.2019
5988 Clouds 17 999 59 10000 5.7 200 15:19 22.12.2019
5989 Clouds 17 999 52 10000 6.7 200 14:55 22.12.2019
5990 Clouds 18 999 52 10000 5.7 210 14:36 22.12.2019
5991 Clouds 18 999 52 10000 5.7 210 14:18 22.12.2019
5992 Clouds 18 999 55 10000 5.7 230 13:55 22.12.2019
5993 Clouds 18 999 55 10000 7.2 240 13:36 22.12.2019
5994 Clouds 18 999 55 10000 7.2 240 13:18 22.12.2019
5995 Clouds 18 999 55 10000 7.2 240 13:18 22.12.2019
5996 Clouds 19 1000 55 10000 7.2 240 12:55 22.12.2019
5997 Clouds 18 1000 55 10000 6.2 220 12:37 22.12.2019
5998 Clouds 18 1000 55 10000 6.2 220 12:18 22.12.2019
5999 Clouds 18 1001 55 10000 7.2 220 11:39 22.12.2019
6000 Clouds 18 1001 55 10000 7.2 220 11:21 22.12.2019
6001 Clear 18 1001 55 10000 7.2 210 10:59 22.12.2019
6002 Clear 18 1002 55 10000 5.1 230 10:40 22.12.2019
6003 Clear 17 1002 55 10000 5.1 230 10:21 22.12.2019
6004 Clear 17 1002 59 10000 3.6 260 09:59 22.12.2019
6005 Clear 16 1002 63 10000 2.6 290 09:40 22.12.2019
6006 Clear 16 1002 63 10000 2.6 290 09:21 22.12.2019
6007 Clear 15 1002 67 10000 2.6 330 08:59 22.12.2019
6008 Clear 15 1003 67 10000 2.6 290 08:37 22.12.2019
6009 Clouds 14 1003 67 10000 2.6 290 08:18 22.12.2019
6010 Clouds 12 1003 76 10000 2.6 330 07:38 22.12.2019
6011 Clouds 12 1003 76 10000 2.6 330 07:19 22.12.2019
6012 Clouds 12 1002 71 10000 2.6 310 06:40 22.12.2019
6013 Clouds 12 1002 76 10000 2.6 350 05:53 22.12.2019
6014 Clouds 13 1003 71 10000 2.6 10 05:21 22.12.2019
6015 Clouds 13 1003 76 10000 3.6 330 04:28 22.12.2019
6016 Clouds 13 1004 76 10000 3.6 280 03:45 22.12.2019
6017 Clouds 14 1004 71 10000 2.6 270 02:38 22.12.2019
6018 Clouds 14 1004 71 10000 2.6 270 02:38 22.12.2019
6019 Clouds 14 1004 67 10000 3.1 280 01:37 22.12.2019
6020 Clouds 14 1004 67 10000 3.1 280 01:18 22.12.2019
6021 Clouds 13 1004 67 10000 5.1 300 00:45 22.12.2019
6022 Clouds 13 1004 67 10000 5.1 300 00:21 22.12.2019
6023 Clouds 13 1004 71 10000 6.7 230 23:42 21.12.2019
6024 Clouds 13 1004 71 10000 6.7 230 23:24 21.12.2019
6025 Clouds 13 1004 71 10000 6.2 230 22:59 21.12.2019
6026 Clouds 13 1005 71 10000 3.1 220 22:40 21.12.2019
6027 Clouds 13 1005 71 10000 3.1 220 22:19 21.12.2019
6028 Clouds 13 1005 71 10000 2.1 130 21:56 21.12.2019
6029 Clouds 12 1005 82 10000 2.6 170 21:37 21.12.2019
6030 Clouds 12 1005 82 10000 2.6 170 21:19 21.12.2019
6031 Clouds 13 1005 82 10000 3.1 160 20:57 21.12.2019
6032 Clouds 13 1006 82 10000 2.6 180 20:38 21.12.2019
6033 Clouds 13 1006 82 10000 2.6 180 20:20 21.12.2019
6034 Clouds 13 1006 76 10000 3.6 190 19:57 21.12.2019
6035 Clouds 13 1006 76 10000 3.6 190 19:57 21.12.2019
6036 Clouds 13 1006 76 10000 3.6 190 19:57 21.12.2019
6037 Clouds 13 1007 76 10000 4.1 200 19:39 21.12.2019
6038 Clouds 13 1007 76 10000 4.1 200 19:19 21.12.2019
6039 Clouds 13 1007 76 10000 1.5 180 18:42 21.12.2019
6040 Clouds 13 1007 76 10000 1.5 180 18:23 21.12.2019
6041 Clouds 12 1007 81 10000 2.1 200 17:57 21.12.2019
6042 Clouds 12 1007 76 10000 1 0 17:39 21.12.2019
6043 Clouds 11 1007 76 10000 1 0 17:20 21.12.2019
6044 Clouds 11 1007 76 10000 2.1 80 16:57 21.12.2019
6045 Clouds 11 1007 76 10000 2.1 80 16:57 21.12.2019
6046 Clouds 12 1008 71 10000 0.5 0 16:39 21.12.2019
6047 Clouds 12 1008 71 10000 0.5 0 16:18 21.12.2019
6048 Clouds 12 1008 76 10000 4.56 200 15:56 21.12.2019
6049 Clouds 13 1008 67 10000 4.56 200 15:37 21.12.2019
6050 Clouds 13 1008 67 10000 4.56 200 15:18 21.12.2019
6051 Clouds 13 1008 67 10000 2.1 320 14:43 21.12.2019
6052 Clouds 13 1008 67 10000 2.1 320 14:24 21.12.2019
6053 Clouds 14 1009 62 10000 2.1 280 13:58 21.12.2019
6054 Clouds 15 1009 62 10000 2.6 260 13:40 21.12.2019
6055 Clouds 15 1009 62 10000 2.6 260 13:20 21.12.2019
6056 Clouds 15 1009 62 10000 2.6 260 13:20 21.12.2019
6057 Clouds 15 1009 67 10000 2.6 260 12:57 21.12.2019
6058 Clouds 15 1010 62 10000 1.5 280 12:39 21.12.2019
6059 Clouds 15 1010 62 10000 1.5 280 12:20 21.12.2019
6060 Clouds 15 1010 62 10000 1 0 11:55 21.12.2019
6061 Clouds 15 1011 67 10000 1.5 330 11:37 21.12.2019
6062 Clouds 15 1011 67 10000 1.5 330 11:19 21.12.2019
6063 Clouds 14 1011 71 10000 1 0 10:41 21.12.2019
6064 Clouds 14 1011 71 10000 1 0 10:22 21.12.2019
6065 Clouds 14 1011 82 10000 5.52 226 09:58 21.12.2019
6066 Clouds 12 1011 87 9000 0.5 0 09:39 21.12.2019
6067 Clouds 12 1011 87 9000 0.5 0 09:19 21.12.2019
6068 Clouds 12 1011 87 8000 1.5 130 08:51 21.12.2019
6069 Clouds 11 1012 93 7000 1 0 08:27 21.12.2019
6070 Clear 9 1012 93 7000 2.1 10 07:58 21.12.2019
6071 Clear 9 1012 93 7000 2.1 10 07:58 21.12.2019
6072 Clear 9 1012 100 8000 0.5 0 07:39 21.12.2019
6073 Clear 8 1012 100 8000 0.5 0 07:20 21.12.2019
6074 Clear 8 1012 100 9000 1.5 330 06:40 21.12.2019
6075 Clear 8 1012 100 9000 1.5 330 06:22 21.12.2019
6076 Clear 7 1012 93 10000 2.6 20 05:25 21.12.2019
6077 Clear 7 1012 100 10000 1 0 04:55 21.12.2019
6078 Clear 8 1012 100 10000 1.5 30 03:56 21.12.2019
6079 Clear 9 1013 93 10000 1.5 330 02:25 21.12.2019
6080 Clouds 9 1013 87 10000 0.5 0 01:48 21.12.2019
6081 Clouds 9 1013 93 9000 1.5 220 01:25 21.12.2019
6082 Clouds 9 1014 81 10000 1.5 330 00:45 21.12.2019
6083 Clouds 9 1014 81 10000 1.5 330 00:26 21.12.2019
6084 Clouds 10 1014 76 10000 1 0 23:39 20.12.2019
6085 Clouds 10 1014 76 10000 1 0 23:21 20.12.2019
6086 Clouds 10 1015 87 10000 2.6 320 22:59 20.12.2019
6087 Clouds 10 1015 87 10000 2.6 320 22:59 20.12.2019
6088 Clouds 10 1015 81 10000 1.5 320 22:39 20.12.2019
6089 Clouds 10 1015 81 10000 1.5 320 22:18 20.12.2019
6090 Clouds 11 1015 76 10000 2.1 250 21:41 20.12.2019
6091 Clouds 11 1015 76 10000 2.1 250 21:21 20.12.2019
6092 Clouds 11 1015 81 10000 2.1 320 20:59 20.12.2019
6093 Clouds 11 1016 81 10000 2.1 300 20:38 20.12.2019
6094 Clouds 11 1016 81 10000 2.1 300 20:19 20.12.2019
6095 Clouds 10 1016 87 10000 0.5 0 19:43 20.12.2019
6096 Clouds 10 1016 87 10000 0.5 0 19:21 20.12.2019
6097 Clouds 11 1016 81 10000 0.5 0 18:58 20.12.2019
6098 Clouds 10 1016 81 10000 2.6 100 18:40 20.12.2019
6099 Clouds 10 1016 81 10000 2.6 100 18:21 20.12.2019
6100 Clouds 10 1016 81 10000 2.6 100 18:21 20.12.2019
6101 Clouds 10 1016 87 10000 2.6 110 17:56 20.12.2019
6102 Clouds 10 1016 87 10000 2.6 110 17:56 20.12.2019
6103 Clouds 11 1016 81 10000 1 0 17:38 20.12.2019
6104 Clouds 11 1016 81 10000 1 0 17:20 20.12.2019
6105 Clouds 11 1016 76 10000 1.5 110 16:41 20.12.2019
6106 Clouds 11 1016 76 10000 1 0 16:21 20.12.2019
6107 Clouds 12 1016 71 10000 1.5 170 15:57 20.12.2019
6108 Clouds 12 1016 71 10000 1.5 170 15:39 20.12.2019
6109 Clouds 12 1016 71 10000 1.5 190 15:21 20.12.2019
6110 Clouds 13 1017 67 10000 1.5 160 14:59 20.12.2019
6111 Clouds 13 1017 67 10000 1.5 160 14:41 20.12.2019
6112 Clouds 11 1017 67 10000 2.1 180 14:23 20.12.2019
6113 Clouds 11 1017 67 10000 4.1 190 13:56 20.12.2019
6114 Clouds 11 1017 67 10000 4.1 190 13:37 20.12.2019
6115 Clouds 11 1017 67 10000 3.6 180 13:18 20.12.2019
6116 Clouds 11 1017 67 10000 3.6 180 13:18 20.12.2019
6117 Clouds 11 1018 67 10000 4.6 190 12:55 20.12.2019
6118 Clouds 11 1018 71 10000 4.6 180 12:36 20.12.2019
6119 Clouds 11 1018 71 10000 4.6 180 12:18 20.12.2019
6120 Clouds 11 1018 71 10000 4.6 190 11:56 20.12.2019
6121 Clouds 11 1019 76 10000 5.1 170 11:37 20.12.2019
6122 Clouds 11 1019 76 10000 5.1 170 11:18 20.12.2019
6123 Clouds 11 1019 76 10000 4.6 170 10:54 20.12.2019
6124 Clouds 11 1019 76 10000 4.6 170 10:36 20.12.2019
6125 Clouds 11 1020 87 10000 2.6 140 10:18 20.12.2019
6126 Clouds 10 1021 100 9000 3.6 120 09:41 20.12.2019
6127 Fog 9 1021 100 9000 0.5 0 09:21 20.12.2019
6128 Fog 9 1021 100 9000 0.5 0 09:21 20.12.2019
6129 Fog 8 1021 100 8000 2.1 120 08:44 20.12.2019
6130 Fog 8 1021 100 4000 1.5 100 08:26 20.12.2019
6131 Fog 7 1021 100 200 3.1 120 07:59 20.12.2019
6132 Fog 7 1021 100 200 3.1 120 07:41 20.12.2019
6133 Fog 7 1021 100 250 2.1 130 07:20 20.12.2019
6134 Fog 8 1021 100 350 1 0 06:52 20.12.2019
6135 Fog 8 1021 100 550 2.1 120 06:33 20.12.2019
6136 Fog 8 1021 100 450 4.1 110 05:56 20.12.2019
6137 Fog 8 1021 100 350 4.6 110 05:37 20.12.2019
6138 Fog 8 1021 100 450 4.1 110 05:37 20.12.2019
6139 Fog 8 1022 100 600 3.1 120 04:33 20.12.2019
6140 Fog 6 1022 100 800 3.6 120 03:30 20.12.2019
6141 Fog 5 1022 100 450 2.6 110 02:44 20.12.2019
6142 Fog 5 1023 100 350 0.5 0 01:52 20.12.2019
6143 Fog 5 1023 100 200 1.5 120 01:33 20.12.2019
6144 Fog 5 1024 100 350 1.5 40 00:44 20.12.2019
6145 Fog 5 1024 93 200 5.22 192 00:25 20.12.2019
6146 Fog 5 1024 100 3600 1 310 23:44 19.12.2019
6147 Mist 6 1025 100 3700 5.22 192 23:26 19.12.2019
6148 Clouds 6 1025 93 8000 1 50 22:59 19.12.2019
6149 Clouds 5 1025 93 8000 1 50 22:37 19.12.2019
6150 Clouds 5 1025 86 10000 1 20 22:18 19.12.2019
6151 Clouds 6 1025 81 10000 2.67 183 21:55 19.12.2019
6152 Clouds 5 1025 81 10000 2.67 183 21:37 19.12.2019
6153 Clouds 6 1025 80 10000 1 0 21:18 19.12.2019
6154 Clouds 6 1026 75 10000 1.5 50 20:55 19.12.2019
6155 Clouds 6 1026 70 10000 1 70 20:36 19.12.2019
6156 Clouds 5 1026 70 10000 1 70 20:18 19.12.2019
6157 Clouds 6 1026 75 10000 2.05 97 19:54 19.12.2019
6158 Clouds 6 1026 75 10000 2.05 97 19:36 19.12.2019
6159 Clouds 6 1026 75 10000 2.05 97 19:18 19.12.2019
6160 Clouds 8 1026 75 10000 0.5 0 18:41 19.12.2019
6161 Clouds 9 1026 66 10000 1 60 18:22 19.12.2019
6162 Clouds 9 1026 65 10000 1.5 90 17:57 19.12.2019
6163 Clouds 8 1026 65 10000 1.5 90 17:39 19.12.2019
6164 Clouds 8 1026 70 10000 3.1 90 17:19 19.12.2019
6165 Clouds 9 1026 66 10000 3.6 110 16:57 19.12.2019
6166 Clouds 9 1026 66 10000 3.6 110 16:39 19.12.2019
6167 Clouds 13 1026 57 10000 3.6 110 16:20 19.12.2019
6168 Clouds 14 1026 50 10000 3.6 110 15:58 19.12.2019
6169 Clouds 14 1026 50 10000 3.6 110 15:39 19.12.2019
6170 Clouds 15 1026 50 10000 3.1 110 15:19 19.12.2019
6171 Clouds 16 1026 47 10000 3.1 130 14:58 19.12.2019
6172 Clouds 16 1026 47 10000 3.1 130 14:40 19.12.2019
6173 Clouds 17 1026 48 10000 2.6 150 14:18 19.12.2019
6174 Clouds 17 1026 36 10000 1 0 13:54 19.12.2019
6175 Clouds 17 1026 36 10000 1 0 13:36 19.12.2019
6176 Clouds 17 1026 36 10000 1 0 13:18 19.12.2019
6177 Clouds 17 1026 39 10000 1.5 280 12:54 19.12.2019
6178 Clouds 16 1026 41 10000 1 0 12:36 19.12.2019
6179 Clouds 17 1026 41 10000 1 0 12:18 19.12.2019
6180 Clouds 17 1026 41 10000 1 0 12:18 19.12.2019
6181 Clouds 16 1026 41 10000 1 0 11:42 19.12.2019
6182 Clouds 15 1027 50 10000 1.5 290 11:20 19.12.2019
6183 Clouds 15 1027 50 10000 1.5 290 11:20 19.12.2019
6184 Clouds 15 1027 50 10000 1.5 290 11:20 19.12.2019
6185 Clouds 14 1027 58 10000 1.5 290 10:59 19.12.2019
6186 Clouds 15 1027 58 10000 1.5 290 10:38 19.12.2019
6187 Clouds 14 1028 62 10000 1.5 290 10:20 19.12.2019
6188 Clouds 11 1028 70 10000 1 0 09:57 19.12.2019
6189 Clouds 11 1028 70 10000 1 0 09:38 19.12.2019
6190 Clouds 11 1028 70 10000 0.5 0 09:19 19.12.2019
6191 Clouds 11 1028 70 10000 0.5 0 09:19 19.12.2019
6192 Clouds 8 1028 86 10000 1.61 303 08:55 19.12.2019
6193 Clouds 8 1028 86 10000 1.61 303 08:37 19.12.2019
6194 Clouds 8 1027 81 10000 2.71 296 08:18 19.12.2019
6195 Clouds 6 1027 86 10000 2.57 292 07:54 19.12.2019
6196 Clouds 6 1027 60 10000 0.5 190 07:36 19.12.2019
6197 Clouds 6 1027 60 10000 0.5 190 07:18 19.12.2019
6198 Clouds 5 1027 80 10000 1 0 06:42 19.12.2019
6199 Clouds 4 1026 60 10000 3.1 110 06:23 19.12.2019
6200 Clouds 5 1026 86 10000 0.5 0 05:42 19.12.2019
6201 Clouds 5 1026 86 10000 0.5 0 05:19 19.12.2019
6202 Clouds 7 1025 86 10000 3.55 274 03:54 19.12.2019
6203 Clouds 8 1025 86 10000 1 300 02:29 19.12.2019
6204 Clear 6 1025 80 10000 3.68 278 01:26 19.12.2019
6205 Clear 5 1025 86 10000 1 0 00:58 19.12.2019
6206 Clear 6 1025 86 10000 1 0 00:39 19.12.2019
6207 Clear 7 1025 80 10000 1.5 280 00:19 19.12.2019
6208 Clear 7 1025 86 10000 0.5 0 23:44 18.12.2019
6209 Clear 8 1025 75 10000 2.1 320 23:19 18.12.2019
6210 Clear 6 1025 80 10000 2.1 340 22:56 18.12.2019
6211 Clear 6 1025 80 10000 2.1 340 22:38 18.12.2019
6212 Clear 8 1025 70 10000 2.1 320 22:20 18.12.2019
6213 Clear 8 1025 65 10000 2.6 330 21:58 18.12.2019
6214 Clear 8 1025 65 10000 2.6 330 21:39 18.12.2019
6215 Clear 8 1025 65 10000 2.6 330 21:39 18.12.2019
6216 Clear 8 1025 65 10000 2.6 330 21:39 18.12.2019
6217 Clear 8 1025 70 10000 2.6 310 21:20 18.12.2019
6218 Clear 9 1025 61 10000 2.1 310 20:56 18.12.2019
6219 Clear 9 1025 61 10000 2.1 310 20:38 18.12.2019
6220 Clear 8 1025 65 10000 2.6 320 20:19 18.12.2019
6221 Clear 8 1024 65 10000 1 0 19:56 18.12.2019
6222 Clear 9 1024 65 10000 1 0 19:37 18.12.2019
6223 Clear 8 1024 61 10000 1 320 19:18 18.12.2019
6224 Clear 9 1024 57 10000 1.5 320 18:45 18.12.2019
6225 Clear 8 1024 61 10000 1 10 18:25 18.12.2019
6226 Clear 9 1024 61 10000 1.5 20 17:58 18.12.2019
6227 Clear 9 1024 61 10000 1.5 20 17:39 18.12.2019
6228 Clear 9 1024 61 10000 1.5 20 17:39 18.12.2019
6229 Clear 10 1024 62 10000 1 50 17:20 18.12.2019
6230 Clear 10 1023 62 10000 0.5 0 16:58 18.12.2019
6231 Clear 10 1023 62 10000 0.5 0 16:40 18.12.2019
6232 Clear 10 1023 62 10000 0.5 0 16:40 18.12.2019
6233 Clear 15 1023 50 10000 0.5 220 16:21 18.12.2019
6234 Clear 15 1023 44 10000 1 0 15:56 18.12.2019
6235 Clear 18 1023 42 10000 2.6 260 15:38 18.12.2019
6236 Clear 18 1023 42 10000 2.6 260 15:20 18.12.2019
6237 Clear 19 1023 45 10000 2.1 280 14:43 18.12.2019
6238 Clear 19 1023 45 10000 2.1 280 14:22 18.12.2019
6239 Clear 19 1023 42 10000 2.1 290 13:57 18.12.2019
6240 Clear 19 1023 45 10000 2.1 250 13:39 18.12.2019
6241 Clear 19 1023 45 10000 2.1 250 13:20 18.12.2019
6242 Clear 19 1023 42 10000 3.1 260 12:59 18.12.2019
6243 Clear 19 1023 42 10000 3.1 260 12:59 18.12.2019
6244 Clear 19 1023 48 10000 2.6 260 12:39 18.12.2019
6245 Clear 19 1023 48 10000 2.6 260 12:20 18.12.2019
6246 Clear 19 1023 48 10000 2.6 240 11:56 18.12.2019
6247 Clear 17 1024 51 10000 3.1 240 11:38 18.12.2019
6248 Clear 17 1024 51 10000 3.1 240 11:19 18.12.2019
6249 Clear 17 1024 58 10000 2.1 250 10:56 18.12.2019
6250 Clear 16 1024 62 10000 2.1 250 10:38 18.12.2019
6251 Clear 16 1024 62 10000 2.1 250 10:19 18.12.2019
6252 Clear 15 1024 66 10000 1 0 09:50 18.12.2019
6253 Clear 15 1024 66 10000 1 0 09:50 18.12.2019
6254 Clear 15 1024 66 10000 1 0 09:50 18.12.2019
6255 Clear 13 1024 70 10000 1.5 260 09:18 18.12.2019
6256 Clear 9 1024 80 10000 1.5 260 08:41 18.12.2019
6257 Clear 9 1024 80 10000 1.5 260 08:22 18.12.2019
6258 Clear 6 1023 93 8000 1 320 07:45 18.12.2019
6259 Clear 5 1023 93 8000 1 320 07:24 18.12.2019
6260 Clear 4 1023 93 8000 1 310 06:57 18.12.2019
6261 Clear 4 1023 86 10000 1.5 280 06:28 18.12.2019
6262 Clear 4 1023 86 10000 1.5 300 05:57 18.12.2019
6263 Clear 4 1022 93 10000 1.5 280 04:59 18.12.2019
6264 Clear 4 1022 86 10000 0.5 0 02:55 18.12.2019
6265 Clear 5 1023 80 10000 1.5 270 02:37 18.12.2019
6266 Clear 5 1023 80 10000 1.5 270 02:18 18.12.2019
6267 Clear 4 1022 93 10000 1.5 300 01:41 18.12.2019
6268 Clear 3 1022 93 10000 1.5 300 01:22 18.12.2019
6269 Clear 3 1022 93 10000 1.5 300 01:22 18.12.2019
6270 Clear 4 1022 93 10000 1.5 320 00:41 18.12.2019
6271 Clear 4 1022 93 10000 1.5 320 00:23 18.12.2019
6272 Clear 4 1023 80 10000 2.1 330 23:57 17.12.2019
6273 Clear 5 1023 86 10000 1.5 10 23:38 17.12.2019
6274 Clear 5 1023 86 10000 1.5 10 23:19 17.12.2019
6275 Clear 5 1023 86 8000 1.5 280 22:56 17.12.2019
6276 Clear 5 1023 75 10000 1.5 300 22:38 17.12.2019
6277 Clear 5 1023 75 10000 1.5 300 22:18 17.12.2019
6278 Clear 6 1023 81 10000 2.1 310 21:55 17.12.2019
6279 Clear 6 1023 81 10000 3.1 290 21:37 17.12.2019
6280 Clear 6 1023 81 10000 3.1 290 21:19 17.12.2019
6281 Clear 6 1023 81 10000 2.1 330 20:56 17.12.2019
6282 Clear 6 1023 81 10000 2.6 330 20:37 17.12.2019
6283 Clouds 5 1023 81 10000 2.6 330 20:18 17.12.2019
6284 Clouds 6 1023 75 10000 2.6 360 19:54 17.12.2019
6285 Clouds 7 1022 70 10000 1.5 340 19:36 17.12.2019
6286 Clouds 7 1022 65 10000 1 300 19:18 17.12.2019
6287 Clouds 7 1022 65 10000 2.1 340 18:41 17.12.2019
6288 Clouds 7 1022 65 10000 2.1 340 18:21 17.12.2019
6289 Clouds 8 1023 61 10000 0.5 360 17:58 17.12.2019
6290 Clouds 8 1022 61 10000 1 50 17:40 17.12.2019
6291 Clouds 9 1022 61 10000 1 50 17:19 17.12.2019
6292 Clouds 9 1022 76 10000 2.1 100 16:56 17.12.2019
6293 Clouds 9 1022 71 10000 2.1 120 16:37 17.12.2019
6294 Clouds 12 1022 71 10000 2.1 120 16:19 17.12.2019
6295 Clouds 13 1022 58 10000 2.1 130 15:55 17.12.2019
6296 Clouds 15 1022 39 10000 1 0 15:37 17.12.2019
6297 Clouds 15 1022 39 10000 1 0 15:18 17.12.2019
6298 Clouds 16 1022 39 10000 0.5 0 14:55 17.12.2019
6299 Clouds 16 1022 39 10000 2.6 260 14:36 17.12.2019
6300 Clouds 16 1022 39 10000 2.6 260 14:18 17.12.2019
6301 Clouds 17 1021 41 10000 4.1 270 13:55 17.12.2019
6302 Clouds 17 1022 41 10000 2.6 230 13:37 17.12.2019
6303 Clouds 17 1022 41 10000 2.6 230 13:18 17.12.2019
6304 Clouds 16 1022 47 10000 3.1 240 12:40 17.12.2019
6305 Clouds 17 1022 47 10000 3.1 240 12:19 17.12.2019
6306 Clouds 16 1022 50 10000 3.1 310 11:59 17.12.2019
6307 Clouds 16 1022 62 10000 3.1 270 11:37 17.12.2019
6308 Clouds 16 1022 62 10000 3.1 270 11:37 17.12.2019
6309 Clouds 14 1022 62 10000 3.1 270 11:19 17.12.2019
6310 Clouds 12 1023 71 9000 1.5 260 10:59 17.12.2019
6311 Clouds 12 1023 70 8000 2.1 240 10:40 17.12.2019
6312 Clouds 12 1023 70 8000 2.1 240 10:21 17.12.2019
6313 Clouds 9 1023 75 6000 0.5 0 09:59 17.12.2019
6314 Mist 9 1023 93 3000 2.57 242 09:40 17.12.2019
6315 Mist 9 1023 93 3000 2.57 242 09:19 17.12.2019
6316 Mist 7 1023 93 3600 1.5 270 08:55 17.12.2019
6317 Mist 7 1023 100 3000 0.5 0 08:37 17.12.2019
6318 Mist 5 1023 100 3000 0.5 0 08:19 17.12.2019
6319 Mist 3 1023 100 4500 2.1 270 07:45 17.12.2019
6320 Mist 3 1023 100 4500 2.1 270 07:24 17.12.2019
6321 Mist 2 1022 100 4500 2.13 239 06:55 17.12.2019
6322 Clear 2 1022 100 6000 1.5 280 06:32 17.12.2019
6323 Clear 1 1022 100 6000 0.5 0 05:52 17.12.2019
6324 Clear 2 1022 100 10000 1.5 310 05:32 17.12.2019
6325 Clouds 2 1022 93 10000 0.5 310 04:19 17.12.2019
6326 Clouds 3 1022 100 10000 1.4 241 02:27 17.12.2019
6327 Clouds 3 1022 93 10000 1.9 283 01:34 17.12.2019
6328 Clear 3 1022 93 10000 2.1 270 00:49 17.12.2019
6329 Clear 4 1022 93 10000 1.69 283 00:22 17.12.2019
6330 Clear 4 1022 86 10000 1.5 290 23:59 16.12.2019
6331 Clear 4 1022 93 10000 0.5 0 23:40 16.12.2019
6332 Clouds 4 1022 93 10000 0.5 0 23:18 16.12.2019
6333 Clouds 4 1023 93 10000 2.07 265 22:55 16.12.2019
6334 Clouds 5 1023 86 10000 2.07 265 22:36 16.12.2019
6335 Clouds 5 1023 86 10000 2.07 265 22:18 16.12.2019
6336 Clouds 5 1023 81 10000 0.5 280 21:54 16.12.2019
6337 Clouds 5 1023 87 10000 1 310 21:36 16.12.2019
6338 Clouds 5 1023 87 10000 1 310 21:18 16.12.2019
6339 Clouds 5 1023 81 10000 1 310 20:56 16.12.2019
6340 Clouds 6 1023 75 10000 1.5 340 20:37 16.12.2019
6341 Clear 5 1023 75 10000 1.5 340 20:18 16.12.2019
6342 Clear 6 1023 75 10000 1 0 19:55 16.12.2019
6343 Clear 6 1023 75 10000 2.1 20 19:36 16.12.2019
6344 Clear 6 1023 75 10000 2.1 20 19:18 16.12.2019
6345 Clear 6 1023 75 10000 2.1 20 19:18 16.12.2019
6346 Clear 8 1023 66 10000 2.1 350 18:42 16.12.2019
6347 Clear 8 1023 66 10000 2.1 350 18:20 16.12.2019
6348 Clear 9 1023 70 10000 1 40 17:59 16.12.2019
6349 Clear 9 1023 71 10000 1 0 17:41 16.12.2019
6350 Clear 9 1023 71 10000 1 0 17:22 16.12.2019
6351 Clear 9 1023 71 10000 2.1 350 16:59 16.12.2019
6352 Clear 11 1022 58 10000 2.1 340 16:39 16.12.2019
6353 Clear 11 1022 58 10000 2.1 340 16:39 16.12.2019
6354 Clear 12 1022 58 10000 2.1 340 16:20 16.12.2019
6355 Clouds 13 1022 50 10000 2.1 320 15:59 16.12.2019
6356 Clouds 13 1022 50 10000 2.1 320 15:59 16.12.2019
6357 Clouds 14 1022 44 10000 1.5 280 15:39 16.12.2019
6358 Clouds 14 1022 44 10000 1.5 280 15:21 16.12.2019
6359 Clear 15 1023 44 10000 2.6 260 14:58 16.12.2019
6360 Clear 15 1022 44 10000 2.6 270 14:38 16.12.2019
6361 Clear 15 1022 44 10000 2.6 270 14:20 16.12.2019
6362 Clear 15 1022 48 10000 3.1 250 13:58 16.12.2019
6363 Clear 15 1022 48 10000 3.1 250 13:38 16.12.2019
6364 Clear 15 1022 48 10000 3.1 250 13:20 16.12.2019
6365 Clear 14 1022 48 10000 3.1 230 12:58 16.12.2019
6366 Clear 16 1023 51 10000 4.1 250 12:40 16.12.2019
6367 Clear 16 1023 51 10000 4.1 250 12:20 16.12.2019
6368 Clear 15 1023 54 10000 4.6 270 11:59 16.12.2019
6369 Clear 14 1023 58 10000 4.1 280 11:41 16.12.2019
6370 Clear 13 1023 58 10000 4.1 280 11:21 16.12.2019
6371 Clear 11 1024 62 10000 3.1 290 10:58 16.12.2019
6372 Clear 11 1024 66 10000 3.1 300 10:40 16.12.2019
6373 Clear 11 1024 66 10000 3.1 300 10:20 16.12.2019
6374 Clear 10 1024 81 10000 1 280 09:45 16.12.2019
6375 Clear 10 1024 81 10000 1 280 09:27 16.12.2019
6376 Clear 9 1024 81 10000 5.09 205 08:57 16.12.2019
6377 Clear 8 1023 81 10000 5.09 205 08:38 16.12.2019
6378 Clear 8 1023 81 10000 5.86 206 08:18 16.12.2019
6379 Clear 6 1023 93 10000 5.86 206 07:47 16.12.2019
6380 Clear 6 1023 93 10000 1.5 340 07:28 16.12.2019
6381 Clear 3 1023 86 10000 5.86 206 06:45 16.12.2019
6382 Clear 3 1023 86 10000 5.86 206 06:26 16.12.2019
6383 Clear 4 1023 86 10000 1 20 05:52 16.12.2019
6384 Clear 3 1023 86 10000 1 0 05:33 16.12.2019
6385 Clear 4 1022 59 10000 1 0 04:22 16.12.2019
6386 Clear 6 1023 80 10000 1.5 70 02:31 16.12.2019
6387 Clouds 4 1023 93 10000 1 0 01:45 16.12.2019
6388 Clouds 4 1023 93 10000 1 0 01:45 16.12.2019
6389 Clouds 3 1023 86 10000 2.1 10 00:43 16.12.2019
6390 Clouds 4 1023 86 10000 2.1 10 00:25 16.12.2019
6391 Clouds 5 1023 80 10000 1.5 60 23:59 15.12.2019
6392 Clouds 4 1023 86 10000 1.5 70 23:39 15.12.2019
6393 Clear 4 1023 86 10000 1.5 70 23:20 15.12.2019
6394 Clear 4 1023 80 10000 1.5 10 22:56 15.12.2019
6395 Clear 5 1023 75 10000 1 80 22:37 15.12.2019
6396 Clear 4 1023 75 10000 1 80 22:18 15.12.2019
6397 Clear 4 1023 80 10000 1.5 10 21:56 15.12.2019
6398 Clear 4 1023 80 10000 1.5 10 21:56 15.12.2019
6399 Clear 4 1023 80 10000 1 30 21:37 15.12.2019
6400 Clear 4 1023 80 10000 1 30 21:37 15.12.2019
6401 Clear 4 1023 80 10000 1 30 21:19 15.12.2019
6402 Clear 4 1022 80 10000 2.1 60 20:56 15.12.2019
6403 Clear 4 1022 80 10000 2.6 30 20:37 15.12.2019
6404 Clear 4 1022 80 10000 2.6 30 20:18 15.12.2019
6405 Clouds 4 1022 80 10000 2.6 20 19:56 15.12.2019
6406 Clear 5 1022 75 10000 2.6 20 19:38 15.12.2019
6407 Clouds 5 1022 75 10000 2.6 20 19:18 15.12.2019
6408 Clear 5 1022 75 10000 2.1 40 18:55 15.12.2019
6409 Clear 5 1022 75 10000 1 0 18:37 15.12.2019
6410 Clouds 6 1021 70 10000 1 340 18:18 15.12.2019
6411 Clear 6 1021 70 10000 1 340 18:18 15.12.2019
6412 Clear 6 1021 70 10000 1 340 17:55 15.12.2019
6413 Clear 7 1021 61 10000 0.5 0 17:36 15.12.2019
6414 Clouds 7 1021 66 10000 2.01 282 17:18 15.12.2019
6415 Clear 7 1021 66 10000 3.02 286 17:18 15.12.2019
6416 Clouds 9 1020 61 10000 2.6 310 16:43 15.12.2019
6417 Clear 9 1020 61 10000 2.6 310 16:23 15.12.2019
6418 Clear 10 1020 54 10000 3.1 280 15:57 15.12.2019
6419 Clear 11 1020 50 10000 3.1 250 15:39 15.12.2019
6420 Clouds 12 1020 47 10000 5.1 270 15:19 15.12.2019
6421 Clouds 13 1020 47 10000 5.1 270 14:56 15.12.2019
6422 Clear 14 1019 50 10000 4.6 260 14:38 15.12.2019
6423 Clear 14 1019 50 10000 4.6 260 14:38 15.12.2019
6424 Clouds 14 1019 50 10000 4.6 260 14:19 15.12.2019
6425 Clouds 14 1019 54 10000 6.2 270 13:59 15.12.2019
6426 Clouds 14 1018 50 10000 5.1 280 13:39 15.12.2019
6427 Clouds 14 1018 50 10000 5.1 280 13:20 15.12.2019
6428 Clouds 14 1018 54 10000 3.6 280 12:57 15.12.2019
6429 Clouds 14 1018 54 10000 3.6 280 12:57 15.12.2019
6430 Clouds 14 1018 44 10000 5.7 290 12:39 15.12.2019
6431 Clouds 14 1018 44 10000 5.7 290 12:21 15.12.2019
6432 Clouds 14 1018 50 10000 5.1 290 11:59 15.12.2019
6433 Clouds 13 1018 62 10000 5.7 300 11:37 15.12.2019
6434 Clear 12 1018 62 10000 5.7 300 11:19 15.12.2019
6435 Clear 12 1017 58 10000 6.7 300 10:55 15.12.2019
6436 Clouds 12 1017 71 10000 5.7 290 10:37 15.12.2019
6437 Clouds 11 1017 71 10000 5.7 290 10:19 15.12.2019
6438 Clouds 10 1017 76 10000 5.7 250 09:41 15.12.2019
6439 Clouds 10 1017 76 10000 5.7 250 09:20 15.12.2019
6440 Clouds 9 1016 81 10000 5.1 250 08:59 15.12.2019
6441 Clouds 8 1016 81 10000 6.2 270 08:41 15.12.2019
6442 Clouds 8 1016 81 10000 6.2 270 08:22 15.12.2019
6443 Clouds 8 1016 81 10000 6.2 270 08:22 15.12.2019
6444 Clouds 7 1016 87 10000 5.1 260 07:56 15.12.2019
6445 Clouds 7 1015 81 10000 2.6 300 07:36 15.12.2019
6446 Clouds 7 1014 87 10000 5.7 280 06:56 15.12.2019
6447 Clouds 6 1013 87 10000 4.6 280 06:21 15.12.2019
6448 Clouds 7 1012 87 10000 5.1 320 05:37 15.12.2019
6449 Clouds 8 1012 87 10000 5.1 300 05:18 15.12.2019
6450 Clouds 8 1011 93 10000 3.1 300 03:54 15.12.2019
6451 Rain 8 1011 100 10000 5.1 250 02:34 15.12.2019
6452 Rain 9 1010 93 9000 2.6 240 01:50 15.12.2019
6453 Rain 9 1010 93 10000 2.6 310 01:28 15.12.2019
6454 Clouds 9 1009 100 7000 2.1 300 00:59 15.12.2019
6455 Clouds 9 1008 93 9000 2.1 280 00:41 15.12.2019
6456 Clouds 9 1008 93 9000 2.1 280 00:23 15.12.2019
6457 Clouds 9 1007 100 9000 9.82 308 23:40 14.12.2019
6458 Clouds 9 1007 100 9000 9.82 308 23:40 14.12.2019
6459 Clouds 9 1007 100 9000 9.82 308 23:40 14.12.2019
6460 Clouds 9 1007 100 9000 1.75 214 23:21 14.12.2019
6461 Clouds 10 1007 100 9000 1.75 214 22:58 14.12.2019
6462 Clouds 9 1007 100 9000 1.75 214 22:58 14.12.2019
6463 Clouds 10 1007 100 9000 1.75 214 22:58 14.12.2019
6464 Clouds 10 1007 100 10000 1.75 214 22:40 14.12.2019
6465 Clouds 10 1007 100 10000 1.75 214 22:21 14.12.2019
6466 Clouds 10 1006 93 9000 1.75 214 21:56 14.12.2019
6467 Clouds 10 1006 93 9000 1.75 214 21:56 14.12.2019
6468 Clouds 10 1006 93 10000 1.5 30 21:37 14.12.2019
6469 Clouds 10 1006 93 10000 1.5 30 21:19 14.12.2019
6470 Clouds 10 1006 93 10000 1.5 30 21:19 14.12.2019
6471 Clouds 10 1006 93 10000 2.1 30 20:56 14.12.2019
6472 Clouds 10 1006 93 10000 2.1 20 20:38 14.12.2019
6473 Clouds 10 1006 93 10000 2.1 20 20:19 14.12.2019
6474 Clouds 9 1005 93 10000 2.1 30 19:54 14.12.2019
6475 Clouds 10 1005 81 10000 2.6 90 19:36 14.12.2019
6476 Clouds 10 1005 81 10000 2.6 90 19:18 14.12.2019
6477 Clouds 11 1005 81 10000 2.6 90 18:55 14.12.2019
6478 Clouds 11 1004 87 10000 3.1 100 18:36 14.12.2019
6479 Clouds 11 1004 87 10000 2.6 100 18:18 14.12.2019
6480 Clouds 11 1004 81 10000 2.6 100 17:42 14.12.2019
6481 Clouds 11 1004 81 10000 2.6 100 17:22 14.12.2019
6482 Clouds 12 1003 76 10000 3.6 110 16:42 14.12.2019
6483 Clouds 12 1003 76 10000 3.6 110 16:20 14.12.2019
6484 Clouds 12 1003 76 10000 3.1 120 15:58 14.12.2019
6485 Clouds 12 1002 76 10000 3.6 120 15:39 14.12.2019
6486 Clouds 12 1002 76 10000 3.6 120 15:20 14.12.2019
6487 Clouds 13 1001 76 10000 4.1 120 14:57 14.12.2019
6488 Clouds 13 1001 71 10000 5.1 120 14:38 14.12.2019
6489 Clouds 14 1001 71 10000 5.1 120 14:19 14.12.2019
6490 Clouds 14 1000 72 10000 6.7 100 13:45 14.12.2019
6491 Clouds 15 1000 72 10000 6.7 100 13:20 14.12.2019
6492 Clouds 15 1000 67 10000 5.7 120 12:58 14.12.2019
6493 Clouds 15 1000 59 10000 4.6 150 12:40 14.12.2019
6494 Clouds 15 1000 59 10000 4.6 150 12:21 14.12.2019
6495 Clouds 14 1000 67 10000 5.1 140 11:58 14.12.2019
6496 Clouds 15 1000 67 10000 4.6 150 11:39 14.12.2019
6497 Clouds 14 1000 67 10000 4.6 150 11:19 14.12.2019
6498 Clouds 14 1000 67 10000 4.6 150 11:19 14.12.2019
6499 Clouds 14 1001 67 10000 4.6 140 10:57 14.12.2019
6500 Clouds 14 1001 71 10000 4.6 140 10:39 14.12.2019
6501 Clouds 14 1001 71 10000 4.6 140 10:20 14.12.2019
6502 Clouds 13 1001 76 10000 4.6 130 09:55 14.12.2019
6503 Clouds 13 1001 76 10000 4.6 130 09:55 14.12.2019
6504 Clouds 13 1001 76 10000 4.6 150 09:36 14.12.2019
6505 Clouds 12 1001 76 10000 4.6 150 09:18 14.12.2019
6506 Clouds 11 1000 87 10000 3.1 110 08:41 14.12.2019
6507 Clouds 10 1000 87 10000 3.1 110 08:19 14.12.2019
6508 Clear 8 1000 100 8000 2.6 130 07:43 14.12.2019
6509 Clear 8 1000 100 8000 2.6 130 07:22 14.12.2019
6510 Mist 8 1000 93 5000 1.5 0 06:55 14.12.2019
6511 Clouds 8 999 93 8000 4.1 140 06:36 14.12.2019
6512 Clouds 8 999 87 9000 3.6 130 05:56 14.12.2019
6513 Clear 7 999 93 10000 3.1 140 04:35 14.12.2019
6514 Mist 9 1000 93 5000 2.1 140 02:25 14.12.2019
6515 Mist 9 1000 100 4400 3.1 130 01:44 14.12.2019
6516 Mist 9 1000 100 4400 3.1 130 01:44 14.12.2019
6517 Mist 9 1000 100 4400 3.1 130 01:44 14.12.2019
6518 Mist 9 1000 100 4400 3.1 130 01:22 14.12.2019
6519 Mist 10 1000 100 4100 2.6 90 00:43 14.12.2019
6520 Mist 9 1000 100 4100 2.6 90 00:24 14.12.2019
6521 Mist 10 1000 100 4600 2.1 120 23:43 13.12.2019
6522 Mist 10 1000 100 4600 2.1 120 23:20 13.12.2019
6523 Mist 10 1000 100 5000 3.1 110 22:59 13.12.2019
6524 Clouds 10 1000 100 7000 3.1 110 22:40 13.12.2019
6525 Clouds 10 1000 100 7000 3.1 110 22:19 13.12.2019
6526 Clouds 9 1000 100 8000 3.1 90 21:55 13.12.2019
6527 Clouds 10 1001 93 10000 3.1 120 21:36 13.12.2019
6528 Clouds 10 1001 93 10000 3.1 120 21:18 13.12.2019
6529 Clouds 9 1001 93 10000 2.6 110 20:40 13.12.2019
6530 Clouds 9 1001 93 10000 2.6 110 20:21 13.12.2019
6531 Clouds 9 1001 93 10000 2.6 110 19:57 13.12.2019
6532 Clouds 9 1001 93 10000 2.6 110 19:39 13.12.2019
6533 Clouds 9 1001 100 10000 2.1 120 19:20 13.12.2019
6534 Clouds 8 1001 100 10000 2.1 90 18:56 13.12.2019
6535 Clouds 9 1001 100 10000 2.1 90 18:38 13.12.2019
6536 Clouds 9 1001 100 10000 2.1 90 18:38 13.12.2019
6537 Clouds 9 1001 100 10000 3.1 110 18:18 13.12.2019
6538 Clouds 9 1001 100 10000 3.1 110 18:18 13.12.2019
6539 Clouds 9 1001 93 10000 3.6 100 17:41 13.12.2019
6540 Clouds 9 1001 93 10000 3.6 100 17:19 13.12.2019
6541 Clouds 9 1001 93 10000 2.6 120 16:58 13.12.2019
6542 Clouds 9 1001 93 10000 2.6 120 16:39 13.12.2019
6543 Clouds 10 1001 93 10000 3.1 120 16:20 13.12.2019
6544 Clouds 11 1001 87 10000 3.1 120 15:43 13.12.2019
6545 Clouds 11 1001 87 10000 3.1 100 15:22 13.12.2019
6546 Clouds 11 1002 87 10000 2.1 110 14:58 13.12.2019
6547 Clouds 11 1002 87 10000 2.1 110 14:39 13.12.2019
6548 Clouds 11 1002 81 10000 2.6 120 14:20 13.12.2019
6549 Clouds 11 1002 81 10000 2.1 120 13:45 13.12.2019
6550 Clouds 11 1002 76 10000 1.5 120 13:27 13.12.2019
6551 Clouds 11 1002 81 10000 2.1 140 12:59 13.12.2019
6552 Clouds 10 1002 81 10000 2.1 140 12:41 13.12.2019
6553 Clouds 10 1003 81 10000 1.5 160 12:19 13.12.2019
6554 Clouds 10 1003 81 10000 1 0 11:45 13.12.2019
6555 Clouds 10 1003 81 10000 1 0 11:45 13.12.2019
6556 Clouds 10 1003 81 10000 0.5 0 11:26 13.12.2019
6557 Clouds 10 1004 81 10000 1.5 0 10:58 13.12.2019
6558 Clouds 9 1004 81 10000 1.5 0 10:40 13.12.2019
6559 Clouds 9 1004 87 10000 1 0 10:21 13.12.2019
6560 Clouds 8 1004 87 10000 1 0 09:43 13.12.2019
6561 Clouds 9 1004 87 10000 2.6 50 09:22 13.12.2019
6562 Clouds 8 1004 93 10000 2.1 50 08:55 13.12.2019
6563 Clouds 8 1004 87 10000 1.25 338 08:36 13.12.2019
6564 Clouds 8 1004 87 10000 3.04 346 08:18 13.12.2019
6565 Clouds 8 1004 93 10000 1 0 07:42 13.12.2019
6566 Clouds 8 1004 93 10000 1 0 07:19 13.12.2019
6567 Clouds 7 1004 93 10000 1 0 06:45 13.12.2019
6568 Clouds 7 1004 93 10000 1.5 320 06:25 13.12.2019
6569 Clouds 7 1005 93 10000 2.6 350 05:38 13.12.2019
6570 Clouds 7 1005 93 10000 2.1 340 05:20 13.12.2019
6571 Clouds 7 1005 87 10000 2.1 70 04:29 13.12.2019
6572 Rain 9 1005 81 10000 7.2 40 02:56 13.12.2019
6573 Clouds 7 1005 87 10000 7.2 40 02:30 13.12.2019
6574 Clouds 7 1005 87 10000 8.2 40 01:34 13.12.2019
6575 Clouds 7 1006 87 10000 7.2 40 00:50 13.12.2019
6576 Clouds 7 1006 81 10000 2.6 0 00:28 13.12.2019
6577 Clouds 7 1006 81 10000 4.6 30 23:43 12.12.2019
6578 Clouds 7 1007 87 10000 3.6 30 23:25 12.12.2019
6579 Clouds 7 1007 81 10000 3.6 30 22:56 12.12.2019
6580 Clouds 7 1007 81 10000 3.6 30 22:38 12.12.2019
6581 Clouds 7 1007 87 10000 7.7 30 22:20 12.12.2019
6582 Clouds 7 1007 87 10000 8.2 40 21:56 12.12.2019
6583 Clouds 7 1007 87 10000 8.2 40 21:37 12.12.2019
6584 Clouds 8 1007 87 10000 7.7 40 21:19 12.12.2019
6585 Clouds 8 1007 87 10000 8.2 40 20:58 12.12.2019
6586 Clouds 8 1007 87 10000 8.2 40 20:40 12.12.2019
6587 Clouds 8 1007 87 10000 7.7 40 20:21 12.12.2019
6588 Clouds 8 1007 87 10000 7.2 40 19:56 12.12.2019
6589 Clouds 8 1007 87 10000 7.2 40 19:37 12.12.2019
6590 Clouds 8 1008 87 10000 5.1 30 19:18 12.12.2019
6591 Clouds 8 1008 87 10000 5.1 20 18:55 12.12.2019
6592 Drizzle 8 1008 87 10000 6.7 40 18:37 12.12.2019
6593 Drizzle 8 1008 87 10000 6.7 40 18:18 12.12.2019
6594 Clouds 8 1008 81 10000 6.7 50 17:55 12.12.2019
6595 Clouds 8 1008 81 10000 6.7 50 17:37 12.12.2019
6596 Clouds 8 1008 87 10000 3.6 70 17:19 12.12.2019
6597 Clouds 8 1008 81 10000 6.2 50 16:54 12.12.2019
6598 Clouds 9 1008 76 10000 5.1 40 16:36 12.12.2019
6599 Clouds 9 1008 76 10000 5.1 40 16:18 12.12.2019
6600 Clouds 9 1008 81 10000 5.1 50 15:42 12.12.2019
6601 Clouds 9 1008 81 10000 4.1 70 15:19 12.12.2019
6602 Clouds 9 1008 81 10000 4.1 70 15:19 12.12.2019
6603 Clouds 10 1008 76 10000 5.7 70 14:57 12.12.2019
6604 Clouds 10 1009 76 10000 4.1 80 14:36 12.12.2019
6605 Clouds 10 1009 76 10000 4.1 80 14:18 12.12.2019
6606 Clouds 10 1009 76 10000 6.2 90 13:54 12.12.2019
6607 Clouds 10 1009 81 10000 4.1 90 13:36 12.12.2019
6608 Clouds 10 1009 81 10000 4.1 90 13:18 12.12.2019
6609 Clouds 10 1009 81 10000 4.1 90 13:18 12.12.2019
6610 Clouds 10 1009 81 10000 3.1 60 12:42 12.12.2019
6611 Rain 10 1009 81 10000 3.1 70 12:22 12.12.2019
6612 Clouds 10 1009 81 10000 4.1 70 11:59 12.12.2019
6613 Clouds 10 1009 81 10000 4.1 70 11:40 12.12.2019
6614 Clouds 10 1009 81 10000 4.6 60 11:21 12.12.2019
6615 Clouds 9 1009 81 10000 4.6 60 10:58 12.12.2019
6616 Clouds 9 1009 81 10000 4.6 60 10:40 12.12.2019
6617 Clouds 9 1010 81 10000 5.7 70 10:22 12.12.2019
6618 Clouds 9 1010 81 10000 6.2 70 09:56 12.12.2019
6619 Clouds 10 1010 81 10000 6.2 70 09:38 12.12.2019
6620 Clouds 10 1010 81 10000 6.2 70 09:19 12.12.2019
6621 Clouds 9 1010 81 10000 5.7 70 08:47 12.12.2019
6622 Clouds 8 1010 81 10000 5.1 70 08:28 12.12.2019
6623 Clouds 8 1010 87 10000 4.6 70 07:54 12.12.2019
6624 Clouds 8 1010 87 10000 4.6 70 07:36 12.12.2019
6625 Clouds 8 1011 87 10000 4.1 70 07:18 12.12.2019
6626 Rain 8 1010 87 10000 4.6 80 06:41 12.12.2019
6627 Rain 8 1010 87 10000 4.6 80 06:21 12.12.2019
6628 Clouds 9 1010 81 10000 6.2 80 05:26 12.12.2019
6629 Rain 8 1011 87 10000 4.6 60 04:31 12.12.2019
6630 Clouds 8 1012 81 10000 3.6 60 02:41 12.12.2019
6631 Clouds 9 1012 81 10000 4.1 70 02:23 12.12.2019
6632 Rain 8 1012 87 10000 5.1 60 01:58 12.12.2019
6633 Clouds 8 1012 87 10000 4.6 70 01:35 12.12.2019
6634 Clouds 9 1012 81 10000 4.6 70 00:49 12.12.2019
6635 Clouds 9 1012 81 10000 6.7 80 00:22 12.12.2019
6636 Clouds 9 1013 81 10000 7.7 80 23:58 11.12.2019
6637 Clouds 9 1013 87 10000 7.7 80 23:36 11.12.2019
6638 Clouds 9 1013 87 10000 7.7 80 23:18 11.12.2019
6639 Rain 9 1013 87 10000 7.2 90 22:55 11.12.2019
6640 Rain 9 1013 87 10000 6.7 80 22:36 11.12.2019
6641 Rain 9 1013 87 10000 6.7 80 22:18 11.12.2019
6642 Rain 9 1013 87 10000 7.2 80 21:39 11.12.2019
6643 Rain 9 1014 87 10000 5.1 70 21:20 11.12.2019
6644 Rain 9 1014 87 10000 5.1 70 21:20 11.12.2019
6645 Clouds 9 1014 87 10000 6.7 70 20:58 11.12.2019
6646 Rain 9 1014 81 10000 7.2 70 20:40 11.12.2019
6647 Rain 9 1014 81 10000 7.2 70 20:20 11.12.2019
6648 Clouds 9 1014 81 10000 6.2 70 19:59 11.12.2019
6649 Clouds 9 1014 81 10000 6.2 70 19:40 11.12.2019
6650 Clouds 9 1014 81 10000 5.7 70 19:21 11.12.2019
6651 Clouds 9 1014 81 10000 6.2 70 18:58 11.12.2019
6652 Clouds 9 1014 81 10000 6.2 70 18:39 11.12.2019
6653 Rain 9 1014 81 10000 7.7 70 18:18 11.12.2019
6654 Clouds 9 1014 81 10000 6.7 70 17:55 11.12.2019
6655 Rain 9 1014 81 10000 7.7 70 17:37 11.12.2019
6656 Rain 9 1014 81 10000 7.7 70 17:18 11.12.2019
6657 Clouds 9 1014 81 10000 7.2 70 16:55 11.12.2019
6658 Clouds 9 1014 81 10000 8.2 70 16:36 11.12.2019
6659 Clouds 9 1014 81 10000 8.2 70 16:18 11.12.2019
6660 Clouds 9 1014 81 10000 7.2 70 15:54 11.12.2019
6661 Clouds 9 1014 81 10000 7.2 80 15:36 11.12.2019
6662 Clouds 9 1014 81 10000 7.2 80 15:18 11.12.2019
6663 Clouds 9 1014 81 10000 5.1 70 14:54 11.12.2019
6664 Clouds 9 1015 87 10000 2.6 40 14:36 11.12.2019
6665 Clouds 9 1015 87 10000 2.6 40 14:18 11.12.2019
6666 Rain 10 1015 87 10000 4.6 30 13:41 11.12.2019
6667 Clouds 10 1015 87 10000 6.2 30 13:21 11.12.2019
6668 Clouds 10 1015 87 10000 6.2 30 13:21 11.12.2019
6669 Clouds 10 1015 87 10000 4.6 20 12:57 11.12.2019
6670 Clouds 10 1015 87 10000 4.6 20 12:38 11.12.2019
6671 Clouds 10 1015 93 10000 4.6 20 12:20 11.12.2019
6672 Rain 8 1015 81 10000 5.7 30 11:57 11.12.2019
6673 Clouds 8 1016 87 10000 4.6 60 11:38 11.12.2019
6674 Clouds 8 1016 87 10000 4.6 60 11:18 11.12.2019
6675 Clouds 8 1016 87 10000 4.6 60 11:18 11.12.2019
6676 Clouds 7 1016 87 10000 3.1 0 10:56 11.12.2019
6677 Clouds 6 1017 93 8000 2.6 10 10:38 11.12.2019
6678 Clouds 6 1017 93 8000 2.6 10 10:19 11.12.2019
6679 Clouds 6 1017 93 10000 3.1 20 09:41 11.12.2019
6680 Clouds 6 1017 93 8000 3.6 40 09:21 11.12.2019
6681 Clouds 6 1017 93 8000 3.6 30 08:58 11.12.2019
6682 Clouds 6 1017 93 8000 3.6 30 08:38 11.12.2019
6683 Clouds 5 1017 93 8000 4.1 20 08:19 11.12.2019
6684 Clouds 5 1017 93 8000 4.1 20 07:55 11.12.2019
6685 Clouds 5 1017 93 8000 4.1 20 07:37 11.12.2019
6686 Clouds 5 1017 93 8000 2.6 20 07:18 11.12.2019
6687 Clouds 5 1017 93 8000 2.6 20 07:18 11.12.2019
6688 Clouds 5 1016 93 10000 4.1 30 06:43 11.12.2019
6689 Clouds 4 1016 100 9000 1.5 120 06:22 11.12.2019
6690 Clouds 4 1016 100 8000 2.1 40 05:41 11.12.2019
6691 Mist 4 1016 100 4400 2.6 200 05:19 11.12.2019
6692 Mist 3 1016 100 3600 1 0 04:27 11.12.2019
6693 Mist 3 1016 100 4900 1 0 02:49 11.12.2019
6694 Mist 2 1016 100 2300 3.27 347 01:25 11.12.2019
6695 Fog 2 1016 100 4500 3.27 347 00:47 11.12.2019
6696 Mist 2 1016 100 5000 0.5 0 00:21 11.12.2019
6697 Mist 2 1016 100 5000 0.5 0 23:49 10.12.2019
6698 Fog 2 1016 100 4200 2.1 280 23:30 10.12.2019
6699 Clouds 3 1016 93 7000 2.6 20 22:58 10.12.2019
6700 Clouds 3 1016 93 7000 2.6 20 22:40 10.12.2019
6701 Clouds 3 1016 93 7000 2.6 20 22:40 10.12.2019
6702 Clouds 3 1016 100 7000 1.5 10 22:22 10.12.2019
6703 Clouds 3 1015 100 6000 2.6 10 21:56 10.12.2019
6704 Clouds 4 1015 100 6000 2.6 10 21:38 10.12.2019
6705 Clouds 5 1015 100 6000</